<?xml version="1.0" encoding="utf-8"?>
<gpx xmlns:xsi="http://www.w3.org/2001/XMLSchema-instance" xmlns:xsd="http://www.w3.org/2001/XMLSchema" version="1.1" creator="Shapelink.com" xmlns="http://www.topografix.com/GPX/1/1" xmlns:gpxtpx="http://www.garmin.com/xmlschemas/TrackPointExtension/v1">
  <metadata>
    <name>Mtb 13.42 km, 2014-05-29</name>
    <desc></desc>
    <author><name>Mikael Blom</name></author> 
    <time>2014-05-29T13:28:47Z</time>
  </metadata>
  <trk>
    <name>Mtb 13.42 km, 2014-05-29</name>
    <trkseg>
      <trkpt lat="59.8988775" lon="17.6324857">
        <ele>34.2642</ele>
        <time>2014-05-29T13:28:47Z</time>
      </trkpt>
      <trkpt lat="59.8988744" lon="17.632492">
        <ele>34.2642</ele>
        <time>2014-05-29T13:28:48Z</time>
      </trkpt>
      <trkpt lat="59.8988653" lon="17.6325017">
        <ele>33.7834</ele>
        <time>2014-05-29T13:28:49Z</time>
      </trkpt>
      <trkpt lat="59.8988486" lon="17.6325055">
        <ele>33.7834</ele>
        <time>2014-05-29T13:28:50Z</time>
      </trkpt>
      <trkpt lat="59.8988289" lon="17.6324951">
        <ele>33.7834</ele>
        <time>2014-05-29T13:28:51Z</time>
      </trkpt>
      <trkpt lat="59.8988117" lon="17.6324715">
        <ele>33.3029</ele>
        <time>2014-05-29T13:28:52Z</time>
      </trkpt>
      <trkpt lat="59.8987915" lon="17.63245">
        <ele>33.3029</ele>
        <time>2014-05-29T13:28:53Z</time>
      </trkpt>
      <trkpt lat="59.8987645" lon="17.6324298">
        <ele>32.8223</ele>
        <time>2014-05-29T13:28:54Z</time>
      </trkpt>
      <trkpt lat="59.8987326" lon="17.6324121">
        <ele>32.3416</ele>
        <time>2014-05-29T13:28:55Z</time>
      </trkpt>
      <trkpt lat="59.8986963" lon="17.6324038">
        <ele>32.3416</ele>
        <time>2014-05-29T13:28:56Z</time>
      </trkpt>
      <trkpt lat="59.8986547" lon="17.6324049">
        <ele>31.8607</ele>
        <time>2014-05-29T13:28:57Z</time>
      </trkpt>
      <trkpt lat="59.8986092" lon="17.6324147">
        <ele>31.3801</ele>
        <time>2014-05-29T13:28:58Z</time>
      </trkpt>
      <trkpt lat="59.8985606" lon="17.632437">
        <ele>30.8995</ele>
        <time>2014-05-29T13:28:59Z</time>
      </trkpt>
      <trkpt lat="59.8985118" lon="17.6324731">
        <ele>30.8995</ele>
        <time>2014-05-29T13:29:00Z</time>
      </trkpt>
      <trkpt lat="59.8984661" lon="17.6325211">
        <ele>30.8995</ele>
        <time>2014-05-29T13:29:01Z</time>
      </trkpt>
      <trkpt lat="59.8984248" lon="17.63258">
        <ele>30.8995</ele>
        <time>2014-05-29T13:29:02Z</time>
      </trkpt>
      <trkpt lat="59.8983884" lon="17.6326468">
        <ele>30.8995</ele>
        <time>2014-05-29T13:29:03Z</time>
      </trkpt>
      <trkpt lat="59.8983556" lon="17.6327207">
        <ele>30.8995</ele>
        <time>2014-05-29T13:29:04Z</time>
      </trkpt>
      <trkpt lat="59.8983258" lon="17.6328032">
        <ele>30.8995</ele>
        <time>2014-05-29T13:29:05Z</time>
      </trkpt>
      <trkpt lat="59.8982991" lon="17.6328917">
        <ele>30.8995</ele>
        <time>2014-05-29T13:29:06Z</time>
      </trkpt>
      <trkpt lat="59.8982762" lon="17.6329866">
        <ele>30.8995</ele>
        <time>2014-05-29T13:29:07Z</time>
      </trkpt>
      <trkpt lat="59.8982569" lon="17.6330913">
        <ele>30.8995</ele>
        <time>2014-05-29T13:29:08Z</time>
      </trkpt>
      <trkpt lat="59.8982409" lon="17.6332054">
        <ele>30.4188</ele>
        <time>2014-05-29T13:29:09Z</time>
      </trkpt>
      <trkpt lat="59.8982292" lon="17.6333254">
        <ele>30.4188</ele>
        <time>2014-05-29T13:29:10Z</time>
      </trkpt>
      <trkpt lat="59.8982175" lon="17.6334478">
        <ele>29.9381</ele>
        <time>2014-05-29T13:29:11Z</time>
      </trkpt>
      <trkpt lat="59.8981891" lon="17.6335781">
        <ele>29.4575</ele>
        <time>2014-05-29T13:29:12Z</time>
      </trkpt>
      <trkpt lat="59.8981714" lon="17.6337062">
        <ele>29.4575</ele>
        <time>2014-05-29T13:29:13Z</time>
      </trkpt>
      <trkpt lat="59.8981575" lon="17.6338247">
        <ele>28.9769</ele>
        <time>2014-05-29T13:29:14Z</time>
      </trkpt>
      <trkpt lat="59.8981436" lon="17.6339414">
        <ele>28.9769</ele>
        <time>2014-05-29T13:29:15Z</time>
      </trkpt>
      <trkpt lat="59.8981302" lon="17.6340534">
        <ele>28.4962</ele>
        <time>2014-05-29T13:29:16Z</time>
      </trkpt>
      <trkpt lat="59.8981175" lon="17.6341651">
        <ele>28.0155</ele>
        <time>2014-05-29T13:29:17Z</time>
      </trkpt>
      <trkpt lat="59.8981006" lon="17.634281">
        <ele>28.0155</ele>
        <time>2014-05-29T13:29:18Z</time>
      </trkpt>
      <trkpt lat="59.8980851" lon="17.6343832">
        <ele>28.0155</ele>
        <time>2014-05-29T13:29:19Z</time>
      </trkpt>
      <trkpt lat="59.8980721" lon="17.6344743">
        <ele>28.0155</ele>
        <time>2014-05-29T13:29:20Z</time>
      </trkpt>
      <trkpt lat="59.8980618" lon="17.6345617">
        <ele>27.5349</ele>
        <time>2014-05-29T13:29:21Z</time>
      </trkpt>
      <trkpt lat="59.8980473" lon="17.6346489">
        <ele>27.5349</ele>
        <time>2014-05-29T13:29:22Z</time>
      </trkpt>
      <trkpt lat="59.8980287" lon="17.6347378">
        <ele>27.5349</ele>
        <time>2014-05-29T13:29:23Z</time>
      </trkpt>
      <trkpt lat="59.8980079" lon="17.634828">
        <ele>27.0543</ele>
        <time>2014-05-29T13:29:24Z</time>
      </trkpt>
      <trkpt lat="59.897979" lon="17.6349153">
        <ele>27.0543</ele>
        <time>2014-05-29T13:29:25Z</time>
      </trkpt>
      <trkpt lat="59.8979429" lon="17.6349918">
        <ele>27.0543</ele>
        <time>2014-05-29T13:29:26Z</time>
      </trkpt>
      <trkpt lat="59.8979033" lon="17.6350551">
        <ele>26.5736</ele>
        <time>2014-05-29T13:29:27Z</time>
      </trkpt>
      <trkpt lat="59.8978642" lon="17.6351113">
        <ele>26.5736</ele>
        <time>2014-05-29T13:29:28Z</time>
      </trkpt>
      <trkpt lat="59.8978274" lon="17.6351648">
        <ele>27.0543</ele>
        <time>2014-05-29T13:29:29Z</time>
      </trkpt>
      <trkpt lat="59.8977934" lon="17.6352193">
        <ele>27.0543</ele>
        <time>2014-05-29T13:29:30Z</time>
      </trkpt>
      <trkpt lat="59.8977618" lon="17.6352779">
        <ele>27.0543</ele>
        <time>2014-05-29T13:29:31Z</time>
      </trkpt>
      <trkpt lat="59.8977321" lon="17.6353441">
        <ele>26.5736</ele>
        <time>2014-05-29T13:29:32Z</time>
      </trkpt>
      <trkpt lat="59.8977053" lon="17.6354136">
        <ele>26.5736</ele>
        <time>2014-05-29T13:29:33Z</time>
      </trkpt>
      <trkpt lat="59.897679" lon="17.6354886">
        <ele>26.5736</ele>
        <time>2014-05-29T13:29:34Z</time>
      </trkpt>
      <trkpt lat="59.8976536" lon="17.6355641">
        <ele>27.0543</ele>
        <time>2014-05-29T13:29:35Z</time>
      </trkpt>
      <trkpt lat="59.8976304" lon="17.6356317">
        <ele>27.0543</ele>
        <time>2014-05-29T13:29:36Z</time>
      </trkpt>
      <trkpt lat="59.8976095" lon="17.6356957">
        <ele>27.5349</ele>
        <time>2014-05-29T13:29:37Z</time>
      </trkpt>
      <trkpt lat="59.89759" lon="17.6357529">
        <ele>27.5349</ele>
        <time>2014-05-29T13:29:38Z</time>
      </trkpt>
      <trkpt lat="59.8975724" lon="17.6358092">
        <ele>27.5349</ele>
        <time>2014-05-29T13:29:39Z</time>
      </trkpt>
      <trkpt lat="59.8975546" lon="17.6358709">
        <ele>27.5349</ele>
        <time>2014-05-29T13:29:40Z</time>
      </trkpt>
      <trkpt lat="59.8975365" lon="17.6359353">
        <ele>27.0543</ele>
        <time>2014-05-29T13:29:41Z</time>
      </trkpt>
      <trkpt lat="59.8975183" lon="17.635998">
        <ele>27.0543</ele>
        <time>2014-05-29T13:29:42Z</time>
      </trkpt>
      <trkpt lat="59.8974995" lon="17.6360573">
        <ele>27.5349</ele>
        <time>2014-05-29T13:29:43Z</time>
      </trkpt>
      <trkpt lat="59.8974807" lon="17.6361097">
        <ele>28.0155</ele>
        <time>2014-05-29T13:29:44Z</time>
      </trkpt>
      <trkpt lat="59.897466" lon="17.6361574">
        <ele>28.0155</ele>
        <time>2014-05-29T13:29:45Z</time>
      </trkpt>
      <trkpt lat="59.897454" lon="17.6362106">
        <ele>28.0155</ele>
        <time>2014-05-29T13:29:46Z</time>
      </trkpt>
      <trkpt lat="59.8974464" lon="17.6362677">
        <ele>28.4962</ele>
        <time>2014-05-29T13:29:47Z</time>
      </trkpt>
      <trkpt lat="59.8974438" lon="17.6363216">
        <ele>28.9769</ele>
        <time>2014-05-29T13:29:48Z</time>
      </trkpt>
      <trkpt lat="59.8974405" lon="17.6363657">
        <ele>28.9769</ele>
        <time>2014-05-29T13:29:49Z</time>
      </trkpt>
      <trkpt lat="59.8974312" lon="17.636404">
        <ele>28.9769</ele>
        <time>2014-05-29T13:29:50Z</time>
      </trkpt>
      <trkpt lat="59.8974198" lon="17.6364372">
        <ele>28.9769</ele>
        <time>2014-05-29T13:29:51Z</time>
      </trkpt>
      <trkpt lat="59.8974109" lon="17.6364641">
        <ele>28.9769</ele>
        <time>2014-05-29T13:29:52Z</time>
      </trkpt>
      <trkpt lat="59.8974069" lon="17.6364869">
        <ele>28.9769</ele>
        <time>2014-05-29T13:29:53Z</time>
      </trkpt>
      <trkpt lat="59.8974081" lon="17.6365063">
        <ele>28.9769</ele>
        <time>2014-05-29T13:29:54Z</time>
      </trkpt>
      <trkpt lat="59.8974162" lon="17.6365211">
        <ele>29.4575</ele>
        <time>2014-05-29T13:29:55Z</time>
      </trkpt>
      <trkpt lat="59.8974309" lon="17.6365293">
        <ele>29.4575</ele>
        <time>2014-05-29T13:29:56Z</time>
      </trkpt>
      <trkpt lat="59.897451" lon="17.6365288">
        <ele>29.4575</ele>
        <time>2014-05-29T13:29:57Z</time>
      </trkpt>
      <trkpt lat="59.897478" lon="17.636523">
        <ele>29.9381</ele>
        <time>2014-05-29T13:29:58Z</time>
      </trkpt>
      <trkpt lat="59.8975075" lon="17.6365288">
        <ele>29.9381</ele>
        <time>2014-05-29T13:29:59Z</time>
      </trkpt>
      <trkpt lat="59.8975381" lon="17.6365495">
        <ele>29.9381</ele>
        <time>2014-05-29T13:30:00Z</time>
      </trkpt>
      <trkpt lat="59.8975681" lon="17.6365868">
        <ele>29.9381</ele>
        <time>2014-05-29T13:30:01Z</time>
      </trkpt>
      <trkpt lat="59.8975993" lon="17.6366283">
        <ele>29.4575</ele>
        <time>2014-05-29T13:30:02Z</time>
      </trkpt>
      <trkpt lat="59.8976332" lon="17.6366661">
        <ele>29.4575</ele>
        <time>2014-05-29T13:30:03Z</time>
      </trkpt>
      <trkpt lat="59.897668" lon="17.6366967">
        <ele>29.4575</ele>
        <time>2014-05-29T13:30:04Z</time>
      </trkpt>
      <trkpt lat="59.8977046" lon="17.6367277">
        <ele>29.4575</ele>
        <time>2014-05-29T13:30:05Z</time>
      </trkpt>
      <trkpt lat="59.8977374" lon="17.6367619">
        <ele>28.9769</ele>
        <time>2014-05-29T13:30:06Z</time>
      </trkpt>
      <trkpt lat="59.897768" lon="17.6367977">
        <ele>28.9769</ele>
        <time>2014-05-29T13:30:07Z</time>
      </trkpt>
      <trkpt lat="59.8977991" lon="17.636829">
        <ele>28.9769</ele>
        <time>2014-05-29T13:30:08Z</time>
      </trkpt>
      <trkpt lat="59.8978321" lon="17.6368625">
        <ele>28.4962</ele>
        <time>2014-05-29T13:30:09Z</time>
      </trkpt>
      <trkpt lat="59.8978668" lon="17.636904">
        <ele>28.0155</ele>
        <time>2014-05-29T13:30:10Z</time>
      </trkpt>
      <trkpt lat="59.8979017" lon="17.6369532">
        <ele>27.5349</ele>
        <time>2014-05-29T13:30:11Z</time>
      </trkpt>
      <trkpt lat="59.8979368" lon="17.6370024">
        <ele>27.5349</ele>
        <time>2014-05-29T13:30:12Z</time>
      </trkpt>
      <trkpt lat="59.8979707" lon="17.6370473">
        <ele>27.5349</ele>
        <time>2014-05-29T13:30:13Z</time>
      </trkpt>
      <trkpt lat="59.8980051" lon="17.6370873">
        <ele>27.5349</ele>
        <time>2014-05-29T13:30:14Z</time>
      </trkpt>
      <trkpt lat="59.8980384" lon="17.6371219">
        <ele>27.5349</ele>
        <time>2014-05-29T13:30:15Z</time>
      </trkpt>
      <trkpt lat="59.8980689" lon="17.6371559">
        <ele>27.5349</ele>
        <time>2014-05-29T13:30:16Z</time>
      </trkpt>
      <trkpt lat="59.8980976" lon="17.6371903">
        <ele>27.0543</ele>
        <time>2014-05-29T13:30:17Z</time>
      </trkpt>
      <trkpt lat="59.8981271" lon="17.637223">
        <ele>27.0543</ele>
        <time>2014-05-29T13:30:18Z</time>
      </trkpt>
      <trkpt lat="59.8981586" lon="17.637256">
        <ele>27.0543</ele>
        <time>2014-05-29T13:30:19Z</time>
      </trkpt>
      <trkpt lat="59.8981902" lon="17.6372887">
        <ele>27.0543</ele>
        <time>2014-05-29T13:30:20Z</time>
      </trkpt>
      <trkpt lat="59.8982218" lon="17.6373215">
        <ele>26.5736</ele>
        <time>2014-05-29T13:30:21Z</time>
      </trkpt>
      <trkpt lat="59.8982563" lon="17.6373576">
        <ele>26.5736</ele>
        <time>2014-05-29T13:30:22Z</time>
      </trkpt>
      <trkpt lat="59.8982923" lon="17.6373965">
        <ele>26.0929</ele>
        <time>2014-05-29T13:30:23Z</time>
      </trkpt>
      <trkpt lat="59.8983338" lon="17.6374379">
        <ele>26.5736</ele>
        <time>2014-05-29T13:30:24Z</time>
      </trkpt>
      <trkpt lat="59.8983768" lon="17.6374798">
        <ele>26.5736</ele>
        <time>2014-05-29T13:30:25Z</time>
      </trkpt>
      <trkpt lat="59.8984192" lon="17.6375198">
        <ele>26.0929</ele>
        <time>2014-05-29T13:30:26Z</time>
      </trkpt>
      <trkpt lat="59.898464" lon="17.637555">
        <ele>26.0929</ele>
        <time>2014-05-29T13:30:27Z</time>
      </trkpt>
      <trkpt lat="59.8985093" lon="17.6375871">
        <ele>25.6123</ele>
        <time>2014-05-29T13:30:28Z</time>
      </trkpt>
      <trkpt lat="59.8985512" lon="17.6376181">
        <ele>25.6123</ele>
        <time>2014-05-29T13:30:29Z</time>
      </trkpt>
      <trkpt lat="59.8985937" lon="17.6376392">
        <ele>26.0929</ele>
        <time>2014-05-29T13:30:30Z</time>
      </trkpt>
      <trkpt lat="59.8986347" lon="17.6376451">
        <ele>26.5736</ele>
        <time>2014-05-29T13:30:31Z</time>
      </trkpt>
      <trkpt lat="59.8986726" lon="17.6376508">
        <ele>26.5736</ele>
        <time>2014-05-29T13:30:32Z</time>
      </trkpt>
      <trkpt lat="59.8987088" lon="17.6376545">
        <ele>26.5736</ele>
        <time>2014-05-29T13:30:33Z</time>
      </trkpt>
      <trkpt lat="59.8987454" lon="17.637653">
        <ele>27.0543</ele>
        <time>2014-05-29T13:30:34Z</time>
      </trkpt>
      <trkpt lat="59.8987835" lon="17.6376561">
        <ele>27.0543</ele>
        <time>2014-05-29T13:30:35Z</time>
      </trkpt>
      <trkpt lat="59.8988233" lon="17.6376669">
        <ele>27.0543</ele>
        <time>2014-05-29T13:30:36Z</time>
      </trkpt>
      <trkpt lat="59.8988651" lon="17.6376823">
        <ele>27.0543</ele>
        <time>2014-05-29T13:30:37Z</time>
      </trkpt>
      <trkpt lat="59.8989072" lon="17.6377062">
        <ele>27.0543</ele>
        <time>2014-05-29T13:30:38Z</time>
      </trkpt>
      <trkpt lat="59.8989485" lon="17.6377394">
        <ele>27.0543</ele>
        <time>2014-05-29T13:30:39Z</time>
      </trkpt>
      <trkpt lat="59.898989" lon="17.6377788">
        <ele>27.0543</ele>
        <time>2014-05-29T13:30:40Z</time>
      </trkpt>
      <trkpt lat="59.8990284" lon="17.6378218">
        <ele>27.0543</ele>
        <time>2014-05-29T13:30:41Z</time>
      </trkpt>
      <trkpt lat="59.8990662" lon="17.637864">
        <ele>27.0543</ele>
        <time>2014-05-29T13:30:42Z</time>
      </trkpt>
      <trkpt lat="59.8991035" lon="17.6379036">
        <ele>27.0543</ele>
        <time>2014-05-29T13:30:43Z</time>
      </trkpt>
      <trkpt lat="59.8991387" lon="17.6379404">
        <ele>27.0543</ele>
        <time>2014-05-29T13:30:44Z</time>
      </trkpt>
      <trkpt lat="59.8991718" lon="17.637976">
        <ele>26.5736</ele>
        <time>2014-05-29T13:30:45Z</time>
      </trkpt>
      <trkpt lat="59.8992074" lon="17.6380129">
        <ele>26.5736</ele>
        <time>2014-05-29T13:30:46Z</time>
      </trkpt>
      <trkpt lat="59.8992431" lon="17.6380497">
        <ele>26.5736</ele>
        <time>2014-05-29T13:30:47Z</time>
      </trkpt>
      <trkpt lat="59.8992766" lon="17.6380828">
        <ele>26.5736</ele>
        <time>2014-05-29T13:30:48Z</time>
      </trkpt>
      <trkpt lat="59.8993086" lon="17.6381111">
        <ele>27.0543</ele>
        <time>2014-05-29T13:30:49Z</time>
      </trkpt>
      <trkpt lat="59.8993367" lon="17.6381365">
        <ele>27.0543</ele>
        <time>2014-05-29T13:30:50Z</time>
      </trkpt>
      <trkpt lat="59.8993644" lon="17.638159">
        <ele>27.0543</ele>
        <time>2014-05-29T13:30:51Z</time>
      </trkpt>
      <trkpt lat="59.8993929" lon="17.6381808">
        <ele>27.0543</ele>
        <time>2014-05-29T13:30:52Z</time>
      </trkpt>
      <trkpt lat="59.8994206" lon="17.6382024">
        <ele>27.0543</ele>
        <time>2014-05-29T13:30:53Z</time>
      </trkpt>
      <trkpt lat="59.8994503" lon="17.638222">
        <ele>27.0543</ele>
        <time>2014-05-29T13:30:54Z</time>
      </trkpt>
      <trkpt lat="59.8994827" lon="17.6382439">
        <ele>27.0543</ele>
        <time>2014-05-29T13:30:55Z</time>
      </trkpt>
      <trkpt lat="59.8995156" lon="17.6382693">
        <ele>27.5349</ele>
        <time>2014-05-29T13:30:56Z</time>
      </trkpt>
      <trkpt lat="59.899551" lon="17.6382947">
        <ele>27.5349</ele>
        <time>2014-05-29T13:30:57Z</time>
      </trkpt>
      <trkpt lat="59.8995888" lon="17.6383197">
        <ele>27.5349</ele>
        <time>2014-05-29T13:30:58Z</time>
      </trkpt>
      <trkpt lat="59.8996278" lon="17.638348">
        <ele>27.5349</ele>
        <time>2014-05-29T13:30:59Z</time>
      </trkpt>
      <trkpt lat="59.8996687" lon="17.6383781">
        <ele>27.5349</ele>
        <time>2014-05-29T13:31:00Z</time>
      </trkpt>
      <trkpt lat="59.8997084" lon="17.6384071">
        <ele>27.5349</ele>
        <time>2014-05-29T13:31:01Z</time>
      </trkpt>
      <trkpt lat="59.8997438" lon="17.6384336">
        <ele>27.0543</ele>
        <time>2014-05-29T13:31:02Z</time>
      </trkpt>
      <trkpt lat="59.8997767" lon="17.6384572">
        <ele>27.0543</ele>
        <time>2014-05-29T13:31:03Z</time>
      </trkpt>
      <trkpt lat="59.899808" lon="17.6384791">
        <ele>27.0543</ele>
        <time>2014-05-29T13:31:04Z</time>
      </trkpt>
      <trkpt lat="59.8998392" lon="17.6385024">
        <ele>27.0543</ele>
        <time>2014-05-29T13:31:05Z</time>
      </trkpt>
      <trkpt lat="59.8998743" lon="17.6385253">
        <ele>27.0543</ele>
        <time>2014-05-29T13:31:06Z</time>
      </trkpt>
      <trkpt lat="59.8999126" lon="17.6385515">
        <ele>27.0543</ele>
        <time>2014-05-29T13:31:07Z</time>
      </trkpt>
      <trkpt lat="59.8999525" lon="17.6385815">
        <ele>26.5736</ele>
        <time>2014-05-29T13:31:08Z</time>
      </trkpt>
      <trkpt lat="59.8999949" lon="17.6386129">
        <ele>26.5736</ele>
        <time>2014-05-29T13:31:09Z</time>
      </trkpt>
      <trkpt lat="59.9000374" lon="17.6386434">
        <ele>26.5736</ele>
        <time>2014-05-29T13:31:10Z</time>
      </trkpt>
      <trkpt lat="59.9000768" lon="17.6386742">
        <ele>26.0929</ele>
        <time>2014-05-29T13:31:11Z</time>
      </trkpt>
      <trkpt lat="59.9001141" lon="17.6387042">
        <ele>26.0929</ele>
        <time>2014-05-29T13:31:12Z</time>
      </trkpt>
      <trkpt lat="59.9001494" lon="17.6387317">
        <ele>26.0929</ele>
        <time>2014-05-29T13:31:13Z</time>
      </trkpt>
      <trkpt lat="59.900184" lon="17.6387582">
        <ele>26.0929</ele>
        <time>2014-05-29T13:31:14Z</time>
      </trkpt>
      <trkpt lat="59.9002175" lon="17.6387833">
        <ele>26.0929</ele>
        <time>2014-05-29T13:31:15Z</time>
      </trkpt>
      <trkpt lat="59.9002494" lon="17.6388075">
        <ele>26.0929</ele>
        <time>2014-05-29T13:31:16Z</time>
      </trkpt>
      <trkpt lat="59.9002795" lon="17.6388307">
        <ele>26.0929</ele>
        <time>2014-05-29T13:31:17Z</time>
      </trkpt>
      <trkpt lat="59.9003083" lon="17.6388526">
        <ele>25.6123</ele>
        <time>2014-05-29T13:31:18Z</time>
      </trkpt>
      <trkpt lat="59.9003347" lon="17.6388748">
        <ele>25.6123</ele>
        <time>2014-05-29T13:31:19Z</time>
      </trkpt>
      <trkpt lat="59.900361" lon="17.6388971">
        <ele>25.6123</ele>
        <time>2014-05-29T13:31:20Z</time>
      </trkpt>
      <trkpt lat="59.9003902" lon="17.638921">
        <ele>25.6123</ele>
        <time>2014-05-29T13:31:21Z</time>
      </trkpt>
      <trkpt lat="59.9004217" lon="17.6389462">
        <ele>25.6123</ele>
        <time>2014-05-29T13:31:22Z</time>
      </trkpt>
      <trkpt lat="59.9004556" lon="17.6389717">
        <ele>25.1317</ele>
        <time>2014-05-29T13:31:23Z</time>
      </trkpt>
      <trkpt lat="59.9004908" lon="17.6390008">
        <ele>25.1317</ele>
        <time>2014-05-29T13:31:24Z</time>
      </trkpt>
      <trkpt lat="59.900527" lon="17.6390335">
        <ele>25.1317</ele>
        <time>2014-05-29T13:31:25Z</time>
      </trkpt>
      <trkpt lat="59.9005638" lon="17.6390682">
        <ele>24.651</ele>
        <time>2014-05-29T13:31:26Z</time>
      </trkpt>
      <trkpt lat="59.9006016" lon="17.6391017">
        <ele>24.651</ele>
        <time>2014-05-29T13:31:27Z</time>
      </trkpt>
      <trkpt lat="59.900641" lon="17.6391344">
        <ele>24.651</ele>
        <time>2014-05-29T13:31:28Z</time>
      </trkpt>
      <trkpt lat="59.9006807" lon="17.6391689">
        <ele>24.651</ele>
        <time>2014-05-29T13:31:29Z</time>
      </trkpt>
      <trkpt lat="59.9007206" lon="17.6392015">
        <ele>24.1703</ele>
        <time>2014-05-29T13:31:30Z</time>
      </trkpt>
      <trkpt lat="59.9007606" lon="17.6392332">
        <ele>24.651</ele>
        <time>2014-05-29T13:31:31Z</time>
      </trkpt>
      <trkpt lat="59.9008001" lon="17.6392685">
        <ele>24.1703</ele>
        <time>2014-05-29T13:31:32Z</time>
      </trkpt>
      <trkpt lat="59.9008403" lon="17.639306">
        <ele>24.1703</ele>
        <time>2014-05-29T13:31:33Z</time>
      </trkpt>
      <trkpt lat="59.9008791" lon="17.6393421">
        <ele>24.1703</ele>
        <time>2014-05-29T13:31:34Z</time>
      </trkpt>
      <trkpt lat="59.9009154" lon="17.6393732">
        <ele>24.1703</ele>
        <time>2014-05-29T13:31:35Z</time>
      </trkpt>
      <trkpt lat="59.9009493" lon="17.639402">
        <ele>24.1703</ele>
        <time>2014-05-29T13:31:36Z</time>
      </trkpt>
      <trkpt lat="59.9009807" lon="17.6394291">
        <ele>24.1703</ele>
        <time>2014-05-29T13:31:37Z</time>
      </trkpt>
      <trkpt lat="59.9010107" lon="17.6394543">
        <ele>24.1703</ele>
        <time>2014-05-29T13:31:38Z</time>
      </trkpt>
      <trkpt lat="59.9010382" lon="17.6394797">
        <ele>24.1703</ele>
        <time>2014-05-29T13:31:39Z</time>
      </trkpt>
      <trkpt lat="59.9010635" lon="17.6395037">
        <ele>24.1703</ele>
        <time>2014-05-29T13:31:40Z</time>
      </trkpt>
      <trkpt lat="59.9010869" lon="17.6395265">
        <ele>24.1703</ele>
        <time>2014-05-29T13:31:41Z</time>
      </trkpt>
      <trkpt lat="59.9011102" lon="17.6395509">
        <ele>24.1703</ele>
        <time>2014-05-29T13:31:42Z</time>
      </trkpt>
      <trkpt lat="59.9011361" lon="17.6395747">
        <ele>23.6896</ele>
        <time>2014-05-29T13:31:43Z</time>
      </trkpt>
      <trkpt lat="59.901163" lon="17.6396001">
        <ele>23.6896</ele>
        <time>2014-05-29T13:31:44Z</time>
      </trkpt>
      <trkpt lat="59.9011924" lon="17.6396284">
        <ele>23.6896</ele>
        <time>2014-05-29T13:31:45Z</time>
      </trkpt>
      <trkpt lat="59.9012238" lon="17.639657">
        <ele>23.6896</ele>
        <time>2014-05-29T13:31:46Z</time>
      </trkpt>
      <trkpt lat="59.9012557" lon="17.6396881">
        <ele>23.6896</ele>
        <time>2014-05-29T13:31:47Z</time>
      </trkpt>
      <trkpt lat="59.901289" lon="17.6397193">
        <ele>23.6896</ele>
        <time>2014-05-29T13:31:48Z</time>
      </trkpt>
      <trkpt lat="59.9013236" lon="17.6397513">
        <ele>23.6896</ele>
        <time>2014-05-29T13:31:49Z</time>
      </trkpt>
      <trkpt lat="59.9013584" lon="17.6397845">
        <ele>23.6896</ele>
        <time>2014-05-29T13:31:50Z</time>
      </trkpt>
      <trkpt lat="59.9013934" lon="17.6398187">
        <ele>23.6896</ele>
        <time>2014-05-29T13:31:51Z</time>
      </trkpt>
      <trkpt lat="59.9014298" lon="17.639855">
        <ele>23.6896</ele>
        <time>2014-05-29T13:31:52Z</time>
      </trkpt>
      <trkpt lat="59.9014681" lon="17.6398917">
        <ele>23.6896</ele>
        <time>2014-05-29T13:31:53Z</time>
      </trkpt>
      <trkpt lat="59.9015071" lon="17.639926">
        <ele>23.209</ele>
        <time>2014-05-29T13:31:54Z</time>
      </trkpt>
      <trkpt lat="59.9015444" lon="17.639959">
        <ele>23.209</ele>
        <time>2014-05-29T13:31:55Z</time>
      </trkpt>
      <trkpt lat="59.9015791" lon="17.6399934">
        <ele>23.209</ele>
        <time>2014-05-29T13:31:56Z</time>
      </trkpt>
      <trkpt lat="59.9016113" lon="17.6400252">
        <ele>23.209</ele>
        <time>2014-05-29T13:31:57Z</time>
      </trkpt>
      <trkpt lat="59.9016426" lon="17.6400545">
        <ele>22.7283</ele>
        <time>2014-05-29T13:31:58Z</time>
      </trkpt>
      <trkpt lat="59.9016712" lon="17.6400855">
        <ele>22.7283</ele>
        <time>2014-05-29T13:31:59Z</time>
      </trkpt>
      <trkpt lat="59.9016975" lon="17.640114">
        <ele>22.7283</ele>
        <time>2014-05-29T13:32:00Z</time>
      </trkpt>
      <trkpt lat="59.901721" lon="17.6401388">
        <ele>22.7283</ele>
        <time>2014-05-29T13:32:01Z</time>
      </trkpt>
      <trkpt lat="59.9017452" lon="17.6401628">
        <ele>22.7283</ele>
        <time>2014-05-29T13:32:02Z</time>
      </trkpt>
      <trkpt lat="59.9017712" lon="17.6401875">
        <ele>22.7283</ele>
        <time>2014-05-29T13:32:03Z</time>
      </trkpt>
      <trkpt lat="59.901799" lon="17.6402133">
        <ele>22.7283</ele>
        <time>2014-05-29T13:32:04Z</time>
      </trkpt>
      <trkpt lat="59.9018298" lon="17.6402399">
        <ele>22.7283</ele>
        <time>2014-05-29T13:32:05Z</time>
      </trkpt>
      <trkpt lat="59.9018619" lon="17.6402699">
        <ele>22.7283</ele>
        <time>2014-05-29T13:32:06Z</time>
      </trkpt>
      <trkpt lat="59.9018935" lon="17.6403044">
        <ele>22.7283</ele>
        <time>2014-05-29T13:32:07Z</time>
      </trkpt>
      <trkpt lat="59.9019277" lon="17.6403399">
        <ele>22.7283</ele>
        <time>2014-05-29T13:32:08Z</time>
      </trkpt>
      <trkpt lat="59.9019645" lon="17.640374">
        <ele>22.7283</ele>
        <time>2014-05-29T13:32:09Z</time>
      </trkpt>
      <trkpt lat="59.9020028" lon="17.6404082">
        <ele>22.7283</ele>
        <time>2014-05-29T13:32:10Z</time>
      </trkpt>
      <trkpt lat="59.9020421" lon="17.6404437">
        <ele>22.7283</ele>
        <time>2014-05-29T13:32:11Z</time>
      </trkpt>
      <trkpt lat="59.9020834" lon="17.6404803">
        <ele>22.7283</ele>
        <time>2014-05-29T13:32:12Z</time>
      </trkpt>
      <trkpt lat="59.9021253" lon="17.6405211">
        <ele>22.7283</ele>
        <time>2014-05-29T13:32:13Z</time>
      </trkpt>
      <trkpt lat="59.902168" lon="17.6405658">
        <ele>22.7283</ele>
        <time>2014-05-29T13:32:14Z</time>
      </trkpt>
      <trkpt lat="59.902211" lon="17.6406121">
        <ele>22.7283</ele>
        <time>2014-05-29T13:32:15Z</time>
      </trkpt>
      <trkpt lat="59.9022565" lon="17.6406561">
        <ele>22.7283</ele>
        <time>2014-05-29T13:32:16Z</time>
      </trkpt>
      <trkpt lat="59.9023017" lon="17.6406957">
        <ele>22.7283</ele>
        <time>2014-05-29T13:32:17Z</time>
      </trkpt>
      <trkpt lat="59.9023441" lon="17.640733">
        <ele>22.7283</ele>
        <time>2014-05-29T13:32:18Z</time>
      </trkpt>
      <trkpt lat="59.9023846" lon="17.6407688">
        <ele>22.7283</ele>
        <time>2014-05-29T13:32:19Z</time>
      </trkpt>
      <trkpt lat="59.9024219" lon="17.6408048">
        <ele>22.7283</ele>
        <time>2014-05-29T13:32:20Z</time>
      </trkpt>
      <trkpt lat="59.9024558" lon="17.6408413">
        <ele>22.7283</ele>
        <time>2014-05-29T13:32:21Z</time>
      </trkpt>
      <trkpt lat="59.902487" lon="17.6408739">
        <ele>22.7283</ele>
        <time>2014-05-29T13:32:22Z</time>
      </trkpt>
      <trkpt lat="59.9025165" lon="17.640902">
        <ele>22.7283</ele>
        <time>2014-05-29T13:32:23Z</time>
      </trkpt>
      <trkpt lat="59.902544" lon="17.6409297">
        <ele>22.7283</ele>
        <time>2014-05-29T13:32:24Z</time>
      </trkpt>
      <trkpt lat="59.9025703" lon="17.640955">
        <ele>22.7283</ele>
        <time>2014-05-29T13:32:25Z</time>
      </trkpt>
      <trkpt lat="59.9025954" lon="17.6409764">
        <ele>22.7283</ele>
        <time>2014-05-29T13:32:26Z</time>
      </trkpt>
      <trkpt lat="59.9026187" lon="17.6409982">
        <ele>22.7283</ele>
        <time>2014-05-29T13:32:27Z</time>
      </trkpt>
      <trkpt lat="59.9026429" lon="17.6410209">
        <ele>22.7283</ele>
        <time>2014-05-29T13:32:28Z</time>
      </trkpt>
      <trkpt lat="59.9026689" lon="17.6410454">
        <ele>22.7283</ele>
        <time>2014-05-29T13:32:29Z</time>
      </trkpt>
      <trkpt lat="59.9026953" lon="17.6410732">
        <ele>22.7283</ele>
        <time>2014-05-29T13:32:30Z</time>
      </trkpt>
      <trkpt lat="59.902725" lon="17.6411008">
        <ele>22.7283</ele>
        <time>2014-05-29T13:32:31Z</time>
      </trkpt>
      <trkpt lat="59.9027553" lon="17.6411306">
        <ele>22.7283</ele>
        <time>2014-05-29T13:32:32Z</time>
      </trkpt>
      <trkpt lat="59.9027859" lon="17.6411597">
        <ele>23.209</ele>
        <time>2014-05-29T13:32:33Z</time>
      </trkpt>
      <trkpt lat="59.9028182" lon="17.6411882">
        <ele>23.209</ele>
        <time>2014-05-29T13:32:34Z</time>
      </trkpt>
      <trkpt lat="59.9028503" lon="17.6412202">
        <ele>23.209</ele>
        <time>2014-05-29T13:32:35Z</time>
      </trkpt>
      <trkpt lat="59.9028785" lon="17.6412598">
        <ele>23.209</ele>
        <time>2014-05-29T13:32:36Z</time>
      </trkpt>
      <trkpt lat="59.9029062" lon="17.6413032">
        <ele>23.209</ele>
        <time>2014-05-29T13:32:37Z</time>
      </trkpt>
      <trkpt lat="59.902934" lon="17.6413477">
        <ele>23.209</ele>
        <time>2014-05-29T13:32:38Z</time>
      </trkpt>
      <trkpt lat="59.9029599" lon="17.6413966">
        <ele>22.7283</ele>
        <time>2014-05-29T13:32:39Z</time>
      </trkpt>
      <trkpt lat="59.9029858" lon="17.6414494">
        <ele>22.7283</ele>
        <time>2014-05-29T13:32:40Z</time>
      </trkpt>
      <trkpt lat="59.9030134" lon="17.6415057">
        <ele>22.7283</ele>
        <time>2014-05-29T13:32:41Z</time>
      </trkpt>
      <trkpt lat="59.9030422" lon="17.6415661">
        <ele>22.7283</ele>
        <time>2014-05-29T13:32:42Z</time>
      </trkpt>
      <trkpt lat="59.903071" lon="17.64163">
        <ele>22.7283</ele>
        <time>2014-05-29T13:32:43Z</time>
      </trkpt>
      <trkpt lat="59.9031037" lon="17.6416896">
        <ele>23.209</ele>
        <time>2014-05-29T13:32:44Z</time>
      </trkpt>
      <trkpt lat="59.9031402" lon="17.6417431">
        <ele>22.7283</ele>
        <time>2014-05-29T13:32:45Z</time>
      </trkpt>
      <trkpt lat="59.9031787" lon="17.6417877">
        <ele>22.7283</ele>
        <time>2014-05-29T13:32:46Z</time>
      </trkpt>
      <trkpt lat="59.9032184" lon="17.6418201">
        <ele>22.7283</ele>
        <time>2014-05-29T13:32:47Z</time>
      </trkpt>
      <trkpt lat="59.9032574" lon="17.6418451">
        <ele>22.7283</ele>
        <time>2014-05-29T13:32:48Z</time>
      </trkpt>
      <trkpt lat="59.9032942" lon="17.6418664">
        <ele>22.7283</ele>
        <time>2014-05-29T13:32:49Z</time>
      </trkpt>
      <trkpt lat="59.9033287" lon="17.6418867">
        <ele>22.7283</ele>
        <time>2014-05-29T13:32:50Z</time>
      </trkpt>
      <trkpt lat="59.903361" lon="17.6419043">
        <ele>23.209</ele>
        <time>2014-05-29T13:32:51Z</time>
      </trkpt>
      <trkpt lat="59.9033916" lon="17.6419201">
        <ele>23.209</ele>
        <time>2014-05-29T13:32:52Z</time>
      </trkpt>
      <trkpt lat="59.9034221" lon="17.6419363">
        <ele>23.209</ele>
        <time>2014-05-29T13:32:53Z</time>
      </trkpt>
      <trkpt lat="59.9034548" lon="17.6419529">
        <ele>23.209</ele>
        <time>2014-05-29T13:32:54Z</time>
      </trkpt>
      <trkpt lat="59.9034874" lon="17.6419724">
        <ele>23.6896</ele>
        <time>2014-05-29T13:32:55Z</time>
      </trkpt>
      <trkpt lat="59.9035175" lon="17.6419943">
        <ele>23.6896</ele>
        <time>2014-05-29T13:32:56Z</time>
      </trkpt>
      <trkpt lat="59.9035496" lon="17.6420097">
        <ele>23.6896</ele>
        <time>2014-05-29T13:32:57Z</time>
      </trkpt>
      <trkpt lat="59.9035832" lon="17.642013">
        <ele>24.1703</ele>
        <time>2014-05-29T13:32:58Z</time>
      </trkpt>
      <trkpt lat="59.9036164" lon="17.64201">
        <ele>24.1703</ele>
        <time>2014-05-29T13:32:59Z</time>
      </trkpt>
      <trkpt lat="59.9036532" lon="17.6420083">
        <ele>24.1703</ele>
        <time>2014-05-29T13:33:00Z</time>
      </trkpt>
      <trkpt lat="59.9036934" lon="17.6420176">
        <ele>24.1703</ele>
        <time>2014-05-29T13:33:01Z</time>
      </trkpt>
      <trkpt lat="59.9037362" lon="17.6420388">
        <ele>23.6896</ele>
        <time>2014-05-29T13:33:02Z</time>
      </trkpt>
      <trkpt lat="59.9037796" lon="17.6420606">
        <ele>23.6896</ele>
        <time>2014-05-29T13:33:03Z</time>
      </trkpt>
      <trkpt lat="59.9038226" lon="17.642077">
        <ele>23.6896</ele>
        <time>2014-05-29T13:33:04Z</time>
      </trkpt>
      <trkpt lat="59.9038653" lon="17.6420941">
        <ele>23.209</ele>
        <time>2014-05-29T13:33:05Z</time>
      </trkpt>
      <trkpt lat="59.9039073" lon="17.6421151">
        <ele>23.209</ele>
        <time>2014-05-29T13:33:06Z</time>
      </trkpt>
      <trkpt lat="59.9039483" lon="17.6421372">
        <ele>23.209</ele>
        <time>2014-05-29T13:33:07Z</time>
      </trkpt>
      <trkpt lat="59.9039888" lon="17.6421563">
        <ele>23.209</ele>
        <time>2014-05-29T13:33:08Z</time>
      </trkpt>
      <trkpt lat="59.9040282" lon="17.6421761">
        <ele>23.209</ele>
        <time>2014-05-29T13:33:09Z</time>
      </trkpt>
      <trkpt lat="59.9040659" lon="17.6422001">
        <ele>23.209</ele>
        <time>2014-05-29T13:33:10Z</time>
      </trkpt>
      <trkpt lat="59.9041018" lon="17.6422228">
        <ele>23.209</ele>
        <time>2014-05-29T13:33:11Z</time>
      </trkpt>
      <trkpt lat="59.9041379" lon="17.6422414">
        <ele>23.209</ele>
        <time>2014-05-29T13:33:12Z</time>
      </trkpt>
      <trkpt lat="59.9041738" lon="17.642262">
        <ele>23.209</ele>
        <time>2014-05-29T13:33:13Z</time>
      </trkpt>
      <trkpt lat="59.9042099" lon="17.6422845">
        <ele>23.209</ele>
        <time>2014-05-29T13:33:14Z</time>
      </trkpt>
      <trkpt lat="59.9042464" lon="17.6423062">
        <ele>22.7283</ele>
        <time>2014-05-29T13:33:15Z</time>
      </trkpt>
      <trkpt lat="59.904284" lon="17.6423267">
        <ele>22.7283</ele>
        <time>2014-05-29T13:33:16Z</time>
      </trkpt>
      <trkpt lat="59.9043225" lon="17.6423456">
        <ele>22.7283</ele>
        <time>2014-05-29T13:33:17Z</time>
      </trkpt>
      <trkpt lat="59.9043613" lon="17.6423662">
        <ele>22.7283</ele>
        <time>2014-05-29T13:33:18Z</time>
      </trkpt>
      <trkpt lat="59.9043996" lon="17.642388">
        <ele>22.7283</ele>
        <time>2014-05-29T13:33:19Z</time>
      </trkpt>
      <trkpt lat="59.9044374" lon="17.6424091">
        <ele>22.7283</ele>
        <time>2014-05-29T13:33:20Z</time>
      </trkpt>
      <trkpt lat="59.9044748" lon="17.6424304">
        <ele>22.7283</ele>
        <time>2014-05-29T13:33:21Z</time>
      </trkpt>
      <trkpt lat="59.9045119" lon="17.6424505">
        <ele>22.7283</ele>
        <time>2014-05-29T13:33:22Z</time>
      </trkpt>
      <trkpt lat="59.9045486" lon="17.6424694">
        <ele>22.7283</ele>
        <time>2014-05-29T13:33:23Z</time>
      </trkpt>
      <trkpt lat="59.904585" lon="17.642489">
        <ele>22.7283</ele>
        <time>2014-05-29T13:33:24Z</time>
      </trkpt>
      <trkpt lat="59.9046208" lon="17.642508">
        <ele>22.7283</ele>
        <time>2014-05-29T13:33:25Z</time>
      </trkpt>
      <trkpt lat="59.9046566" lon="17.6425288">
        <ele>22.7283</ele>
        <time>2014-05-29T13:33:26Z</time>
      </trkpt>
      <trkpt lat="59.9046907" lon="17.6425527">
        <ele>22.7283</ele>
        <time>2014-05-29T13:33:27Z</time>
      </trkpt>
      <trkpt lat="59.9047224" lon="17.6425767">
        <ele>22.7283</ele>
        <time>2014-05-29T13:33:28Z</time>
      </trkpt>
      <trkpt lat="59.9047517" lon="17.6426009">
        <ele>22.7283</ele>
        <time>2014-05-29T13:33:29Z</time>
      </trkpt>
      <trkpt lat="59.9047792" lon="17.6426222">
        <ele>22.7283</ele>
        <time>2014-05-29T13:33:30Z</time>
      </trkpt>
      <trkpt lat="59.9048078" lon="17.6426396">
        <ele>23.209</ele>
        <time>2014-05-29T13:33:31Z</time>
      </trkpt>
      <trkpt lat="59.9048388" lon="17.6426582">
        <ele>23.209</ele>
        <time>2014-05-29T13:33:32Z</time>
      </trkpt>
      <trkpt lat="59.9048695" lon="17.6426766">
        <ele>22.7283</ele>
        <time>2014-05-29T13:33:33Z</time>
      </trkpt>
      <trkpt lat="59.9049005" lon="17.6426973">
        <ele>22.7283</ele>
        <time>2014-05-29T13:33:34Z</time>
      </trkpt>
      <trkpt lat="59.9049362" lon="17.6427186">
        <ele>22.7283</ele>
        <time>2014-05-29T13:33:35Z</time>
      </trkpt>
      <trkpt lat="59.9049735" lon="17.6427376">
        <ele>22.2476</ele>
        <time>2014-05-29T13:33:36Z</time>
      </trkpt>
      <trkpt lat="59.9050129" lon="17.6427564">
        <ele>22.2476</ele>
        <time>2014-05-29T13:33:37Z</time>
      </trkpt>
      <trkpt lat="59.9050527" lon="17.6427755">
        <ele>21.767</ele>
        <time>2014-05-29T13:33:38Z</time>
      </trkpt>
      <trkpt lat="59.9050932" lon="17.6427946">
        <ele>21.767</ele>
        <time>2014-05-29T13:33:39Z</time>
      </trkpt>
      <trkpt lat="59.9051355" lon="17.6428132">
        <ele>21.767</ele>
        <time>2014-05-29T13:33:40Z</time>
      </trkpt>
      <trkpt lat="59.9051782" lon="17.6428325">
        <ele>21.2864</ele>
        <time>2014-05-29T13:33:41Z</time>
      </trkpt>
      <trkpt lat="59.9052238" lon="17.6428527">
        <ele>21.2864</ele>
        <time>2014-05-29T13:33:42Z</time>
      </trkpt>
      <trkpt lat="59.9052699" lon="17.6428734">
        <ele>21.2864</ele>
        <time>2014-05-29T13:33:43Z</time>
      </trkpt>
      <trkpt lat="59.905319" lon="17.6428945">
        <ele>21.2864</ele>
        <time>2014-05-29T13:33:44Z</time>
      </trkpt>
      <trkpt lat="59.9053704" lon="17.6429138">
        <ele>21.767</ele>
        <time>2014-05-29T13:33:45Z</time>
      </trkpt>
      <trkpt lat="59.9054202" lon="17.6429247">
        <ele>21.767</ele>
        <time>2014-05-29T13:33:46Z</time>
      </trkpt>
      <trkpt lat="59.9054672" lon="17.6429261">
        <ele>22.2476</ele>
        <time>2014-05-29T13:33:47Z</time>
      </trkpt>
      <trkpt lat="59.9055113" lon="17.6429246">
        <ele>22.2476</ele>
        <time>2014-05-29T13:33:48Z</time>
      </trkpt>
      <trkpt lat="59.9055544" lon="17.6429281">
        <ele>22.2476</ele>
        <time>2014-05-29T13:33:49Z</time>
      </trkpt>
      <trkpt lat="59.9055965" lon="17.6429382">
        <ele>22.7283</ele>
        <time>2014-05-29T13:33:50Z</time>
      </trkpt>
      <trkpt lat="59.9056366" lon="17.6429506">
        <ele>22.7283</ele>
        <time>2014-05-29T13:33:51Z</time>
      </trkpt>
      <trkpt lat="59.9056732" lon="17.6429641">
        <ele>22.7283</ele>
        <time>2014-05-29T13:33:52Z</time>
      </trkpt>
      <trkpt lat="59.9057067" lon="17.6429794">
        <ele>22.7283</ele>
        <time>2014-05-29T13:33:53Z</time>
      </trkpt>
      <trkpt lat="59.90574" lon="17.6429972">
        <ele>22.7283</ele>
        <time>2014-05-29T13:33:54Z</time>
      </trkpt>
      <trkpt lat="59.9057761" lon="17.6430133">
        <ele>23.209</ele>
        <time>2014-05-29T13:33:55Z</time>
      </trkpt>
      <trkpt lat="59.9058133" lon="17.6430298">
        <ele>23.209</ele>
        <time>2014-05-29T13:33:56Z</time>
      </trkpt>
      <trkpt lat="59.9058506" lon="17.6430494">
        <ele>23.209</ele>
        <time>2014-05-29T13:33:57Z</time>
      </trkpt>
      <trkpt lat="59.9058868" lon="17.6430701">
        <ele>23.209</ele>
        <time>2014-05-29T13:33:58Z</time>
      </trkpt>
      <trkpt lat="59.9059245" lon="17.6430915">
        <ele>23.6896</ele>
        <time>2014-05-29T13:33:59Z</time>
      </trkpt>
      <trkpt lat="59.905964" lon="17.6431135">
        <ele>23.6896</ele>
        <time>2014-05-29T13:34:00Z</time>
      </trkpt>
      <trkpt lat="59.9060058" lon="17.6431348">
        <ele>23.6896</ele>
        <time>2014-05-29T13:34:01Z</time>
      </trkpt>
      <trkpt lat="59.9060465" lon="17.643155">
        <ele>24.1703</ele>
        <time>2014-05-29T13:34:02Z</time>
      </trkpt>
      <trkpt lat="59.9060871" lon="17.6431749">
        <ele>24.651</ele>
        <time>2014-05-29T13:34:03Z</time>
      </trkpt>
      <trkpt lat="59.9061266" lon="17.6431944">
        <ele>24.651</ele>
        <time>2014-05-29T13:34:04Z</time>
      </trkpt>
      <trkpt lat="59.9061655" lon="17.6432109">
        <ele>25.1317</ele>
        <time>2014-05-29T13:34:05Z</time>
      </trkpt>
      <trkpt lat="59.9062044" lon="17.6432242">
        <ele>25.1317</ele>
        <time>2014-05-29T13:34:06Z</time>
      </trkpt>
      <trkpt lat="59.9062427" lon="17.6432374">
        <ele>25.6123</ele>
        <time>2014-05-29T13:34:07Z</time>
      </trkpt>
      <trkpt lat="59.9062806" lon="17.6432526">
        <ele>25.6123</ele>
        <time>2014-05-29T13:34:08Z</time>
      </trkpt>
      <trkpt lat="59.9063166" lon="17.6432685">
        <ele>26.0929</ele>
        <time>2014-05-29T13:34:09Z</time>
      </trkpt>
      <trkpt lat="59.9063473" lon="17.6432841">
        <ele>26.0929</ele>
        <time>2014-05-29T13:34:10Z</time>
      </trkpt>
      <trkpt lat="59.9063774" lon="17.6432982">
        <ele>26.5736</ele>
        <time>2014-05-29T13:34:11Z</time>
      </trkpt>
      <trkpt lat="59.9064068" lon="17.6433117">
        <ele>26.5736</ele>
        <time>2014-05-29T13:34:12Z</time>
      </trkpt>
      <trkpt lat="59.9064359" lon="17.6433236">
        <ele>26.5736</ele>
        <time>2014-05-29T13:34:13Z</time>
      </trkpt>
      <trkpt lat="59.9064663" lon="17.6433324">
        <ele>27.0543</ele>
        <time>2014-05-29T13:34:14Z</time>
      </trkpt>
      <trkpt lat="59.9064969" lon="17.643343">
        <ele>27.0543</ele>
        <time>2014-05-29T13:34:15Z</time>
      </trkpt>
      <trkpt lat="59.9065277" lon="17.6433556">
        <ele>27.5349</ele>
        <time>2014-05-29T13:34:16Z</time>
      </trkpt>
      <trkpt lat="59.9065591" lon="17.6433681">
        <ele>27.5349</ele>
        <time>2014-05-29T13:34:17Z</time>
      </trkpt>
      <trkpt lat="59.9065894" lon="17.6433806">
        <ele>27.5349</ele>
        <time>2014-05-29T13:34:18Z</time>
      </trkpt>
      <trkpt lat="59.9066202" lon="17.6433905">
        <ele>27.5349</ele>
        <time>2014-05-29T13:34:19Z</time>
      </trkpt>
      <trkpt lat="59.9066515" lon="17.6433991">
        <ele>28.0155</ele>
        <time>2014-05-29T13:34:20Z</time>
      </trkpt>
      <trkpt lat="59.906683" lon="17.6434088">
        <ele>28.0155</ele>
        <time>2014-05-29T13:34:21Z</time>
      </trkpt>
      <trkpt lat="59.9067156" lon="17.6434178">
        <ele>28.0155</ele>
        <time>2014-05-29T13:34:22Z</time>
      </trkpt>
      <trkpt lat="59.9067487" lon="17.6434276">
        <ele>28.4962</ele>
        <time>2014-05-29T13:34:23Z</time>
      </trkpt>
      <trkpt lat="59.9067815" lon="17.6434383">
        <ele>28.4962</ele>
        <time>2014-05-29T13:34:24Z</time>
      </trkpt>
      <trkpt lat="59.9068141" lon="17.6434471">
        <ele>28.4962</ele>
        <time>2014-05-29T13:34:25Z</time>
      </trkpt>
      <trkpt lat="59.9068467" lon="17.6434551">
        <ele>28.4962</ele>
        <time>2014-05-29T13:34:26Z</time>
      </trkpt>
      <trkpt lat="59.9068786" lon="17.6434624">
        <ele>28.4962</ele>
        <time>2014-05-29T13:34:27Z</time>
      </trkpt>
      <trkpt lat="59.9069097" lon="17.6434691">
        <ele>28.9769</ele>
        <time>2014-05-29T13:34:28Z</time>
      </trkpt>
      <trkpt lat="59.90694" lon="17.6434759">
        <ele>28.9769</ele>
        <time>2014-05-29T13:34:29Z</time>
      </trkpt>
      <trkpt lat="59.9069703" lon="17.6434841">
        <ele>28.9769</ele>
        <time>2014-05-29T13:34:30Z</time>
      </trkpt>
      <trkpt lat="59.9070006" lon="17.6434929">
        <ele>28.9769</ele>
        <time>2014-05-29T13:34:31Z</time>
      </trkpt>
      <trkpt lat="59.9070312" lon="17.6435022">
        <ele>28.9769</ele>
        <time>2014-05-29T13:34:32Z</time>
      </trkpt>
      <trkpt lat="59.9070618" lon="17.6435099">
        <ele>28.9769</ele>
        <time>2014-05-29T13:34:33Z</time>
      </trkpt>
      <trkpt lat="59.9070929" lon="17.6435168">
        <ele>28.9769</ele>
        <time>2014-05-29T13:34:34Z</time>
      </trkpt>
      <trkpt lat="59.9071245" lon="17.6435248">
        <ele>29.4575</ele>
        <time>2014-05-29T13:34:35Z</time>
      </trkpt>
      <trkpt lat="59.9071566" lon="17.6435311">
        <ele>29.4575</ele>
        <time>2014-05-29T13:34:36Z</time>
      </trkpt>
      <trkpt lat="59.9071896" lon="17.6435354">
        <ele>29.4575</ele>
        <time>2014-05-29T13:34:37Z</time>
      </trkpt>
      <trkpt lat="59.9072231" lon="17.6435397">
        <ele>29.4575</ele>
        <time>2014-05-29T13:34:38Z</time>
      </trkpt>
      <trkpt lat="59.9072569" lon="17.6435466">
        <ele>29.4575</ele>
        <time>2014-05-29T13:34:39Z</time>
      </trkpt>
      <trkpt lat="59.9072907" lon="17.643553">
        <ele>29.9381</ele>
        <time>2014-05-29T13:34:40Z</time>
      </trkpt>
      <trkpt lat="59.9073244" lon="17.6435587">
        <ele>29.9381</ele>
        <time>2014-05-29T13:34:41Z</time>
      </trkpt>
      <trkpt lat="59.9073578" lon="17.6435651">
        <ele>29.9381</ele>
        <time>2014-05-29T13:34:42Z</time>
      </trkpt>
      <trkpt lat="59.9073902" lon="17.6435721">
        <ele>29.9381</ele>
        <time>2014-05-29T13:34:43Z</time>
      </trkpt>
      <trkpt lat="59.9074225" lon="17.64358">
        <ele>29.9381</ele>
        <time>2014-05-29T13:34:44Z</time>
      </trkpt>
      <trkpt lat="59.9074547" lon="17.643587">
        <ele>30.4188</ele>
        <time>2014-05-29T13:34:45Z</time>
      </trkpt>
      <trkpt lat="59.9074864" lon="17.6435924">
        <ele>30.4188</ele>
        <time>2014-05-29T13:34:46Z</time>
      </trkpt>
      <trkpt lat="59.9075174" lon="17.6435985">
        <ele>30.4188</ele>
        <time>2014-05-29T13:34:47Z</time>
      </trkpt>
      <trkpt lat="59.9075476" lon="17.6436041">
        <ele>30.4188</ele>
        <time>2014-05-29T13:34:48Z</time>
      </trkpt>
      <trkpt lat="59.9075774" lon="17.6436074">
        <ele>30.4188</ele>
        <time>2014-05-29T13:34:49Z</time>
      </trkpt>
      <trkpt lat="59.9076061" lon="17.6436104">
        <ele>30.4188</ele>
        <time>2014-05-29T13:34:50Z</time>
      </trkpt>
      <trkpt lat="59.9076344" lon="17.6436148">
        <ele>30.8995</ele>
        <time>2014-05-29T13:34:51Z</time>
      </trkpt>
      <trkpt lat="59.9076616" lon="17.6436212">
        <ele>30.8995</ele>
        <time>2014-05-29T13:34:52Z</time>
      </trkpt>
      <trkpt lat="59.907688" lon="17.6436269">
        <ele>30.8995</ele>
        <time>2014-05-29T13:34:53Z</time>
      </trkpt>
      <trkpt lat="59.9077142" lon="17.6436316">
        <ele>30.8995</ele>
        <time>2014-05-29T13:34:54Z</time>
      </trkpt>
      <trkpt lat="59.9077406" lon="17.6436368">
        <ele>30.8995</ele>
        <time>2014-05-29T13:34:55Z</time>
      </trkpt>
      <trkpt lat="59.9077677" lon="17.6436415">
        <ele>30.8995</ele>
        <time>2014-05-29T13:34:56Z</time>
      </trkpt>
      <trkpt lat="59.9077952" lon="17.6436452">
        <ele>31.3801</ele>
        <time>2014-05-29T13:34:57Z</time>
      </trkpt>
      <trkpt lat="59.9078229" lon="17.6436461">
        <ele>31.3801</ele>
        <time>2014-05-29T13:34:58Z</time>
      </trkpt>
      <trkpt lat="59.9078502" lon="17.6436468">
        <ele>31.3801</ele>
        <time>2014-05-29T13:34:59Z</time>
      </trkpt>
      <trkpt lat="59.9078778" lon="17.6436494">
        <ele>31.3801</ele>
        <time>2014-05-29T13:35:00Z</time>
      </trkpt>
      <trkpt lat="59.907905" lon="17.6436565">
        <ele>31.3801</ele>
        <time>2014-05-29T13:35:01Z</time>
      </trkpt>
      <trkpt lat="59.9079319" lon="17.6436665">
        <ele>31.8607</ele>
        <time>2014-05-29T13:35:02Z</time>
      </trkpt>
      <trkpt lat="59.9079589" lon="17.6436728">
        <ele>31.8607</ele>
        <time>2014-05-29T13:35:03Z</time>
      </trkpt>
      <trkpt lat="59.9079868" lon="17.6436774">
        <ele>31.8607</ele>
        <time>2014-05-29T13:35:04Z</time>
      </trkpt>
      <trkpt lat="59.9080148" lon="17.6436809">
        <ele>31.8607</ele>
        <time>2014-05-29T13:35:05Z</time>
      </trkpt>
      <trkpt lat="59.9080432" lon="17.643685">
        <ele>31.8607</ele>
        <time>2014-05-29T13:35:06Z</time>
      </trkpt>
      <trkpt lat="59.9080718" lon="17.6436894">
        <ele>31.8607</ele>
        <time>2014-05-29T13:35:07Z</time>
      </trkpt>
      <trkpt lat="59.9081013" lon="17.6436948">
        <ele>31.8607</ele>
        <time>2014-05-29T13:35:08Z</time>
      </trkpt>
      <trkpt lat="59.9081308" lon="17.6437001">
        <ele>31.8607</ele>
        <time>2014-05-29T13:35:09Z</time>
      </trkpt>
      <trkpt lat="59.9081604" lon="17.6437039">
        <ele>31.8607</ele>
        <time>2014-05-29T13:35:10Z</time>
      </trkpt>
      <trkpt lat="59.9081907" lon="17.6437075">
        <ele>31.8607</ele>
        <time>2014-05-29T13:35:11Z</time>
      </trkpt>
      <trkpt lat="59.908221" lon="17.6437115">
        <ele>31.8607</ele>
        <time>2014-05-29T13:35:12Z</time>
      </trkpt>
      <trkpt lat="59.9082509" lon="17.6437153">
        <ele>31.8607</ele>
        <time>2014-05-29T13:35:13Z</time>
      </trkpt>
      <trkpt lat="59.9082803" lon="17.6437172">
        <ele>32.3416</ele>
        <time>2014-05-29T13:35:14Z</time>
      </trkpt>
      <trkpt lat="59.908309" lon="17.6437203">
        <ele>32.3416</ele>
        <time>2014-05-29T13:35:15Z</time>
      </trkpt>
      <trkpt lat="59.908337" lon="17.6437249">
        <ele>32.3416</ele>
        <time>2014-05-29T13:35:16Z</time>
      </trkpt>
      <trkpt lat="59.9083639" lon="17.6437286">
        <ele>32.3416</ele>
        <time>2014-05-29T13:35:17Z</time>
      </trkpt>
      <trkpt lat="59.9083913" lon="17.6437315">
        <ele>32.3416</ele>
        <time>2014-05-29T13:35:18Z</time>
      </trkpt>
      <trkpt lat="59.9084199" lon="17.6437331">
        <ele>32.3416</ele>
        <time>2014-05-29T13:35:19Z</time>
      </trkpt>
      <trkpt lat="59.90845" lon="17.6437339">
        <ele>32.3416</ele>
        <time>2014-05-29T13:35:20Z</time>
      </trkpt>
      <trkpt lat="59.9084818" lon="17.643735">
        <ele>32.3416</ele>
        <time>2014-05-29T13:35:21Z</time>
      </trkpt>
      <trkpt lat="59.9085156" lon="17.6437359">
        <ele>32.3416</ele>
        <time>2014-05-29T13:35:22Z</time>
      </trkpt>
      <trkpt lat="59.9085508" lon="17.6437363">
        <ele>32.3416</ele>
        <time>2014-05-29T13:35:23Z</time>
      </trkpt>
      <trkpt lat="59.9085871" lon="17.6437364">
        <ele>32.3416</ele>
        <time>2014-05-29T13:35:24Z</time>
      </trkpt>
      <trkpt lat="59.9086248" lon="17.6437352">
        <ele>32.3416</ele>
        <time>2014-05-29T13:35:25Z</time>
      </trkpt>
      <trkpt lat="59.9086632" lon="17.6437315">
        <ele>32.3416</ele>
        <time>2014-05-29T13:35:26Z</time>
      </trkpt>
      <trkpt lat="59.9087022" lon="17.6437305">
        <ele>32.3416</ele>
        <time>2014-05-29T13:35:27Z</time>
      </trkpt>
      <trkpt lat="59.9087417" lon="17.6437312">
        <ele>32.3416</ele>
        <time>2014-05-29T13:35:28Z</time>
      </trkpt>
      <trkpt lat="59.9087818" lon="17.6437289">
        <ele>32.3416</ele>
        <time>2014-05-29T13:35:29Z</time>
      </trkpt>
      <trkpt lat="59.9088218" lon="17.6437255">
        <ele>32.8223</ele>
        <time>2014-05-29T13:35:30Z</time>
      </trkpt>
      <trkpt lat="59.9088619" lon="17.6437224">
        <ele>32.8223</ele>
        <time>2014-05-29T13:35:31Z</time>
      </trkpt>
      <trkpt lat="59.908903" lon="17.6437186">
        <ele>32.8223</ele>
        <time>2014-05-29T13:35:32Z</time>
      </trkpt>
      <trkpt lat="59.908944" lon="17.6437134">
        <ele>32.8223</ele>
        <time>2014-05-29T13:35:33Z</time>
      </trkpt>
      <trkpt lat="59.9089845" lon="17.643708">
        <ele>32.8223</ele>
        <time>2014-05-29T13:35:34Z</time>
      </trkpt>
      <trkpt lat="59.9090248" lon="17.643703">
        <ele>32.8223</ele>
        <time>2014-05-29T13:35:35Z</time>
      </trkpt>
      <trkpt lat="59.9090652" lon="17.6436968">
        <ele>32.8223</ele>
        <time>2014-05-29T13:35:36Z</time>
      </trkpt>
      <trkpt lat="59.9091061" lon="17.6436918">
        <ele>32.8223</ele>
        <time>2014-05-29T13:35:37Z</time>
      </trkpt>
      <trkpt lat="59.909147" lon="17.643688">
        <ele>32.8223</ele>
        <time>2014-05-29T13:35:38Z</time>
      </trkpt>
      <trkpt lat="59.9091881" lon="17.6436839">
        <ele>32.8223</ele>
        <time>2014-05-29T13:35:39Z</time>
      </trkpt>
      <trkpt lat="59.9092306" lon="17.6436798">
        <ele>32.8223</ele>
        <time>2014-05-29T13:35:40Z</time>
      </trkpt>
      <trkpt lat="59.9092737" lon="17.6436732">
        <ele>32.8223</ele>
        <time>2014-05-29T13:35:41Z</time>
      </trkpt>
      <trkpt lat="59.9093175" lon="17.6436628">
        <ele>32.8223</ele>
        <time>2014-05-29T13:35:42Z</time>
      </trkpt>
      <trkpt lat="59.9093609" lon="17.6436534">
        <ele>32.8223</ele>
        <time>2014-05-29T13:35:43Z</time>
      </trkpt>
      <trkpt lat="59.9094036" lon="17.6436466">
        <ele>33.3029</ele>
        <time>2014-05-29T13:35:44Z</time>
      </trkpt>
      <trkpt lat="59.9094461" lon="17.643641">
        <ele>33.3029</ele>
        <time>2014-05-29T13:35:45Z</time>
      </trkpt>
      <trkpt lat="59.9094885" lon="17.6436347">
        <ele>33.3029</ele>
        <time>2014-05-29T13:35:46Z</time>
      </trkpt>
      <trkpt lat="59.9095305" lon="17.6436249">
        <ele>33.3029</ele>
        <time>2014-05-29T13:35:47Z</time>
      </trkpt>
      <trkpt lat="59.9095718" lon="17.6436137">
        <ele>33.3029</ele>
        <time>2014-05-29T13:35:48Z</time>
      </trkpt>
      <trkpt lat="59.9096124" lon="17.6436044">
        <ele>33.3029</ele>
        <time>2014-05-29T13:35:49Z</time>
      </trkpt>
      <trkpt lat="59.9096523" lon="17.6435964">
        <ele>33.3029</ele>
        <time>2014-05-29T13:35:50Z</time>
      </trkpt>
      <trkpt lat="59.9096919" lon="17.6435867">
        <ele>33.3029</ele>
        <time>2014-05-29T13:35:51Z</time>
      </trkpt>
      <trkpt lat="59.9097314" lon="17.6435753">
        <ele>33.3029</ele>
        <time>2014-05-29T13:35:52Z</time>
      </trkpt>
      <trkpt lat="59.9097705" lon="17.6435653">
        <ele>33.3029</ele>
        <time>2014-05-29T13:35:53Z</time>
      </trkpt>
      <trkpt lat="59.9098098" lon="17.6435572">
        <ele>33.7834</ele>
        <time>2014-05-29T13:35:54Z</time>
      </trkpt>
      <trkpt lat="59.9098496" lon="17.6435537">
        <ele>33.7834</ele>
        <time>2014-05-29T13:35:55Z</time>
      </trkpt>
      <trkpt lat="59.9098898" lon="17.6435587">
        <ele>33.7834</ele>
        <time>2014-05-29T13:35:56Z</time>
      </trkpt>
      <trkpt lat="59.9099289" lon="17.6435721">
        <ele>33.7834</ele>
        <time>2014-05-29T13:35:57Z</time>
      </trkpt>
      <trkpt lat="59.9099677" lon="17.6435884">
        <ele>33.7834</ele>
        <time>2014-05-29T13:35:58Z</time>
      </trkpt>
      <trkpt lat="59.910006" lon="17.6436043">
        <ele>33.7834</ele>
        <time>2014-05-29T13:35:59Z</time>
      </trkpt>
      <trkpt lat="59.9100422" lon="17.6436196">
        <ele>33.7834</ele>
        <time>2014-05-29T13:36:00Z</time>
      </trkpt>
      <trkpt lat="59.9100749" lon="17.6436322">
        <ele>34.2642</ele>
        <time>2014-05-29T13:36:01Z</time>
      </trkpt>
      <trkpt lat="59.910105" lon="17.6436406">
        <ele>34.2642</ele>
        <time>2014-05-29T13:36:02Z</time>
      </trkpt>
      <trkpt lat="59.9101333" lon="17.6436428">
        <ele>34.2642</ele>
        <time>2014-05-29T13:36:03Z</time>
      </trkpt>
      <trkpt lat="59.9101618" lon="17.6436411">
        <ele>34.2642</ele>
        <time>2014-05-29T13:36:04Z</time>
      </trkpt>
      <trkpt lat="59.9101919" lon="17.6436401">
        <ele>34.2642</ele>
        <time>2014-05-29T13:36:05Z</time>
      </trkpt>
      <trkpt lat="59.9102241" lon="17.643638">
        <ele>34.2642</ele>
        <time>2014-05-29T13:36:06Z</time>
      </trkpt>
      <trkpt lat="59.9102569" lon="17.6436341">
        <ele>34.2642</ele>
        <time>2014-05-29T13:36:07Z</time>
      </trkpt>
      <trkpt lat="59.9102902" lon="17.6436285">
        <ele>34.2642</ele>
        <time>2014-05-29T13:36:08Z</time>
      </trkpt>
      <trkpt lat="59.9103249" lon="17.6436207">
        <ele>34.2642</ele>
        <time>2014-05-29T13:36:09Z</time>
      </trkpt>
      <trkpt lat="59.910361" lon="17.6436131">
        <ele>34.7449</ele>
        <time>2014-05-29T13:36:10Z</time>
      </trkpt>
      <trkpt lat="59.9103978" lon="17.6436039">
        <ele>34.7449</ele>
        <time>2014-05-29T13:36:11Z</time>
      </trkpt>
      <trkpt lat="59.9104361" lon="17.6435945">
        <ele>34.2642</ele>
        <time>2014-05-29T13:36:12Z</time>
      </trkpt>
      <trkpt lat="59.9104748" lon="17.6435813">
        <ele>34.7449</ele>
        <time>2014-05-29T13:36:13Z</time>
      </trkpt>
      <trkpt lat="59.9105136" lon="17.6435608">
        <ele>34.2642</ele>
        <time>2014-05-29T13:36:14Z</time>
      </trkpt>
      <trkpt lat="59.9105546" lon="17.6435379">
        <ele>34.2642</ele>
        <time>2014-05-29T13:36:15Z</time>
      </trkpt>
      <trkpt lat="59.9105977" lon="17.6435166">
        <ele>33.7834</ele>
        <time>2014-05-29T13:36:16Z</time>
      </trkpt>
      <trkpt lat="59.9106422" lon="17.6434981">
        <ele>33.7834</ele>
        <time>2014-05-29T13:36:17Z</time>
      </trkpt>
      <trkpt lat="59.9106857" lon="17.643485">
        <ele>33.7834</ele>
        <time>2014-05-29T13:36:18Z</time>
      </trkpt>
      <trkpt lat="59.9107266" lon="17.6434767">
        <ele>33.7834</ele>
        <time>2014-05-29T13:36:19Z</time>
      </trkpt>
      <trkpt lat="59.9107663" lon="17.6434679">
        <ele>33.7834</ele>
        <time>2014-05-29T13:36:20Z</time>
      </trkpt>
      <trkpt lat="59.9108058" lon="17.6434582">
        <ele>33.7834</ele>
        <time>2014-05-29T13:36:21Z</time>
      </trkpt>
      <trkpt lat="59.9108456" lon="17.6434515">
        <ele>33.7834</ele>
        <time>2014-05-29T13:36:22Z</time>
      </trkpt>
      <trkpt lat="59.9108852" lon="17.6434461">
        <ele>33.7834</ele>
        <time>2014-05-29T13:36:23Z</time>
      </trkpt>
      <trkpt lat="59.910925" lon="17.6434391">
        <ele>34.2642</ele>
        <time>2014-05-29T13:36:24Z</time>
      </trkpt>
      <trkpt lat="59.9109648" lon="17.643433">
        <ele>34.2642</ele>
        <time>2014-05-29T13:36:25Z</time>
      </trkpt>
      <trkpt lat="59.9110041" lon="17.6434278">
        <ele>34.2642</ele>
        <time>2014-05-29T13:36:26Z</time>
      </trkpt>
      <trkpt lat="59.9110432" lon="17.6434207">
        <ele>34.2642</ele>
        <time>2014-05-29T13:36:27Z</time>
      </trkpt>
      <trkpt lat="59.9110825" lon="17.6434128">
        <ele>34.2642</ele>
        <time>2014-05-29T13:36:28Z</time>
      </trkpt>
      <trkpt lat="59.9111221" lon="17.6434064">
        <ele>34.2642</ele>
        <time>2014-05-29T13:36:29Z</time>
      </trkpt>
      <trkpt lat="59.9111621" lon="17.6434">
        <ele>34.2642</ele>
        <time>2014-05-29T13:36:30Z</time>
      </trkpt>
      <trkpt lat="59.9112021" lon="17.6433931">
        <ele>34.2642</ele>
        <time>2014-05-29T13:36:31Z</time>
      </trkpt>
      <trkpt lat="59.9112425" lon="17.6433851">
        <ele>34.2642</ele>
        <time>2014-05-29T13:36:32Z</time>
      </trkpt>
      <trkpt lat="59.9112825" lon="17.6433738">
        <ele>34.2642</ele>
        <time>2014-05-29T13:36:33Z</time>
      </trkpt>
      <trkpt lat="59.9113229" lon="17.6433603">
        <ele>34.2642</ele>
        <time>2014-05-29T13:36:34Z</time>
      </trkpt>
      <trkpt lat="59.9113641" lon="17.6433462">
        <ele>34.7449</ele>
        <time>2014-05-29T13:36:35Z</time>
      </trkpt>
      <trkpt lat="59.9114056" lon="17.643333">
        <ele>34.2642</ele>
        <time>2014-05-29T13:36:36Z</time>
      </trkpt>
      <trkpt lat="59.9114475" lon="17.6433224">
        <ele>34.2642</ele>
        <time>2014-05-29T13:36:37Z</time>
      </trkpt>
      <trkpt lat="59.9114892" lon="17.6433142">
        <ele>34.2642</ele>
        <time>2014-05-29T13:36:38Z</time>
      </trkpt>
      <trkpt lat="59.9115315" lon="17.6433089">
        <ele>34.2642</ele>
        <time>2014-05-29T13:36:39Z</time>
      </trkpt>
      <trkpt lat="59.9115744" lon="17.6433023">
        <ele>34.2642</ele>
        <time>2014-05-29T13:36:40Z</time>
      </trkpt>
      <trkpt lat="59.911617" lon="17.643293">
        <ele>34.2642</ele>
        <time>2014-05-29T13:36:41Z</time>
      </trkpt>
      <trkpt lat="59.9116615" lon="17.643284">
        <ele>33.7834</ele>
        <time>2014-05-29T13:36:42Z</time>
      </trkpt>
      <trkpt lat="59.9117072" lon="17.6432772">
        <ele>33.7834</ele>
        <time>2014-05-29T13:36:43Z</time>
      </trkpt>
      <trkpt lat="59.9117524" lon="17.64327">
        <ele>33.7834</ele>
        <time>2014-05-29T13:36:44Z</time>
      </trkpt>
      <trkpt lat="59.9117973" lon="17.6432608">
        <ele>33.7834</ele>
        <time>2014-05-29T13:36:45Z</time>
      </trkpt>
      <trkpt lat="59.9118413" lon="17.6432513">
        <ele>33.7834</ele>
        <time>2014-05-29T13:36:46Z</time>
      </trkpt>
      <trkpt lat="59.9118839" lon="17.6432417">
        <ele>34.2642</ele>
        <time>2014-05-29T13:36:47Z</time>
      </trkpt>
      <trkpt lat="59.9119256" lon="17.6432315">
        <ele>34.2642</ele>
        <time>2014-05-29T13:36:48Z</time>
      </trkpt>
      <trkpt lat="59.9119675" lon="17.6432204">
        <ele>34.2642</ele>
        <time>2014-05-29T13:36:49Z</time>
      </trkpt>
      <trkpt lat="59.912011" lon="17.643208">
        <ele>34.2642</ele>
        <time>2014-05-29T13:36:50Z</time>
      </trkpt>
      <trkpt lat="59.9120568" lon="17.6431947">
        <ele>34.2642</ele>
        <time>2014-05-29T13:36:51Z</time>
      </trkpt>
      <trkpt lat="59.9121043" lon="17.6431793">
        <ele>33.7834</ele>
        <time>2014-05-29T13:36:52Z</time>
      </trkpt>
      <trkpt lat="59.9121542" lon="17.6431624">
        <ele>33.7834</ele>
        <time>2014-05-29T13:36:53Z</time>
      </trkpt>
      <trkpt lat="59.9122071" lon="17.6431448">
        <ele>33.7834</ele>
        <time>2014-05-29T13:36:54Z</time>
      </trkpt>
      <trkpt lat="59.9122619" lon="17.6431278">
        <ele>33.7834</ele>
        <time>2014-05-29T13:36:55Z</time>
      </trkpt>
      <trkpt lat="59.9123162" lon="17.6431151">
        <ele>33.7834</ele>
        <time>2014-05-29T13:36:56Z</time>
      </trkpt>
      <trkpt lat="59.9123697" lon="17.643106">
        <ele>33.7834</ele>
        <time>2014-05-29T13:36:57Z</time>
      </trkpt>
      <trkpt lat="59.9124224" lon="17.6430966">
        <ele>33.7834</ele>
        <time>2014-05-29T13:36:58Z</time>
      </trkpt>
      <trkpt lat="59.9124738" lon="17.6430876">
        <ele>33.7834</ele>
        <time>2014-05-29T13:36:59Z</time>
      </trkpt>
      <trkpt lat="59.9125244" lon="17.6430809">
        <ele>33.7834</ele>
        <time>2014-05-29T13:37:00Z</time>
      </trkpt>
      <trkpt lat="59.9125733" lon="17.6430785">
        <ele>33.7834</ele>
        <time>2014-05-29T13:37:01Z</time>
      </trkpt>
      <trkpt lat="59.912621" lon="17.6430862">
        <ele>33.7834</ele>
        <time>2014-05-29T13:37:02Z</time>
      </trkpt>
      <trkpt lat="59.9126655" lon="17.6431045">
        <ele>34.2642</ele>
        <time>2014-05-29T13:37:03Z</time>
      </trkpt>
      <trkpt lat="59.9127042" lon="17.6431252">
        <ele>34.2642</ele>
        <time>2014-05-29T13:37:04Z</time>
      </trkpt>
      <trkpt lat="59.9127368" lon="17.6431412">
        <ele>34.7449</ele>
        <time>2014-05-29T13:37:05Z</time>
      </trkpt>
      <trkpt lat="59.9127659" lon="17.6431506">
        <ele>34.7449</ele>
        <time>2014-05-29T13:37:06Z</time>
      </trkpt>
      <trkpt lat="59.9127929" lon="17.6431576">
        <ele>34.7449</ele>
        <time>2014-05-29T13:37:07Z</time>
      </trkpt>
      <trkpt lat="59.9128208" lon="17.6431614">
        <ele>34.7449</ele>
        <time>2014-05-29T13:37:08Z</time>
      </trkpt>
      <trkpt lat="59.9128504" lon="17.6431599">
        <ele>34.7449</ele>
        <time>2014-05-29T13:37:09Z</time>
      </trkpt>
      <trkpt lat="59.9128809" lon="17.6431552">
        <ele>34.7449</ele>
        <time>2014-05-29T13:37:10Z</time>
      </trkpt>
      <trkpt lat="59.9129127" lon="17.6431485">
        <ele>34.7449</ele>
        <time>2014-05-29T13:37:11Z</time>
      </trkpt>
      <trkpt lat="59.9129458" lon="17.6431403">
        <ele>34.7449</ele>
        <time>2014-05-29T13:37:12Z</time>
      </trkpt>
      <trkpt lat="59.9129799" lon="17.6431327">
        <ele>34.7449</ele>
        <time>2014-05-29T13:37:13Z</time>
      </trkpt>
      <trkpt lat="59.9130131" lon="17.6431251">
        <ele>34.2642</ele>
        <time>2014-05-29T13:37:14Z</time>
      </trkpt>
      <trkpt lat="59.9130468" lon="17.643118">
        <ele>34.2642</ele>
        <time>2014-05-29T13:37:15Z</time>
      </trkpt>
      <trkpt lat="59.9130813" lon="17.6431147">
        <ele>34.2642</ele>
        <time>2014-05-29T13:37:16Z</time>
      </trkpt>
      <trkpt lat="59.9131156" lon="17.6431092">
        <ele>33.7834</ele>
        <time>2014-05-29T13:37:17Z</time>
      </trkpt>
      <trkpt lat="59.913151" lon="17.6431014">
        <ele>33.3029</ele>
        <time>2014-05-29T13:37:18Z</time>
      </trkpt>
      <trkpt lat="59.913189" lon="17.6430944">
        <ele>33.3029</ele>
        <time>2014-05-29T13:37:19Z</time>
      </trkpt>
      <trkpt lat="59.9132291" lon="17.6430863">
        <ele>33.3029</ele>
        <time>2014-05-29T13:37:20Z</time>
      </trkpt>
      <trkpt lat="59.91327" lon="17.6430753">
        <ele>32.8223</ele>
        <time>2014-05-29T13:37:21Z</time>
      </trkpt>
      <trkpt lat="59.9133104" lon="17.6430644">
        <ele>32.8223</ele>
        <time>2014-05-29T13:37:22Z</time>
      </trkpt>
      <trkpt lat="59.9133515" lon="17.643055">
        <ele>32.8223</ele>
        <time>2014-05-29T13:37:23Z</time>
      </trkpt>
      <trkpt lat="59.9133938" lon="17.6430454">
        <ele>32.8223</ele>
        <time>2014-05-29T13:37:24Z</time>
      </trkpt>
      <trkpt lat="59.9134361" lon="17.643036">
        <ele>32.8223</ele>
        <time>2014-05-29T13:37:25Z</time>
      </trkpt>
      <trkpt lat="59.9134772" lon="17.6430255">
        <ele>32.8223</ele>
        <time>2014-05-29T13:37:26Z</time>
      </trkpt>
      <trkpt lat="59.9135193" lon="17.6430157">
        <ele>32.8223</ele>
        <time>2014-05-29T13:37:27Z</time>
      </trkpt>
      <trkpt lat="59.9135622" lon="17.6430065">
        <ele>32.3416</ele>
        <time>2014-05-29T13:37:28Z</time>
      </trkpt>
      <trkpt lat="59.9136061" lon="17.6429982">
        <ele>32.3416</ele>
        <time>2014-05-29T13:37:29Z</time>
      </trkpt>
      <trkpt lat="59.9136496" lon="17.6429908">
        <ele>32.3416</ele>
        <time>2014-05-29T13:37:30Z</time>
      </trkpt>
      <trkpt lat="59.9136938" lon="17.6429825">
        <ele>31.8607</ele>
        <time>2014-05-29T13:37:31Z</time>
      </trkpt>
      <trkpt lat="59.9137383" lon="17.6429719">
        <ele>31.8607</ele>
        <time>2014-05-29T13:37:32Z</time>
      </trkpt>
      <trkpt lat="59.9137844" lon="17.6429625">
        <ele>31.3801</ele>
        <time>2014-05-29T13:37:33Z</time>
      </trkpt>
      <trkpt lat="59.9138305" lon="17.6429556">
        <ele>31.3801</ele>
        <time>2014-05-29T13:37:34Z</time>
      </trkpt>
      <trkpt lat="59.9138741" lon="17.6429505">
        <ele>31.3801</ele>
        <time>2014-05-29T13:37:35Z</time>
      </trkpt>
      <trkpt lat="59.9139156" lon="17.6429454">
        <ele>30.8995</ele>
        <time>2014-05-29T13:37:36Z</time>
      </trkpt>
      <trkpt lat="59.9139546" lon="17.6429385">
        <ele>30.8995</ele>
        <time>2014-05-29T13:37:37Z</time>
      </trkpt>
      <trkpt lat="59.9139926" lon="17.6429299">
        <ele>30.8995</ele>
        <time>2014-05-29T13:37:38Z</time>
      </trkpt>
      <trkpt lat="59.9140308" lon="17.6429205">
        <ele>30.4188</ele>
        <time>2014-05-29T13:37:39Z</time>
      </trkpt>
      <trkpt lat="59.9140703" lon="17.6429112">
        <ele>29.9381</ele>
        <time>2014-05-29T13:37:40Z</time>
      </trkpt>
      <trkpt lat="59.9141133" lon="17.6429025">
        <ele>29.9381</ele>
        <time>2014-05-29T13:37:41Z</time>
      </trkpt>
      <trkpt lat="59.9141574" lon="17.6428929">
        <ele>29.9381</ele>
        <time>2014-05-29T13:37:42Z</time>
      </trkpt>
      <trkpt lat="59.9142045" lon="17.6428823">
        <ele>29.4575</ele>
        <time>2014-05-29T13:37:43Z</time>
      </trkpt>
      <trkpt lat="59.9142535" lon="17.6428718">
        <ele>29.4575</ele>
        <time>2014-05-29T13:37:44Z</time>
      </trkpt>
      <trkpt lat="59.9143036" lon="17.642862">
        <ele>29.4575</ele>
        <time>2014-05-29T13:37:45Z</time>
      </trkpt>
      <trkpt lat="59.9143552" lon="17.6428515">
        <ele>28.9769</ele>
        <time>2014-05-29T13:37:46Z</time>
      </trkpt>
      <trkpt lat="59.9144085" lon="17.6428408">
        <ele>28.9769</ele>
        <time>2014-05-29T13:37:47Z</time>
      </trkpt>
      <trkpt lat="59.9144635" lon="17.6428323">
        <ele>28.9769</ele>
        <time>2014-05-29T13:37:48Z</time>
      </trkpt>
      <trkpt lat="59.9145209" lon="17.6428237">
        <ele>28.4962</ele>
        <time>2014-05-29T13:37:49Z</time>
      </trkpt>
      <trkpt lat="59.9145789" lon="17.6428129">
        <ele>28.4962</ele>
        <time>2014-05-29T13:37:50Z</time>
      </trkpt>
      <trkpt lat="59.9146364" lon="17.6428013">
        <ele>28.4962</ele>
        <time>2014-05-29T13:37:51Z</time>
      </trkpt>
      <trkpt lat="59.9146933" lon="17.642791">
        <ele>28.4962</ele>
        <time>2014-05-29T13:37:52Z</time>
      </trkpt>
      <trkpt lat="59.9147496" lon="17.642782">
        <ele>28.0155</ele>
        <time>2014-05-29T13:37:53Z</time>
      </trkpt>
      <trkpt lat="59.9148064" lon="17.6427739">
        <ele>28.0155</ele>
        <time>2014-05-29T13:37:54Z</time>
      </trkpt>
      <trkpt lat="59.9148639" lon="17.6427651">
        <ele>28.0155</ele>
        <time>2014-05-29T13:37:55Z</time>
      </trkpt>
      <trkpt lat="59.914922" lon="17.6427544">
        <ele>28.0155</ele>
        <time>2014-05-29T13:37:56Z</time>
      </trkpt>
      <trkpt lat="59.914981" lon="17.6427423">
        <ele>27.5349</ele>
        <time>2014-05-29T13:37:57Z</time>
      </trkpt>
      <trkpt lat="59.9150401" lon="17.6427309">
        <ele>27.5349</ele>
        <time>2014-05-29T13:37:58Z</time>
      </trkpt>
      <trkpt lat="59.9150976" lon="17.6427202">
        <ele>27.5349</ele>
        <time>2014-05-29T13:37:59Z</time>
      </trkpt>
      <trkpt lat="59.915151" lon="17.6427033">
        <ele>27.0543</ele>
        <time>2014-05-29T13:38:00Z</time>
      </trkpt>
      <trkpt lat="59.9152017" lon="17.642672">
        <ele>26.5736</ele>
        <time>2014-05-29T13:38:01Z</time>
      </trkpt>
      <trkpt lat="59.9152551" lon="17.6426304">
        <ele>26.0929</ele>
        <time>2014-05-29T13:38:02Z</time>
      </trkpt>
      <trkpt lat="59.9153146" lon="17.6425842">
        <ele>25.6123</ele>
        <time>2014-05-29T13:38:03Z</time>
      </trkpt>
      <trkpt lat="59.9153783" lon="17.642545">
        <ele>25.1317</ele>
        <time>2014-05-29T13:38:04Z</time>
      </trkpt>
      <trkpt lat="59.915443" lon="17.6425209">
        <ele>25.1317</ele>
        <time>2014-05-29T13:38:05Z</time>
      </trkpt>
      <trkpt lat="59.9155052" lon="17.6425054">
        <ele>25.1317</ele>
        <time>2014-05-29T13:38:06Z</time>
      </trkpt>
      <trkpt lat="59.9155647" lon="17.6424954">
        <ele>25.1317</ele>
        <time>2014-05-29T13:38:07Z</time>
      </trkpt>
      <trkpt lat="59.9156209" lon="17.6424883">
        <ele>25.1317</ele>
        <time>2014-05-29T13:38:08Z</time>
      </trkpt>
      <trkpt lat="59.9156737" lon="17.6424809">
        <ele>25.1317</ele>
        <time>2014-05-29T13:38:09Z</time>
      </trkpt>
      <trkpt lat="59.9157244" lon="17.6424734">
        <ele>25.6123</ele>
        <time>2014-05-29T13:38:10Z</time>
      </trkpt>
      <trkpt lat="59.915774" lon="17.6424662">
        <ele>25.6123</ele>
        <time>2014-05-29T13:38:11Z</time>
      </trkpt>
      <trkpt lat="59.9158229" lon="17.6424636">
        <ele>25.6123</ele>
        <time>2014-05-29T13:38:12Z</time>
      </trkpt>
      <trkpt lat="59.9158714" lon="17.6424658">
        <ele>25.6123</ele>
        <time>2014-05-29T13:38:13Z</time>
      </trkpt>
      <trkpt lat="59.9159186" lon="17.6424687">
        <ele>25.6123</ele>
        <time>2014-05-29T13:38:14Z</time>
      </trkpt>
      <trkpt lat="59.9159637" lon="17.6424704">
        <ele>25.6123</ele>
        <time>2014-05-29T13:38:15Z</time>
      </trkpt>
      <trkpt lat="59.9160075" lon="17.64247">
        <ele>26.0929</ele>
        <time>2014-05-29T13:38:16Z</time>
      </trkpt>
      <trkpt lat="59.9160496" lon="17.6424679">
        <ele>26.0929</ele>
        <time>2014-05-29T13:38:17Z</time>
      </trkpt>
      <trkpt lat="59.9160899" lon="17.6424656">
        <ele>26.0929</ele>
        <time>2014-05-29T13:38:18Z</time>
      </trkpt>
      <trkpt lat="59.9161285" lon="17.6424656">
        <ele>26.5736</ele>
        <time>2014-05-29T13:38:19Z</time>
      </trkpt>
      <trkpt lat="59.916166" lon="17.6424667">
        <ele>26.5736</ele>
        <time>2014-05-29T13:38:20Z</time>
      </trkpt>
      <trkpt lat="59.9162028" lon="17.6424662">
        <ele>26.5736</ele>
        <time>2014-05-29T13:38:21Z</time>
      </trkpt>
      <trkpt lat="59.9162397" lon="17.6424631">
        <ele>26.5736</ele>
        <time>2014-05-29T13:38:22Z</time>
      </trkpt>
      <trkpt lat="59.9162765" lon="17.642459">
        <ele>26.5736</ele>
        <time>2014-05-29T13:38:23Z</time>
      </trkpt>
      <trkpt lat="59.9163138" lon="17.642456">
        <ele>26.5736</ele>
        <time>2014-05-29T13:38:24Z</time>
      </trkpt>
      <trkpt lat="59.9163522" lon="17.6424539">
        <ele>26.5736</ele>
        <time>2014-05-29T13:38:25Z</time>
      </trkpt>
      <trkpt lat="59.9163925" lon="17.6424501">
        <ele>26.5736</ele>
        <time>2014-05-29T13:38:26Z</time>
      </trkpt>
      <trkpt lat="59.9164347" lon="17.6424429">
        <ele>26.5736</ele>
        <time>2014-05-29T13:38:27Z</time>
      </trkpt>
      <trkpt lat="59.9164782" lon="17.6424336">
        <ele>26.5736</ele>
        <time>2014-05-29T13:38:28Z</time>
      </trkpt>
      <trkpt lat="59.9165222" lon="17.6424261">
        <ele>26.5736</ele>
        <time>2014-05-29T13:38:29Z</time>
      </trkpt>
      <trkpt lat="59.9165671" lon="17.6424196">
        <ele>26.5736</ele>
        <time>2014-05-29T13:38:30Z</time>
      </trkpt>
      <trkpt lat="59.9166127" lon="17.6424133">
        <ele>26.5736</ele>
        <time>2014-05-29T13:38:31Z</time>
      </trkpt>
      <trkpt lat="59.9166594" lon="17.6424082">
        <ele>26.5736</ele>
        <time>2014-05-29T13:38:32Z</time>
      </trkpt>
      <trkpt lat="59.916708" lon="17.6424029">
        <ele>26.5736</ele>
        <time>2014-05-29T13:38:33Z</time>
      </trkpt>
      <trkpt lat="59.9167583" lon="17.6423961">
        <ele>26.0929</ele>
        <time>2014-05-29T13:38:34Z</time>
      </trkpt>
      <trkpt lat="59.9168101" lon="17.642389">
        <ele>26.0929</ele>
        <time>2014-05-29T13:38:35Z</time>
      </trkpt>
      <trkpt lat="59.9168627" lon="17.6423818">
        <ele>26.0929</ele>
        <time>2014-05-29T13:38:36Z</time>
      </trkpt>
      <trkpt lat="59.9169153" lon="17.6423747">
        <ele>26.0929</ele>
        <time>2014-05-29T13:38:37Z</time>
      </trkpt>
      <trkpt lat="59.9169674" lon="17.6423662">
        <ele>26.0929</ele>
        <time>2014-05-29T13:38:38Z</time>
      </trkpt>
      <trkpt lat="59.9170188" lon="17.6423539">
        <ele>25.6123</ele>
        <time>2014-05-29T13:38:39Z</time>
      </trkpt>
      <trkpt lat="59.9170696" lon="17.6423372">
        <ele>25.6123</ele>
        <time>2014-05-29T13:38:40Z</time>
      </trkpt>
      <trkpt lat="59.9171199" lon="17.6423168">
        <ele>25.6123</ele>
        <time>2014-05-29T13:38:41Z</time>
      </trkpt>
      <trkpt lat="59.9171707" lon="17.6422989">
        <ele>25.6123</ele>
        <time>2014-05-29T13:38:42Z</time>
      </trkpt>
      <trkpt lat="59.9172225" lon="17.6422907">
        <ele>25.6123</ele>
        <time>2014-05-29T13:38:43Z</time>
      </trkpt>
      <trkpt lat="59.9172742" lon="17.6422916">
        <ele>25.6123</ele>
        <time>2014-05-29T13:38:44Z</time>
      </trkpt>
      <trkpt lat="59.9173248" lon="17.6422937">
        <ele>25.6123</ele>
        <time>2014-05-29T13:38:45Z</time>
      </trkpt>
      <trkpt lat="59.9173742" lon="17.6422942">
        <ele>25.6123</ele>
        <time>2014-05-29T13:38:46Z</time>
      </trkpt>
      <trkpt lat="59.9174229" lon="17.6422935">
        <ele>25.6123</ele>
        <time>2014-05-29T13:38:47Z</time>
      </trkpt>
      <trkpt lat="59.917471" lon="17.6422925">
        <ele>25.6123</ele>
        <time>2014-05-29T13:38:48Z</time>
      </trkpt>
      <trkpt lat="59.917518" lon="17.6422906">
        <ele>25.6123</ele>
        <time>2014-05-29T13:38:49Z</time>
      </trkpt>
      <trkpt lat="59.9175643" lon="17.6422902">
        <ele>25.6123</ele>
        <time>2014-05-29T13:38:50Z</time>
      </trkpt>
      <trkpt lat="59.9176099" lon="17.6422912">
        <ele>25.6123</ele>
        <time>2014-05-29T13:38:51Z</time>
      </trkpt>
      <trkpt lat="59.9176549" lon="17.6422921">
        <ele>25.6123</ele>
        <time>2014-05-29T13:38:52Z</time>
      </trkpt>
      <trkpt lat="59.9176994" lon="17.6422932">
        <ele>26.0929</ele>
        <time>2014-05-29T13:38:53Z</time>
      </trkpt>
      <trkpt lat="59.917743" lon="17.6422936">
        <ele>26.0929</ele>
        <time>2014-05-29T13:38:54Z</time>
      </trkpt>
      <trkpt lat="59.9177859" lon="17.6422911">
        <ele>26.0929</ele>
        <time>2014-05-29T13:38:55Z</time>
      </trkpt>
      <trkpt lat="59.9178284" lon="17.6422885">
        <ele>26.0929</ele>
        <time>2014-05-29T13:38:56Z</time>
      </trkpt>
      <trkpt lat="59.91787" lon="17.642287">
        <ele>26.0929</ele>
        <time>2014-05-29T13:38:57Z</time>
      </trkpt>
      <trkpt lat="59.9179115" lon="17.6422833">
        <ele>26.0929</ele>
        <time>2014-05-29T13:38:58Z</time>
      </trkpt>
      <trkpt lat="59.9179528" lon="17.6422767">
        <ele>26.0929</ele>
        <time>2014-05-29T13:38:59Z</time>
      </trkpt>
      <trkpt lat="59.9179939" lon="17.6422704">
        <ele>26.5736</ele>
        <time>2014-05-29T13:39:00Z</time>
      </trkpt>
      <trkpt lat="59.9180347" lon="17.6422658">
        <ele>26.5736</ele>
        <time>2014-05-29T13:39:01Z</time>
      </trkpt>
      <trkpt lat="59.9180746" lon="17.6422631">
        <ele>26.5736</ele>
        <time>2014-05-29T13:39:02Z</time>
      </trkpt>
      <trkpt lat="59.9181139" lon="17.642262">
        <ele>26.5736</ele>
        <time>2014-05-29T13:39:03Z</time>
      </trkpt>
      <trkpt lat="59.9181523" lon="17.6422583">
        <ele>27.0543</ele>
        <time>2014-05-29T13:39:04Z</time>
      </trkpt>
      <trkpt lat="59.9181902" lon="17.6422527">
        <ele>27.0543</ele>
        <time>2014-05-29T13:39:05Z</time>
      </trkpt>
      <trkpt lat="59.9182275" lon="17.64225">
        <ele>27.0543</ele>
        <time>2014-05-29T13:39:06Z</time>
      </trkpt>
      <trkpt lat="59.9182642" lon="17.6422487">
        <ele>27.5349</ele>
        <time>2014-05-29T13:39:07Z</time>
      </trkpt>
      <trkpt lat="59.9182998" lon="17.6422466">
        <ele>27.5349</ele>
        <time>2014-05-29T13:39:08Z</time>
      </trkpt>
      <trkpt lat="59.9183346" lon="17.6422456">
        <ele>27.5349</ele>
        <time>2014-05-29T13:39:09Z</time>
      </trkpt>
      <trkpt lat="59.9183683" lon="17.6422433">
        <ele>27.5349</ele>
        <time>2014-05-29T13:39:10Z</time>
      </trkpt>
      <trkpt lat="59.9184019" lon="17.6422377">
        <ele>27.5349</ele>
        <time>2014-05-29T13:39:11Z</time>
      </trkpt>
      <trkpt lat="59.9184356" lon="17.6422335">
        <ele>28.0155</ele>
        <time>2014-05-29T13:39:12Z</time>
      </trkpt>
      <trkpt lat="59.9184691" lon="17.6422316">
        <ele>28.0155</ele>
        <time>2014-05-29T13:39:13Z</time>
      </trkpt>
      <trkpt lat="59.9185027" lon="17.6422295">
        <ele>28.0155</ele>
        <time>2014-05-29T13:39:14Z</time>
      </trkpt>
      <trkpt lat="59.9185359" lon="17.6422262">
        <ele>28.0155</ele>
        <time>2014-05-29T13:39:15Z</time>
      </trkpt>
      <trkpt lat="59.9185693" lon="17.6422224">
        <ele>28.0155</ele>
        <time>2014-05-29T13:39:16Z</time>
      </trkpt>
      <trkpt lat="59.9186032" lon="17.6422182">
        <ele>28.0155</ele>
        <time>2014-05-29T13:39:17Z</time>
      </trkpt>
      <trkpt lat="59.9186371" lon="17.6422125">
        <ele>28.0155</ele>
        <time>2014-05-29T13:39:18Z</time>
      </trkpt>
      <trkpt lat="59.9186703" lon="17.6422063">
        <ele>28.4962</ele>
        <time>2014-05-29T13:39:19Z</time>
      </trkpt>
      <trkpt lat="59.9187037" lon="17.6422021">
        <ele>28.4962</ele>
        <time>2014-05-29T13:39:20Z</time>
      </trkpt>
      <trkpt lat="59.9187371" lon="17.6421979">
        <ele>28.4962</ele>
        <time>2014-05-29T13:39:21Z</time>
      </trkpt>
      <trkpt lat="59.9187711" lon="17.6421927">
        <ele>28.4962</ele>
        <time>2014-05-29T13:39:22Z</time>
      </trkpt>
      <trkpt lat="59.9188055" lon="17.642187">
        <ele>28.4962</ele>
        <time>2014-05-29T13:39:23Z</time>
      </trkpt>
      <trkpt lat="59.9188401" lon="17.6421802">
        <ele>28.4962</ele>
        <time>2014-05-29T13:39:24Z</time>
      </trkpt>
      <trkpt lat="59.9188748" lon="17.6421737">
        <ele>28.4962</ele>
        <time>2014-05-29T13:39:25Z</time>
      </trkpt>
      <trkpt lat="59.9189096" lon="17.6421703">
        <ele>28.4962</ele>
        <time>2014-05-29T13:39:26Z</time>
      </trkpt>
      <trkpt lat="59.9189452" lon="17.6421682">
        <ele>28.4962</ele>
        <time>2014-05-29T13:39:27Z</time>
      </trkpt>
      <trkpt lat="59.9189811" lon="17.6421649">
        <ele>28.4962</ele>
        <time>2014-05-29T13:39:28Z</time>
      </trkpt>
      <trkpt lat="59.9190164" lon="17.6421605">
        <ele>28.4962</ele>
        <time>2014-05-29T13:39:29Z</time>
      </trkpt>
      <trkpt lat="59.9190515" lon="17.6421569">
        <ele>28.4962</ele>
        <time>2014-05-29T13:39:30Z</time>
      </trkpt>
      <trkpt lat="59.9190863" lon="17.6421559">
        <ele>28.4962</ele>
        <time>2014-05-29T13:39:31Z</time>
      </trkpt>
      <trkpt lat="59.9191213" lon="17.6421535">
        <ele>28.4962</ele>
        <time>2014-05-29T13:39:32Z</time>
      </trkpt>
      <trkpt lat="59.9191562" lon="17.6421486">
        <ele>28.4962</ele>
        <time>2014-05-29T13:39:33Z</time>
      </trkpt>
      <trkpt lat="59.9191919" lon="17.6421425">
        <ele>28.4962</ele>
        <time>2014-05-29T13:39:34Z</time>
      </trkpt>
      <trkpt lat="59.9192292" lon="17.6421367">
        <ele>28.4962</ele>
        <time>2014-05-29T13:39:35Z</time>
      </trkpt>
      <trkpt lat="59.9192674" lon="17.6421321">
        <ele>28.4962</ele>
        <time>2014-05-29T13:39:36Z</time>
      </trkpt>
      <trkpt lat="59.9193063" lon="17.642128">
        <ele>28.4962</ele>
        <time>2014-05-29T13:39:37Z</time>
      </trkpt>
      <trkpt lat="59.9193458" lon="17.6421244">
        <ele>28.4962</ele>
        <time>2014-05-29T13:39:38Z</time>
      </trkpt>
      <trkpt lat="59.9193867" lon="17.6421206">
        <ele>28.4962</ele>
        <time>2014-05-29T13:39:39Z</time>
      </trkpt>
      <trkpt lat="59.9194285" lon="17.6421174">
        <ele>28.4962</ele>
        <time>2014-05-29T13:39:40Z</time>
      </trkpt>
      <trkpt lat="59.9194716" lon="17.6421144">
        <ele>28.4962</ele>
        <time>2014-05-29T13:39:41Z</time>
      </trkpt>
      <trkpt lat="59.9195155" lon="17.6421102">
        <ele>28.4962</ele>
        <time>2014-05-29T13:39:42Z</time>
      </trkpt>
      <trkpt lat="59.9195587" lon="17.6421067">
        <ele>28.4962</ele>
        <time>2014-05-29T13:39:43Z</time>
      </trkpt>
      <trkpt lat="59.9196011" lon="17.6421032">
        <ele>28.4962</ele>
        <time>2014-05-29T13:39:44Z</time>
      </trkpt>
      <trkpt lat="59.9196424" lon="17.6420983">
        <ele>28.4962</ele>
        <time>2014-05-29T13:39:45Z</time>
      </trkpt>
      <trkpt lat="59.9196838" lon="17.6420915">
        <ele>28.4962</ele>
        <time>2014-05-29T13:39:46Z</time>
      </trkpt>
      <trkpt lat="59.9197255" lon="17.6420829">
        <ele>28.4962</ele>
        <time>2014-05-29T13:39:47Z</time>
      </trkpt>
      <trkpt lat="59.9197675" lon="17.642072">
        <ele>28.4962</ele>
        <time>2014-05-29T13:39:48Z</time>
      </trkpt>
      <trkpt lat="59.9198099" lon="17.6420591">
        <ele>28.4962</ele>
        <time>2014-05-29T13:39:49Z</time>
      </trkpt>
      <trkpt lat="59.9198527" lon="17.6420467">
        <ele>28.4962</ele>
        <time>2014-05-29T13:39:50Z</time>
      </trkpt>
      <trkpt lat="59.919896" lon="17.6420349">
        <ele>28.4962</ele>
        <time>2014-05-29T13:39:51Z</time>
      </trkpt>
      <trkpt lat="59.91994" lon="17.6420233">
        <ele>28.0155</ele>
        <time>2014-05-29T13:39:52Z</time>
      </trkpt>
      <trkpt lat="59.9199848" lon="17.6420145">
        <ele>28.0155</ele>
        <time>2014-05-29T13:39:53Z</time>
      </trkpt>
      <trkpt lat="59.9200301" lon="17.6420093">
        <ele>28.0155</ele>
        <time>2014-05-29T13:39:54Z</time>
      </trkpt>
      <trkpt lat="59.9200754" lon="17.6420062">
        <ele>28.0155</ele>
        <time>2014-05-29T13:39:55Z</time>
      </trkpt>
      <trkpt lat="59.92012" lon="17.6420047">
        <ele>28.0155</ele>
        <time>2014-05-29T13:39:56Z</time>
      </trkpt>
      <trkpt lat="59.9201631" lon="17.6420022">
        <ele>28.4962</ele>
        <time>2014-05-29T13:39:57Z</time>
      </trkpt>
      <trkpt lat="59.9202051" lon="17.641999">
        <ele>28.4962</ele>
        <time>2014-05-29T13:39:58Z</time>
      </trkpt>
      <trkpt lat="59.9202476" lon="17.641997">
        <ele>28.0155</ele>
        <time>2014-05-29T13:39:59Z</time>
      </trkpt>
      <trkpt lat="59.9202922" lon="17.6419954">
        <ele>28.0155</ele>
        <time>2014-05-29T13:40:00Z</time>
      </trkpt>
      <trkpt lat="59.9203387" lon="17.6419926">
        <ele>28.0155</ele>
        <time>2014-05-29T13:40:01Z</time>
      </trkpt>
      <trkpt lat="59.9203854" lon="17.6419915">
        <ele>28.0155</ele>
        <time>2014-05-29T13:40:02Z</time>
      </trkpt>
      <trkpt lat="59.9204324" lon="17.6419903">
        <ele>28.0155</ele>
        <time>2014-05-29T13:40:03Z</time>
      </trkpt>
      <trkpt lat="59.9204793" lon="17.6419877">
        <ele>28.0155</ele>
        <time>2014-05-29T13:40:04Z</time>
      </trkpt>
      <trkpt lat="59.9205274" lon="17.6419861">
        <ele>28.0155</ele>
        <time>2014-05-29T13:40:05Z</time>
      </trkpt>
      <trkpt lat="59.9205755" lon="17.6419838">
        <ele>27.5349</ele>
        <time>2014-05-29T13:40:06Z</time>
      </trkpt>
      <trkpt lat="59.920623" lon="17.6419804">
        <ele>27.5349</ele>
        <time>2014-05-29T13:40:07Z</time>
      </trkpt>
      <trkpt lat="59.9206702" lon="17.641977">
        <ele>27.5349</ele>
        <time>2014-05-29T13:40:08Z</time>
      </trkpt>
      <trkpt lat="59.9207173" lon="17.6419736">
        <ele>27.5349</ele>
        <time>2014-05-29T13:40:09Z</time>
      </trkpt>
      <trkpt lat="59.9207646" lon="17.6419724">
        <ele>27.5349</ele>
        <time>2014-05-29T13:40:10Z</time>
      </trkpt>
      <trkpt lat="59.9208108" lon="17.6419709">
        <ele>27.5349</ele>
        <time>2014-05-29T13:40:11Z</time>
      </trkpt>
      <trkpt lat="59.9208576" lon="17.6419706">
        <ele>27.5349</ele>
        <time>2014-05-29T13:40:12Z</time>
      </trkpt>
      <trkpt lat="59.9209045" lon="17.6419721">
        <ele>27.5349</ele>
        <time>2014-05-29T13:40:13Z</time>
      </trkpt>
      <trkpt lat="59.9209488" lon="17.6419687">
        <ele>27.5349</ele>
        <time>2014-05-29T13:40:14Z</time>
      </trkpt>
      <trkpt lat="59.9209904" lon="17.6419639">
        <ele>27.5349</ele>
        <time>2014-05-29T13:40:15Z</time>
      </trkpt>
      <trkpt lat="59.9210329" lon="17.6419581">
        <ele>27.5349</ele>
        <time>2014-05-29T13:40:16Z</time>
      </trkpt>
      <trkpt lat="59.921075" lon="17.6419555">
        <ele>27.5349</ele>
        <time>2014-05-29T13:40:17Z</time>
      </trkpt>
      <trkpt lat="59.9211179" lon="17.6419535">
        <ele>27.5349</ele>
        <time>2014-05-29T13:40:18Z</time>
      </trkpt>
      <trkpt lat="59.921161" lon="17.6419518">
        <ele>27.5349</ele>
        <time>2014-05-29T13:40:19Z</time>
      </trkpt>
      <trkpt lat="59.9212044" lon="17.6419482">
        <ele>28.0155</ele>
        <time>2014-05-29T13:40:20Z</time>
      </trkpt>
      <trkpt lat="59.9212477" lon="17.6419437">
        <ele>28.0155</ele>
        <time>2014-05-29T13:40:21Z</time>
      </trkpt>
      <trkpt lat="59.9212886" lon="17.6419389">
        <ele>28.0155</ele>
        <time>2014-05-29T13:40:22Z</time>
      </trkpt>
      <trkpt lat="59.9213278" lon="17.6419326">
        <ele>28.0155</ele>
        <time>2014-05-29T13:40:23Z</time>
      </trkpt>
      <trkpt lat="59.9213696" lon="17.6419265">
        <ele>28.0155</ele>
        <time>2014-05-29T13:40:24Z</time>
      </trkpt>
      <trkpt lat="59.9214105" lon="17.6419191">
        <ele>28.0155</ele>
        <time>2014-05-29T13:40:25Z</time>
      </trkpt>
      <trkpt lat="59.9214514" lon="17.6419124">
        <ele>28.4962</ele>
        <time>2014-05-29T13:40:26Z</time>
      </trkpt>
      <trkpt lat="59.9214919" lon="17.6419072">
        <ele>28.4962</ele>
        <time>2014-05-29T13:40:27Z</time>
      </trkpt>
      <trkpt lat="59.9215331" lon="17.6419026">
        <ele>28.0155</ele>
        <time>2014-05-29T13:40:28Z</time>
      </trkpt>
      <trkpt lat="59.921574" lon="17.641896">
        <ele>28.4962</ele>
        <time>2014-05-29T13:40:29Z</time>
      </trkpt>
      <trkpt lat="59.9216148" lon="17.6418871">
        <ele>28.4962</ele>
        <time>2014-05-29T13:40:30Z</time>
      </trkpt>
      <trkpt lat="59.9216588" lon="17.6418802">
        <ele>28.4962</ele>
        <time>2014-05-29T13:40:31Z</time>
      </trkpt>
      <trkpt lat="59.9217033" lon="17.6418732">
        <ele>28.4962</ele>
        <time>2014-05-29T13:40:32Z</time>
      </trkpt>
      <trkpt lat="59.9217463" lon="17.6418659">
        <ele>28.4962</ele>
        <time>2014-05-29T13:40:33Z</time>
      </trkpt>
      <trkpt lat="59.9217882" lon="17.64186">
        <ele>28.4962</ele>
        <time>2014-05-29T13:40:34Z</time>
      </trkpt>
      <trkpt lat="59.9218315" lon="17.6418544">
        <ele>28.4962</ele>
        <time>2014-05-29T13:40:35Z</time>
      </trkpt>
      <trkpt lat="59.9218753" lon="17.6418492">
        <ele>28.4962</ele>
        <time>2014-05-29T13:40:36Z</time>
      </trkpt>
      <trkpt lat="59.9219192" lon="17.6418444">
        <ele>28.4962</ele>
        <time>2014-05-29T13:40:37Z</time>
      </trkpt>
      <trkpt lat="59.9219639" lon="17.6418394">
        <ele>28.4962</ele>
        <time>2014-05-29T13:40:38Z</time>
      </trkpt>
      <trkpt lat="59.92201" lon="17.6418354">
        <ele>28.4962</ele>
        <time>2014-05-29T13:40:39Z</time>
      </trkpt>
      <trkpt lat="59.9220571" lon="17.641833">
        <ele>28.4962</ele>
        <time>2014-05-29T13:40:40Z</time>
      </trkpt>
      <trkpt lat="59.9221042" lon="17.6418292">
        <ele>28.4962</ele>
        <time>2014-05-29T13:40:41Z</time>
      </trkpt>
      <trkpt lat="59.9221513" lon="17.6418239">
        <ele>28.4962</ele>
        <time>2014-05-29T13:40:42Z</time>
      </trkpt>
      <trkpt lat="59.9221984" lon="17.6418187">
        <ele>28.4962</ele>
        <time>2014-05-29T13:40:43Z</time>
      </trkpt>
      <trkpt lat="59.9222451" lon="17.6418146">
        <ele>28.4962</ele>
        <time>2014-05-29T13:40:44Z</time>
      </trkpt>
      <trkpt lat="59.9222912" lon="17.641811">
        <ele>28.4962</ele>
        <time>2014-05-29T13:40:45Z</time>
      </trkpt>
      <trkpt lat="59.9223365" lon="17.6418061">
        <ele>28.4962</ele>
        <time>2014-05-29T13:40:46Z</time>
      </trkpt>
      <trkpt lat="59.9223802" lon="17.6417996">
        <ele>28.4962</ele>
        <time>2014-05-29T13:40:47Z</time>
      </trkpt>
      <trkpt lat="59.9224231" lon="17.6417939">
        <ele>28.4962</ele>
        <time>2014-05-29T13:40:48Z</time>
      </trkpt>
      <trkpt lat="59.9224655" lon="17.64179">
        <ele>28.4962</ele>
        <time>2014-05-29T13:40:49Z</time>
      </trkpt>
      <trkpt lat="59.9225078" lon="17.6417839">
        <ele>28.4962</ele>
        <time>2014-05-29T13:40:50Z</time>
      </trkpt>
      <trkpt lat="59.9225502" lon="17.6417766">
        <ele>28.4962</ele>
        <time>2014-05-29T13:40:51Z</time>
      </trkpt>
      <trkpt lat="59.922592" lon="17.6417701">
        <ele>28.4962</ele>
        <time>2014-05-29T13:40:52Z</time>
      </trkpt>
      <trkpt lat="59.922633" lon="17.6417642">
        <ele>28.4962</ele>
        <time>2014-05-29T13:40:53Z</time>
      </trkpt>
      <trkpt lat="59.9226732" lon="17.6417597">
        <ele>28.4962</ele>
        <time>2014-05-29T13:40:54Z</time>
      </trkpt>
      <trkpt lat="59.9227121" lon="17.6417546">
        <ele>28.4962</ele>
        <time>2014-05-29T13:40:55Z</time>
      </trkpt>
      <trkpt lat="59.9227509" lon="17.6417479">
        <ele>28.4962</ele>
        <time>2014-05-29T13:40:56Z</time>
      </trkpt>
      <trkpt lat="59.9227903" lon="17.6417421">
        <ele>28.4962</ele>
        <time>2014-05-29T13:40:57Z</time>
      </trkpt>
      <trkpt lat="59.9228297" lon="17.6417377">
        <ele>28.4962</ele>
        <time>2014-05-29T13:40:58Z</time>
      </trkpt>
      <trkpt lat="59.9228694" lon="17.6417346">
        <ele>28.4962</ele>
        <time>2014-05-29T13:40:59Z</time>
      </trkpt>
      <trkpt lat="59.9229098" lon="17.6417318">
        <ele>28.0155</ele>
        <time>2014-05-29T13:41:00Z</time>
      </trkpt>
      <trkpt lat="59.922951" lon="17.641728">
        <ele>28.0155</ele>
        <time>2014-05-29T13:41:01Z</time>
      </trkpt>
      <trkpt lat="59.9229929" lon="17.6417243">
        <ele>28.0155</ele>
        <time>2014-05-29T13:41:02Z</time>
      </trkpt>
      <trkpt lat="59.9230354" lon="17.641722">
        <ele>28.0155</ele>
        <time>2014-05-29T13:41:03Z</time>
      </trkpt>
      <trkpt lat="59.9230786" lon="17.6417193">
        <ele>28.0155</ele>
        <time>2014-05-29T13:41:04Z</time>
      </trkpt>
      <trkpt lat="59.9231224" lon="17.641715">
        <ele>28.0155</ele>
        <time>2014-05-29T13:41:05Z</time>
      </trkpt>
      <trkpt lat="59.9231671" lon="17.6417094">
        <ele>27.5349</ele>
        <time>2014-05-29T13:41:06Z</time>
      </trkpt>
      <trkpt lat="59.9232131" lon="17.6417041">
        <ele>27.5349</ele>
        <time>2014-05-29T13:41:07Z</time>
      </trkpt>
      <trkpt lat="59.9232593" lon="17.6416981">
        <ele>27.5349</ele>
        <time>2014-05-29T13:41:08Z</time>
      </trkpt>
      <trkpt lat="59.9233055" lon="17.6416913">
        <ele>27.5349</ele>
        <time>2014-05-29T13:41:09Z</time>
      </trkpt>
      <trkpt lat="59.9233515" lon="17.6416852">
        <ele>27.5349</ele>
        <time>2014-05-29T13:41:10Z</time>
      </trkpt>
      <trkpt lat="59.9233972" lon="17.6416789">
        <ele>27.5349</ele>
        <time>2014-05-29T13:41:11Z</time>
      </trkpt>
      <trkpt lat="59.9234432" lon="17.6416721">
        <ele>27.0543</ele>
        <time>2014-05-29T13:41:12Z</time>
      </trkpt>
      <trkpt lat="59.9234898" lon="17.6416667">
        <ele>27.0543</ele>
        <time>2014-05-29T13:41:13Z</time>
      </trkpt>
      <trkpt lat="59.9235368" lon="17.6416613">
        <ele>27.0543</ele>
        <time>2014-05-29T13:41:14Z</time>
      </trkpt>
      <trkpt lat="59.9235842" lon="17.6416541">
        <ele>27.0543</ele>
        <time>2014-05-29T13:41:15Z</time>
      </trkpt>
      <trkpt lat="59.9236322" lon="17.6416471">
        <ele>26.5736</ele>
        <time>2014-05-29T13:41:16Z</time>
      </trkpt>
      <trkpt lat="59.9236804" lon="17.6416404">
        <ele>26.5736</ele>
        <time>2014-05-29T13:41:17Z</time>
      </trkpt>
      <trkpt lat="59.9237285" lon="17.6416338">
        <ele>26.5736</ele>
        <time>2014-05-29T13:41:18Z</time>
      </trkpt>
      <trkpt lat="59.9237763" lon="17.641628">
        <ele>26.5736</ele>
        <time>2014-05-29T13:41:19Z</time>
      </trkpt>
      <trkpt lat="59.923824" lon="17.6416236">
        <ele>26.0929</ele>
        <time>2014-05-29T13:41:20Z</time>
      </trkpt>
      <trkpt lat="59.9238714" lon="17.6416188">
        <ele>26.0929</ele>
        <time>2014-05-29T13:41:21Z</time>
      </trkpt>
      <trkpt lat="59.9239173" lon="17.6416127">
        <ele>26.0929</ele>
        <time>2014-05-29T13:41:22Z</time>
      </trkpt>
      <trkpt lat="59.9239615" lon="17.6416061">
        <ele>26.0929</ele>
        <time>2014-05-29T13:41:23Z</time>
      </trkpt>
      <trkpt lat="59.9240035" lon="17.6416002">
        <ele>26.0929</ele>
        <time>2014-05-29T13:41:24Z</time>
      </trkpt>
      <trkpt lat="59.9240437" lon="17.6415961">
        <ele>26.0929</ele>
        <time>2014-05-29T13:41:25Z</time>
      </trkpt>
      <trkpt lat="59.9240825" lon="17.6415937">
        <ele>26.0929</ele>
        <time>2014-05-29T13:41:26Z</time>
      </trkpt>
      <trkpt lat="59.9241212" lon="17.6415906">
        <ele>26.0929</ele>
        <time>2014-05-29T13:41:27Z</time>
      </trkpt>
      <trkpt lat="59.9241605" lon="17.6415865">
        <ele>26.0929</ele>
        <time>2014-05-29T13:41:28Z</time>
      </trkpt>
      <trkpt lat="59.9242001" lon="17.6415829">
        <ele>26.0929</ele>
        <time>2014-05-29T13:41:29Z</time>
      </trkpt>
      <trkpt lat="59.9242399" lon="17.6415794">
        <ele>26.0929</ele>
        <time>2014-05-29T13:41:30Z</time>
      </trkpt>
      <trkpt lat="59.9242797" lon="17.6415771">
        <ele>26.0929</ele>
        <time>2014-05-29T13:41:31Z</time>
      </trkpt>
      <trkpt lat="59.9243191" lon="17.6415751">
        <ele>26.0929</ele>
        <time>2014-05-29T13:41:32Z</time>
      </trkpt>
      <trkpt lat="59.9243581" lon="17.6415726">
        <ele>26.0929</ele>
        <time>2014-05-29T13:41:33Z</time>
      </trkpt>
      <trkpt lat="59.9243978" lon="17.64157">
        <ele>26.0929</ele>
        <time>2014-05-29T13:41:34Z</time>
      </trkpt>
      <trkpt lat="59.9244374" lon="17.6415673">
        <ele>26.0929</ele>
        <time>2014-05-29T13:41:35Z</time>
      </trkpt>
      <trkpt lat="59.9244767" lon="17.6415629">
        <ele>26.0929</ele>
        <time>2014-05-29T13:41:36Z</time>
      </trkpt>
      <trkpt lat="59.9245145" lon="17.6415578">
        <ele>26.0929</ele>
        <time>2014-05-29T13:41:37Z</time>
      </trkpt>
      <trkpt lat="59.9245507" lon="17.641552">
        <ele>26.0929</ele>
        <time>2014-05-29T13:41:38Z</time>
      </trkpt>
      <trkpt lat="59.9245866" lon="17.6415458">
        <ele>25.6123</ele>
        <time>2014-05-29T13:41:39Z</time>
      </trkpt>
      <trkpt lat="59.9246234" lon="17.6415379">
        <ele>25.6123</ele>
        <time>2014-05-29T13:41:40Z</time>
      </trkpt>
      <trkpt lat="59.9246607" lon="17.6415272">
        <ele>25.6123</ele>
        <time>2014-05-29T13:41:41Z</time>
      </trkpt>
      <trkpt lat="59.9246989" lon="17.6415171">
        <ele>25.6123</ele>
        <time>2014-05-29T13:41:42Z</time>
      </trkpt>
      <trkpt lat="59.9247377" lon="17.641507">
        <ele>25.6123</ele>
        <time>2014-05-29T13:41:43Z</time>
      </trkpt>
      <trkpt lat="59.924778" lon="17.6414963">
        <ele>25.6123</ele>
        <time>2014-05-29T13:41:44Z</time>
      </trkpt>
      <trkpt lat="59.9248191" lon="17.6414851">
        <ele>25.6123</ele>
        <time>2014-05-29T13:41:45Z</time>
      </trkpt>
      <trkpt lat="59.9248608" lon="17.6414758">
        <ele>25.6123</ele>
        <time>2014-05-29T13:41:46Z</time>
      </trkpt>
      <trkpt lat="59.924903" lon="17.6414709">
        <ele>25.6123</ele>
        <time>2014-05-29T13:41:47Z</time>
      </trkpt>
      <trkpt lat="59.9249459" lon="17.6414679">
        <ele>25.6123</ele>
        <time>2014-05-29T13:41:48Z</time>
      </trkpt>
      <trkpt lat="59.9249891" lon="17.6414655">
        <ele>25.6123</ele>
        <time>2014-05-29T13:41:49Z</time>
      </trkpt>
      <trkpt lat="59.9250326" lon="17.641464">
        <ele>25.6123</ele>
        <time>2014-05-29T13:41:50Z</time>
      </trkpt>
      <trkpt lat="59.9250766" lon="17.6414634">
        <ele>25.6123</ele>
        <time>2014-05-29T13:41:51Z</time>
      </trkpt>
      <trkpt lat="59.9251211" lon="17.6414642">
        <ele>25.6123</ele>
        <time>2014-05-29T13:41:52Z</time>
      </trkpt>
      <trkpt lat="59.9251659" lon="17.6414654">
        <ele>25.6123</ele>
        <time>2014-05-29T13:41:53Z</time>
      </trkpt>
      <trkpt lat="59.9252107" lon="17.6414666">
        <ele>25.6123</ele>
        <time>2014-05-29T13:41:54Z</time>
      </trkpt>
      <trkpt lat="59.9252545" lon="17.641467">
        <ele>25.6123</ele>
        <time>2014-05-29T13:41:55Z</time>
      </trkpt>
      <trkpt lat="59.9252966" lon="17.6414659">
        <ele>25.6123</ele>
        <time>2014-05-29T13:41:56Z</time>
      </trkpt>
      <trkpt lat="59.925338" lon="17.6414634">
        <ele>25.6123</ele>
        <time>2014-05-29T13:41:57Z</time>
      </trkpt>
      <trkpt lat="59.9253794" lon="17.6414595">
        <ele>25.1317</ele>
        <time>2014-05-29T13:41:58Z</time>
      </trkpt>
      <trkpt lat="59.9254211" lon="17.6414554">
        <ele>25.1317</ele>
        <time>2014-05-29T13:41:59Z</time>
      </trkpt>
      <trkpt lat="59.9254636" lon="17.6414516">
        <ele>25.1317</ele>
        <time>2014-05-29T13:42:00Z</time>
      </trkpt>
      <trkpt lat="59.9255065" lon="17.6414484">
        <ele>25.1317</ele>
        <time>2014-05-29T13:42:01Z</time>
      </trkpt>
      <trkpt lat="59.9255498" lon="17.6414437">
        <ele>25.1317</ele>
        <time>2014-05-29T13:42:02Z</time>
      </trkpt>
      <trkpt lat="59.9255926" lon="17.6414362">
        <ele>25.1317</ele>
        <time>2014-05-29T13:42:03Z</time>
      </trkpt>
      <trkpt lat="59.9256344" lon="17.6414297">
        <ele>25.1317</ele>
        <time>2014-05-29T13:42:04Z</time>
      </trkpt>
      <trkpt lat="59.9256744" lon="17.6414261">
        <ele>24.651</ele>
        <time>2014-05-29T13:42:05Z</time>
      </trkpt>
      <trkpt lat="59.9257131" lon="17.6414225">
        <ele>24.651</ele>
        <time>2014-05-29T13:42:06Z</time>
      </trkpt>
      <trkpt lat="59.9257515" lon="17.6414162">
        <ele>24.651</ele>
        <time>2014-05-29T13:42:07Z</time>
      </trkpt>
      <trkpt lat="59.9257896" lon="17.6414094">
        <ele>24.651</ele>
        <time>2014-05-29T13:42:08Z</time>
      </trkpt>
      <trkpt lat="59.9258275" lon="17.6414041">
        <ele>24.651</ele>
        <time>2014-05-29T13:42:09Z</time>
      </trkpt>
      <trkpt lat="59.9258648" lon="17.6413987">
        <ele>24.651</ele>
        <time>2014-05-29T13:42:10Z</time>
      </trkpt>
      <trkpt lat="59.9259013" lon="17.6413923">
        <ele>24.651</ele>
        <time>2014-05-29T13:42:11Z</time>
      </trkpt>
      <trkpt lat="59.925937" lon="17.6413865">
        <ele>24.651</ele>
        <time>2014-05-29T13:42:12Z</time>
      </trkpt>
      <trkpt lat="59.9259721" lon="17.6413831">
        <ele>24.1703</ele>
        <time>2014-05-29T13:42:13Z</time>
      </trkpt>
      <trkpt lat="59.9260084" lon="17.6413795">
        <ele>24.1703</ele>
        <time>2014-05-29T13:42:14Z</time>
      </trkpt>
      <trkpt lat="59.9260458" lon="17.6413741">
        <ele>24.1703</ele>
        <time>2014-05-29T13:42:15Z</time>
      </trkpt>
      <trkpt lat="59.9260834" lon="17.6413696">
        <ele>24.1703</ele>
        <time>2014-05-29T13:42:16Z</time>
      </trkpt>
      <trkpt lat="59.9261206" lon="17.6413655">
        <ele>24.1703</ele>
        <time>2014-05-29T13:42:17Z</time>
      </trkpt>
      <trkpt lat="59.9261576" lon="17.6413606">
        <ele>24.1703</ele>
        <time>2014-05-29T13:42:18Z</time>
      </trkpt>
      <trkpt lat="59.9261952" lon="17.6413549">
        <ele>24.1703</ele>
        <time>2014-05-29T13:42:19Z</time>
      </trkpt>
      <trkpt lat="59.9262342" lon="17.6413485">
        <ele>23.6896</ele>
        <time>2014-05-29T13:42:20Z</time>
      </trkpt>
      <trkpt lat="59.9262741" lon="17.6413446">
        <ele>23.6896</ele>
        <time>2014-05-29T13:42:21Z</time>
      </trkpt>
      <trkpt lat="59.9263138" lon="17.6413401">
        <ele>23.6896</ele>
        <time>2014-05-29T13:42:22Z</time>
      </trkpt>
      <trkpt lat="59.9263524" lon="17.6413339">
        <ele>23.6896</ele>
        <time>2014-05-29T13:42:23Z</time>
      </trkpt>
      <trkpt lat="59.9263897" lon="17.6413291">
        <ele>23.6896</ele>
        <time>2014-05-29T13:42:24Z</time>
      </trkpt>
      <trkpt lat="59.9264254" lon="17.6413247">
        <ele>23.6896</ele>
        <time>2014-05-29T13:42:25Z</time>
      </trkpt>
      <trkpt lat="59.9264594" lon="17.64132">
        <ele>23.6896</ele>
        <time>2014-05-29T13:42:26Z</time>
      </trkpt>
      <trkpt lat="59.9264927" lon="17.6413164">
        <ele>23.6896</ele>
        <time>2014-05-29T13:42:27Z</time>
      </trkpt>
      <trkpt lat="59.9265252" lon="17.6413138">
        <ele>23.6896</ele>
        <time>2014-05-29T13:42:28Z</time>
      </trkpt>
      <trkpt lat="59.9265564" lon="17.6413089">
        <ele>23.6896</ele>
        <time>2014-05-29T13:42:29Z</time>
      </trkpt>
      <trkpt lat="59.9265868" lon="17.6413024">
        <ele>23.6896</ele>
        <time>2014-05-29T13:42:30Z</time>
      </trkpt>
      <trkpt lat="59.9266171" lon="17.6412987">
        <ele>23.6896</ele>
        <time>2014-05-29T13:42:31Z</time>
      </trkpt>
      <trkpt lat="59.9266475" lon="17.6412966">
        <ele>23.6896</ele>
        <time>2014-05-29T13:42:32Z</time>
      </trkpt>
      <trkpt lat="59.9266777" lon="17.6412935">
        <ele>23.6896</ele>
        <time>2014-05-29T13:42:33Z</time>
      </trkpt>
      <trkpt lat="59.9267091" lon="17.6412903">
        <ele>23.6896</ele>
        <time>2014-05-29T13:42:34Z</time>
      </trkpt>
      <trkpt lat="59.9267415" lon="17.6412883">
        <ele>23.6896</ele>
        <time>2014-05-29T13:42:35Z</time>
      </trkpt>
      <trkpt lat="59.9267754" lon="17.6412841">
        <ele>23.6896</ele>
        <time>2014-05-29T13:42:36Z</time>
      </trkpt>
      <trkpt lat="59.9268098" lon="17.6412783">
        <ele>23.6896</ele>
        <time>2014-05-29T13:42:37Z</time>
      </trkpt>
      <trkpt lat="59.926844" lon="17.6412737">
        <ele>23.6896</ele>
        <time>2014-05-29T13:42:38Z</time>
      </trkpt>
      <trkpt lat="59.9268782" lon="17.64127">
        <ele>23.6896</ele>
        <time>2014-05-29T13:42:39Z</time>
      </trkpt>
      <trkpt lat="59.9269126" lon="17.6412665">
        <ele>23.6896</ele>
        <time>2014-05-29T13:42:40Z</time>
      </trkpt>
      <trkpt lat="59.926947" lon="17.6412639">
        <ele>23.209</ele>
        <time>2014-05-29T13:42:41Z</time>
      </trkpt>
      <trkpt lat="59.9269808" lon="17.6412603">
        <ele>23.209</ele>
        <time>2014-05-29T13:42:42Z</time>
      </trkpt>
      <trkpt lat="59.9270137" lon="17.6412541">
        <ele>23.209</ele>
        <time>2014-05-29T13:42:43Z</time>
      </trkpt>
      <trkpt lat="59.9270458" lon="17.641249">
        <ele>23.209</ele>
        <time>2014-05-29T13:42:44Z</time>
      </trkpt>
      <trkpt lat="59.9270772" lon="17.6412461">
        <ele>23.209</ele>
        <time>2014-05-29T13:42:45Z</time>
      </trkpt>
      <trkpt lat="59.9271085" lon="17.6412416">
        <ele>23.209</ele>
        <time>2014-05-29T13:42:46Z</time>
      </trkpt>
      <trkpt lat="59.9271393" lon="17.6412376">
        <ele>23.209</ele>
        <time>2014-05-29T13:42:47Z</time>
      </trkpt>
      <trkpt lat="59.9271702" lon="17.6412374">
        <ele>23.209</ele>
        <time>2014-05-29T13:42:48Z</time>
      </trkpt>
      <trkpt lat="59.9272014" lon="17.6412373">
        <ele>23.209</ele>
        <time>2014-05-29T13:42:49Z</time>
      </trkpt>
      <trkpt lat="59.9272326" lon="17.6412358">
        <ele>23.209</ele>
        <time>2014-05-29T13:42:50Z</time>
      </trkpt>
      <trkpt lat="59.9272634" lon="17.6412329">
        <ele>23.209</ele>
        <time>2014-05-29T13:42:51Z</time>
      </trkpt>
      <trkpt lat="59.9272941" lon="17.6412276">
        <ele>23.209</ele>
        <time>2014-05-29T13:42:52Z</time>
      </trkpt>
      <trkpt lat="59.9273256" lon="17.641224">
        <ele>23.209</ele>
        <time>2014-05-29T13:42:53Z</time>
      </trkpt>
      <trkpt lat="59.9273579" lon="17.641222">
        <ele>23.209</ele>
        <time>2014-05-29T13:42:54Z</time>
      </trkpt>
      <trkpt lat="59.9273906" lon="17.6412213">
        <ele>23.209</ele>
        <time>2014-05-29T13:42:55Z</time>
      </trkpt>
      <trkpt lat="59.9274242" lon="17.6412198">
        <ele>23.209</ele>
        <time>2014-05-29T13:42:56Z</time>
      </trkpt>
      <trkpt lat="59.9274593" lon="17.6412161">
        <ele>23.209</ele>
        <time>2014-05-29T13:42:57Z</time>
      </trkpt>
      <trkpt lat="59.9274951" lon="17.6412133">
        <ele>23.209</ele>
        <time>2014-05-29T13:42:58Z</time>
      </trkpt>
      <trkpt lat="59.9275319" lon="17.6412116">
        <ele>23.209</ele>
        <time>2014-05-29T13:42:59Z</time>
      </trkpt>
      <trkpt lat="59.9275688" lon="17.6412081">
        <ele>23.209</ele>
        <time>2014-05-29T13:43:00Z</time>
      </trkpt>
      <trkpt lat="59.9276059" lon="17.6412024">
        <ele>23.209</ele>
        <time>2014-05-29T13:43:01Z</time>
      </trkpt>
      <trkpt lat="59.9276431" lon="17.6411982">
        <ele>23.209</ele>
        <time>2014-05-29T13:43:02Z</time>
      </trkpt>
      <trkpt lat="59.9276798" lon="17.6411954">
        <ele>23.209</ele>
        <time>2014-05-29T13:43:03Z</time>
      </trkpt>
      <trkpt lat="59.9277158" lon="17.6411917">
        <ele>23.209</ele>
        <time>2014-05-29T13:43:04Z</time>
      </trkpt>
      <trkpt lat="59.9277511" lon="17.6411893">
        <ele>23.209</ele>
        <time>2014-05-29T13:43:05Z</time>
      </trkpt>
      <trkpt lat="59.9277862" lon="17.6411883">
        <ele>23.209</ele>
        <time>2014-05-29T13:43:06Z</time>
      </trkpt>
      <trkpt lat="59.9278212" lon="17.641186">
        <ele>23.209</ele>
        <time>2014-05-29T13:43:07Z</time>
      </trkpt>
      <trkpt lat="59.9278561" lon="17.6411825">
        <ele>23.209</ele>
        <time>2014-05-29T13:43:08Z</time>
      </trkpt>
      <trkpt lat="59.9278904" lon="17.6411769">
        <ele>23.209</ele>
        <time>2014-05-29T13:43:09Z</time>
      </trkpt>
      <trkpt lat="59.927925" lon="17.6411715">
        <ele>23.209</ele>
        <time>2014-05-29T13:43:10Z</time>
      </trkpt>
      <trkpt lat="59.9279599" lon="17.6411685">
        <ele>23.209</ele>
        <time>2014-05-29T13:43:11Z</time>
      </trkpt>
      <trkpt lat="59.927995" lon="17.641164">
        <ele>23.209</ele>
        <time>2014-05-29T13:43:12Z</time>
      </trkpt>
      <trkpt lat="59.9280298" lon="17.6411581">
        <ele>23.209</ele>
        <time>2014-05-29T13:43:13Z</time>
      </trkpt>
      <trkpt lat="59.9280638" lon="17.6411542">
        <ele>23.209</ele>
        <time>2014-05-29T13:43:14Z</time>
      </trkpt>
      <trkpt lat="59.9280964" lon="17.6411531">
        <ele>23.209</ele>
        <time>2014-05-29T13:43:15Z</time>
      </trkpt>
      <trkpt lat="59.9281291" lon="17.6411513">
        <ele>23.209</ele>
        <time>2014-05-29T13:43:16Z</time>
      </trkpt>
      <trkpt lat="59.9281619" lon="17.6411464">
        <ele>23.209</ele>
        <time>2014-05-29T13:43:17Z</time>
      </trkpt>
      <trkpt lat="59.9281949" lon="17.641142">
        <ele>23.209</ele>
        <time>2014-05-29T13:43:18Z</time>
      </trkpt>
      <trkpt lat="59.9282277" lon="17.6411391">
        <ele>23.209</ele>
        <time>2014-05-29T13:43:19Z</time>
      </trkpt>
      <trkpt lat="59.9282598" lon="17.6411353">
        <ele>23.209</ele>
        <time>2014-05-29T13:43:20Z</time>
      </trkpt>
      <trkpt lat="59.9282921" lon="17.6411298">
        <ele>23.209</ele>
        <time>2014-05-29T13:43:21Z</time>
      </trkpt>
      <trkpt lat="59.9283254" lon="17.6411251">
        <ele>23.209</ele>
        <time>2014-05-29T13:43:22Z</time>
      </trkpt>
      <trkpt lat="59.9283587" lon="17.6411215">
        <ele>23.209</ele>
        <time>2014-05-29T13:43:23Z</time>
      </trkpt>
      <trkpt lat="59.9283917" lon="17.6411177">
        <ele>23.209</ele>
        <time>2014-05-29T13:43:24Z</time>
      </trkpt>
      <trkpt lat="59.9284239" lon="17.6411142">
        <ele>23.209</ele>
        <time>2014-05-29T13:43:25Z</time>
      </trkpt>
      <trkpt lat="59.928456" lon="17.641111">
        <ele>23.209</ele>
        <time>2014-05-29T13:43:26Z</time>
      </trkpt>
      <trkpt lat="59.9284876" lon="17.641106">
        <ele>23.6896</ele>
        <time>2014-05-29T13:43:27Z</time>
      </trkpt>
      <trkpt lat="59.9285192" lon="17.6410998">
        <ele>23.6896</ele>
        <time>2014-05-29T13:43:28Z</time>
      </trkpt>
      <trkpt lat="59.9285507" lon="17.641094">
        <ele>23.6896</ele>
        <time>2014-05-29T13:43:29Z</time>
      </trkpt>
      <trkpt lat="59.9285822" lon="17.6410881">
        <ele>23.6896</ele>
        <time>2014-05-29T13:43:30Z</time>
      </trkpt>
      <trkpt lat="59.928614" lon="17.6410821">
        <ele>23.6896</ele>
        <time>2014-05-29T13:43:31Z</time>
      </trkpt>
      <trkpt lat="59.9286471" lon="17.6410752">
        <ele>23.6896</ele>
        <time>2014-05-29T13:43:32Z</time>
      </trkpt>
      <trkpt lat="59.9286819" lon="17.6410667">
        <ele>23.6896</ele>
        <time>2014-05-29T13:43:33Z</time>
      </trkpt>
      <trkpt lat="59.9287184" lon="17.6410589">
        <ele>23.6896</ele>
        <time>2014-05-29T13:43:34Z</time>
      </trkpt>
      <trkpt lat="59.9287565" lon="17.6410509">
        <ele>23.6896</ele>
        <time>2014-05-29T13:43:35Z</time>
      </trkpt>
      <trkpt lat="59.9287966" lon="17.6410421">
        <ele>23.6896</ele>
        <time>2014-05-29T13:43:36Z</time>
      </trkpt>
      <trkpt lat="59.9288376" lon="17.6410324">
        <ele>23.6896</ele>
        <time>2014-05-29T13:43:37Z</time>
      </trkpt>
      <trkpt lat="59.9288797" lon="17.6410221">
        <ele>23.6896</ele>
        <time>2014-05-29T13:43:38Z</time>
      </trkpt>
      <trkpt lat="59.9289223" lon="17.6410132">
        <ele>23.6896</ele>
        <time>2014-05-29T13:43:39Z</time>
      </trkpt>
      <trkpt lat="59.9289647" lon="17.6410071">
        <ele>23.6896</ele>
        <time>2014-05-29T13:43:40Z</time>
      </trkpt>
      <trkpt lat="59.9290062" lon="17.6410024">
        <ele>23.6896</ele>
        <time>2014-05-29T13:43:41Z</time>
      </trkpt>
      <trkpt lat="59.929047" lon="17.6409976">
        <ele>23.6896</ele>
        <time>2014-05-29T13:43:42Z</time>
      </trkpt>
      <trkpt lat="59.9290874" lon="17.6409946">
        <ele>23.6896</ele>
        <time>2014-05-29T13:43:43Z</time>
      </trkpt>
      <trkpt lat="59.9291283" lon="17.6409941">
        <ele>23.6896</ele>
        <time>2014-05-29T13:43:44Z</time>
      </trkpt>
      <trkpt lat="59.9291693" lon="17.6409951">
        <ele>23.6896</ele>
        <time>2014-05-29T13:43:45Z</time>
      </trkpt>
      <trkpt lat="59.929209" lon="17.6409965">
        <ele>23.6896</ele>
        <time>2014-05-29T13:43:46Z</time>
      </trkpt>
      <trkpt lat="59.9292468" lon="17.6409966">
        <ele>23.6896</ele>
        <time>2014-05-29T13:43:47Z</time>
      </trkpt>
      <trkpt lat="59.9292832" lon="17.6409962">
        <ele>23.6896</ele>
        <time>2014-05-29T13:43:48Z</time>
      </trkpt>
      <trkpt lat="59.9293186" lon="17.6409941">
        <ele>23.6896</ele>
        <time>2014-05-29T13:43:49Z</time>
      </trkpt>
      <trkpt lat="59.9293533" lon="17.6409899">
        <ele>23.6896</ele>
        <time>2014-05-29T13:43:50Z</time>
      </trkpt>
      <trkpt lat="59.9293879" lon="17.6409863">
        <ele>23.6896</ele>
        <time>2014-05-29T13:43:51Z</time>
      </trkpt>
      <trkpt lat="59.9294229" lon="17.6409827">
        <ele>23.6896</ele>
        <time>2014-05-29T13:43:52Z</time>
      </trkpt>
      <trkpt lat="59.9294583" lon="17.6409773">
        <ele>23.6896</ele>
        <time>2014-05-29T13:43:53Z</time>
      </trkpt>
      <trkpt lat="59.9294941" lon="17.6409714">
        <ele>23.6896</ele>
        <time>2014-05-29T13:43:54Z</time>
      </trkpt>
      <trkpt lat="59.9295298" lon="17.6409655">
        <ele>23.6896</ele>
        <time>2014-05-29T13:43:55Z</time>
      </trkpt>
      <trkpt lat="59.9295662" lon="17.6409578">
        <ele>23.6896</ele>
        <time>2014-05-29T13:43:56Z</time>
      </trkpt>
      <trkpt lat="59.9296033" lon="17.6409498">
        <ele>24.1703</ele>
        <time>2014-05-29T13:43:57Z</time>
      </trkpt>
      <trkpt lat="59.9296398" lon="17.6409411">
        <ele>24.1703</ele>
        <time>2014-05-29T13:43:58Z</time>
      </trkpt>
      <trkpt lat="59.9296755" lon="17.6409304">
        <ele>24.1703</ele>
        <time>2014-05-29T13:43:59Z</time>
      </trkpt>
      <trkpt lat="59.92971" lon="17.6409204">
        <ele>24.1703</ele>
        <time>2014-05-29T13:44:00Z</time>
      </trkpt>
      <trkpt lat="59.9297431" lon="17.6409122">
        <ele>24.651</ele>
        <time>2014-05-29T13:44:01Z</time>
      </trkpt>
      <trkpt lat="59.929775" lon="17.6409065">
        <ele>24.651</ele>
        <time>2014-05-29T13:44:02Z</time>
      </trkpt>
      <trkpt lat="59.929807" lon="17.6409029">
        <ele>24.651</ele>
        <time>2014-05-29T13:44:03Z</time>
      </trkpt>
      <trkpt lat="59.9298405" lon="17.6409016">
        <ele>24.651</ele>
        <time>2014-05-29T13:44:04Z</time>
      </trkpt>
      <trkpt lat="59.9298759" lon="17.6409017">
        <ele>24.1703</ele>
        <time>2014-05-29T13:44:05Z</time>
      </trkpt>
      <trkpt lat="59.9299133" lon="17.640902">
        <ele>24.1703</ele>
        <time>2014-05-29T13:44:06Z</time>
      </trkpt>
      <trkpt lat="59.9299523" lon="17.6409028">
        <ele>24.1703</ele>
        <time>2014-05-29T13:44:07Z</time>
      </trkpt>
      <trkpt lat="59.9299917" lon="17.6409023">
        <ele>24.1703</ele>
        <time>2014-05-29T13:44:08Z</time>
      </trkpt>
      <trkpt lat="59.9300305" lon="17.640902">
        <ele>24.1703</ele>
        <time>2014-05-29T13:44:09Z</time>
      </trkpt>
      <trkpt lat="59.9300682" lon="17.6409032">
        <ele>24.1703</ele>
        <time>2014-05-29T13:44:10Z</time>
      </trkpt>
      <trkpt lat="59.9301053" lon="17.6409055">
        <ele>24.1703</ele>
        <time>2014-05-29T13:44:11Z</time>
      </trkpt>
      <trkpt lat="59.9301421" lon="17.6409081">
        <ele>24.1703</ele>
        <time>2014-05-29T13:44:12Z</time>
      </trkpt>
      <trkpt lat="59.9301783" lon="17.6409092">
        <ele>24.1703</ele>
        <time>2014-05-29T13:44:13Z</time>
      </trkpt>
      <trkpt lat="59.9302139" lon="17.6409103">
        <ele>24.1703</ele>
        <time>2014-05-29T13:44:14Z</time>
      </trkpt>
      <trkpt lat="59.9302489" lon="17.6409113">
        <ele>24.1703</ele>
        <time>2014-05-29T13:44:15Z</time>
      </trkpt>
      <trkpt lat="59.9302841" lon="17.6409117">
        <ele>24.651</ele>
        <time>2014-05-29T13:44:16Z</time>
      </trkpt>
      <trkpt lat="59.9303198" lon="17.640912">
        <ele>24.651</ele>
        <time>2014-05-29T13:44:17Z</time>
      </trkpt>
      <trkpt lat="59.9303557" lon="17.6409117">
        <ele>24.651</ele>
        <time>2014-05-29T13:44:18Z</time>
      </trkpt>
      <trkpt lat="59.9303922" lon="17.6409125">
        <ele>24.651</ele>
        <time>2014-05-29T13:44:19Z</time>
      </trkpt>
      <trkpt lat="59.9304289" lon="17.6409153">
        <ele>24.651</ele>
        <time>2014-05-29T13:44:20Z</time>
      </trkpt>
      <trkpt lat="59.9304653" lon="17.640918">
        <ele>24.651</ele>
        <time>2014-05-29T13:44:21Z</time>
      </trkpt>
      <trkpt lat="59.9305012" lon="17.6409177">
        <ele>24.651</ele>
        <time>2014-05-29T13:44:22Z</time>
      </trkpt>
      <trkpt lat="59.9305367" lon="17.6409132">
        <ele>25.1317</ele>
        <time>2014-05-29T13:44:23Z</time>
      </trkpt>
      <trkpt lat="59.9305716" lon="17.640906">
        <ele>25.1317</ele>
        <time>2014-05-29T13:44:24Z</time>
      </trkpt>
      <trkpt lat="59.9306057" lon="17.6408985">
        <ele>25.1317</ele>
        <time>2014-05-29T13:44:25Z</time>
      </trkpt>
      <trkpt lat="59.9306389" lon="17.6408924">
        <ele>25.6123</ele>
        <time>2014-05-29T13:44:26Z</time>
      </trkpt>
      <trkpt lat="59.930671" lon="17.6408866">
        <ele>25.6123</ele>
        <time>2014-05-29T13:44:27Z</time>
      </trkpt>
      <trkpt lat="59.9307024" lon="17.6408806">
        <ele>25.6123</ele>
        <time>2014-05-29T13:44:28Z</time>
      </trkpt>
      <trkpt lat="59.9307327" lon="17.6408752">
        <ele>25.6123</ele>
        <time>2014-05-29T13:44:29Z</time>
      </trkpt>
      <trkpt lat="59.9307635" lon="17.6408735">
        <ele>25.6123</ele>
        <time>2014-05-29T13:44:30Z</time>
      </trkpt>
      <trkpt lat="59.9307964" lon="17.640877">
        <ele>25.6123</ele>
        <time>2014-05-29T13:44:31Z</time>
      </trkpt>
      <trkpt lat="59.9308316" lon="17.6408831">
        <ele>25.1317</ele>
        <time>2014-05-29T13:44:32Z</time>
      </trkpt>
      <trkpt lat="59.9308679" lon="17.6408894">
        <ele>25.1317</ele>
        <time>2014-05-29T13:44:33Z</time>
      </trkpt>
      <trkpt lat="59.9309031" lon="17.6408976">
        <ele>25.1317</ele>
        <time>2014-05-29T13:44:34Z</time>
      </trkpt>
      <trkpt lat="59.9309368" lon="17.6409108">
        <ele>25.1317</ele>
        <time>2014-05-29T13:44:35Z</time>
      </trkpt>
      <trkpt lat="59.9309694" lon="17.6409267">
        <ele>25.1317</ele>
        <time>2014-05-29T13:44:36Z</time>
      </trkpt>
      <trkpt lat="59.9309993" lon="17.6409444">
        <ele>25.1317</ele>
        <time>2014-05-29T13:44:37Z</time>
      </trkpt>
      <trkpt lat="59.9310273" lon="17.6409626">
        <ele>24.651</ele>
        <time>2014-05-29T13:44:38Z</time>
      </trkpt>
      <trkpt lat="59.9310543" lon="17.6409821">
        <ele>24.651</ele>
        <time>2014-05-29T13:44:39Z</time>
      </trkpt>
      <trkpt lat="59.9310811" lon="17.6410049">
        <ele>25.1317</ele>
        <time>2014-05-29T13:44:40Z</time>
      </trkpt>
      <trkpt lat="59.9311062" lon="17.641026">
        <ele>25.1317</ele>
        <time>2014-05-29T13:44:41Z</time>
      </trkpt>
      <trkpt lat="59.9311295" lon="17.6410453">
        <ele>25.1317</ele>
        <time>2014-05-29T13:44:42Z</time>
      </trkpt>
      <trkpt lat="59.9311511" lon="17.6410628">
        <ele>25.1317</ele>
        <time>2014-05-29T13:44:43Z</time>
      </trkpt>
      <trkpt lat="59.9311733" lon="17.641079">
        <ele>25.6123</ele>
        <time>2014-05-29T13:44:44Z</time>
      </trkpt>
      <trkpt lat="59.9311963" lon="17.6410951">
        <ele>25.6123</ele>
        <time>2014-05-29T13:44:45Z</time>
      </trkpt>
      <trkpt lat="59.9312195" lon="17.64111">
        <ele>26.0929</ele>
        <time>2014-05-29T13:44:46Z</time>
      </trkpt>
      <trkpt lat="59.9312423" lon="17.6411257">
        <ele>26.0929</ele>
        <time>2014-05-29T13:44:47Z</time>
      </trkpt>
      <trkpt lat="59.9312646" lon="17.6411423">
        <ele>26.0929</ele>
        <time>2014-05-29T13:44:48Z</time>
      </trkpt>
      <trkpt lat="59.9312868" lon="17.6411589">
        <ele>26.5736</ele>
        <time>2014-05-29T13:44:49Z</time>
      </trkpt>
      <trkpt lat="59.9313092" lon="17.6411749">
        <ele>26.5736</ele>
        <time>2014-05-29T13:44:50Z</time>
      </trkpt>
      <trkpt lat="59.9313305" lon="17.6411904">
        <ele>27.0543</ele>
        <time>2014-05-29T13:44:51Z</time>
      </trkpt>
      <trkpt lat="59.9313516" lon="17.6412062">
        <ele>27.0543</ele>
        <time>2014-05-29T13:44:52Z</time>
      </trkpt>
      <trkpt lat="59.9313737" lon="17.641223">
        <ele>27.0543</ele>
        <time>2014-05-29T13:44:53Z</time>
      </trkpt>
      <trkpt lat="59.9313976" lon="17.6412415">
        <ele>27.0543</ele>
        <time>2014-05-29T13:44:54Z</time>
      </trkpt>
      <trkpt lat="59.931425" lon="17.6412618">
        <ele>27.0543</ele>
        <time>2014-05-29T13:44:55Z</time>
      </trkpt>
      <trkpt lat="59.9314548" lon="17.6412836">
        <ele>27.0543</ele>
        <time>2014-05-29T13:44:56Z</time>
      </trkpt>
      <trkpt lat="59.9314857" lon="17.6413053">
        <ele>27.0543</ele>
        <time>2014-05-29T13:44:57Z</time>
      </trkpt>
      <trkpt lat="59.9315167" lon="17.6413266">
        <ele>27.0543</ele>
        <time>2014-05-29T13:44:58Z</time>
      </trkpt>
      <trkpt lat="59.9315479" lon="17.641348">
        <ele>27.0543</ele>
        <time>2014-05-29T13:44:59Z</time>
      </trkpt>
      <trkpt lat="59.9315792" lon="17.6413697">
        <ele>27.0543</ele>
        <time>2014-05-29T13:45:00Z</time>
      </trkpt>
      <trkpt lat="59.9316102" lon="17.6413934">
        <ele>27.0543</ele>
        <time>2014-05-29T13:45:01Z</time>
      </trkpt>
      <trkpt lat="59.9316407" lon="17.6414178">
        <ele>27.0543</ele>
        <time>2014-05-29T13:45:02Z</time>
      </trkpt>
      <trkpt lat="59.9316716" lon="17.6414417">
        <ele>27.0543</ele>
        <time>2014-05-29T13:45:03Z</time>
      </trkpt>
      <trkpt lat="59.9317038" lon="17.6414644">
        <ele>27.0543</ele>
        <time>2014-05-29T13:45:04Z</time>
      </trkpt>
      <trkpt lat="59.9317363" lon="17.6414856">
        <ele>27.0543</ele>
        <time>2014-05-29T13:45:05Z</time>
      </trkpt>
      <trkpt lat="59.9317676" lon="17.6415063">
        <ele>27.0543</ele>
        <time>2014-05-29T13:45:06Z</time>
      </trkpt>
      <trkpt lat="59.9317986" lon="17.6415271">
        <ele>27.0543</ele>
        <time>2014-05-29T13:45:07Z</time>
      </trkpt>
      <trkpt lat="59.9318291" lon="17.6415488">
        <ele>27.0543</ele>
        <time>2014-05-29T13:45:08Z</time>
      </trkpt>
      <trkpt lat="59.9318598" lon="17.6415701">
        <ele>27.0543</ele>
        <time>2014-05-29T13:45:09Z</time>
      </trkpt>
      <trkpt lat="59.9318904" lon="17.6415893">
        <ele>27.0543</ele>
        <time>2014-05-29T13:45:10Z</time>
      </trkpt>
      <trkpt lat="59.9319211" lon="17.6416074">
        <ele>27.5349</ele>
        <time>2014-05-29T13:45:11Z</time>
      </trkpt>
      <trkpt lat="59.9319514" lon="17.6416258">
        <ele>27.5349</ele>
        <time>2014-05-29T13:45:12Z</time>
      </trkpt>
      <trkpt lat="59.9319805" lon="17.6416447">
        <ele>27.5349</ele>
        <time>2014-05-29T13:45:13Z</time>
      </trkpt>
      <trkpt lat="59.9320075" lon="17.6416649">
        <ele>28.0155</ele>
        <time>2014-05-29T13:45:14Z</time>
      </trkpt>
      <trkpt lat="59.9320318" lon="17.6416861">
        <ele>28.0155</ele>
        <time>2014-05-29T13:45:15Z</time>
      </trkpt>
      <trkpt lat="59.9320561" lon="17.641709">
        <ele>28.0155</ele>
        <time>2014-05-29T13:45:16Z</time>
      </trkpt>
      <trkpt lat="59.9320826" lon="17.6417348">
        <ele>28.0155</ele>
        <time>2014-05-29T13:45:17Z</time>
      </trkpt>
      <trkpt lat="59.9321126" lon="17.6417646">
        <ele>27.5349</ele>
        <time>2014-05-29T13:45:18Z</time>
      </trkpt>
      <trkpt lat="59.9321453" lon="17.6417995">
        <ele>27.5349</ele>
        <time>2014-05-29T13:45:19Z</time>
      </trkpt>
      <trkpt lat="59.93218" lon="17.6418353">
        <ele>27.5349</ele>
        <time>2014-05-29T13:45:20Z</time>
      </trkpt>
      <trkpt lat="59.9322162" lon="17.6418691">
        <ele>27.5349</ele>
        <time>2014-05-29T13:45:21Z</time>
      </trkpt>
      <trkpt lat="59.932253" lon="17.6419019">
        <ele>27.5349</ele>
        <time>2014-05-29T13:45:22Z</time>
      </trkpt>
      <trkpt lat="59.9322903" lon="17.6419326">
        <ele>27.5349</ele>
        <time>2014-05-29T13:45:23Z</time>
      </trkpt>
      <trkpt lat="59.9323286" lon="17.6419622">
        <ele>27.5349</ele>
        <time>2014-05-29T13:45:24Z</time>
      </trkpt>
      <trkpt lat="59.9323663" lon="17.6419933">
        <ele>27.5349</ele>
        <time>2014-05-29T13:45:25Z</time>
      </trkpt>
      <trkpt lat="59.9324032" lon="17.6420253">
        <ele>27.5349</ele>
        <time>2014-05-29T13:45:26Z</time>
      </trkpt>
      <trkpt lat="59.93244" lon="17.6420591">
        <ele>27.5349</ele>
        <time>2014-05-29T13:45:27Z</time>
      </trkpt>
      <trkpt lat="59.9324762" lon="17.6420943">
        <ele>27.5349</ele>
        <time>2014-05-29T13:45:28Z</time>
      </trkpt>
      <trkpt lat="59.9325111" lon="17.6421296">
        <ele>27.5349</ele>
        <time>2014-05-29T13:45:29Z</time>
      </trkpt>
      <trkpt lat="59.9325447" lon="17.6421632">
        <ele>28.0155</ele>
        <time>2014-05-29T13:45:30Z</time>
      </trkpt>
      <trkpt lat="59.9325763" lon="17.6421968">
        <ele>28.0155</ele>
        <time>2014-05-29T13:45:31Z</time>
      </trkpt>
      <trkpt lat="59.9326069" lon="17.6422304">
        <ele>28.0155</ele>
        <time>2014-05-29T13:45:32Z</time>
      </trkpt>
      <trkpt lat="59.9326363" lon="17.6422647">
        <ele>28.0155</ele>
        <time>2014-05-29T13:45:33Z</time>
      </trkpt>
      <trkpt lat="59.9326651" lon="17.6423003">
        <ele>28.0155</ele>
        <time>2014-05-29T13:45:34Z</time>
      </trkpt>
      <trkpt lat="59.9326939" lon="17.642336">
        <ele>28.0155</ele>
        <time>2014-05-29T13:45:35Z</time>
      </trkpt>
      <trkpt lat="59.9327222" lon="17.6423744">
        <ele>28.0155</ele>
        <time>2014-05-29T13:45:36Z</time>
      </trkpt>
      <trkpt lat="59.9327489" lon="17.6424166">
        <ele>28.0155</ele>
        <time>2014-05-29T13:45:37Z</time>
      </trkpt>
      <trkpt lat="59.9327732" lon="17.6424612">
        <ele>28.0155</ele>
        <time>2014-05-29T13:45:38Z</time>
      </trkpt>
      <trkpt lat="59.9327955" lon="17.6425077">
        <ele>28.4962</ele>
        <time>2014-05-29T13:45:39Z</time>
      </trkpt>
      <trkpt lat="59.9328169" lon="17.6425553">
        <ele>28.4962</ele>
        <time>2014-05-29T13:45:40Z</time>
      </trkpt>
      <trkpt lat="59.9328384" lon="17.6426023">
        <ele>28.4962</ele>
        <time>2014-05-29T13:45:41Z</time>
      </trkpt>
      <trkpt lat="59.932861" lon="17.6426476">
        <ele>28.4962</ele>
        <time>2014-05-29T13:45:42Z</time>
      </trkpt>
      <trkpt lat="59.9328856" lon="17.6426883">
        <ele>28.4962</ele>
        <time>2014-05-29T13:45:43Z</time>
      </trkpt>
      <trkpt lat="59.9329129" lon="17.6427232">
        <ele>28.4962</ele>
        <time>2014-05-29T13:45:44Z</time>
      </trkpt>
      <trkpt lat="59.9329399" lon="17.6427575">
        <ele>28.4962</ele>
        <time>2014-05-29T13:45:45Z</time>
      </trkpt>
      <trkpt lat="59.9329663" lon="17.6427934">
        <ele>28.4962</ele>
        <time>2014-05-29T13:45:46Z</time>
      </trkpt>
      <trkpt lat="59.9329927" lon="17.6428281">
        <ele>28.4962</ele>
        <time>2014-05-29T13:45:47Z</time>
      </trkpt>
      <trkpt lat="59.9330195" lon="17.6428614">
        <ele>28.9769</ele>
        <time>2014-05-29T13:45:48Z</time>
      </trkpt>
      <trkpt lat="59.9330461" lon="17.6428949">
        <ele>28.9769</ele>
        <time>2014-05-29T13:45:49Z</time>
      </trkpt>
      <trkpt lat="59.9330725" lon="17.6429291">
        <ele>28.9769</ele>
        <time>2014-05-29T13:45:50Z</time>
      </trkpt>
      <trkpt lat="59.9330983" lon="17.6429633">
        <ele>28.9769</ele>
        <time>2014-05-29T13:45:51Z</time>
      </trkpt>
      <trkpt lat="59.9331237" lon="17.6429966">
        <ele>29.4575</ele>
        <time>2014-05-29T13:45:52Z</time>
      </trkpt>
      <trkpt lat="59.9331481" lon="17.6430313">
        <ele>29.4575</ele>
        <time>2014-05-29T13:45:53Z</time>
      </trkpt>
      <trkpt lat="59.933171" lon="17.6430678">
        <ele>29.4575</ele>
        <time>2014-05-29T13:45:54Z</time>
      </trkpt>
      <trkpt lat="59.9331937" lon="17.643104">
        <ele>29.9381</ele>
        <time>2014-05-29T13:45:55Z</time>
      </trkpt>
      <trkpt lat="59.9332154" lon="17.6431392">
        <ele>29.9381</ele>
        <time>2014-05-29T13:45:56Z</time>
      </trkpt>
      <trkpt lat="59.9332352" lon="17.6431727">
        <ele>29.9381</ele>
        <time>2014-05-29T13:45:57Z</time>
      </trkpt>
      <trkpt lat="59.9332541" lon="17.6432054">
        <ele>30.4188</ele>
        <time>2014-05-29T13:45:58Z</time>
      </trkpt>
      <trkpt lat="59.933272" lon="17.6432366">
        <ele>30.4188</ele>
        <time>2014-05-29T13:45:59Z</time>
      </trkpt>
      <trkpt lat="59.9332893" lon="17.6432681">
        <ele>30.4188</ele>
        <time>2014-05-29T13:46:00Z</time>
      </trkpt>
      <trkpt lat="59.9333078" lon="17.6433003">
        <ele>30.8995</ele>
        <time>2014-05-29T13:46:01Z</time>
      </trkpt>
      <trkpt lat="59.9333253" lon="17.6433308">
        <ele>30.8995</ele>
        <time>2014-05-29T13:46:02Z</time>
      </trkpt>
      <trkpt lat="59.9333418" lon="17.6433614">
        <ele>30.8995</ele>
        <time>2014-05-29T13:46:03Z</time>
      </trkpt>
      <trkpt lat="59.9333616" lon="17.64339">
        <ele>31.3801</ele>
        <time>2014-05-29T13:46:04Z</time>
      </trkpt>
      <trkpt lat="59.9333812" lon="17.6434182">
        <ele>31.3801</ele>
        <time>2014-05-29T13:46:05Z</time>
      </trkpt>
      <trkpt lat="59.9334014" lon="17.6434474">
        <ele>31.3801</ele>
        <time>2014-05-29T13:46:06Z</time>
      </trkpt>
      <trkpt lat="59.9334226" lon="17.643476">
        <ele>31.3801</ele>
        <time>2014-05-29T13:46:07Z</time>
      </trkpt>
      <trkpt lat="59.9334449" lon="17.6435043">
        <ele>31.3801</ele>
        <time>2014-05-29T13:46:08Z</time>
      </trkpt>
      <trkpt lat="59.9334672" lon="17.6435318">
        <ele>31.3801</ele>
        <time>2014-05-29T13:46:09Z</time>
      </trkpt>
      <trkpt lat="59.9334898" lon="17.6435583">
        <ele>31.3801</ele>
        <time>2014-05-29T13:46:10Z</time>
      </trkpt>
      <trkpt lat="59.9335118" lon="17.6435861">
        <ele>31.3801</ele>
        <time>2014-05-29T13:46:11Z</time>
      </trkpt>
      <trkpt lat="59.9335339" lon="17.6436158">
        <ele>31.3801</ele>
        <time>2014-05-29T13:46:12Z</time>
      </trkpt>
      <trkpt lat="59.9335558" lon="17.6436436">
        <ele>30.8995</ele>
        <time>2014-05-29T13:46:13Z</time>
      </trkpt>
      <trkpt lat="59.9335784" lon="17.6436701">
        <ele>30.8995</ele>
        <time>2014-05-29T13:46:14Z</time>
      </trkpt>
      <trkpt lat="59.9336027" lon="17.6436937">
        <ele>31.3801</ele>
        <time>2014-05-29T13:46:15Z</time>
      </trkpt>
      <trkpt lat="59.9336278" lon="17.6437176">
        <ele>30.8995</ele>
        <time>2014-05-29T13:46:16Z</time>
      </trkpt>
      <trkpt lat="59.9336547" lon="17.6437416">
        <ele>30.8995</ele>
        <time>2014-05-29T13:46:17Z</time>
      </trkpt>
      <trkpt lat="59.9336822" lon="17.6437662">
        <ele>30.8995</ele>
        <time>2014-05-29T13:46:18Z</time>
      </trkpt>
      <trkpt lat="59.9337113" lon="17.6437896">
        <ele>30.8995</ele>
        <time>2014-05-29T13:46:19Z</time>
      </trkpt>
      <trkpt lat="59.9337422" lon="17.643813">
        <ele>30.8995</ele>
        <time>2014-05-29T13:46:20Z</time>
      </trkpt>
      <trkpt lat="59.9337742" lon="17.6438384">
        <ele>30.8995</ele>
        <time>2014-05-29T13:46:21Z</time>
      </trkpt>
      <trkpt lat="59.9338081" lon="17.6438648">
        <ele>31.3801</ele>
        <time>2014-05-29T13:46:22Z</time>
      </trkpt>
      <trkpt lat="59.9338428" lon="17.6438958">
        <ele>31.3801</ele>
        <time>2014-05-29T13:46:23Z</time>
      </trkpt>
      <trkpt lat="59.9338763" lon="17.6439347">
        <ele>31.3801</ele>
        <time>2014-05-29T13:46:24Z</time>
      </trkpt>
      <trkpt lat="59.9339086" lon="17.6439757">
        <ele>31.8607</ele>
        <time>2014-05-29T13:46:25Z</time>
      </trkpt>
      <trkpt lat="59.9339395" lon="17.6440181">
        <ele>31.8607</ele>
        <time>2014-05-29T13:46:26Z</time>
      </trkpt>
      <trkpt lat="59.9339703" lon="17.6440602">
        <ele>32.3416</ele>
        <time>2014-05-29T13:46:27Z</time>
      </trkpt>
      <trkpt lat="59.9340026" lon="17.6441006">
        <ele>32.3416</ele>
        <time>2014-05-29T13:46:28Z</time>
      </trkpt>
      <trkpt lat="59.9340345" lon="17.644142">
        <ele>32.3416</ele>
        <time>2014-05-29T13:46:29Z</time>
      </trkpt>
      <trkpt lat="59.934066" lon="17.6441858">
        <ele>32.3416</ele>
        <time>2014-05-29T13:46:30Z</time>
      </trkpt>
      <trkpt lat="59.9340976" lon="17.6442285">
        <ele>32.8223</ele>
        <time>2014-05-29T13:46:31Z</time>
      </trkpt>
      <trkpt lat="59.9341299" lon="17.6442699">
        <ele>32.8223</ele>
        <time>2014-05-29T13:46:32Z</time>
      </trkpt>
      <trkpt lat="59.9341635" lon="17.6443107">
        <ele>32.8223</ele>
        <time>2014-05-29T13:46:33Z</time>
      </trkpt>
      <trkpt lat="59.9341975" lon="17.6443526">
        <ele>32.8223</ele>
        <time>2014-05-29T13:46:34Z</time>
      </trkpt>
      <trkpt lat="59.9342318" lon="17.6443941">
        <ele>32.8223</ele>
        <time>2014-05-29T13:46:35Z</time>
      </trkpt>
      <trkpt lat="59.9342664" lon="17.6444347">
        <ele>32.8223</ele>
        <time>2014-05-29T13:46:36Z</time>
      </trkpt>
      <trkpt lat="59.9342997" lon="17.6444766">
        <ele>32.8223</ele>
        <time>2014-05-29T13:46:37Z</time>
      </trkpt>
      <trkpt lat="59.9343313" lon="17.644521">
        <ele>33.3029</ele>
        <time>2014-05-29T13:46:38Z</time>
      </trkpt>
      <trkpt lat="59.9343608" lon="17.6445673">
        <ele>33.3029</ele>
        <time>2014-05-29T13:46:39Z</time>
      </trkpt>
      <trkpt lat="59.9343875" lon="17.644615">
        <ele>33.7834</ele>
        <time>2014-05-29T13:46:40Z</time>
      </trkpt>
      <trkpt lat="59.9344116" lon="17.6446614">
        <ele>34.2642</ele>
        <time>2014-05-29T13:46:41Z</time>
      </trkpt>
      <trkpt lat="59.9344348" lon="17.6447033">
        <ele>34.2642</ele>
        <time>2014-05-29T13:46:42Z</time>
      </trkpt>
      <trkpt lat="59.9344586" lon="17.6447407">
        <ele>34.7449</ele>
        <time>2014-05-29T13:46:43Z</time>
      </trkpt>
      <trkpt lat="59.9344825" lon="17.6447761">
        <ele>34.7449</ele>
        <time>2014-05-29T13:46:44Z</time>
      </trkpt>
      <trkpt lat="59.9345061" lon="17.6448123">
        <ele>34.7449</ele>
        <time>2014-05-29T13:46:45Z</time>
      </trkpt>
      <trkpt lat="59.93453" lon="17.6448499">
        <ele>34.7449</ele>
        <time>2014-05-29T13:46:46Z</time>
      </trkpt>
      <trkpt lat="59.9345551" lon="17.6448865">
        <ele>34.7449</ele>
        <time>2014-05-29T13:46:47Z</time>
      </trkpt>
      <trkpt lat="59.9345818" lon="17.6449196">
        <ele>34.7449</ele>
        <time>2014-05-29T13:46:48Z</time>
      </trkpt>
      <trkpt lat="59.9346098" lon="17.6449487">
        <ele>34.7449</ele>
        <time>2014-05-29T13:46:49Z</time>
      </trkpt>
      <trkpt lat="59.9346378" lon="17.6449776">
        <ele>34.7449</ele>
        <time>2014-05-29T13:46:50Z</time>
      </trkpt>
      <trkpt lat="59.9346658" lon="17.6450076">
        <ele>34.7449</ele>
        <time>2014-05-29T13:46:51Z</time>
      </trkpt>
      <trkpt lat="59.9346934" lon="17.6450417">
        <ele>34.7449</ele>
        <time>2014-05-29T13:46:52Z</time>
      </trkpt>
      <trkpt lat="59.9347206" lon="17.6450796">
        <ele>34.7449</ele>
        <time>2014-05-29T13:46:53Z</time>
      </trkpt>
      <trkpt lat="59.9347487" lon="17.6451184">
        <ele>34.7449</ele>
        <time>2014-05-29T13:46:54Z</time>
      </trkpt>
      <trkpt lat="59.9347786" lon="17.6451567">
        <ele>34.7449</ele>
        <time>2014-05-29T13:46:55Z</time>
      </trkpt>
      <trkpt lat="59.9348094" lon="17.6451962">
        <ele>35.2255</ele>
        <time>2014-05-29T13:46:56Z</time>
      </trkpt>
      <trkpt lat="59.9348401" lon="17.6452353">
        <ele>35.2255</ele>
        <time>2014-05-29T13:46:57Z</time>
      </trkpt>
      <trkpt lat="59.9348714" lon="17.6452726">
        <ele>35.2255</ele>
        <time>2014-05-29T13:46:58Z</time>
      </trkpt>
      <trkpt lat="59.9349026" lon="17.6453106">
        <ele>35.2255</ele>
        <time>2014-05-29T13:46:59Z</time>
      </trkpt>
      <trkpt lat="59.9349352" lon="17.6453469">
        <ele>34.7449</ele>
        <time>2014-05-29T13:47:00Z</time>
      </trkpt>
      <trkpt lat="59.9349669" lon="17.6453796">
        <ele>34.7449</ele>
        <time>2014-05-29T13:47:01Z</time>
      </trkpt>
      <trkpt lat="59.9349995" lon="17.6454106">
        <ele>34.7449</ele>
        <time>2014-05-29T13:47:02Z</time>
      </trkpt>
      <trkpt lat="59.9350342" lon="17.645442">
        <ele>34.2642</ele>
        <time>2014-05-29T13:47:03Z</time>
      </trkpt>
      <trkpt lat="59.9350701" lon="17.6454743">
        <ele>34.7449</ele>
        <time>2014-05-29T13:47:04Z</time>
      </trkpt>
      <trkpt lat="59.9351062" lon="17.6455106">
        <ele>34.7449</ele>
        <time>2014-05-29T13:47:05Z</time>
      </trkpt>
      <trkpt lat="59.9351426" lon="17.645553">
        <ele>34.7449</ele>
        <time>2014-05-29T13:47:06Z</time>
      </trkpt>
      <trkpt lat="59.9351797" lon="17.6455992">
        <ele>34.7449</ele>
        <time>2014-05-29T13:47:07Z</time>
      </trkpt>
      <trkpt lat="59.9352172" lon="17.6456487">
        <ele>35.2255</ele>
        <time>2014-05-29T13:47:08Z</time>
      </trkpt>
      <trkpt lat="59.9352552" lon="17.6456971">
        <ele>35.2255</ele>
        <time>2014-05-29T13:47:09Z</time>
      </trkpt>
      <trkpt lat="59.935293" lon="17.6457463">
        <ele>35.7061</ele>
        <time>2014-05-29T13:47:10Z</time>
      </trkpt>
      <trkpt lat="59.9353305" lon="17.6457938">
        <ele>35.7061</ele>
        <time>2014-05-29T13:47:11Z</time>
      </trkpt>
      <trkpt lat="59.9353688" lon="17.6458368">
        <ele>35.7061</ele>
        <time>2014-05-29T13:47:12Z</time>
      </trkpt>
      <trkpt lat="59.9354082" lon="17.6458758">
        <ele>35.7061</ele>
        <time>2014-05-29T13:47:13Z</time>
      </trkpt>
      <trkpt lat="59.935449" lon="17.6459137">
        <ele>35.7061</ele>
        <time>2014-05-29T13:47:14Z</time>
      </trkpt>
      <trkpt lat="59.9354911" lon="17.6459535">
        <ele>35.7061</ele>
        <time>2014-05-29T13:47:15Z</time>
      </trkpt>
      <trkpt lat="59.9355331" lon="17.6459953">
        <ele>36.1868</ele>
        <time>2014-05-29T13:47:16Z</time>
      </trkpt>
      <trkpt lat="59.9355732" lon="17.6460382">
        <ele>36.1868</ele>
        <time>2014-05-29T13:47:17Z</time>
      </trkpt>
      <trkpt lat="59.9356097" lon="17.6460823">
        <ele>36.6675</ele>
        <time>2014-05-29T13:47:18Z</time>
      </trkpt>
      <trkpt lat="59.9356432" lon="17.6461239">
        <ele>36.6675</ele>
        <time>2014-05-29T13:47:19Z</time>
      </trkpt>
      <trkpt lat="59.9356734" lon="17.6461641">
        <ele>36.6675</ele>
        <time>2014-05-29T13:47:20Z</time>
      </trkpt>
      <trkpt lat="59.935702" lon="17.6462038">
        <ele>36.6675</ele>
        <time>2014-05-29T13:47:21Z</time>
      </trkpt>
      <trkpt lat="59.9357309" lon="17.6462455">
        <ele>36.1868</ele>
        <time>2014-05-29T13:47:22Z</time>
      </trkpt>
      <trkpt lat="59.935763" lon="17.6462855">
        <ele>36.1868</ele>
        <time>2014-05-29T13:47:23Z</time>
      </trkpt>
      <trkpt lat="59.9357984" lon="17.6463211">
        <ele>36.6675</ele>
        <time>2014-05-29T13:47:24Z</time>
      </trkpt>
      <trkpt lat="59.9358325" lon="17.6463543">
        <ele>36.1868</ele>
        <time>2014-05-29T13:47:25Z</time>
      </trkpt>
      <trkpt lat="59.9358652" lon="17.6463949">
        <ele>35.7061</ele>
        <time>2014-05-29T13:47:26Z</time>
      </trkpt>
      <trkpt lat="59.9358989" lon="17.6464383">
        <ele>35.7061</ele>
        <time>2014-05-29T13:47:27Z</time>
      </trkpt>
      <trkpt lat="59.9359346" lon="17.6464812">
        <ele>35.7061</ele>
        <time>2014-05-29T13:47:28Z</time>
      </trkpt>
      <trkpt lat="59.935967" lon="17.6465215">
        <ele>35.2255</ele>
        <time>2014-05-29T13:47:29Z</time>
      </trkpt>
      <trkpt lat="59.9360009" lon="17.6465622">
        <ele>35.2255</ele>
        <time>2014-05-29T13:47:30Z</time>
      </trkpt>
      <trkpt lat="59.9360355" lon="17.6466057">
        <ele>35.2255</ele>
        <time>2014-05-29T13:47:31Z</time>
      </trkpt>
      <trkpt lat="59.9360707" lon="17.6466526">
        <ele>35.2255</ele>
        <time>2014-05-29T13:47:32Z</time>
      </trkpt>
      <trkpt lat="59.9361087" lon="17.6466994">
        <ele>34.7449</ele>
        <time>2014-05-29T13:47:33Z</time>
      </trkpt>
      <trkpt lat="59.9361475" lon="17.6467484">
        <ele>34.7449</ele>
        <time>2014-05-29T13:47:34Z</time>
      </trkpt>
      <trkpt lat="59.9361867" lon="17.6467997">
        <ele>34.7449</ele>
        <time>2014-05-29T13:47:35Z</time>
      </trkpt>
      <trkpt lat="59.9362249" lon="17.6468517">
        <ele>34.2642</ele>
        <time>2014-05-29T13:47:36Z</time>
      </trkpt>
      <trkpt lat="59.9362641" lon="17.646904">
        <ele>34.2642</ele>
        <time>2014-05-29T13:47:37Z</time>
      </trkpt>
      <trkpt lat="59.9363039" lon="17.6469578">
        <ele>34.7449</ele>
        <time>2014-05-29T13:47:38Z</time>
      </trkpt>
      <trkpt lat="59.936342" lon="17.6470128">
        <ele>34.2642</ele>
        <time>2014-05-29T13:47:39Z</time>
      </trkpt>
      <trkpt lat="59.9363825" lon="17.6470691">
        <ele>33.7834</ele>
        <time>2014-05-29T13:47:40Z</time>
      </trkpt>
      <trkpt lat="59.9364251" lon="17.6471278">
        <ele>33.7834</ele>
        <time>2014-05-29T13:47:41Z</time>
      </trkpt>
      <trkpt lat="59.9364701" lon="17.647187">
        <ele>33.7834</ele>
        <time>2014-05-29T13:47:42Z</time>
      </trkpt>
      <trkpt lat="59.9365127" lon="17.6472447">
        <ele>33.7834</ele>
        <time>2014-05-29T13:47:43Z</time>
      </trkpt>
      <trkpt lat="59.9365535" lon="17.6473003">
        <ele>33.7834</ele>
        <time>2014-05-29T13:47:44Z</time>
      </trkpt>
      <trkpt lat="59.9365912" lon="17.6473542">
        <ele>33.7834</ele>
        <time>2014-05-29T13:47:45Z</time>
      </trkpt>
      <trkpt lat="59.9366271" lon="17.647405">
        <ele>33.7834</ele>
        <time>2014-05-29T13:47:46Z</time>
      </trkpt>
      <trkpt lat="59.9366617" lon="17.6474511">
        <ele>33.7834</ele>
        <time>2014-05-29T13:47:47Z</time>
      </trkpt>
      <trkpt lat="59.9366928" lon="17.6474941">
        <ele>33.7834</ele>
        <time>2014-05-29T13:47:48Z</time>
      </trkpt>
      <trkpt lat="59.9367229" lon="17.6475387">
        <ele>33.7834</ele>
        <time>2014-05-29T13:47:49Z</time>
      </trkpt>
      <trkpt lat="59.9367538" lon="17.647584">
        <ele>33.3029</ele>
        <time>2014-05-29T13:47:50Z</time>
      </trkpt>
      <trkpt lat="59.936788" lon="17.6476292">
        <ele>33.3029</ele>
        <time>2014-05-29T13:47:51Z</time>
      </trkpt>
      <trkpt lat="59.9368255" lon="17.6476754">
        <ele>33.3029</ele>
        <time>2014-05-29T13:47:52Z</time>
      </trkpt>
      <trkpt lat="59.9368654" lon="17.6477216">
        <ele>33.3029</ele>
        <time>2014-05-29T13:47:53Z</time>
      </trkpt>
      <trkpt lat="59.9369052" lon="17.647767">
        <ele>32.8223</ele>
        <time>2014-05-29T13:47:54Z</time>
      </trkpt>
      <trkpt lat="59.9369436" lon="17.6478163">
        <ele>32.8223</ele>
        <time>2014-05-29T13:47:55Z</time>
      </trkpt>
      <trkpt lat="59.9369799" lon="17.6478692">
        <ele>32.3416</ele>
        <time>2014-05-29T13:47:56Z</time>
      </trkpt>
      <trkpt lat="59.9370172" lon="17.6479224">
        <ele>32.3416</ele>
        <time>2014-05-29T13:47:57Z</time>
      </trkpt>
      <trkpt lat="59.9370569" lon="17.6479723">
        <ele>31.8607</ele>
        <time>2014-05-29T13:47:58Z</time>
      </trkpt>
      <trkpt lat="59.9370954" lon="17.6480214">
        <ele>31.8607</ele>
        <time>2014-05-29T13:47:59Z</time>
      </trkpt>
      <trkpt lat="59.9371356" lon="17.6480715">
        <ele>31.8607</ele>
        <time>2014-05-29T13:48:00Z</time>
      </trkpt>
      <trkpt lat="59.9371786" lon="17.6481228">
        <ele>31.8607</ele>
        <time>2014-05-29T13:48:01Z</time>
      </trkpt>
      <trkpt lat="59.9372233" lon="17.6481755">
        <ele>31.8607</ele>
        <time>2014-05-29T13:48:02Z</time>
      </trkpt>
      <trkpt lat="59.9372688" lon="17.6482265">
        <ele>31.8607</ele>
        <time>2014-05-29T13:48:03Z</time>
      </trkpt>
      <trkpt lat="59.9373112" lon="17.6482855">
        <ele>31.8607</ele>
        <time>2014-05-29T13:48:04Z</time>
      </trkpt>
      <trkpt lat="59.9373497" lon="17.6483513">
        <ele>31.8607</ele>
        <time>2014-05-29T13:48:05Z</time>
      </trkpt>
      <trkpt lat="59.9373818" lon="17.6484135">
        <ele>32.3416</ele>
        <time>2014-05-29T13:48:06Z</time>
      </trkpt>
      <trkpt lat="59.9374065" lon="17.6484724">
        <ele>32.8223</ele>
        <time>2014-05-29T13:48:07Z</time>
      </trkpt>
      <trkpt lat="59.9374283" lon="17.6485342">
        <ele>32.8223</ele>
        <time>2014-05-29T13:48:08Z</time>
      </trkpt>
      <trkpt lat="59.9374462" lon="17.6486016">
        <ele>32.8223</ele>
        <time>2014-05-29T13:48:09Z</time>
      </trkpt>
      <trkpt lat="59.9374596" lon="17.6486713">
        <ele>32.8223</ele>
        <time>2014-05-29T13:48:10Z</time>
      </trkpt>
      <trkpt lat="59.9374736" lon="17.6487428">
        <ele>32.8223</ele>
        <time>2014-05-29T13:48:11Z</time>
      </trkpt>
      <trkpt lat="59.9374892" lon="17.6488149">
        <ele>32.8223</ele>
        <time>2014-05-29T13:48:12Z</time>
      </trkpt>
      <trkpt lat="59.9375091" lon="17.6488844">
        <ele>32.8223</ele>
        <time>2014-05-29T13:48:13Z</time>
      </trkpt>
      <trkpt lat="59.9375344" lon="17.648947">
        <ele>32.8223</ele>
        <time>2014-05-29T13:48:14Z</time>
      </trkpt>
      <trkpt lat="59.9375657" lon="17.6490029">
        <ele>33.3029</ele>
        <time>2014-05-29T13:48:15Z</time>
      </trkpt>
      <trkpt lat="59.9375967" lon="17.6490553">
        <ele>33.3029</ele>
        <time>2014-05-29T13:48:16Z</time>
      </trkpt>
      <trkpt lat="59.9376264" lon="17.6491086">
        <ele>33.7834</ele>
        <time>2014-05-29T13:48:17Z</time>
      </trkpt>
      <trkpt lat="59.9376562" lon="17.649165">
        <ele>33.7834</ele>
        <time>2014-05-29T13:48:18Z</time>
      </trkpt>
      <trkpt lat="59.9376872" lon="17.6492282">
        <ele>33.7834</ele>
        <time>2014-05-29T13:48:19Z</time>
      </trkpt>
      <trkpt lat="59.9377207" lon="17.6492977">
        <ele>33.7834</ele>
        <time>2014-05-29T13:48:20Z</time>
      </trkpt>
      <trkpt lat="59.9377564" lon="17.6493755">
        <ele>33.7834</ele>
        <time>2014-05-29T13:48:21Z</time>
      </trkpt>
      <trkpt lat="59.9377855" lon="17.6494655">
        <ele>33.7834</ele>
        <time>2014-05-29T13:48:22Z</time>
      </trkpt>
      <trkpt lat="59.9378128" lon="17.6495543">
        <ele>33.7834</ele>
        <time>2014-05-29T13:48:23Z</time>
      </trkpt>
      <trkpt lat="59.9378429" lon="17.6496363">
        <ele>33.7834</ele>
        <time>2014-05-29T13:48:24Z</time>
      </trkpt>
      <trkpt lat="59.9378711" lon="17.6497161">
        <ele>33.7834</ele>
        <time>2014-05-29T13:48:25Z</time>
      </trkpt>
      <trkpt lat="59.9378983" lon="17.6497922">
        <ele>34.2642</ele>
        <time>2014-05-29T13:48:26Z</time>
      </trkpt>
      <trkpt lat="59.9379255" lon="17.6498645">
        <ele>34.2642</ele>
        <time>2014-05-29T13:48:27Z</time>
      </trkpt>
      <trkpt lat="59.9379527" lon="17.6499312">
        <ele>34.2642</ele>
        <time>2014-05-29T13:48:28Z</time>
      </trkpt>
      <trkpt lat="59.9379797" lon="17.6499927">
        <ele>34.2642</ele>
        <time>2014-05-29T13:48:29Z</time>
      </trkpt>
      <trkpt lat="59.9380053" lon="17.6500533">
        <ele>34.2642</ele>
        <time>2014-05-29T13:48:30Z</time>
      </trkpt>
      <trkpt lat="59.9380289" lon="17.6501129">
        <ele>34.2642</ele>
        <time>2014-05-29T13:48:31Z</time>
      </trkpt>
      <trkpt lat="59.938052" lon="17.6501709">
        <ele>34.2642</ele>
        <time>2014-05-29T13:48:32Z</time>
      </trkpt>
      <trkpt lat="59.9380749" lon="17.6502269">
        <ele>34.2642</ele>
        <time>2014-05-29T13:48:33Z</time>
      </trkpt>
      <trkpt lat="59.9380972" lon="17.6502835">
        <ele>34.2642</ele>
        <time>2014-05-29T13:48:34Z</time>
      </trkpt>
      <trkpt lat="59.9381167" lon="17.6503409">
        <ele>34.7449</ele>
        <time>2014-05-29T13:48:35Z</time>
      </trkpt>
      <trkpt lat="59.9381355" lon="17.6503986">
        <ele>34.7449</ele>
        <time>2014-05-29T13:48:36Z</time>
      </trkpt>
      <trkpt lat="59.9381537" lon="17.6504622">
        <ele>34.2642</ele>
        <time>2014-05-29T13:48:37Z</time>
      </trkpt>
      <trkpt lat="59.9381726" lon="17.650526">
        <ele>34.2642</ele>
        <time>2014-05-29T13:48:38Z</time>
      </trkpt>
      <trkpt lat="59.9381934" lon="17.6505867">
        <ele>34.2642</ele>
        <time>2014-05-29T13:48:39Z</time>
      </trkpt>
      <trkpt lat="59.9382177" lon="17.6506498">
        <ele>34.2642</ele>
        <time>2014-05-29T13:48:40Z</time>
      </trkpt>
      <trkpt lat="59.9382402" lon="17.6507167">
        <ele>34.2642</ele>
        <time>2014-05-29T13:48:41Z</time>
      </trkpt>
      <trkpt lat="59.9382645" lon="17.6507844">
        <ele>34.2642</ele>
        <time>2014-05-29T13:48:42Z</time>
      </trkpt>
      <trkpt lat="59.9382923" lon="17.6508501">
        <ele>34.7449</ele>
        <time>2014-05-29T13:48:43Z</time>
      </trkpt>
      <trkpt lat="59.9383231" lon="17.650912">
        <ele>34.7449</ele>
        <time>2014-05-29T13:48:44Z</time>
      </trkpt>
      <trkpt lat="59.9383567" lon="17.6509723">
        <ele>34.7449</ele>
        <time>2014-05-29T13:48:45Z</time>
      </trkpt>
      <trkpt lat="59.9383895" lon="17.6510348">
        <ele>35.2255</ele>
        <time>2014-05-29T13:48:46Z</time>
      </trkpt>
      <trkpt lat="59.9384204" lon="17.6511024">
        <ele>35.2255</ele>
        <time>2014-05-29T13:48:47Z</time>
      </trkpt>
      <trkpt lat="59.938448" lon="17.6511755">
        <ele>35.2255</ele>
        <time>2014-05-29T13:48:48Z</time>
      </trkpt>
      <trkpt lat="59.9384724" lon="17.6512511">
        <ele>35.2255</ele>
        <time>2014-05-29T13:48:49Z</time>
      </trkpt>
      <trkpt lat="59.9384966" lon="17.6513258">
        <ele>35.2255</ele>
        <time>2014-05-29T13:48:50Z</time>
      </trkpt>
      <trkpt lat="59.9385215" lon="17.6514004">
        <ele>35.7061</ele>
        <time>2014-05-29T13:48:51Z</time>
      </trkpt>
      <trkpt lat="59.9385458" lon="17.6514742">
        <ele>35.7061</ele>
        <time>2014-05-29T13:48:52Z</time>
      </trkpt>
      <trkpt lat="59.9385707" lon="17.6515483">
        <ele>35.7061</ele>
        <time>2014-05-29T13:48:53Z</time>
      </trkpt>
      <trkpt lat="59.9385948" lon="17.6516232">
        <ele>35.7061</ele>
        <time>2014-05-29T13:48:54Z</time>
      </trkpt>
      <trkpt lat="59.9386187" lon="17.651698">
        <ele>35.7061</ele>
        <time>2014-05-29T13:48:55Z</time>
      </trkpt>
      <trkpt lat="59.9386423" lon="17.6517721">
        <ele>35.7061</ele>
        <time>2014-05-29T13:48:56Z</time>
      </trkpt>
      <trkpt lat="59.938666" lon="17.6518454">
        <ele>35.7061</ele>
        <time>2014-05-29T13:48:57Z</time>
      </trkpt>
      <trkpt lat="59.9386896" lon="17.6519199">
        <ele>35.7061</ele>
        <time>2014-05-29T13:48:58Z</time>
      </trkpt>
      <trkpt lat="59.9387115" lon="17.651997">
        <ele>35.7061</ele>
        <time>2014-05-29T13:48:59Z</time>
      </trkpt>
      <trkpt lat="59.9387321" lon="17.6520742">
        <ele>35.7061</ele>
        <time>2014-05-29T13:49:00Z</time>
      </trkpt>
      <trkpt lat="59.9387536" lon="17.6521493">
        <ele>35.7061</ele>
        <time>2014-05-29T13:49:01Z</time>
      </trkpt>
      <trkpt lat="59.9387759" lon="17.6522231">
        <ele>35.7061</ele>
        <time>2014-05-29T13:49:02Z</time>
      </trkpt>
      <trkpt lat="59.938798" lon="17.6522981">
        <ele>35.7061</ele>
        <time>2014-05-29T13:49:03Z</time>
      </trkpt>
      <trkpt lat="59.9388193" lon="17.6523738">
        <ele>35.7061</ele>
        <time>2014-05-29T13:49:04Z</time>
      </trkpt>
      <trkpt lat="59.9388407" lon="17.6524484">
        <ele>36.1868</ele>
        <time>2014-05-29T13:49:05Z</time>
      </trkpt>
      <trkpt lat="59.9388622" lon="17.6525225">
        <ele>36.1868</ele>
        <time>2014-05-29T13:49:06Z</time>
      </trkpt>
      <trkpt lat="59.938883" lon="17.6525985">
        <ele>36.1868</ele>
        <time>2014-05-29T13:49:07Z</time>
      </trkpt>
      <trkpt lat="59.9389037" lon="17.6526762">
        <ele>36.1868</ele>
        <time>2014-05-29T13:49:08Z</time>
      </trkpt>
      <trkpt lat="59.938925" lon="17.6527551">
        <ele>36.1868</ele>
        <time>2014-05-29T13:49:09Z</time>
      </trkpt>
      <trkpt lat="59.9389463" lon="17.6528357">
        <ele>36.1868</ele>
        <time>2014-05-29T13:49:10Z</time>
      </trkpt>
      <trkpt lat="59.9389674" lon="17.652917">
        <ele>36.1868</ele>
        <time>2014-05-29T13:49:11Z</time>
      </trkpt>
      <trkpt lat="59.9389877" lon="17.6529994">
        <ele>36.1868</ele>
        <time>2014-05-29T13:49:12Z</time>
      </trkpt>
      <trkpt lat="59.9390075" lon="17.6530829">
        <ele>36.1868</ele>
        <time>2014-05-29T13:49:13Z</time>
      </trkpt>
      <trkpt lat="59.9390275" lon="17.6531669">
        <ele>36.1868</ele>
        <time>2014-05-29T13:49:14Z</time>
      </trkpt>
      <trkpt lat="59.9390478" lon="17.6532506">
        <ele>36.1868</ele>
        <time>2014-05-29T13:49:15Z</time>
      </trkpt>
      <trkpt lat="59.9390684" lon="17.6533344">
        <ele>36.1868</ele>
        <time>2014-05-29T13:49:16Z</time>
      </trkpt>
      <trkpt lat="59.9390885" lon="17.6534181">
        <ele>36.1868</ele>
        <time>2014-05-29T13:49:17Z</time>
      </trkpt>
      <trkpt lat="59.9391084" lon="17.6535014">
        <ele>36.1868</ele>
        <time>2014-05-29T13:49:18Z</time>
      </trkpt>
      <trkpt lat="59.9391281" lon="17.6535841">
        <ele>36.1868</ele>
        <time>2014-05-29T13:49:19Z</time>
      </trkpt>
      <trkpt lat="59.9391467" lon="17.6536662">
        <ele>36.1868</ele>
        <time>2014-05-29T13:49:20Z</time>
      </trkpt>
      <trkpt lat="59.9391643" lon="17.6537475">
        <ele>36.1868</ele>
        <time>2014-05-29T13:49:21Z</time>
      </trkpt>
      <trkpt lat="59.9391813" lon="17.6538279">
        <ele>36.1868</ele>
        <time>2014-05-29T13:49:22Z</time>
      </trkpt>
      <trkpt lat="59.9391985" lon="17.653908">
        <ele>36.1868</ele>
        <time>2014-05-29T13:49:23Z</time>
      </trkpt>
      <trkpt lat="59.9392159" lon="17.653989">
        <ele>36.1868</ele>
        <time>2014-05-29T13:49:24Z</time>
      </trkpt>
      <trkpt lat="59.9392332" lon="17.6540706">
        <ele>36.1868</ele>
        <time>2014-05-29T13:49:25Z</time>
      </trkpt>
      <trkpt lat="59.9392513" lon="17.6541526">
        <ele>36.1868</ele>
        <time>2014-05-29T13:49:26Z</time>
      </trkpt>
      <trkpt lat="59.9392704" lon="17.6542375">
        <ele>36.1868</ele>
        <time>2014-05-29T13:49:27Z</time>
      </trkpt>
      <trkpt lat="59.9392884" lon="17.6543261">
        <ele>36.1868</ele>
        <time>2014-05-29T13:49:28Z</time>
      </trkpt>
      <trkpt lat="59.9393058" lon="17.654416">
        <ele>36.6675</ele>
        <time>2014-05-29T13:49:29Z</time>
      </trkpt>
      <trkpt lat="59.9393237" lon="17.6545065">
        <ele>36.6675</ele>
        <time>2014-05-29T13:49:30Z</time>
      </trkpt>
      <trkpt lat="59.9393414" lon="17.6545976">
        <ele>36.6675</ele>
        <time>2014-05-29T13:49:31Z</time>
      </trkpt>
      <trkpt lat="59.9393581" lon="17.65469">
        <ele>36.6675</ele>
        <time>2014-05-29T13:49:32Z</time>
      </trkpt>
      <trkpt lat="59.9393757" lon="17.654782">
        <ele>36.6675</ele>
        <time>2014-05-29T13:49:33Z</time>
      </trkpt>
      <trkpt lat="59.9393951" lon="17.6548726">
        <ele>36.6675</ele>
        <time>2014-05-29T13:49:34Z</time>
      </trkpt>
      <trkpt lat="59.939414" lon="17.6549622">
        <ele>36.6675</ele>
        <time>2014-05-29T13:49:35Z</time>
      </trkpt>
      <trkpt lat="59.9394322" lon="17.6550492">
        <ele>36.6675</ele>
        <time>2014-05-29T13:49:36Z</time>
      </trkpt>
      <trkpt lat="59.9394509" lon="17.6551342">
        <ele>36.6675</ele>
        <time>2014-05-29T13:49:37Z</time>
      </trkpt>
      <trkpt lat="59.9394692" lon="17.6552186">
        <ele>36.6675</ele>
        <time>2014-05-29T13:49:38Z</time>
      </trkpt>
      <trkpt lat="59.9394865" lon="17.655304">
        <ele>36.6675</ele>
        <time>2014-05-29T13:49:39Z</time>
      </trkpt>
      <trkpt lat="59.9395026" lon="17.6553917">
        <ele>36.6675</ele>
        <time>2014-05-29T13:49:40Z</time>
      </trkpt>
      <trkpt lat="59.9395177" lon="17.6554806">
        <ele>36.6675</ele>
        <time>2014-05-29T13:49:41Z</time>
      </trkpt>
      <trkpt lat="59.9395341" lon="17.6555678">
        <ele>36.6675</ele>
        <time>2014-05-29T13:49:42Z</time>
      </trkpt>
      <trkpt lat="59.9395518" lon="17.6556539">
        <ele>36.6675</ele>
        <time>2014-05-29T13:49:43Z</time>
      </trkpt>
      <trkpt lat="59.939569" lon="17.6557404">
        <ele>36.6675</ele>
        <time>2014-05-29T13:49:44Z</time>
      </trkpt>
      <trkpt lat="59.9395853" lon="17.6558252">
        <ele>36.6675</ele>
        <time>2014-05-29T13:49:45Z</time>
      </trkpt>
      <trkpt lat="59.9396019" lon="17.655907">
        <ele>36.6675</ele>
        <time>2014-05-29T13:49:46Z</time>
      </trkpt>
      <trkpt lat="59.9396192" lon="17.6559884">
        <ele>36.6675</ele>
        <time>2014-05-29T13:49:47Z</time>
      </trkpt>
      <trkpt lat="59.9396358" lon="17.6560718">
        <ele>36.6675</ele>
        <time>2014-05-29T13:49:48Z</time>
      </trkpt>
      <trkpt lat="59.9396517" lon="17.656157">
        <ele>36.6675</ele>
        <time>2014-05-29T13:49:49Z</time>
      </trkpt>
      <trkpt lat="59.9396681" lon="17.6562422">
        <ele>36.1868</ele>
        <time>2014-05-29T13:49:50Z</time>
      </trkpt>
      <trkpt lat="59.9396844" lon="17.6563246">
        <ele>36.1868</ele>
        <time>2014-05-29T13:49:51Z</time>
      </trkpt>
      <trkpt lat="59.9397006" lon="17.6564005">
        <ele>36.1868</ele>
        <time>2014-05-29T13:49:52Z</time>
      </trkpt>
      <trkpt lat="59.9397168" lon="17.6564685">
        <ele>36.1868</ele>
        <time>2014-05-29T13:49:53Z</time>
      </trkpt>
      <trkpt lat="59.9397315" lon="17.6565332">
        <ele>36.1868</ele>
        <time>2014-05-29T13:49:54Z</time>
      </trkpt>
      <trkpt lat="59.9397458" lon="17.6565981">
        <ele>36.1868</ele>
        <time>2014-05-29T13:49:55Z</time>
      </trkpt>
      <trkpt lat="59.9397601" lon="17.6566634">
        <ele>36.1868</ele>
        <time>2014-05-29T13:49:56Z</time>
      </trkpt>
      <trkpt lat="59.9397736" lon="17.6567315">
        <ele>36.1868</ele>
        <time>2014-05-29T13:49:57Z</time>
      </trkpt>
      <trkpt lat="59.9397862" lon="17.6568027">
        <ele>36.1868</ele>
        <time>2014-05-29T13:49:58Z</time>
      </trkpt>
      <trkpt lat="59.9397993" lon="17.6568747">
        <ele>36.1868</ele>
        <time>2014-05-29T13:49:59Z</time>
      </trkpt>
      <trkpt lat="59.9398143" lon="17.6569461">
        <ele>36.1868</ele>
        <time>2014-05-29T13:50:00Z</time>
      </trkpt>
      <trkpt lat="59.9398299" lon="17.6570197">
        <ele>35.7061</ele>
        <time>2014-05-29T13:50:01Z</time>
      </trkpt>
      <trkpt lat="59.9398444" lon="17.6570972">
        <ele>35.7061</ele>
        <time>2014-05-29T13:50:02Z</time>
      </trkpt>
      <trkpt lat="59.9398598" lon="17.6571762">
        <ele>35.7061</ele>
        <time>2014-05-29T13:50:03Z</time>
      </trkpt>
      <trkpt lat="59.9398761" lon="17.6572584">
        <ele>35.7061</ele>
        <time>2014-05-29T13:50:04Z</time>
      </trkpt>
      <trkpt lat="59.9398916" lon="17.6573451">
        <ele>35.7061</ele>
        <time>2014-05-29T13:50:05Z</time>
      </trkpt>
      <trkpt lat="59.9399076" lon="17.6574334">
        <ele>35.7061</ele>
        <time>2014-05-29T13:50:06Z</time>
      </trkpt>
      <trkpt lat="59.9399256" lon="17.6575194">
        <ele>35.2255</ele>
        <time>2014-05-29T13:50:07Z</time>
      </trkpt>
      <trkpt lat="59.9399434" lon="17.6576035">
        <ele>35.2255</ele>
        <time>2014-05-29T13:50:08Z</time>
      </trkpt>
      <trkpt lat="59.9399605" lon="17.6576849">
        <ele>35.2255</ele>
        <time>2014-05-29T13:50:09Z</time>
      </trkpt>
      <trkpt lat="59.9399777" lon="17.6577632">
        <ele>35.2255</ele>
        <time>2014-05-29T13:50:10Z</time>
      </trkpt>
      <trkpt lat="59.9399943" lon="17.6578409">
        <ele>35.2255</ele>
        <time>2014-05-29T13:50:11Z</time>
      </trkpt>
      <trkpt lat="59.940009" lon="17.6579186">
        <ele>35.2255</ele>
        <time>2014-05-29T13:50:12Z</time>
      </trkpt>
      <trkpt lat="59.9400237" lon="17.6579932">
        <ele>35.2255</ele>
        <time>2014-05-29T13:50:13Z</time>
      </trkpt>
      <trkpt lat="59.940039" lon="17.6580672">
        <ele>34.7449</ele>
        <time>2014-05-29T13:50:14Z</time>
      </trkpt>
      <trkpt lat="59.9400542" lon="17.6581455">
        <ele>34.7449</ele>
        <time>2014-05-29T13:50:15Z</time>
      </trkpt>
      <trkpt lat="59.9400711" lon="17.6582288">
        <ele>34.7449</ele>
        <time>2014-05-29T13:50:16Z</time>
      </trkpt>
      <trkpt lat="59.9400888" lon="17.6583157">
        <ele>34.7449</ele>
        <time>2014-05-29T13:50:17Z</time>
      </trkpt>
      <trkpt lat="59.9401079" lon="17.6584043">
        <ele>34.2642</ele>
        <time>2014-05-29T13:50:18Z</time>
      </trkpt>
      <trkpt lat="59.9401283" lon="17.6584935">
        <ele>34.2642</ele>
        <time>2014-05-29T13:50:19Z</time>
      </trkpt>
      <trkpt lat="59.9401494" lon="17.6585844">
        <ele>34.2642</ele>
        <time>2014-05-29T13:50:20Z</time>
      </trkpt>
      <trkpt lat="59.9401703" lon="17.658677">
        <ele>34.2642</ele>
        <time>2014-05-29T13:50:21Z</time>
      </trkpt>
      <trkpt lat="59.9401914" lon="17.6587716">
        <ele>33.7834</ele>
        <time>2014-05-29T13:50:22Z</time>
      </trkpt>
      <trkpt lat="59.9402132" lon="17.6588649">
        <ele>33.7834</ele>
        <time>2014-05-29T13:50:23Z</time>
      </trkpt>
      <trkpt lat="59.9402339" lon="17.6589555">
        <ele>33.7834</ele>
        <time>2014-05-29T13:50:24Z</time>
      </trkpt>
      <trkpt lat="59.9402504" lon="17.6590426">
        <ele>33.7834</ele>
        <time>2014-05-29T13:50:25Z</time>
      </trkpt>
      <trkpt lat="59.9402641" lon="17.6591227">
        <ele>33.7834</ele>
        <time>2014-05-29T13:50:26Z</time>
      </trkpt>
      <trkpt lat="59.940277" lon="17.659198">
        <ele>33.7834</ele>
        <time>2014-05-29T13:50:27Z</time>
      </trkpt>
      <trkpt lat="59.9402894" lon="17.6592719">
        <ele>34.2642</ele>
        <time>2014-05-29T13:50:28Z</time>
      </trkpt>
      <trkpt lat="59.9403017" lon="17.6593457">
        <ele>34.2642</ele>
        <time>2014-05-29T13:50:29Z</time>
      </trkpt>
      <trkpt lat="59.940313" lon="17.6594208">
        <ele>34.2642</ele>
        <time>2014-05-29T13:50:30Z</time>
      </trkpt>
      <trkpt lat="59.9403235" lon="17.6594951">
        <ele>34.2642</ele>
        <time>2014-05-29T13:50:31Z</time>
      </trkpt>
      <trkpt lat="59.9403339" lon="17.6595673">
        <ele>34.2642</ele>
        <time>2014-05-29T13:50:32Z</time>
      </trkpt>
      <trkpt lat="59.9403449" lon="17.6596367">
        <ele>34.7449</ele>
        <time>2014-05-29T13:50:33Z</time>
      </trkpt>
      <trkpt lat="59.9403563" lon="17.6597021">
        <ele>34.7449</ele>
        <time>2014-05-29T13:50:34Z</time>
      </trkpt>
      <trkpt lat="59.9403702" lon="17.6597632">
        <ele>34.7449</ele>
        <time>2014-05-29T13:50:35Z</time>
      </trkpt>
      <trkpt lat="59.9403864" lon="17.6598242">
        <ele>34.7449</ele>
        <time>2014-05-29T13:50:36Z</time>
      </trkpt>
      <trkpt lat="59.9404053" lon="17.6598865">
        <ele>34.7449</ele>
        <time>2014-05-29T13:50:37Z</time>
      </trkpt>
      <trkpt lat="59.9404241" lon="17.6599398">
        <ele>34.7449</ele>
        <time>2014-05-29T13:50:38Z</time>
      </trkpt>
      <trkpt lat="59.9404375" lon="17.6599863">
        <ele>34.7449</ele>
        <time>2014-05-29T13:50:39Z</time>
      </trkpt>
      <trkpt lat="59.9404573" lon="17.6600501">
        <ele>34.2642</ele>
        <time>2014-05-29T13:50:40Z</time>
      </trkpt>
      <trkpt lat="59.9404767" lon="17.6601177">
        <ele>33.7834</ele>
        <time>2014-05-29T13:50:41Z</time>
      </trkpt>
      <trkpt lat="59.9404904" lon="17.6601892">
        <ele>33.7834</ele>
        <time>2014-05-29T13:50:42Z</time>
      </trkpt>
      <trkpt lat="59.9405008" lon="17.6602693">
        <ele>33.7834</ele>
        <time>2014-05-29T13:50:43Z</time>
      </trkpt>
      <trkpt lat="59.9405047" lon="17.6603543">
        <ele>33.3029</ele>
        <time>2014-05-29T13:50:44Z</time>
      </trkpt>
      <trkpt lat="59.9405054" lon="17.6604519">
        <ele>32.8223</ele>
        <time>2014-05-29T13:50:45Z</time>
      </trkpt>
      <trkpt lat="59.9404972" lon="17.660557">
        <ele>32.8223</ele>
        <time>2014-05-29T13:50:46Z</time>
      </trkpt>
      <trkpt lat="59.94048" lon="17.6606546">
        <ele>32.8223</ele>
        <time>2014-05-29T13:50:47Z</time>
      </trkpt>
      <trkpt lat="59.9404563" lon="17.6607488">
        <ele>32.3416</ele>
        <time>2014-05-29T13:50:48Z</time>
      </trkpt>
      <trkpt lat="59.9404349" lon="17.6608481">
        <ele>32.3416</ele>
        <time>2014-05-29T13:50:49Z</time>
      </trkpt>
      <trkpt lat="59.9404184" lon="17.6609538">
        <ele>32.3416</ele>
        <time>2014-05-29T13:50:50Z</time>
      </trkpt>
      <trkpt lat="59.9404065" lon="17.6610608">
        <ele>32.3416</ele>
        <time>2014-05-29T13:50:51Z</time>
      </trkpt>
      <trkpt lat="59.9403982" lon="17.6611685">
        <ele>32.3416</ele>
        <time>2014-05-29T13:50:52Z</time>
      </trkpt>
      <trkpt lat="59.940392" lon="17.6612736">
        <ele>32.3416</ele>
        <time>2014-05-29T13:50:53Z</time>
      </trkpt>
      <trkpt lat="59.940392" lon="17.6613659">
        <ele>32.8223</ele>
        <time>2014-05-29T13:50:54Z</time>
      </trkpt>
      <trkpt lat="59.9404101" lon="17.6614735">
        <ele>32.8223</ele>
        <time>2014-05-29T13:50:55Z</time>
      </trkpt>
      <trkpt lat="59.9404205" lon="17.6615652">
        <ele>32.8223</ele>
        <time>2014-05-29T13:50:56Z</time>
      </trkpt>
      <trkpt lat="59.9404327" lon="17.6616486">
        <ele>33.3029</ele>
        <time>2014-05-29T13:50:57Z</time>
      </trkpt>
      <trkpt lat="59.9404447" lon="17.6617216">
        <ele>33.3029</ele>
        <time>2014-05-29T13:50:58Z</time>
      </trkpt>
      <trkpt lat="59.9404562" lon="17.6617837">
        <ele>33.7834</ele>
        <time>2014-05-29T13:50:59Z</time>
      </trkpt>
      <trkpt lat="59.9404648" lon="17.6618419">
        <ele>33.7834</ele>
        <time>2014-05-29T13:51:00Z</time>
      </trkpt>
      <trkpt lat="59.9404799" lon="17.6618927">
        <ele>33.7834</ele>
        <time>2014-05-29T13:51:01Z</time>
      </trkpt>
      <trkpt lat="59.9404981" lon="17.6619401">
        <ele>34.2642</ele>
        <time>2014-05-29T13:51:02Z</time>
      </trkpt>
      <trkpt lat="59.9405199" lon="17.6619816">
        <ele>34.2642</ele>
        <time>2014-05-29T13:51:03Z</time>
      </trkpt>
      <trkpt lat="59.9405465" lon="17.6620155">
        <ele>34.2642</ele>
        <time>2014-05-29T13:51:04Z</time>
      </trkpt>
      <trkpt lat="59.9405741" lon="17.6620497">
        <ele>34.7449</ele>
        <time>2014-05-29T13:51:05Z</time>
      </trkpt>
      <trkpt lat="59.9406032" lon="17.6620765">
        <ele>34.7449</ele>
        <time>2014-05-29T13:51:06Z</time>
      </trkpt>
      <trkpt lat="59.940636" lon="17.6620932">
        <ele>35.2255</ele>
        <time>2014-05-29T13:51:07Z</time>
      </trkpt>
      <trkpt lat="59.9406713" lon="17.6621088">
        <ele>35.2255</ele>
        <time>2014-05-29T13:51:08Z</time>
      </trkpt>
      <trkpt lat="59.9407059" lon="17.6621258">
        <ele>35.2255</ele>
        <time>2014-05-29T13:51:09Z</time>
      </trkpt>
      <trkpt lat="59.9407411" lon="17.6621417">
        <ele>35.2255</ele>
        <time>2014-05-29T13:51:10Z</time>
      </trkpt>
      <trkpt lat="59.9407763" lon="17.6621568">
        <ele>35.7061</ele>
        <time>2014-05-29T13:51:11Z</time>
      </trkpt>
      <trkpt lat="59.9408111" lon="17.662168">
        <ele>35.7061</ele>
        <time>2014-05-29T13:51:12Z</time>
      </trkpt>
      <trkpt lat="59.9408492" lon="17.6621749">
        <ele>35.7061</ele>
        <time>2014-05-29T13:51:13Z</time>
      </trkpt>
      <trkpt lat="59.9408877" lon="17.6621833">
        <ele>35.7061</ele>
        <time>2014-05-29T13:51:14Z</time>
      </trkpt>
      <trkpt lat="59.9409271" lon="17.6621924">
        <ele>36.1868</ele>
        <time>2014-05-29T13:51:15Z</time>
      </trkpt>
      <trkpt lat="59.9409675" lon="17.6622045">
        <ele>36.1868</ele>
        <time>2014-05-29T13:51:16Z</time>
      </trkpt>
      <trkpt lat="59.941007" lon="17.6622221">
        <ele>36.1868</ele>
        <time>2014-05-29T13:51:17Z</time>
      </trkpt>
      <trkpt lat="59.9410471" lon="17.6622419">
        <ele>36.1868</ele>
        <time>2014-05-29T13:51:18Z</time>
      </trkpt>
      <trkpt lat="59.9410882" lon="17.662262">
        <ele>36.1868</ele>
        <time>2014-05-29T13:51:19Z</time>
      </trkpt>
      <trkpt lat="59.9411291" lon="17.6622832">
        <ele>36.1868</ele>
        <time>2014-05-29T13:51:20Z</time>
      </trkpt>
      <trkpt lat="59.9411704" lon="17.662308">
        <ele>36.1868</ele>
        <time>2014-05-29T13:51:21Z</time>
      </trkpt>
      <trkpt lat="59.9412104" lon="17.6623379">
        <ele>36.1868</ele>
        <time>2014-05-29T13:51:22Z</time>
      </trkpt>
      <trkpt lat="59.9412491" lon="17.6623709">
        <ele>36.1868</ele>
        <time>2014-05-29T13:51:23Z</time>
      </trkpt>
      <trkpt lat="59.9412876" lon="17.662406">
        <ele>36.1868</ele>
        <time>2014-05-29T13:51:24Z</time>
      </trkpt>
      <trkpt lat="59.9413263" lon="17.6624434">
        <ele>36.1868</ele>
        <time>2014-05-29T13:51:25Z</time>
      </trkpt>
      <trkpt lat="59.9413657" lon="17.6624819">
        <ele>36.6675</ele>
        <time>2014-05-29T13:51:26Z</time>
      </trkpt>
      <trkpt lat="59.9414036" lon="17.6625221">
        <ele>36.6675</ele>
        <time>2014-05-29T13:51:27Z</time>
      </trkpt>
      <trkpt lat="59.9414392" lon="17.6625655">
        <ele>36.6675</ele>
        <time>2014-05-29T13:51:28Z</time>
      </trkpt>
      <trkpt lat="59.9414736" lon="17.6626096">
        <ele>36.6675</ele>
        <time>2014-05-29T13:51:29Z</time>
      </trkpt>
      <trkpt lat="59.9415069" lon="17.6626541">
        <ele>36.6675</ele>
        <time>2014-05-29T13:51:30Z</time>
      </trkpt>
      <trkpt lat="59.941539" lon="17.6627007">
        <ele>36.6675</ele>
        <time>2014-05-29T13:51:31Z</time>
      </trkpt>
      <trkpt lat="59.9415709" lon="17.6627479">
        <ele>36.6675</ele>
        <time>2014-05-29T13:51:32Z</time>
      </trkpt>
      <trkpt lat="59.9416031" lon="17.662796">
        <ele>37.1481</ele>
        <time>2014-05-29T13:51:33Z</time>
      </trkpt>
      <trkpt lat="59.9416334" lon="17.6628478">
        <ele>37.1481</ele>
        <time>2014-05-29T13:51:34Z</time>
      </trkpt>
      <trkpt lat="59.9416625" lon="17.662902">
        <ele>37.1481</ele>
        <time>2014-05-29T13:51:35Z</time>
      </trkpt>
      <trkpt lat="59.941692" lon="17.6629559">
        <ele>37.1481</ele>
        <time>2014-05-29T13:51:36Z</time>
      </trkpt>
      <trkpt lat="59.9417213" lon="17.6630115">
        <ele>37.1481</ele>
        <time>2014-05-29T13:51:37Z</time>
      </trkpt>
      <trkpt lat="59.9417493" lon="17.6630686">
        <ele>37.1481</ele>
        <time>2014-05-29T13:51:38Z</time>
      </trkpt>
      <trkpt lat="59.9417777" lon="17.663124">
        <ele>36.6675</ele>
        <time>2014-05-29T13:51:39Z</time>
      </trkpt>
      <trkpt lat="59.9418077" lon="17.6631758">
        <ele>36.6675</ele>
        <time>2014-05-29T13:51:40Z</time>
      </trkpt>
      <trkpt lat="59.9418367" lon="17.663227">
        <ele>36.6675</ele>
        <time>2014-05-29T13:51:41Z</time>
      </trkpt>
      <trkpt lat="59.9418662" lon="17.6632774">
        <ele>36.6675</ele>
        <time>2014-05-29T13:51:42Z</time>
      </trkpt>
      <trkpt lat="59.9418954" lon="17.6633265">
        <ele>36.6675</ele>
        <time>2014-05-29T13:51:43Z</time>
      </trkpt>
      <trkpt lat="59.9419249" lon="17.6633752">
        <ele>36.1868</ele>
        <time>2014-05-29T13:51:44Z</time>
      </trkpt>
      <trkpt lat="59.9419559" lon="17.6634248">
        <ele>36.1868</ele>
        <time>2014-05-29T13:51:45Z</time>
      </trkpt>
      <trkpt lat="59.9419869" lon="17.6634741">
        <ele>36.1868</ele>
        <time>2014-05-29T13:51:46Z</time>
      </trkpt>
      <trkpt lat="59.9420188" lon="17.6635233">
        <ele>36.1868</ele>
        <time>2014-05-29T13:51:47Z</time>
      </trkpt>
      <trkpt lat="59.9420525" lon="17.6635732">
        <ele>36.1868</ele>
        <time>2014-05-29T13:51:48Z</time>
      </trkpt>
      <trkpt lat="59.9420843" lon="17.6636242">
        <ele>35.7061</ele>
        <time>2014-05-29T13:51:49Z</time>
      </trkpt>
      <trkpt lat="59.9421176" lon="17.6636745">
        <ele>35.7061</ele>
        <time>2014-05-29T13:51:50Z</time>
      </trkpt>
      <trkpt lat="59.9421517" lon="17.6637244">
        <ele>35.7061</ele>
        <time>2014-05-29T13:51:51Z</time>
      </trkpt>
      <trkpt lat="59.9421865" lon="17.663773">
        <ele>35.7061</ele>
        <time>2014-05-29T13:51:52Z</time>
      </trkpt>
      <trkpt lat="59.9422221" lon="17.663822">
        <ele>35.7061</ele>
        <time>2014-05-29T13:51:53Z</time>
      </trkpt>
      <trkpt lat="59.9422577" lon="17.6638735">
        <ele>35.7061</ele>
        <time>2014-05-29T13:51:54Z</time>
      </trkpt>
      <trkpt lat="59.9422936" lon="17.6639258">
        <ele>35.7061</ele>
        <time>2014-05-29T13:51:55Z</time>
      </trkpt>
      <trkpt lat="59.9423304" lon="17.6639769">
        <ele>35.7061</ele>
        <time>2014-05-29T13:51:56Z</time>
      </trkpt>
      <trkpt lat="59.9423666" lon="17.6640284">
        <ele>35.7061</ele>
        <time>2014-05-29T13:51:57Z</time>
      </trkpt>
      <trkpt lat="59.942402" lon="17.6640787">
        <ele>35.2255</ele>
        <time>2014-05-29T13:51:58Z</time>
      </trkpt>
      <trkpt lat="59.9424366" lon="17.6641252">
        <ele>35.2255</ele>
        <time>2014-05-29T13:51:59Z</time>
      </trkpt>
      <trkpt lat="59.9424708" lon="17.6641684">
        <ele>35.2255</ele>
        <time>2014-05-29T13:52:00Z</time>
      </trkpt>
      <trkpt lat="59.9425054" lon="17.6642098">
        <ele>35.2255</ele>
        <time>2014-05-29T13:52:01Z</time>
      </trkpt>
      <trkpt lat="59.9425397" lon="17.6642522">
        <ele>34.7449</ele>
        <time>2014-05-29T13:52:02Z</time>
      </trkpt>
      <trkpt lat="59.9425733" lon="17.6642948">
        <ele>34.7449</ele>
        <time>2014-05-29T13:52:03Z</time>
      </trkpt>
      <trkpt lat="59.942607" lon="17.6643345">
        <ele>34.7449</ele>
        <time>2014-05-29T13:52:04Z</time>
      </trkpt>
      <trkpt lat="59.9426413" lon="17.664373">
        <ele>34.7449</ele>
        <time>2014-05-29T13:52:05Z</time>
      </trkpt>
      <trkpt lat="59.9426768" lon="17.6644117">
        <ele>34.7449</ele>
        <time>2014-05-29T13:52:06Z</time>
      </trkpt>
      <trkpt lat="59.9427122" lon="17.6644512">
        <ele>34.7449</ele>
        <time>2014-05-29T13:52:07Z</time>
      </trkpt>
      <trkpt lat="59.9427482" lon="17.6644906">
        <ele>34.7449</ele>
        <time>2014-05-29T13:52:08Z</time>
      </trkpt>
      <trkpt lat="59.9427842" lon="17.6645314">
        <ele>34.2642</ele>
        <time>2014-05-29T13:52:09Z</time>
      </trkpt>
      <trkpt lat="59.9428203" lon="17.6645719">
        <ele>34.2642</ele>
        <time>2014-05-29T13:52:10Z</time>
      </trkpt>
      <trkpt lat="59.9428575" lon="17.6646096">
        <ele>34.2642</ele>
        <time>2014-05-29T13:52:11Z</time>
      </trkpt>
      <trkpt lat="59.942896" lon="17.6646459">
        <ele>34.2642</ele>
        <time>2014-05-29T13:52:12Z</time>
      </trkpt>
      <trkpt lat="59.9429354" lon="17.6646825">
        <ele>34.2642</ele>
        <time>2014-05-29T13:52:13Z</time>
      </trkpt>
      <trkpt lat="59.9429747" lon="17.664721">
        <ele>34.2642</ele>
        <time>2014-05-29T13:52:14Z</time>
      </trkpt>
      <trkpt lat="59.9430136" lon="17.6647615">
        <ele>34.2642</ele>
        <time>2014-05-29T13:52:15Z</time>
      </trkpt>
      <trkpt lat="59.9430523" lon="17.6648033">
        <ele>33.7834</ele>
        <time>2014-05-29T13:52:16Z</time>
      </trkpt>
      <trkpt lat="59.9430909" lon="17.6648425">
        <ele>33.7834</ele>
        <time>2014-05-29T13:52:17Z</time>
      </trkpt>
      <trkpt lat="59.9431307" lon="17.6648772">
        <ele>33.7834</ele>
        <time>2014-05-29T13:52:18Z</time>
      </trkpt>
      <trkpt lat="59.9431715" lon="17.6649116">
        <ele>33.7834</ele>
        <time>2014-05-29T13:52:19Z</time>
      </trkpt>
      <trkpt lat="59.9432126" lon="17.6649466">
        <ele>33.7834</ele>
        <time>2014-05-29T13:52:20Z</time>
      </trkpt>
      <trkpt lat="59.9432539" lon="17.6649801">
        <ele>33.7834</ele>
        <time>2014-05-29T13:52:21Z</time>
      </trkpt>
      <trkpt lat="59.9432952" lon="17.6650164">
        <ele>33.3029</ele>
        <time>2014-05-29T13:52:22Z</time>
      </trkpt>
      <trkpt lat="59.9433364" lon="17.6650544">
        <ele>33.3029</ele>
        <time>2014-05-29T13:52:23Z</time>
      </trkpt>
      <trkpt lat="59.9433777" lon="17.6650893">
        <ele>33.3029</ele>
        <time>2014-05-29T13:52:24Z</time>
      </trkpt>
      <trkpt lat="59.9434197" lon="17.6651219">
        <ele>33.3029</ele>
        <time>2014-05-29T13:52:25Z</time>
      </trkpt>
      <trkpt lat="59.9434623" lon="17.6651519">
        <ele>33.3029</ele>
        <time>2014-05-29T13:52:26Z</time>
      </trkpt>
      <trkpt lat="59.9435053" lon="17.6651816">
        <ele>33.3029</ele>
        <time>2014-05-29T13:52:27Z</time>
      </trkpt>
      <trkpt lat="59.9435485" lon="17.6652136">
        <ele>32.8223</ele>
        <time>2014-05-29T13:52:28Z</time>
      </trkpt>
      <trkpt lat="59.9435917" lon="17.6652456">
        <ele>32.8223</ele>
        <time>2014-05-29T13:52:29Z</time>
      </trkpt>
      <trkpt lat="59.9436357" lon="17.6652762">
        <ele>32.8223</ele>
        <time>2014-05-29T13:52:30Z</time>
      </trkpt>
      <trkpt lat="59.9436806" lon="17.6653047">
        <ele>32.8223</ele>
        <time>2014-05-29T13:52:31Z</time>
      </trkpt>
      <trkpt lat="59.9437259" lon="17.6653328">
        <ele>32.8223</ele>
        <time>2014-05-29T13:52:32Z</time>
      </trkpt>
      <trkpt lat="59.9437715" lon="17.6653607">
        <ele>32.8223</ele>
        <time>2014-05-29T13:52:33Z</time>
      </trkpt>
      <trkpt lat="59.9438169" lon="17.6653872">
        <ele>32.8223</ele>
        <time>2014-05-29T13:52:34Z</time>
      </trkpt>
      <trkpt lat="59.9438621" lon="17.6654131">
        <ele>32.8223</ele>
        <time>2014-05-29T13:52:35Z</time>
      </trkpt>
      <trkpt lat="59.9439062" lon="17.6654398">
        <ele>32.8223</ele>
        <time>2014-05-29T13:52:36Z</time>
      </trkpt>
      <trkpt lat="59.9439495" lon="17.6654664">
        <ele>32.3416</ele>
        <time>2014-05-29T13:52:37Z</time>
      </trkpt>
      <trkpt lat="59.9439922" lon="17.6654916">
        <ele>32.3416</ele>
        <time>2014-05-29T13:52:38Z</time>
      </trkpt>
      <trkpt lat="59.9440351" lon="17.6655139">
        <ele>32.3416</ele>
        <time>2014-05-29T13:52:39Z</time>
      </trkpt>
      <trkpt lat="59.9440771" lon="17.6655343">
        <ele>32.3416</ele>
        <time>2014-05-29T13:52:40Z</time>
      </trkpt>
      <trkpt lat="59.944118" lon="17.6655537">
        <ele>32.3416</ele>
        <time>2014-05-29T13:52:41Z</time>
      </trkpt>
      <trkpt lat="59.9441584" lon="17.6655689">
        <ele>32.3416</ele>
        <time>2014-05-29T13:52:42Z</time>
      </trkpt>
      <trkpt lat="59.944199" lon="17.6655823">
        <ele>32.3416</ele>
        <time>2014-05-29T13:52:43Z</time>
      </trkpt>
      <trkpt lat="59.9442401" lon="17.6655985">
        <ele>32.3416</ele>
        <time>2014-05-29T13:52:44Z</time>
      </trkpt>
      <trkpt lat="59.944281" lon="17.6656162">
        <ele>31.8607</ele>
        <time>2014-05-29T13:52:45Z</time>
      </trkpt>
      <trkpt lat="59.9443217" lon="17.6656337">
        <ele>31.8607</ele>
        <time>2014-05-29T13:52:46Z</time>
      </trkpt>
      <trkpt lat="59.9443624" lon="17.6656502">
        <ele>31.8607</ele>
        <time>2014-05-29T13:52:47Z</time>
      </trkpt>
      <trkpt lat="59.9444028" lon="17.6656651">
        <ele>31.8607</ele>
        <time>2014-05-29T13:52:48Z</time>
      </trkpt>
      <trkpt lat="59.9444424" lon="17.6656794">
        <ele>31.8607</ele>
        <time>2014-05-29T13:52:49Z</time>
      </trkpt>
      <trkpt lat="59.9444817" lon="17.6656934">
        <ele>31.8607</ele>
        <time>2014-05-29T13:52:50Z</time>
      </trkpt>
      <trkpt lat="59.944521" lon="17.6657078">
        <ele>31.8607</ele>
        <time>2014-05-29T13:52:51Z</time>
      </trkpt>
      <trkpt lat="59.9445604" lon="17.6657218">
        <ele>31.3801</ele>
        <time>2014-05-29T13:52:52Z</time>
      </trkpt>
      <trkpt lat="59.9445998" lon="17.6657347">
        <ele>31.3801</ele>
        <time>2014-05-29T13:52:53Z</time>
      </trkpt>
      <trkpt lat="59.9446379" lon="17.6657491">
        <ele>31.3801</ele>
        <time>2014-05-29T13:52:54Z</time>
      </trkpt>
      <trkpt lat="59.9446752" lon="17.6657666">
        <ele>31.3801</ele>
        <time>2014-05-29T13:52:55Z</time>
      </trkpt>
      <trkpt lat="59.944713" lon="17.6657845">
        <ele>31.3801</ele>
        <time>2014-05-29T13:52:56Z</time>
      </trkpt>
      <trkpt lat="59.9447516" lon="17.665801">
        <ele>31.3801</ele>
        <time>2014-05-29T13:52:57Z</time>
      </trkpt>
      <trkpt lat="59.9447908" lon="17.665815">
        <ele>31.3801</ele>
        <time>2014-05-29T13:52:58Z</time>
      </trkpt>
      <trkpt lat="59.9448292" lon="17.6658273">
        <ele>31.3801</ele>
        <time>2014-05-29T13:52:59Z</time>
      </trkpt>
      <trkpt lat="59.944865" lon="17.6658398">
        <ele>31.3801</ele>
        <time>2014-05-29T13:53:00Z</time>
      </trkpt>
      <trkpt lat="59.9448982" lon="17.6658537">
        <ele>31.3801</ele>
        <time>2014-05-29T13:53:01Z</time>
      </trkpt>
      <trkpt lat="59.9449298" lon="17.6658669">
        <ele>31.3801</ele>
        <time>2014-05-29T13:53:02Z</time>
      </trkpt>
      <trkpt lat="59.9449598" lon="17.6658783">
        <ele>31.3801</ele>
        <time>2014-05-29T13:53:03Z</time>
      </trkpt>
      <trkpt lat="59.9449904" lon="17.6658886">
        <ele>30.8995</ele>
        <time>2014-05-29T13:53:04Z</time>
      </trkpt>
      <trkpt lat="59.9450219" lon="17.6659008">
        <ele>30.8995</ele>
        <time>2014-05-29T13:53:05Z</time>
      </trkpt>
      <trkpt lat="59.945053" lon="17.6659143">
        <ele>30.8995</ele>
        <time>2014-05-29T13:53:06Z</time>
      </trkpt>
      <trkpt lat="59.9450842" lon="17.6659257">
        <ele>30.8995</ele>
        <time>2014-05-29T13:53:07Z</time>
      </trkpt>
      <trkpt lat="59.9451165" lon="17.6659342">
        <ele>30.8995</ele>
        <time>2014-05-29T13:53:08Z</time>
      </trkpt>
      <trkpt lat="59.9451495" lon="17.665945">
        <ele>30.8995</ele>
        <time>2014-05-29T13:53:09Z</time>
      </trkpt>
      <trkpt lat="59.9451831" lon="17.6659593">
        <ele>30.8995</ele>
        <time>2014-05-29T13:53:10Z</time>
      </trkpt>
      <trkpt lat="59.9452172" lon="17.6659744">
        <ele>30.8995</ele>
        <time>2014-05-29T13:53:11Z</time>
      </trkpt>
      <trkpt lat="59.9452514" lon="17.6659891">
        <ele>30.8995</ele>
        <time>2014-05-29T13:53:12Z</time>
      </trkpt>
      <trkpt lat="59.945286" lon="17.666002">
        <ele>30.8995</ele>
        <time>2014-05-29T13:53:13Z</time>
      </trkpt>
      <trkpt lat="59.9453206" lon="17.6660155">
        <ele>30.8995</ele>
        <time>2014-05-29T13:53:14Z</time>
      </trkpt>
      <trkpt lat="59.9453548" lon="17.6660295">
        <ele>30.4188</ele>
        <time>2014-05-29T13:53:15Z</time>
      </trkpt>
      <trkpt lat="59.9453881" lon="17.6660408">
        <ele>30.4188</ele>
        <time>2014-05-29T13:53:16Z</time>
      </trkpt>
      <trkpt lat="59.9454208" lon="17.6660519">
        <ele>30.4188</ele>
        <time>2014-05-29T13:53:17Z</time>
      </trkpt>
      <trkpt lat="59.9454535" lon="17.6660651">
        <ele>30.4188</ele>
        <time>2014-05-29T13:53:18Z</time>
      </trkpt>
      <trkpt lat="59.9454865" lon="17.6660782">
        <ele>30.4188</ele>
        <time>2014-05-29T13:53:19Z</time>
      </trkpt>
      <trkpt lat="59.9455194" lon="17.666091">
        <ele>30.4188</ele>
        <time>2014-05-29T13:53:20Z</time>
      </trkpt>
      <trkpt lat="59.9455527" lon="17.6661029">
        <ele>30.4188</ele>
        <time>2014-05-29T13:53:21Z</time>
      </trkpt>
      <trkpt lat="59.9455866" lon="17.6661133">
        <ele>30.4188</ele>
        <time>2014-05-29T13:53:22Z</time>
      </trkpt>
      <trkpt lat="59.9456218" lon="17.6661227">
        <ele>30.4188</ele>
        <time>2014-05-29T13:53:23Z</time>
      </trkpt>
      <trkpt lat="59.9456575" lon="17.6661331">
        <ele>30.4188</ele>
        <time>2014-05-29T13:53:24Z</time>
      </trkpt>
      <trkpt lat="59.9456937" lon="17.6661459">
        <ele>30.4188</ele>
        <time>2014-05-29T13:53:25Z</time>
      </trkpt>
      <trkpt lat="59.9457288" lon="17.6661652">
        <ele>30.4188</ele>
        <time>2014-05-29T13:53:26Z</time>
      </trkpt>
      <trkpt lat="59.9457622" lon="17.666186">
        <ele>30.4188</ele>
        <time>2014-05-29T13:53:27Z</time>
      </trkpt>
      <trkpt lat="59.9457957" lon="17.6662015">
        <ele>30.4188</ele>
        <time>2014-05-29T13:53:28Z</time>
      </trkpt>
      <trkpt lat="59.9458295" lon="17.6662135">
        <ele>30.4188</ele>
        <time>2014-05-29T13:53:29Z</time>
      </trkpt>
      <trkpt lat="59.9458627" lon="17.6662232">
        <ele>30.4188</ele>
        <time>2014-05-29T13:53:30Z</time>
      </trkpt>
      <trkpt lat="59.9458958" lon="17.6662326">
        <ele>30.4188</ele>
        <time>2014-05-29T13:53:31Z</time>
      </trkpt>
      <trkpt lat="59.9459279" lon="17.6662451">
        <ele>30.4188</ele>
        <time>2014-05-29T13:53:32Z</time>
      </trkpt>
      <trkpt lat="59.9459586" lon="17.6662595">
        <ele>29.9381</ele>
        <time>2014-05-29T13:53:33Z</time>
      </trkpt>
      <trkpt lat="59.9459896" lon="17.6662733">
        <ele>29.9381</ele>
        <time>2014-05-29T13:53:34Z</time>
      </trkpt>
      <trkpt lat="59.9460216" lon="17.6662867">
        <ele>29.9381</ele>
        <time>2014-05-29T13:53:35Z</time>
      </trkpt>
      <trkpt lat="59.9460549" lon="17.666299">
        <ele>29.9381</ele>
        <time>2014-05-29T13:53:36Z</time>
      </trkpt>
      <trkpt lat="59.9460885" lon="17.6663113">
        <ele>29.9381</ele>
        <time>2014-05-29T13:53:37Z</time>
      </trkpt>
      <trkpt lat="59.9461215" lon="17.666323">
        <ele>29.9381</ele>
        <time>2014-05-29T13:53:38Z</time>
      </trkpt>
      <trkpt lat="59.9461541" lon="17.6663311">
        <ele>29.9381</ele>
        <time>2014-05-29T13:53:39Z</time>
      </trkpt>
      <trkpt lat="59.9461868" lon="17.6663401">
        <ele>29.9381</ele>
        <time>2014-05-29T13:53:40Z</time>
      </trkpt>
      <trkpt lat="59.9462186" lon="17.6663562">
        <ele>29.9381</ele>
        <time>2014-05-29T13:53:41Z</time>
      </trkpt>
      <trkpt lat="59.9462491" lon="17.6663801">
        <ele>29.9381</ele>
        <time>2014-05-29T13:53:42Z</time>
      </trkpt>
      <trkpt lat="59.9462782" lon="17.6664088">
        <ele>29.9381</ele>
        <time>2014-05-29T13:53:43Z</time>
      </trkpt>
      <trkpt lat="59.9463075" lon="17.6664367">
        <ele>29.9381</ele>
        <time>2014-05-29T13:53:44Z</time>
      </trkpt>
      <trkpt lat="59.9463376" lon="17.6664609">
        <ele>29.4575</ele>
        <time>2014-05-29T13:53:45Z</time>
      </trkpt>
      <trkpt lat="59.9463684" lon="17.6664821">
        <ele>29.4575</ele>
        <time>2014-05-29T13:53:46Z</time>
      </trkpt>
      <trkpt lat="59.9463998" lon="17.6665018">
        <ele>29.4575</ele>
        <time>2014-05-29T13:53:47Z</time>
      </trkpt>
      <trkpt lat="59.9464316" lon="17.6665198">
        <ele>29.4575</ele>
        <time>2014-05-29T13:53:48Z</time>
      </trkpt>
      <trkpt lat="59.9464642" lon="17.6665352">
        <ele>29.4575</ele>
        <time>2014-05-29T13:53:49Z</time>
      </trkpt>
      <trkpt lat="59.9464973" lon="17.6665484">
        <ele>29.4575</ele>
        <time>2014-05-29T13:53:50Z</time>
      </trkpt>
      <trkpt lat="59.9465305" lon="17.6665616">
        <ele>29.4575</ele>
        <time>2014-05-29T13:53:51Z</time>
      </trkpt>
      <trkpt lat="59.9465634" lon="17.6665725">
        <ele>29.4575</ele>
        <time>2014-05-29T13:53:52Z</time>
      </trkpt>
      <trkpt lat="59.9465966" lon="17.666576">
        <ele>29.4575</ele>
        <time>2014-05-29T13:53:53Z</time>
      </trkpt>
      <trkpt lat="59.9466307" lon="17.6665737">
        <ele>29.4575</ele>
        <time>2014-05-29T13:53:54Z</time>
      </trkpt>
      <trkpt lat="59.946666" lon="17.6665693">
        <ele>28.9769</ele>
        <time>2014-05-29T13:53:55Z</time>
      </trkpt>
      <trkpt lat="59.9467024" lon="17.6665667">
        <ele>28.9769</ele>
        <time>2014-05-29T13:53:56Z</time>
      </trkpt>
      <trkpt lat="59.9467402" lon="17.6665697">
        <ele>28.9769</ele>
        <time>2014-05-29T13:53:57Z</time>
      </trkpt>
      <trkpt lat="59.9467779" lon="17.6665801">
        <ele>28.9769</ele>
        <time>2014-05-29T13:53:58Z</time>
      </trkpt>
      <trkpt lat="59.9468147" lon="17.6665971">
        <ele>28.9769</ele>
        <time>2014-05-29T13:53:59Z</time>
      </trkpt>
      <trkpt lat="59.9468506" lon="17.6666148">
        <ele>28.9769</ele>
        <time>2014-05-29T13:54:00Z</time>
      </trkpt>
      <trkpt lat="59.9468868" lon="17.6666293">
        <ele>28.9769</ele>
        <time>2014-05-29T13:54:01Z</time>
      </trkpt>
      <trkpt lat="59.9469236" lon="17.6666429">
        <ele>28.9769</ele>
        <time>2014-05-29T13:54:02Z</time>
      </trkpt>
      <trkpt lat="59.9469605" lon="17.6666577">
        <ele>28.9769</ele>
        <time>2014-05-29T13:54:03Z</time>
      </trkpt>
      <trkpt lat="59.9469981" lon="17.6666737">
        <ele>28.9769</ele>
        <time>2014-05-29T13:54:04Z</time>
      </trkpt>
      <trkpt lat="59.9470361" lon="17.6666899">
        <ele>28.9769</ele>
        <time>2014-05-29T13:54:05Z</time>
      </trkpt>
      <trkpt lat="59.9470743" lon="17.6667056">
        <ele>28.9769</ele>
        <time>2014-05-29T13:54:06Z</time>
      </trkpt>
      <trkpt lat="59.9471126" lon="17.6667226">
        <ele>28.9769</ele>
        <time>2014-05-29T13:54:07Z</time>
      </trkpt>
      <trkpt lat="59.9471504" lon="17.6667417">
        <ele>28.9769</ele>
        <time>2014-05-29T13:54:08Z</time>
      </trkpt>
      <trkpt lat="59.9471882" lon="17.666761">
        <ele>28.9769</ele>
        <time>2014-05-29T13:54:09Z</time>
      </trkpt>
      <trkpt lat="59.9472262" lon="17.666778">
        <ele>28.9769</ele>
        <time>2014-05-29T13:54:10Z</time>
      </trkpt>
      <trkpt lat="59.9472644" lon="17.6667941">
        <ele>28.9769</ele>
        <time>2014-05-29T13:54:11Z</time>
      </trkpt>
      <trkpt lat="59.9473029" lon="17.6668117">
        <ele>28.9769</ele>
        <time>2014-05-29T13:54:12Z</time>
      </trkpt>
      <trkpt lat="59.9473416" lon="17.6668319">
        <ele>28.9769</ele>
        <time>2014-05-29T13:54:13Z</time>
      </trkpt>
      <trkpt lat="59.9473805" lon="17.6668537">
        <ele>28.4962</ele>
        <time>2014-05-29T13:54:14Z</time>
      </trkpt>
      <trkpt lat="59.9474196" lon="17.6668743">
        <ele>28.4962</ele>
        <time>2014-05-29T13:54:15Z</time>
      </trkpt>
      <trkpt lat="59.9474592" lon="17.6668938">
        <ele>28.4962</ele>
        <time>2014-05-29T13:54:16Z</time>
      </trkpt>
      <trkpt lat="59.9474989" lon="17.666913">
        <ele>28.4962</ele>
        <time>2014-05-29T13:54:17Z</time>
      </trkpt>
      <trkpt lat="59.9475388" lon="17.6669301">
        <ele>28.4962</ele>
        <time>2014-05-29T13:54:18Z</time>
      </trkpt>
      <trkpt lat="59.947579" lon="17.6669472">
        <ele>28.4962</ele>
        <time>2014-05-29T13:54:19Z</time>
      </trkpt>
      <trkpt lat="59.9476186" lon="17.6669675">
        <ele>28.4962</ele>
        <time>2014-05-29T13:54:20Z</time>
      </trkpt>
      <trkpt lat="59.9476566" lon="17.6669873">
        <ele>28.4962</ele>
        <time>2014-05-29T13:54:21Z</time>
      </trkpt>
      <trkpt lat="59.9476944" lon="17.6670059">
        <ele>28.4962</ele>
        <time>2014-05-29T13:54:22Z</time>
      </trkpt>
      <trkpt lat="59.9477317" lon="17.6670264">
        <ele>28.4962</ele>
        <time>2014-05-29T13:54:23Z</time>
      </trkpt>
      <trkpt lat="59.9477686" lon="17.6670472">
        <ele>28.4962</ele>
        <time>2014-05-29T13:54:24Z</time>
      </trkpt>
      <trkpt lat="59.9478061" lon="17.6670671">
        <ele>28.4962</ele>
        <time>2014-05-29T13:54:25Z</time>
      </trkpt>
      <trkpt lat="59.9478436" lon="17.6670855">
        <ele>28.4962</ele>
        <time>2014-05-29T13:54:26Z</time>
      </trkpt>
      <trkpt lat="59.947881" lon="17.6671018">
        <ele>28.4962</ele>
        <time>2014-05-29T13:54:27Z</time>
      </trkpt>
      <trkpt lat="59.9479185" lon="17.6671189">
        <ele>28.4962</ele>
        <time>2014-05-29T13:54:28Z</time>
      </trkpt>
      <trkpt lat="59.947956" lon="17.6671385">
        <ele>28.4962</ele>
        <time>2014-05-29T13:54:29Z</time>
      </trkpt>
      <trkpt lat="59.9479952" lon="17.6671601">
        <ele>28.4962</ele>
        <time>2014-05-29T13:54:30Z</time>
      </trkpt>
      <trkpt lat="59.9480353" lon="17.6671841">
        <ele>28.4962</ele>
        <time>2014-05-29T13:54:31Z</time>
      </trkpt>
      <trkpt lat="59.948076" lon="17.6672091">
        <ele>28.4962</ele>
        <time>2014-05-29T13:54:32Z</time>
      </trkpt>
      <trkpt lat="59.9481172" lon="17.6672333">
        <ele>28.4962</ele>
        <time>2014-05-29T13:54:33Z</time>
      </trkpt>
      <trkpt lat="59.948159" lon="17.6672559">
        <ele>28.4962</ele>
        <time>2014-05-29T13:54:34Z</time>
      </trkpt>
      <trkpt lat="59.9482001" lon="17.6672785">
        <ele>28.4962</ele>
        <time>2014-05-29T13:54:35Z</time>
      </trkpt>
      <trkpt lat="59.9482409" lon="17.6673017">
        <ele>28.0155</ele>
        <time>2014-05-29T13:54:36Z</time>
      </trkpt>
      <trkpt lat="59.9482817" lon="17.6673239">
        <ele>28.0155</ele>
        <time>2014-05-29T13:54:37Z</time>
      </trkpt>
      <trkpt lat="59.9483223" lon="17.6673462">
        <ele>28.0155</ele>
        <time>2014-05-29T13:54:38Z</time>
      </trkpt>
      <trkpt lat="59.9483626" lon="17.6673711">
        <ele>28.0155</ele>
        <time>2014-05-29T13:54:39Z</time>
      </trkpt>
      <trkpt lat="59.9484023" lon="17.6673959">
        <ele>28.0155</ele>
        <time>2014-05-29T13:54:40Z</time>
      </trkpt>
      <trkpt lat="59.9484427" lon="17.6674183">
        <ele>28.0155</ele>
        <time>2014-05-29T13:54:41Z</time>
      </trkpt>
      <trkpt lat="59.9484841" lon="17.6674408">
        <ele>28.0155</ele>
        <time>2014-05-29T13:54:42Z</time>
      </trkpt>
      <trkpt lat="59.9485262" lon="17.6674632">
        <ele>28.0155</ele>
        <time>2014-05-29T13:54:43Z</time>
      </trkpt>
      <trkpt lat="59.9485682" lon="17.6674862">
        <ele>28.0155</ele>
        <time>2014-05-29T13:54:44Z</time>
      </trkpt>
      <trkpt lat="59.9486093" lon="17.6675115">
        <ele>28.0155</ele>
        <time>2014-05-29T13:54:45Z</time>
      </trkpt>
      <trkpt lat="59.9486497" lon="17.6675353">
        <ele>28.0155</ele>
        <time>2014-05-29T13:54:46Z</time>
      </trkpt>
      <trkpt lat="59.948689" lon="17.6675566">
        <ele>28.0155</ele>
        <time>2014-05-29T13:54:47Z</time>
      </trkpt>
      <trkpt lat="59.9487278" lon="17.6675774">
        <ele>28.0155</ele>
        <time>2014-05-29T13:54:48Z</time>
      </trkpt>
      <trkpt lat="59.9487656" lon="17.6675992">
        <ele>28.0155</ele>
        <time>2014-05-29T13:54:49Z</time>
      </trkpt>
      <trkpt lat="59.9488019" lon="17.6676206">
        <ele>28.0155</ele>
        <time>2014-05-29T13:54:50Z</time>
      </trkpt>
      <trkpt lat="59.9488377" lon="17.6676398">
        <ele>28.0155</ele>
        <time>2014-05-29T13:54:51Z</time>
      </trkpt>
      <trkpt lat="59.9488722" lon="17.6676572">
        <ele>28.0155</ele>
        <time>2014-05-29T13:54:52Z</time>
      </trkpt>
      <trkpt lat="59.9489054" lon="17.6676748">
        <ele>28.0155</ele>
        <time>2014-05-29T13:54:53Z</time>
      </trkpt>
      <trkpt lat="59.948938" lon="17.6676947">
        <ele>28.0155</ele>
        <time>2014-05-29T13:54:54Z</time>
      </trkpt>
      <trkpt lat="59.9489706" lon="17.6677154">
        <ele>27.5349</ele>
        <time>2014-05-29T13:54:55Z</time>
      </trkpt>
      <trkpt lat="59.9490025" lon="17.6677357">
        <ele>27.5349</ele>
        <time>2014-05-29T13:54:56Z</time>
      </trkpt>
      <trkpt lat="59.9490339" lon="17.6677533">
        <ele>27.5349</ele>
        <time>2014-05-29T13:54:57Z</time>
      </trkpt>
      <trkpt lat="59.9490646" lon="17.6677708">
        <ele>27.5349</ele>
        <time>2014-05-29T13:54:58Z</time>
      </trkpt>
      <trkpt lat="59.9490952" lon="17.6677897">
        <ele>27.5349</ele>
        <time>2014-05-29T13:54:59Z</time>
      </trkpt>
      <trkpt lat="59.9491265" lon="17.6678084">
        <ele>27.5349</ele>
        <time>2014-05-29T13:55:00Z</time>
      </trkpt>
      <trkpt lat="59.9491582" lon="17.6678281">
        <ele>27.5349</ele>
        <time>2014-05-29T13:55:01Z</time>
      </trkpt>
      <trkpt lat="59.9491902" lon="17.6678467">
        <ele>27.5349</ele>
        <time>2014-05-29T13:55:02Z</time>
      </trkpt>
      <trkpt lat="59.9492219" lon="17.6678647">
        <ele>27.5349</ele>
        <time>2014-05-29T13:55:03Z</time>
      </trkpt>
      <trkpt lat="59.949253" lon="17.6678817">
        <ele>27.5349</ele>
        <time>2014-05-29T13:55:04Z</time>
      </trkpt>
      <trkpt lat="59.9492835" lon="17.6678973">
        <ele>27.5349</ele>
        <time>2014-05-29T13:55:05Z</time>
      </trkpt>
      <trkpt lat="59.9493133" lon="17.6679136">
        <ele>27.5349</ele>
        <time>2014-05-29T13:55:06Z</time>
      </trkpt>
      <trkpt lat="59.9493435" lon="17.6679312">
        <ele>27.5349</ele>
        <time>2014-05-29T13:55:07Z</time>
      </trkpt>
      <trkpt lat="59.9493744" lon="17.6679485">
        <ele>27.5349</ele>
        <time>2014-05-29T13:55:08Z</time>
      </trkpt>
      <trkpt lat="59.9494057" lon="17.6679658">
        <ele>27.5349</ele>
        <time>2014-05-29T13:55:09Z</time>
      </trkpt>
      <trkpt lat="59.9494371" lon="17.6679833">
        <ele>27.5349</ele>
        <time>2014-05-29T13:55:10Z</time>
      </trkpt>
      <trkpt lat="59.9494691" lon="17.6679985">
        <ele>27.5349</ele>
        <time>2014-05-29T13:55:11Z</time>
      </trkpt>
      <trkpt lat="59.949501" lon="17.6680143">
        <ele>27.5349</ele>
        <time>2014-05-29T13:55:12Z</time>
      </trkpt>
      <trkpt lat="59.9495331" lon="17.6680324">
        <ele>27.5349</ele>
        <time>2014-05-29T13:55:13Z</time>
      </trkpt>
      <trkpt lat="59.9495645" lon="17.6680528">
        <ele>27.5349</ele>
        <time>2014-05-29T13:55:14Z</time>
      </trkpt>
      <trkpt lat="59.9495976" lon="17.668071">
        <ele>27.5349</ele>
        <time>2014-05-29T13:55:15Z</time>
      </trkpt>
      <trkpt lat="59.9496316" lon="17.6680858">
        <ele>27.5349</ele>
        <time>2014-05-29T13:55:16Z</time>
      </trkpt>
      <trkpt lat="59.9496664" lon="17.6681006">
        <ele>27.5349</ele>
        <time>2014-05-29T13:55:17Z</time>
      </trkpt>
      <trkpt lat="59.949701" lon="17.668118">
        <ele>27.5349</ele>
        <time>2014-05-29T13:55:18Z</time>
      </trkpt>
      <trkpt lat="59.9497346" lon="17.6681378">
        <ele>27.5349</ele>
        <time>2014-05-29T13:55:19Z</time>
      </trkpt>
      <trkpt lat="59.9497674" lon="17.6681553">
        <ele>27.5349</ele>
        <time>2014-05-29T13:55:20Z</time>
      </trkpt>
      <trkpt lat="59.9498011" lon="17.6681699">
        <ele>27.5349</ele>
        <time>2014-05-29T13:55:21Z</time>
      </trkpt>
      <trkpt lat="59.9498351" lon="17.6681842">
        <ele>27.5349</ele>
        <time>2014-05-29T13:55:22Z</time>
      </trkpt>
      <trkpt lat="59.9498696" lon="17.6681972">
        <ele>27.5349</ele>
        <time>2014-05-29T13:55:23Z</time>
      </trkpt>
      <trkpt lat="59.949905" lon="17.6682098">
        <ele>27.5349</ele>
        <time>2014-05-29T13:55:24Z</time>
      </trkpt>
      <trkpt lat="59.9499403" lon="17.668223">
        <ele>27.5349</ele>
        <time>2014-05-29T13:55:25Z</time>
      </trkpt>
      <trkpt lat="59.9499751" lon="17.6682365">
        <ele>27.5349</ele>
        <time>2014-05-29T13:55:26Z</time>
      </trkpt>
      <trkpt lat="59.9500098" lon="17.6682497">
        <ele>27.5349</ele>
        <time>2014-05-29T13:55:27Z</time>
      </trkpt>
      <trkpt lat="59.9500429" lon="17.6682624">
        <ele>27.5349</ele>
        <time>2014-05-29T13:55:28Z</time>
      </trkpt>
      <trkpt lat="59.9500742" lon="17.6682754">
        <ele>27.5349</ele>
        <time>2014-05-29T13:55:29Z</time>
      </trkpt>
      <trkpt lat="59.9501053" lon="17.6682875">
        <ele>27.5349</ele>
        <time>2014-05-29T13:55:30Z</time>
      </trkpt>
      <trkpt lat="59.9501363" lon="17.6682963">
        <ele>27.5349</ele>
        <time>2014-05-29T13:55:31Z</time>
      </trkpt>
      <trkpt lat="59.9501662" lon="17.668303">
        <ele>27.5349</ele>
        <time>2014-05-29T13:55:32Z</time>
      </trkpt>
      <trkpt lat="59.9501958" lon="17.668308">
        <ele>27.5349</ele>
        <time>2014-05-29T13:55:33Z</time>
      </trkpt>
      <trkpt lat="59.9502253" lon="17.6683112">
        <ele>27.5349</ele>
        <time>2014-05-29T13:55:34Z</time>
      </trkpt>
      <trkpt lat="59.9502549" lon="17.6683147">
        <ele>27.5349</ele>
        <time>2014-05-29T13:55:35Z</time>
      </trkpt>
      <trkpt lat="59.9502845" lon="17.6683196">
        <ele>27.5349</ele>
        <time>2014-05-29T13:55:36Z</time>
      </trkpt>
      <trkpt lat="59.9503145" lon="17.6683253">
        <ele>27.5349</ele>
        <time>2014-05-29T13:55:37Z</time>
      </trkpt>
      <trkpt lat="59.9503448" lon="17.6683293">
        <ele>27.5349</ele>
        <time>2014-05-29T13:55:38Z</time>
      </trkpt>
      <trkpt lat="59.9503766" lon="17.6683319">
        <ele>27.5349</ele>
        <time>2014-05-29T13:55:39Z</time>
      </trkpt>
      <trkpt lat="59.9504098" lon="17.6683355">
        <ele>27.5349</ele>
        <time>2014-05-29T13:55:40Z</time>
      </trkpt>
      <trkpt lat="59.9504436" lon="17.6683376">
        <ele>27.5349</ele>
        <time>2014-05-29T13:55:41Z</time>
      </trkpt>
      <trkpt lat="59.9504775" lon="17.6683378">
        <ele>27.5349</ele>
        <time>2014-05-29T13:55:42Z</time>
      </trkpt>
      <trkpt lat="59.9505121" lon="17.6683389">
        <ele>27.5349</ele>
        <time>2014-05-29T13:55:43Z</time>
      </trkpt>
      <trkpt lat="59.9505468" lon="17.6683391">
        <ele>27.5349</ele>
        <time>2014-05-29T13:55:44Z</time>
      </trkpt>
      <trkpt lat="59.9505807" lon="17.6683371">
        <ele>27.5349</ele>
        <time>2014-05-29T13:55:45Z</time>
      </trkpt>
      <trkpt lat="59.9506145" lon="17.6683342">
        <ele>27.0543</ele>
        <time>2014-05-29T13:55:46Z</time>
      </trkpt>
      <trkpt lat="59.9506492" lon="17.6683306">
        <ele>27.0543</ele>
        <time>2014-05-29T13:55:47Z</time>
      </trkpt>
      <trkpt lat="59.9506849" lon="17.6683252">
        <ele>27.0543</ele>
        <time>2014-05-29T13:55:48Z</time>
      </trkpt>
      <trkpt lat="59.9507225" lon="17.6683191">
        <ele>27.0543</ele>
        <time>2014-05-29T13:55:49Z</time>
      </trkpt>
      <trkpt lat="59.9507615" lon="17.6683119">
        <ele>27.0543</ele>
        <time>2014-05-29T13:55:50Z</time>
      </trkpt>
      <trkpt lat="59.9508025" lon="17.6683025">
        <ele>27.0543</ele>
        <time>2014-05-29T13:55:51Z</time>
      </trkpt>
      <trkpt lat="59.9508434" lon="17.6682928">
        <ele>27.5349</ele>
        <time>2014-05-29T13:55:52Z</time>
      </trkpt>
      <trkpt lat="59.9508848" lon="17.6682821">
        <ele>27.5349</ele>
        <time>2014-05-29T13:55:53Z</time>
      </trkpt>
      <trkpt lat="59.9509269" lon="17.6682713">
        <ele>27.5349</ele>
        <time>2014-05-29T13:55:54Z</time>
      </trkpt>
      <trkpt lat="59.9509699" lon="17.6682603">
        <ele>27.5349</ele>
        <time>2014-05-29T13:55:55Z</time>
      </trkpt>
      <trkpt lat="59.9510125" lon="17.6682487">
        <ele>27.5349</ele>
        <time>2014-05-29T13:55:56Z</time>
      </trkpt>
      <trkpt lat="59.9510543" lon="17.6682377">
        <ele>27.5349</ele>
        <time>2014-05-29T13:55:57Z</time>
      </trkpt>
      <trkpt lat="59.951094" lon="17.6682238">
        <ele>27.5349</ele>
        <time>2014-05-29T13:55:58Z</time>
      </trkpt>
      <trkpt lat="59.9511286" lon="17.6682028">
        <ele>27.5349</ele>
        <time>2014-05-29T13:55:59Z</time>
      </trkpt>
      <trkpt lat="59.951161" lon="17.6681808">
        <ele>27.0543</ele>
        <time>2014-05-29T13:56:00Z</time>
      </trkpt>
      <trkpt lat="59.9511944" lon="17.6681669">
        <ele>27.0543</ele>
        <time>2014-05-29T13:56:01Z</time>
      </trkpt>
      <trkpt lat="59.9512282" lon="17.66816">
        <ele>27.0543</ele>
        <time>2014-05-29T13:56:02Z</time>
      </trkpt>
      <trkpt lat="59.9512635" lon="17.6681533">
        <ele>27.0543</ele>
        <time>2014-05-29T13:56:03Z</time>
      </trkpt>
      <trkpt lat="59.9512983" lon="17.668144">
        <ele>27.0543</ele>
        <time>2014-05-29T13:56:04Z</time>
      </trkpt>
      <trkpt lat="59.951333" lon="17.6681348">
        <ele>27.0543</ele>
        <time>2014-05-29T13:56:05Z</time>
      </trkpt>
      <trkpt lat="59.9513677" lon="17.6681285">
        <ele>27.0543</ele>
        <time>2014-05-29T13:56:06Z</time>
      </trkpt>
      <trkpt lat="59.9514026" lon="17.6681244">
        <ele>26.5736</ele>
        <time>2014-05-29T13:56:07Z</time>
      </trkpt>
      <trkpt lat="59.9514376" lon="17.6681206">
        <ele>26.5736</ele>
        <time>2014-05-29T13:56:08Z</time>
      </trkpt>
      <trkpt lat="59.9514736" lon="17.6681159">
        <ele>26.5736</ele>
        <time>2014-05-29T13:56:09Z</time>
      </trkpt>
      <trkpt lat="59.9515098" lon="17.6681112">
        <ele>26.5736</ele>
        <time>2014-05-29T13:56:10Z</time>
      </trkpt>
      <trkpt lat="59.9515466" lon="17.6681081">
        <ele>26.5736</ele>
        <time>2014-05-29T13:56:11Z</time>
      </trkpt>
      <trkpt lat="59.9515837" lon="17.6681148">
        <ele>26.5736</ele>
        <time>2014-05-29T13:56:12Z</time>
      </trkpt>
      <trkpt lat="59.9516203" lon="17.6681361">
        <ele>26.5736</ele>
        <time>2014-05-29T13:56:13Z</time>
      </trkpt>
      <trkpt lat="59.951653" lon="17.6681729">
        <ele>26.5736</ele>
        <time>2014-05-29T13:56:14Z</time>
      </trkpt>
      <trkpt lat="59.9516813" lon="17.6682262">
        <ele>26.0929</ele>
        <time>2014-05-29T13:56:15Z</time>
      </trkpt>
      <trkpt lat="59.9517054" lon="17.6682922">
        <ele>26.0929</ele>
        <time>2014-05-29T13:56:16Z</time>
      </trkpt>
      <trkpt lat="59.9517254" lon="17.6683668">
        <ele>26.0929</ele>
        <time>2014-05-29T13:56:17Z</time>
      </trkpt>
      <trkpt lat="59.951743" lon="17.6684425">
        <ele>26.0929</ele>
        <time>2014-05-29T13:56:18Z</time>
      </trkpt>
      <trkpt lat="59.9517592" lon="17.6685136">
        <ele>25.6123</ele>
        <time>2014-05-29T13:56:19Z</time>
      </trkpt>
      <trkpt lat="59.9517753" lon="17.6685769">
        <ele>26.0929</ele>
        <time>2014-05-29T13:56:20Z</time>
      </trkpt>
      <trkpt lat="59.9517909" lon="17.6686351">
        <ele>26.0929</ele>
        <time>2014-05-29T13:56:21Z</time>
      </trkpt>
      <trkpt lat="59.951803" lon="17.6686939">
        <ele>26.0929</ele>
        <time>2014-05-29T13:56:22Z</time>
      </trkpt>
      <trkpt lat="59.951812" lon="17.6687538">
        <ele>26.0929</ele>
        <time>2014-05-29T13:56:23Z</time>
      </trkpt>
      <trkpt lat="59.9518186" lon="17.6688156">
        <ele>26.0929</ele>
        <time>2014-05-29T13:56:24Z</time>
      </trkpt>
      <trkpt lat="59.9518225" lon="17.6688807">
        <ele>26.0929</ele>
        <time>2014-05-29T13:56:25Z</time>
      </trkpt>
      <trkpt lat="59.951824" lon="17.6689464">
        <ele>26.0929</ele>
        <time>2014-05-29T13:56:26Z</time>
      </trkpt>
      <trkpt lat="59.9518219" lon="17.6690121">
        <ele>26.5736</ele>
        <time>2014-05-29T13:56:27Z</time>
      </trkpt>
      <trkpt lat="59.9518178" lon="17.6690769">
        <ele>26.5736</ele>
        <time>2014-05-29T13:56:28Z</time>
      </trkpt>
      <trkpt lat="59.9518136" lon="17.669139">
        <ele>26.5736</ele>
        <time>2014-05-29T13:56:29Z</time>
      </trkpt>
      <trkpt lat="59.9518104" lon="17.6692007">
        <ele>26.5736</ele>
        <time>2014-05-29T13:56:30Z</time>
      </trkpt>
      <trkpt lat="59.9518079" lon="17.6692642">
        <ele>26.5736</ele>
        <time>2014-05-29T13:56:31Z</time>
      </trkpt>
      <trkpt lat="59.9518058" lon="17.66933">
        <ele>26.5736</ele>
        <time>2014-05-29T13:56:32Z</time>
      </trkpt>
      <trkpt lat="59.9518032" lon="17.669397">
        <ele>26.5736</ele>
        <time>2014-05-29T13:56:33Z</time>
      </trkpt>
      <trkpt lat="59.9517975" lon="17.6694658">
        <ele>26.5736</ele>
        <time>2014-05-29T13:56:34Z</time>
      </trkpt>
      <trkpt lat="59.9517909" lon="17.669537">
        <ele>26.5736</ele>
        <time>2014-05-29T13:56:35Z</time>
      </trkpt>
      <trkpt lat="59.9517868" lon="17.6696116">
        <ele>26.5736</ele>
        <time>2014-05-29T13:56:36Z</time>
      </trkpt>
      <trkpt lat="59.9517851" lon="17.6696885">
        <ele>26.5736</ele>
        <time>2014-05-29T13:56:37Z</time>
      </trkpt>
      <trkpt lat="59.951783" lon="17.6697658">
        <ele>26.5736</ele>
        <time>2014-05-29T13:56:38Z</time>
      </trkpt>
      <trkpt lat="59.9517794" lon="17.6698431">
        <ele>26.5736</ele>
        <time>2014-05-29T13:56:39Z</time>
      </trkpt>
      <trkpt lat="59.9517748" lon="17.6699202">
        <ele>26.5736</ele>
        <time>2014-05-29T13:56:40Z</time>
      </trkpt>
      <trkpt lat="59.9517707" lon="17.6699977">
        <ele>26.5736</ele>
        <time>2014-05-29T13:56:41Z</time>
      </trkpt>
      <trkpt lat="59.9517665" lon="17.6700746">
        <ele>26.5736</ele>
        <time>2014-05-29T13:56:42Z</time>
      </trkpt>
      <trkpt lat="59.9517608" lon="17.6701508">
        <ele>26.5736</ele>
        <time>2014-05-29T13:56:43Z</time>
      </trkpt>
      <trkpt lat="59.9517551" lon="17.6702267">
        <ele>26.5736</ele>
        <time>2014-05-29T13:56:44Z</time>
      </trkpt>
      <trkpt lat="59.9517495" lon="17.6703027">
        <ele>27.0543</ele>
        <time>2014-05-29T13:56:45Z</time>
      </trkpt>
      <trkpt lat="59.9517445" lon="17.6703783">
        <ele>27.0543</ele>
        <time>2014-05-29T13:56:46Z</time>
      </trkpt>
      <trkpt lat="59.9517389" lon="17.6704523">
        <ele>27.0543</ele>
        <time>2014-05-29T13:56:47Z</time>
      </trkpt>
      <trkpt lat="59.9517327" lon="17.6705247">
        <ele>27.0543</ele>
        <time>2014-05-29T13:56:48Z</time>
      </trkpt>
      <trkpt lat="59.9517259" lon="17.6705952">
        <ele>27.0543</ele>
        <time>2014-05-29T13:56:49Z</time>
      </trkpt>
      <trkpt lat="59.9517191" lon="17.670665">
        <ele>27.0543</ele>
        <time>2014-05-29T13:56:50Z</time>
      </trkpt>
      <trkpt lat="59.9517141" lon="17.670734">
        <ele>27.0543</ele>
        <time>2014-05-29T13:56:51Z</time>
      </trkpt>
      <trkpt lat="59.9517114" lon="17.6708019">
        <ele>27.5349</ele>
        <time>2014-05-29T13:56:52Z</time>
      </trkpt>
      <trkpt lat="59.9517085" lon="17.6708687">
        <ele>27.5349</ele>
        <time>2014-05-29T13:56:53Z</time>
      </trkpt>
      <trkpt lat="59.9517059" lon="17.6709348">
        <ele>27.5349</ele>
        <time>2014-05-29T13:56:54Z</time>
      </trkpt>
      <trkpt lat="59.9517069" lon="17.6709999">
        <ele>27.5349</ele>
        <time>2014-05-29T13:56:55Z</time>
      </trkpt>
      <trkpt lat="59.951713" lon="17.6710635">
        <ele>28.0155</ele>
        <time>2014-05-29T13:56:56Z</time>
      </trkpt>
      <trkpt lat="59.951724" lon="17.6711229">
        <ele>28.0155</ele>
        <time>2014-05-29T13:56:57Z</time>
      </trkpt>
      <trkpt lat="59.951739" lon="17.6711769">
        <ele>28.0155</ele>
        <time>2014-05-29T13:56:58Z</time>
      </trkpt>
      <trkpt lat="59.9517543" lon="17.6712266">
        <ele>28.4962</ele>
        <time>2014-05-29T13:56:59Z</time>
      </trkpt>
      <trkpt lat="59.9517659" lon="17.6712754">
        <ele>28.4962</ele>
        <time>2014-05-29T13:57:00Z</time>
      </trkpt>
      <trkpt lat="59.9517754" lon="17.6713233">
        <ele>28.9769</ele>
        <time>2014-05-29T13:57:01Z</time>
      </trkpt>
      <trkpt lat="59.9517856" lon="17.671368">
        <ele>28.9769</ele>
        <time>2014-05-29T13:57:02Z</time>
      </trkpt>
      <trkpt lat="59.9517923" lon="17.6714142">
        <ele>28.9769</ele>
        <time>2014-05-29T13:57:03Z</time>
      </trkpt>
      <trkpt lat="59.9517954" lon="17.6714635">
        <ele>29.4575</ele>
        <time>2014-05-29T13:57:04Z</time>
      </trkpt>
      <trkpt lat="59.9517974" lon="17.6715145">
        <ele>29.4575</ele>
        <time>2014-05-29T13:57:05Z</time>
      </trkpt>
      <trkpt lat="59.9517991" lon="17.6715654">
        <ele>29.4575</ele>
        <time>2014-05-29T13:57:06Z</time>
      </trkpt>
      <trkpt lat="59.9518007" lon="17.6716166">
        <ele>29.4575</ele>
        <time>2014-05-29T13:57:07Z</time>
      </trkpt>
      <trkpt lat="59.951803" lon="17.6716686">
        <ele>29.9381</ele>
        <time>2014-05-29T13:57:08Z</time>
      </trkpt>
      <trkpt lat="59.9518042" lon="17.6717201">
        <ele>29.9381</ele>
        <time>2014-05-29T13:57:09Z</time>
      </trkpt>
      <trkpt lat="59.9518027" lon="17.6717725">
        <ele>29.9381</ele>
        <time>2014-05-29T13:57:10Z</time>
      </trkpt>
      <trkpt lat="59.9518007" lon="17.6718256">
        <ele>29.9381</ele>
        <time>2014-05-29T13:57:11Z</time>
      </trkpt>
      <trkpt lat="59.9517999" lon="17.671881">
        <ele>29.9381</ele>
        <time>2014-05-29T13:57:12Z</time>
      </trkpt>
      <trkpt lat="59.9518001" lon="17.6719395">
        <ele>30.4188</ele>
        <time>2014-05-29T13:57:13Z</time>
      </trkpt>
      <trkpt lat="59.9518022" lon="17.6720014">
        <ele>30.4188</ele>
        <time>2014-05-29T13:57:14Z</time>
      </trkpt>
      <trkpt lat="59.9518066" lon="17.6720658">
        <ele>30.4188</ele>
        <time>2014-05-29T13:57:15Z</time>
      </trkpt>
      <trkpt lat="59.9518126" lon="17.6721322">
        <ele>30.4188</ele>
        <time>2014-05-29T13:57:16Z</time>
      </trkpt>
      <trkpt lat="59.9518189" lon="17.6721999">
        <ele>30.4188</ele>
        <time>2014-05-29T13:57:17Z</time>
      </trkpt>
      <trkpt lat="59.9518243" lon="17.6722667">
        <ele>30.4188</ele>
        <time>2014-05-29T13:57:18Z</time>
      </trkpt>
      <trkpt lat="59.9518286" lon="17.6723321">
        <ele>30.4188</ele>
        <time>2014-05-29T13:57:19Z</time>
      </trkpt>
      <trkpt lat="59.9518343" lon="17.6723953">
        <ele>30.8995</ele>
        <time>2014-05-29T13:57:20Z</time>
      </trkpt>
      <trkpt lat="59.9518412" lon="17.6724575">
        <ele>30.8995</ele>
        <time>2014-05-29T13:57:21Z</time>
      </trkpt>
      <trkpt lat="59.9518486" lon="17.6725196">
        <ele>30.8995</ele>
        <time>2014-05-29T13:57:22Z</time>
      </trkpt>
      <trkpt lat="59.9518553" lon="17.6725801">
        <ele>30.8995</ele>
        <time>2014-05-29T13:57:23Z</time>
      </trkpt>
      <trkpt lat="59.9518621" lon="17.6726398">
        <ele>31.3801</ele>
        <time>2014-05-29T13:57:24Z</time>
      </trkpt>
      <trkpt lat="59.9518695" lon="17.6726993">
        <ele>31.3801</ele>
        <time>2014-05-29T13:57:25Z</time>
      </trkpt>
      <trkpt lat="59.9518779" lon="17.672759">
        <ele>31.3801</ele>
        <time>2014-05-29T13:57:26Z</time>
      </trkpt>
      <trkpt lat="59.951887" lon="17.6728211">
        <ele>31.8607</ele>
        <time>2014-05-29T13:57:27Z</time>
      </trkpt>
      <trkpt lat="59.9518957" lon="17.6728855">
        <ele>31.8607</ele>
        <time>2014-05-29T13:57:28Z</time>
      </trkpt>
      <trkpt lat="59.9519045" lon="17.6729527">
        <ele>31.8607</ele>
        <time>2014-05-29T13:57:29Z</time>
      </trkpt>
      <trkpt lat="59.9519139" lon="17.6730206">
        <ele>31.8607</ele>
        <time>2014-05-29T13:57:30Z</time>
      </trkpt>
      <trkpt lat="59.9519239" lon="17.6730895">
        <ele>31.8607</ele>
        <time>2014-05-29T13:57:31Z</time>
      </trkpt>
      <trkpt lat="59.9519343" lon="17.6731599">
        <ele>31.8607</ele>
        <time>2014-05-29T13:57:32Z</time>
      </trkpt>
      <trkpt lat="59.9519445" lon="17.6732309">
        <ele>31.8607</ele>
        <time>2014-05-29T13:57:33Z</time>
      </trkpt>
      <trkpt lat="59.9519545" lon="17.6733008">
        <ele>31.8607</ele>
        <time>2014-05-29T13:57:34Z</time>
      </trkpt>
      <trkpt lat="59.951966" lon="17.6733695">
        <ele>32.3416</ele>
        <time>2014-05-29T13:57:35Z</time>
      </trkpt>
      <trkpt lat="59.9519782" lon="17.6734381">
        <ele>32.3416</ele>
        <time>2014-05-29T13:57:36Z</time>
      </trkpt>
      <trkpt lat="59.9519908" lon="17.6735062">
        <ele>32.3416</ele>
        <time>2014-05-29T13:57:37Z</time>
      </trkpt>
      <trkpt lat="59.9520035" lon="17.6735748">
        <ele>32.3416</ele>
        <time>2014-05-29T13:57:38Z</time>
      </trkpt>
      <trkpt lat="59.9520152" lon="17.6736442">
        <ele>32.3416</ele>
        <time>2014-05-29T13:57:39Z</time>
      </trkpt>
      <trkpt lat="59.952027" lon="17.6737142">
        <ele>32.3416</ele>
        <time>2014-05-29T13:57:40Z</time>
      </trkpt>
      <trkpt lat="59.9520379" lon="17.6737851">
        <ele>32.3416</ele>
        <time>2014-05-29T13:57:41Z</time>
      </trkpt>
      <trkpt lat="59.9520483" lon="17.6738531">
        <ele>32.8223</ele>
        <time>2014-05-29T13:57:42Z</time>
      </trkpt>
      <trkpt lat="59.9520603" lon="17.673915">
        <ele>32.8223</ele>
        <time>2014-05-29T13:57:43Z</time>
      </trkpt>
      <trkpt lat="59.9520731" lon="17.6739716">
        <ele>32.8223</ele>
        <time>2014-05-29T13:57:44Z</time>
      </trkpt>
      <trkpt lat="59.9520853" lon="17.6740239">
        <ele>32.8223</ele>
        <time>2014-05-29T13:57:45Z</time>
      </trkpt>
      <trkpt lat="59.9520965" lon="17.674071">
        <ele>32.8223</ele>
        <time>2014-05-29T13:57:46Z</time>
      </trkpt>
      <trkpt lat="59.9521082" lon="17.6741144">
        <ele>32.8223</ele>
        <time>2014-05-29T13:57:47Z</time>
      </trkpt>
      <trkpt lat="59.9521185" lon="17.6741581">
        <ele>32.8223</ele>
        <time>2014-05-29T13:57:48Z</time>
      </trkpt>
      <trkpt lat="59.9521266" lon="17.6742028">
        <ele>32.8223</ele>
        <time>2014-05-29T13:57:49Z</time>
      </trkpt>
      <trkpt lat="59.9521342" lon="17.6742488">
        <ele>32.8223</ele>
        <time>2014-05-29T13:57:50Z</time>
      </trkpt>
      <trkpt lat="59.9521411" lon="17.6742889">
        <ele>32.8223</ele>
        <time>2014-05-29T13:57:51Z</time>
      </trkpt>
      <trkpt lat="59.9521508" lon="17.6743299">
        <ele>32.3416</ele>
        <time>2014-05-29T13:57:52Z</time>
      </trkpt>
      <trkpt lat="59.9521618" lon="17.6743798">
        <ele>32.3416</ele>
        <time>2014-05-29T13:57:53Z</time>
      </trkpt>
      <trkpt lat="59.9521715" lon="17.6744335">
        <ele>32.3416</ele>
        <time>2014-05-29T13:57:54Z</time>
      </trkpt>
      <trkpt lat="59.9521828" lon="17.674487">
        <ele>32.3416</ele>
        <time>2014-05-29T13:57:55Z</time>
      </trkpt>
      <trkpt lat="59.9521923" lon="17.6745407">
        <ele>32.3416</ele>
        <time>2014-05-29T13:57:56Z</time>
      </trkpt>
      <trkpt lat="59.9522034" lon="17.6745974">
        <ele>32.3416</ele>
        <time>2014-05-29T13:57:57Z</time>
      </trkpt>
      <trkpt lat="59.9522128" lon="17.6746524">
        <ele>32.3416</ele>
        <time>2014-05-29T13:57:58Z</time>
      </trkpt>
      <trkpt lat="59.9522201" lon="17.6747078">
        <ele>32.3416</ele>
        <time>2014-05-29T13:57:59Z</time>
      </trkpt>
      <trkpt lat="59.952226" lon="17.6747599">
        <ele>32.3416</ele>
        <time>2014-05-29T13:58:00Z</time>
      </trkpt>
      <trkpt lat="59.9522328" lon="17.6748076">
        <ele>32.3416</ele>
        <time>2014-05-29T13:58:01Z</time>
      </trkpt>
      <trkpt lat="59.9522373" lon="17.6748522">
        <ele>31.8607</ele>
        <time>2014-05-29T13:58:02Z</time>
      </trkpt>
      <trkpt lat="59.9522416" lon="17.6748953">
        <ele>31.8607</ele>
        <time>2014-05-29T13:58:03Z</time>
      </trkpt>
      <trkpt lat="59.9522482" lon="17.6749382">
        <ele>31.8607</ele>
        <time>2014-05-29T13:58:04Z</time>
      </trkpt>
      <trkpt lat="59.9522544" lon="17.6749805">
        <ele>32.3416</ele>
        <time>2014-05-29T13:58:05Z</time>
      </trkpt>
      <trkpt lat="59.9522618" lon="17.675022">
        <ele>32.3416</ele>
        <time>2014-05-29T13:58:06Z</time>
      </trkpt>
      <trkpt lat="59.9522715" lon="17.6750642">
        <ele>32.8223</ele>
        <time>2014-05-29T13:58:07Z</time>
      </trkpt>
      <trkpt lat="59.9522843" lon="17.6751067">
        <ele>32.8223</ele>
        <time>2014-05-29T13:58:08Z</time>
      </trkpt>
      <trkpt lat="59.9523" lon="17.6751505">
        <ele>32.8223</ele>
        <time>2014-05-29T13:58:09Z</time>
      </trkpt>
      <trkpt lat="59.9523165" lon="17.6751975">
        <ele>32.8223</ele>
        <time>2014-05-29T13:58:10Z</time>
      </trkpt>
      <trkpt lat="59.9523342" lon="17.6752464">
        <ele>32.8223</ele>
        <time>2014-05-29T13:58:11Z</time>
      </trkpt>
      <trkpt lat="59.9523522" lon="17.6752968">
        <ele>32.8223</ele>
        <time>2014-05-29T13:58:12Z</time>
      </trkpt>
      <trkpt lat="59.9523733" lon="17.6753485">
        <ele>32.8223</ele>
        <time>2014-05-29T13:58:13Z</time>
      </trkpt>
      <trkpt lat="59.9523958" lon="17.6754011">
        <ele>32.3416</ele>
        <time>2014-05-29T13:58:14Z</time>
      </trkpt>
      <trkpt lat="59.9524191" lon="17.6754578">
        <ele>32.3416</ele>
        <time>2014-05-29T13:58:15Z</time>
      </trkpt>
      <trkpt lat="59.952443" lon="17.6755195">
        <ele>32.3416</ele>
        <time>2014-05-29T13:58:16Z</time>
      </trkpt>
      <trkpt lat="59.9524677" lon="17.6755872">
        <ele>31.8607</ele>
        <time>2014-05-29T13:58:17Z</time>
      </trkpt>
      <trkpt lat="59.9524947" lon="17.6756584">
        <ele>31.8607</ele>
        <time>2014-05-29T13:58:18Z</time>
      </trkpt>
      <trkpt lat="59.9525238" lon="17.6757349">
        <ele>31.8607</ele>
        <time>2014-05-29T13:58:19Z</time>
      </trkpt>
      <trkpt lat="59.9525552" lon="17.6758136">
        <ele>31.3801</ele>
        <time>2014-05-29T13:58:20Z</time>
      </trkpt>
      <trkpt lat="59.9525865" lon="17.675895">
        <ele>31.3801</ele>
        <time>2014-05-29T13:58:21Z</time>
      </trkpt>
      <trkpt lat="59.9526175" lon="17.6759784">
        <ele>31.3801</ele>
        <time>2014-05-29T13:58:22Z</time>
      </trkpt>
      <trkpt lat="59.9526486" lon="17.6760622">
        <ele>31.3801</ele>
        <time>2014-05-29T13:58:23Z</time>
      </trkpt>
      <trkpt lat="59.9526786" lon="17.6761462">
        <ele>31.3801</ele>
        <time>2014-05-29T13:58:24Z</time>
      </trkpt>
      <trkpt lat="59.9527078" lon="17.676228">
        <ele>31.3801</ele>
        <time>2014-05-29T13:58:25Z</time>
      </trkpt>
      <trkpt lat="59.9527358" lon="17.6763087">
        <ele>31.3801</ele>
        <time>2014-05-29T13:58:26Z</time>
      </trkpt>
      <trkpt lat="59.9527627" lon="17.676385">
        <ele>31.3801</ele>
        <time>2014-05-29T13:58:27Z</time>
      </trkpt>
      <trkpt lat="59.9527921" lon="17.6764575">
        <ele>31.3801</ele>
        <time>2014-05-29T13:58:28Z</time>
      </trkpt>
      <trkpt lat="59.9528228" lon="17.6765289">
        <ele>31.3801</ele>
        <time>2014-05-29T13:58:29Z</time>
      </trkpt>
      <trkpt lat="59.9528515" lon="17.676602">
        <ele>31.3801</ele>
        <time>2014-05-29T13:58:30Z</time>
      </trkpt>
      <trkpt lat="59.9528786" lon="17.676673">
        <ele>31.3801</ele>
        <time>2014-05-29T13:58:31Z</time>
      </trkpt>
      <trkpt lat="59.9529035" lon="17.6767394">
        <ele>31.3801</ele>
        <time>2014-05-29T13:58:32Z</time>
      </trkpt>
      <trkpt lat="59.9529271" lon="17.676803">
        <ele>31.3801</ele>
        <time>2014-05-29T13:58:33Z</time>
      </trkpt>
      <trkpt lat="59.95295" lon="17.6768626">
        <ele>31.3801</ele>
        <time>2014-05-29T13:58:34Z</time>
      </trkpt>
      <trkpt lat="59.952972" lon="17.6769164">
        <ele>31.3801</ele>
        <time>2014-05-29T13:58:35Z</time>
      </trkpt>
      <trkpt lat="59.9529926" lon="17.6769683">
        <ele>31.3801</ele>
        <time>2014-05-29T13:58:36Z</time>
      </trkpt>
      <trkpt lat="59.9530112" lon="17.6770184">
        <ele>31.3801</ele>
        <time>2014-05-29T13:58:37Z</time>
      </trkpt>
      <trkpt lat="59.9530283" lon="17.6770627">
        <ele>31.3801</ele>
        <time>2014-05-29T13:58:38Z</time>
      </trkpt>
      <trkpt lat="59.9530442" lon="17.6771039">
        <ele>31.3801</ele>
        <time>2014-05-29T13:58:39Z</time>
      </trkpt>
      <trkpt lat="59.9530576" lon="17.6771434">
        <ele>31.3801</ele>
        <time>2014-05-29T13:58:40Z</time>
      </trkpt>
      <trkpt lat="59.9530682" lon="17.6771782">
        <ele>31.3801</ele>
        <time>2014-05-29T13:58:41Z</time>
      </trkpt>
      <trkpt lat="59.953076" lon="17.6772096">
        <ele>31.3801</ele>
        <time>2014-05-29T13:58:42Z</time>
      </trkpt>
      <trkpt lat="59.9530832" lon="17.6772403">
        <ele>30.8995</ele>
        <time>2014-05-29T13:58:43Z</time>
      </trkpt>
      <trkpt lat="59.953093" lon="17.677273">
        <ele>30.8995</ele>
        <time>2014-05-29T13:58:44Z</time>
      </trkpt>
      <trkpt lat="59.9531064" lon="17.6773086">
        <ele>30.8995</ele>
        <time>2014-05-29T13:58:45Z</time>
      </trkpt>
      <trkpt lat="59.9531216" lon="17.6773497">
        <ele>30.4188</ele>
        <time>2014-05-29T13:58:46Z</time>
      </trkpt>
      <trkpt lat="59.9531379" lon="17.6773914">
        <ele>30.4188</ele>
        <time>2014-05-29T13:58:47Z</time>
      </trkpt>
      <trkpt lat="59.9531541" lon="17.6774323">
        <ele>30.4188</ele>
        <time>2014-05-29T13:58:48Z</time>
      </trkpt>
      <trkpt lat="59.9531691" lon="17.6774753">
        <ele>30.4188</ele>
        <time>2014-05-29T13:58:49Z</time>
      </trkpt>
      <trkpt lat="59.9531812" lon="17.6775184">
        <ele>30.4188</ele>
        <time>2014-05-29T13:58:50Z</time>
      </trkpt>
      <trkpt lat="59.9531913" lon="17.6775584">
        <ele>30.4188</ele>
        <time>2014-05-29T13:58:51Z</time>
      </trkpt>
      <trkpt lat="59.9532006" lon="17.6775965">
        <ele>30.4188</ele>
        <time>2014-05-29T13:58:52Z</time>
      </trkpt>
      <trkpt lat="59.9532101" lon="17.6776301">
        <ele>29.9381</ele>
        <time>2014-05-29T13:58:53Z</time>
      </trkpt>
      <trkpt lat="59.9532184" lon="17.6776557">
        <ele>29.9381</ele>
        <time>2014-05-29T13:58:54Z</time>
      </trkpt>
      <trkpt lat="59.9532222" lon="17.6776684">
        <ele>29.9381</ele>
        <time>2014-05-29T13:58:55Z</time>
      </trkpt>
      <trkpt lat="59.9532195" lon="17.6776723">
        <ele>30.4188</ele>
        <time>2014-05-29T13:58:56Z</time>
      </trkpt>
      <trkpt lat="59.9532182" lon="17.6776732">
        <ele>30.4188</ele>
        <time>2014-05-29T13:58:57Z</time>
      </trkpt>
      <trkpt lat="59.9532944" lon="17.6778142">
        <ele>29.9381</ele>
        <time>2014-05-29T14:00:56Z</time>
      </trkpt>
      <trkpt lat="59.9533104" lon="17.6778644">
        <ele>30.4188</ele>
        <time>2014-05-29T14:00:57Z</time>
      </trkpt>
      <trkpt lat="59.9533273" lon="17.6779186">
        <ele>30.4188</ele>
        <time>2014-05-29T14:00:58Z</time>
      </trkpt>
      <trkpt lat="59.9533474" lon="17.6779793">
        <ele>30.4188</ele>
        <time>2014-05-29T14:00:59Z</time>
      </trkpt>
      <trkpt lat="59.9533681" lon="17.6780426">
        <ele>30.4188</ele>
        <time>2014-05-29T14:01:00Z</time>
      </trkpt>
      <trkpt lat="59.9533884" lon="17.6781036">
        <ele>30.4188</ele>
        <time>2014-05-29T14:01:01Z</time>
      </trkpt>
      <trkpt lat="59.9534111" lon="17.6781647">
        <ele>30.4188</ele>
        <time>2014-05-29T14:01:02Z</time>
      </trkpt>
      <trkpt lat="59.9534346" lon="17.6782285">
        <ele>30.4188</ele>
        <time>2014-05-29T14:01:03Z</time>
      </trkpt>
      <trkpt lat="59.9534557" lon="17.6782895">
        <ele>30.4188</ele>
        <time>2014-05-29T14:01:04Z</time>
      </trkpt>
      <trkpt lat="59.9534746" lon="17.6783493">
        <ele>30.4188</ele>
        <time>2014-05-29T14:01:05Z</time>
      </trkpt>
      <trkpt lat="59.9534899" lon="17.6784094">
        <ele>29.9381</ele>
        <time>2014-05-29T14:01:06Z</time>
      </trkpt>
      <trkpt lat="59.9535052" lon="17.6784663">
        <ele>30.4188</ele>
        <time>2014-05-29T14:01:07Z</time>
      </trkpt>
      <trkpt lat="59.9535211" lon="17.6785261">
        <ele>30.4188</ele>
        <time>2014-05-29T14:01:08Z</time>
      </trkpt>
      <trkpt lat="59.9535409" lon="17.6785892">
        <ele>30.4188</ele>
        <time>2014-05-29T14:01:09Z</time>
      </trkpt>
      <trkpt lat="59.9535639" lon="17.678655">
        <ele>30.4188</ele>
        <time>2014-05-29T14:01:10Z</time>
      </trkpt>
      <trkpt lat="59.9535873" lon="17.6787259">
        <ele>30.4188</ele>
        <time>2014-05-29T14:01:11Z</time>
      </trkpt>
      <trkpt lat="59.9536132" lon="17.6788008">
        <ele>29.9381</ele>
        <time>2014-05-29T14:01:12Z</time>
      </trkpt>
      <trkpt lat="59.9536411" lon="17.6788823">
        <ele>29.9381</ele>
        <time>2014-05-29T14:01:13Z</time>
      </trkpt>
      <trkpt lat="59.95367" lon="17.6789648">
        <ele>29.9381</ele>
        <time>2014-05-29T14:01:14Z</time>
      </trkpt>
      <trkpt lat="59.953696" lon="17.6790439">
        <ele>29.9381</ele>
        <time>2014-05-29T14:01:15Z</time>
      </trkpt>
      <trkpt lat="59.9537199" lon="17.6791211">
        <ele>29.9381</ele>
        <time>2014-05-29T14:01:16Z</time>
      </trkpt>
      <trkpt lat="59.9537437" lon="17.6791948">
        <ele>29.9381</ele>
        <time>2014-05-29T14:01:17Z</time>
      </trkpt>
      <trkpt lat="59.9537676" lon="17.679267">
        <ele>30.4188</ele>
        <time>2014-05-29T14:01:18Z</time>
      </trkpt>
      <trkpt lat="59.9537907" lon="17.6793377">
        <ele>30.4188</ele>
        <time>2014-05-29T14:01:19Z</time>
      </trkpt>
      <trkpt lat="59.9538121" lon="17.6794066">
        <ele>30.4188</ele>
        <time>2014-05-29T14:01:20Z</time>
      </trkpt>
      <trkpt lat="59.9538328" lon="17.6794732">
        <ele>30.4188</ele>
        <time>2014-05-29T14:01:21Z</time>
      </trkpt>
      <trkpt lat="59.9538515" lon="17.6795365">
        <ele>30.4188</ele>
        <time>2014-05-29T14:01:22Z</time>
      </trkpt>
      <trkpt lat="59.9538695" lon="17.6795975">
        <ele>30.4188</ele>
        <time>2014-05-29T14:01:23Z</time>
      </trkpt>
      <trkpt lat="59.953887" lon="17.6796558">
        <ele>30.4188</ele>
        <time>2014-05-29T14:01:24Z</time>
      </trkpt>
      <trkpt lat="59.9539047" lon="17.679712">
        <ele>29.9381</ele>
        <time>2014-05-29T14:01:25Z</time>
      </trkpt>
      <trkpt lat="59.9539238" lon="17.6797665">
        <ele>30.4188</ele>
        <time>2014-05-29T14:01:26Z</time>
      </trkpt>
      <trkpt lat="59.9539426" lon="17.6798216">
        <ele>30.4188</ele>
        <time>2014-05-29T14:01:27Z</time>
      </trkpt>
      <trkpt lat="59.9539597" lon="17.6798786">
        <ele>29.9381</ele>
        <time>2014-05-29T14:01:28Z</time>
      </trkpt>
      <trkpt lat="59.9539758" lon="17.679935">
        <ele>30.4188</ele>
        <time>2014-05-29T14:01:29Z</time>
      </trkpt>
      <trkpt lat="59.9539929" lon="17.6799881">
        <ele>30.4188</ele>
        <time>2014-05-29T14:01:30Z</time>
      </trkpt>
      <trkpt lat="59.9540113" lon="17.6800375">
        <ele>30.4188</ele>
        <time>2014-05-29T14:01:31Z</time>
      </trkpt>
      <trkpt lat="59.9540296" lon="17.6800856">
        <ele>30.4188</ele>
        <time>2014-05-29T14:01:32Z</time>
      </trkpt>
      <trkpt lat="59.9540461" lon="17.6801319">
        <ele>30.4188</ele>
        <time>2014-05-29T14:01:33Z</time>
      </trkpt>
      <trkpt lat="59.9540622" lon="17.6801788">
        <ele>30.4188</ele>
        <time>2014-05-29T14:01:34Z</time>
      </trkpt>
      <trkpt lat="59.9540793" lon="17.6802312">
        <ele>30.4188</ele>
        <time>2014-05-29T14:01:35Z</time>
      </trkpt>
      <trkpt lat="59.9540988" lon="17.6802901">
        <ele>30.4188</ele>
        <time>2014-05-29T14:01:36Z</time>
      </trkpt>
      <trkpt lat="59.954122" lon="17.6803539">
        <ele>30.4188</ele>
        <time>2014-05-29T14:01:37Z</time>
      </trkpt>
      <trkpt lat="59.954147" lon="17.6804217">
        <ele>30.4188</ele>
        <time>2014-05-29T14:01:38Z</time>
      </trkpt>
      <trkpt lat="59.9541724" lon="17.6804911">
        <ele>30.4188</ele>
        <time>2014-05-29T14:01:39Z</time>
      </trkpt>
      <trkpt lat="59.954201" lon="17.6805616">
        <ele>30.8995</ele>
        <time>2014-05-29T14:01:40Z</time>
      </trkpt>
      <trkpt lat="59.954229" lon="17.6806316">
        <ele>30.8995</ele>
        <time>2014-05-29T14:01:41Z</time>
      </trkpt>
      <trkpt lat="59.9542539" lon="17.6807">
        <ele>30.8995</ele>
        <time>2014-05-29T14:01:42Z</time>
      </trkpt>
      <trkpt lat="59.9542777" lon="17.6807659">
        <ele>30.8995</ele>
        <time>2014-05-29T14:01:43Z</time>
      </trkpt>
      <trkpt lat="59.9543006" lon="17.6808304">
        <ele>30.8995</ele>
        <time>2014-05-29T14:01:44Z</time>
      </trkpt>
      <trkpt lat="59.9543202" lon="17.6808959">
        <ele>30.8995</ele>
        <time>2014-05-29T14:01:45Z</time>
      </trkpt>
      <trkpt lat="59.9543373" lon="17.6809609">
        <ele>30.8995</ele>
        <time>2014-05-29T14:01:46Z</time>
      </trkpt>
      <trkpt lat="59.9543544" lon="17.6810248">
        <ele>30.8995</ele>
        <time>2014-05-29T14:01:47Z</time>
      </trkpt>
      <trkpt lat="59.954371" lon="17.6810883">
        <ele>30.8995</ele>
        <time>2014-05-29T14:01:48Z</time>
      </trkpt>
      <trkpt lat="59.9543881" lon="17.68115">
        <ele>30.8995</ele>
        <time>2014-05-29T14:01:49Z</time>
      </trkpt>
      <trkpt lat="59.9544046" lon="17.6812071">
        <ele>31.3801</ele>
        <time>2014-05-29T14:01:50Z</time>
      </trkpt>
      <trkpt lat="59.9544197" lon="17.6812591">
        <ele>31.3801</ele>
        <time>2014-05-29T14:01:51Z</time>
      </trkpt>
      <trkpt lat="59.9544343" lon="17.6813103">
        <ele>31.3801</ele>
        <time>2014-05-29T14:01:52Z</time>
      </trkpt>
      <trkpt lat="59.9544522" lon="17.6813609">
        <ele>31.3801</ele>
        <time>2014-05-29T14:01:53Z</time>
      </trkpt>
      <trkpt lat="59.9544704" lon="17.6814135">
        <ele>31.3801</ele>
        <time>2014-05-29T14:01:54Z</time>
      </trkpt>
      <trkpt lat="59.95449" lon="17.6814698">
        <ele>31.3801</ele>
        <time>2014-05-29T14:01:55Z</time>
      </trkpt>
      <trkpt lat="59.9545093" lon="17.6815274">
        <ele>31.3801</ele>
        <time>2014-05-29T14:01:56Z</time>
      </trkpt>
      <trkpt lat="59.9545309" lon="17.6815879">
        <ele>31.3801</ele>
        <time>2014-05-29T14:01:57Z</time>
      </trkpt>
      <trkpt lat="59.9545519" lon="17.6816523">
        <ele>31.8607</ele>
        <time>2014-05-29T14:01:58Z</time>
      </trkpt>
      <trkpt lat="59.9545737" lon="17.6817198">
        <ele>31.8607</ele>
        <time>2014-05-29T14:01:59Z</time>
      </trkpt>
      <trkpt lat="59.9545982" lon="17.6817841">
        <ele>31.8607</ele>
        <time>2014-05-29T14:02:00Z</time>
      </trkpt>
      <trkpt lat="59.9546278" lon="17.6818444">
        <ele>31.8607</ele>
        <time>2014-05-29T14:02:01Z</time>
      </trkpt>
      <trkpt lat="59.9546571" lon="17.6819016">
        <ele>31.3801</ele>
        <time>2014-05-29T14:02:02Z</time>
      </trkpt>
      <trkpt lat="59.9546874" lon="17.6819495">
        <ele>31.3801</ele>
        <time>2014-05-29T14:02:03Z</time>
      </trkpt>
      <trkpt lat="59.9547211" lon="17.6819821">
        <ele>31.3801</ele>
        <time>2014-05-29T14:02:04Z</time>
      </trkpt>
      <trkpt lat="59.9547543" lon="17.6820131">
        <ele>31.3801</ele>
        <time>2014-05-29T14:02:05Z</time>
      </trkpt>
      <trkpt lat="59.9547807" lon="17.6820557">
        <ele>31.3801</ele>
        <time>2014-05-29T14:02:06Z</time>
      </trkpt>
      <trkpt lat="59.9548028" lon="17.6821083">
        <ele>31.3801</ele>
        <time>2014-05-29T14:02:07Z</time>
      </trkpt>
      <trkpt lat="59.9548252" lon="17.6821669">
        <ele>31.3801</ele>
        <time>2014-05-29T14:02:08Z</time>
      </trkpt>
      <trkpt lat="59.9548466" lon="17.6822303">
        <ele>31.3801</ele>
        <time>2014-05-29T14:02:09Z</time>
      </trkpt>
      <trkpt lat="59.9548673" lon="17.6822976">
        <ele>31.3801</ele>
        <time>2014-05-29T14:02:10Z</time>
      </trkpt>
      <trkpt lat="59.9548879" lon="17.682367">
        <ele>31.3801</ele>
        <time>2014-05-29T14:02:11Z</time>
      </trkpt>
      <trkpt lat="59.95491" lon="17.6824396">
        <ele>31.3801</ele>
        <time>2014-05-29T14:02:12Z</time>
      </trkpt>
      <trkpt lat="59.954933" lon="17.6825183">
        <ele>31.3801</ele>
        <time>2014-05-29T14:02:13Z</time>
      </trkpt>
      <trkpt lat="59.9549579" lon="17.6826026">
        <ele>31.3801</ele>
        <time>2014-05-29T14:02:14Z</time>
      </trkpt>
      <trkpt lat="59.9549843" lon="17.68269">
        <ele>31.3801</ele>
        <time>2014-05-29T14:02:15Z</time>
      </trkpt>
      <trkpt lat="59.9550086" lon="17.6827784">
        <ele>31.3801</ele>
        <time>2014-05-29T14:02:16Z</time>
      </trkpt>
      <trkpt lat="59.9550329" lon="17.6828713">
        <ele>31.3801</ele>
        <time>2014-05-29T14:02:17Z</time>
      </trkpt>
      <trkpt lat="59.9550589" lon="17.682968">
        <ele>31.3801</ele>
        <time>2014-05-29T14:02:18Z</time>
      </trkpt>
      <trkpt lat="59.9550865" lon="17.6830704">
        <ele>31.3801</ele>
        <time>2014-05-29T14:02:19Z</time>
      </trkpt>
      <trkpt lat="59.9551154" lon="17.6831764">
        <ele>31.3801</ele>
        <time>2014-05-29T14:02:20Z</time>
      </trkpt>
      <trkpt lat="59.9551432" lon="17.6832813">
        <ele>31.8607</ele>
        <time>2014-05-29T14:02:21Z</time>
      </trkpt>
      <trkpt lat="59.9551696" lon="17.6833844">
        <ele>31.8607</ele>
        <time>2014-05-29T14:02:22Z</time>
      </trkpt>
      <trkpt lat="59.9551947" lon="17.6834859">
        <ele>31.8607</ele>
        <time>2014-05-29T14:02:23Z</time>
      </trkpt>
      <trkpt lat="59.9552194" lon="17.6835868">
        <ele>31.8607</ele>
        <time>2014-05-29T14:02:24Z</time>
      </trkpt>
      <trkpt lat="59.9552417" lon="17.6836872">
        <ele>31.8607</ele>
        <time>2014-05-29T14:02:25Z</time>
      </trkpt>
      <trkpt lat="59.9552615" lon="17.6837854">
        <ele>31.8607</ele>
        <time>2014-05-29T14:02:26Z</time>
      </trkpt>
      <trkpt lat="59.9552817" lon="17.6838799">
        <ele>31.8607</ele>
        <time>2014-05-29T14:02:27Z</time>
      </trkpt>
      <trkpt lat="59.9553004" lon="17.6839707">
        <ele>31.8607</ele>
        <time>2014-05-29T14:02:28Z</time>
      </trkpt>
      <trkpt lat="59.9553182" lon="17.6840574">
        <ele>31.8607</ele>
        <time>2014-05-29T14:02:29Z</time>
      </trkpt>
      <trkpt lat="59.9553338" lon="17.6841399">
        <ele>32.3416</ele>
        <time>2014-05-29T14:02:30Z</time>
      </trkpt>
      <trkpt lat="59.9553496" lon="17.6842164">
        <ele>32.3416</ele>
        <time>2014-05-29T14:02:31Z</time>
      </trkpt>
      <trkpt lat="59.9553651" lon="17.6842898">
        <ele>32.3416</ele>
        <time>2014-05-29T14:02:32Z</time>
      </trkpt>
      <trkpt lat="59.9553781" lon="17.684367">
        <ele>32.3416</ele>
        <time>2014-05-29T14:02:33Z</time>
      </trkpt>
      <trkpt lat="59.955391" lon="17.6844499">
        <ele>32.3416</ele>
        <time>2014-05-29T14:02:34Z</time>
      </trkpt>
      <trkpt lat="59.9554054" lon="17.6845379">
        <ele>32.3416</ele>
        <time>2014-05-29T14:02:35Z</time>
      </trkpt>
      <trkpt lat="59.955421" lon="17.68463">
        <ele>32.3416</ele>
        <time>2014-05-29T14:02:36Z</time>
      </trkpt>
      <trkpt lat="59.9554377" lon="17.6847249">
        <ele>32.3416</ele>
        <time>2014-05-29T14:02:37Z</time>
      </trkpt>
      <trkpt lat="59.9554536" lon="17.6848218">
        <ele>32.3416</ele>
        <time>2014-05-29T14:02:38Z</time>
      </trkpt>
      <trkpt lat="59.9554682" lon="17.6849222">
        <ele>32.3416</ele>
        <time>2014-05-29T14:02:39Z</time>
      </trkpt>
      <trkpt lat="59.9554832" lon="17.6850259">
        <ele>32.8223</ele>
        <time>2014-05-29T14:02:40Z</time>
      </trkpt>
      <trkpt lat="59.9554998" lon="17.6851328">
        <ele>32.8223</ele>
        <time>2014-05-29T14:02:41Z</time>
      </trkpt>
      <trkpt lat="59.9555157" lon="17.6852384">
        <ele>32.8223</ele>
        <time>2014-05-29T14:02:42Z</time>
      </trkpt>
      <trkpt lat="59.9555308" lon="17.6853382">
        <ele>32.8223</ele>
        <time>2014-05-29T14:02:43Z</time>
      </trkpt>
      <trkpt lat="59.9555446" lon="17.6854336">
        <ele>32.8223</ele>
        <time>2014-05-29T14:02:44Z</time>
      </trkpt>
      <trkpt lat="59.9555563" lon="17.6855248">
        <ele>32.8223</ele>
        <time>2014-05-29T14:02:45Z</time>
      </trkpt>
      <trkpt lat="59.9555682" lon="17.6856113">
        <ele>33.3029</ele>
        <time>2014-05-29T14:02:46Z</time>
      </trkpt>
      <trkpt lat="59.9555812" lon="17.6856926">
        <ele>33.3029</ele>
        <time>2014-05-29T14:02:47Z</time>
      </trkpt>
      <trkpt lat="59.9555934" lon="17.6857706">
        <ele>33.3029</ele>
        <time>2014-05-29T14:02:48Z</time>
      </trkpt>
      <trkpt lat="59.9556033" lon="17.6858459">
        <ele>33.3029</ele>
        <time>2014-05-29T14:02:49Z</time>
      </trkpt>
      <trkpt lat="59.9556125" lon="17.6859175">
        <ele>33.3029</ele>
        <time>2014-05-29T14:02:50Z</time>
      </trkpt>
      <trkpt lat="59.9556224" lon="17.6859847">
        <ele>33.3029</ele>
        <time>2014-05-29T14:02:51Z</time>
      </trkpt>
      <trkpt lat="59.9556317" lon="17.6860471">
        <ele>33.3029</ele>
        <time>2014-05-29T14:02:52Z</time>
      </trkpt>
      <trkpt lat="59.9556412" lon="17.6861099">
        <ele>33.3029</ele>
        <time>2014-05-29T14:02:53Z</time>
      </trkpt>
      <trkpt lat="59.955651" lon="17.6861768">
        <ele>33.7834</ele>
        <time>2014-05-29T14:02:54Z</time>
      </trkpt>
      <trkpt lat="59.9556599" lon="17.6862489">
        <ele>33.7834</ele>
        <time>2014-05-29T14:02:55Z</time>
      </trkpt>
      <trkpt lat="59.9556713" lon="17.6863246">
        <ele>33.7834</ele>
        <time>2014-05-29T14:02:56Z</time>
      </trkpt>
      <trkpt lat="59.9556819" lon="17.686405">
        <ele>33.7834</ele>
        <time>2014-05-29T14:02:57Z</time>
      </trkpt>
      <trkpt lat="59.9556903" lon="17.6864913">
        <ele>33.7834</ele>
        <time>2014-05-29T14:02:58Z</time>
      </trkpt>
      <trkpt lat="59.9557007" lon="17.6865815">
        <ele>33.7834</ele>
        <time>2014-05-29T14:02:59Z</time>
      </trkpt>
      <trkpt lat="59.9557142" lon="17.6866737">
        <ele>33.7834</ele>
        <time>2014-05-29T14:03:00Z</time>
      </trkpt>
      <trkpt lat="59.9557288" lon="17.6867676">
        <ele>33.7834</ele>
        <time>2014-05-29T14:03:01Z</time>
      </trkpt>
      <trkpt lat="59.9557453" lon="17.686864">
        <ele>33.7834</ele>
        <time>2014-05-29T14:03:02Z</time>
      </trkpt>
      <trkpt lat="59.955762" lon="17.6869602">
        <ele>33.7834</ele>
        <time>2014-05-29T14:03:03Z</time>
      </trkpt>
      <trkpt lat="59.9557772" lon="17.687055">
        <ele>33.7834</ele>
        <time>2014-05-29T14:03:04Z</time>
      </trkpt>
      <trkpt lat="59.9557925" lon="17.6871462">
        <ele>33.7834</ele>
        <time>2014-05-29T14:03:05Z</time>
      </trkpt>
      <trkpt lat="59.9558043" lon="17.6872351">
        <ele>33.7834</ele>
        <time>2014-05-29T14:03:06Z</time>
      </trkpt>
      <trkpt lat="59.9558172" lon="17.6873201">
        <ele>33.7834</ele>
        <time>2014-05-29T14:03:07Z</time>
      </trkpt>
      <trkpt lat="59.9558302" lon="17.6874022">
        <ele>33.7834</ele>
        <time>2014-05-29T14:03:08Z</time>
      </trkpt>
      <trkpt lat="59.9558452" lon="17.6874802">
        <ele>33.7834</ele>
        <time>2014-05-29T14:03:09Z</time>
      </trkpt>
      <trkpt lat="59.9558582" lon="17.6875562">
        <ele>33.7834</ele>
        <time>2014-05-29T14:03:10Z</time>
      </trkpt>
      <trkpt lat="59.9558702" lon="17.6876305">
        <ele>33.7834</ele>
        <time>2014-05-29T14:03:11Z</time>
      </trkpt>
      <trkpt lat="59.955881" lon="17.6877034">
        <ele>34.2642</ele>
        <time>2014-05-29T14:03:12Z</time>
      </trkpt>
      <trkpt lat="59.9558934" lon="17.6877788">
        <ele>34.2642</ele>
        <time>2014-05-29T14:03:13Z</time>
      </trkpt>
      <trkpt lat="59.9559051" lon="17.6878564">
        <ele>34.2642</ele>
        <time>2014-05-29T14:03:14Z</time>
      </trkpt>
      <trkpt lat="59.9559178" lon="17.6879289">
        <ele>34.2642</ele>
        <time>2014-05-29T14:03:15Z</time>
      </trkpt>
      <trkpt lat="59.9559291" lon="17.6880025">
        <ele>34.2642</ele>
        <time>2014-05-29T14:03:16Z</time>
      </trkpt>
      <trkpt lat="59.9559401" lon="17.6880816">
        <ele>34.2642</ele>
        <time>2014-05-29T14:03:17Z</time>
      </trkpt>
      <trkpt lat="59.9559515" lon="17.6881667">
        <ele>34.2642</ele>
        <time>2014-05-29T14:03:18Z</time>
      </trkpt>
      <trkpt lat="59.9559629" lon="17.6882562">
        <ele>34.2642</ele>
        <time>2014-05-29T14:03:19Z</time>
      </trkpt>
      <trkpt lat="59.9559742" lon="17.6883432">
        <ele>34.2642</ele>
        <time>2014-05-29T14:03:20Z</time>
      </trkpt>
      <trkpt lat="59.9559851" lon="17.6884265">
        <ele>34.2642</ele>
        <time>2014-05-29T14:03:21Z</time>
      </trkpt>
      <trkpt lat="59.9559971" lon="17.6885055">
        <ele>34.2642</ele>
        <time>2014-05-29T14:03:22Z</time>
      </trkpt>
      <trkpt lat="59.9560115" lon="17.6885805">
        <ele>34.2642</ele>
        <time>2014-05-29T14:03:23Z</time>
      </trkpt>
      <trkpt lat="59.9560239" lon="17.6886534">
        <ele>34.2642</ele>
        <time>2014-05-29T14:03:24Z</time>
      </trkpt>
      <trkpt lat="59.9560362" lon="17.6887198">
        <ele>34.7449</ele>
        <time>2014-05-29T14:03:25Z</time>
      </trkpt>
      <trkpt lat="59.9560472" lon="17.6887784">
        <ele>34.7449</ele>
        <time>2014-05-29T14:03:26Z</time>
      </trkpt>
      <trkpt lat="59.9560556" lon="17.6888339">
        <ele>35.2255</ele>
        <time>2014-05-29T14:03:27Z</time>
      </trkpt>
      <trkpt lat="59.956065" lon="17.6888924">
        <ele>35.2255</ele>
        <time>2014-05-29T14:03:28Z</time>
      </trkpt>
      <trkpt lat="59.9560722" lon="17.6889569">
        <ele>35.2255</ele>
        <time>2014-05-29T14:03:29Z</time>
      </trkpt>
      <trkpt lat="59.956086" lon="17.6890265">
        <ele>35.2255</ele>
        <time>2014-05-29T14:03:30Z</time>
      </trkpt>
      <trkpt lat="59.9560989" lon="17.6891056">
        <ele>35.2255</ele>
        <time>2014-05-29T14:03:31Z</time>
      </trkpt>
      <trkpt lat="59.9561172" lon="17.6891892">
        <ele>35.2255</ele>
        <time>2014-05-29T14:03:32Z</time>
      </trkpt>
      <trkpt lat="59.9561349" lon="17.6892714">
        <ele>35.2255</ele>
        <time>2014-05-29T14:03:33Z</time>
      </trkpt>
      <trkpt lat="59.956152" lon="17.6893513">
        <ele>35.2255</ele>
        <time>2014-05-29T14:03:34Z</time>
      </trkpt>
      <trkpt lat="59.956168" lon="17.6894274">
        <ele>35.7061</ele>
        <time>2014-05-29T14:03:35Z</time>
      </trkpt>
      <trkpt lat="59.9561831" lon="17.689499">
        <ele>35.7061</ele>
        <time>2014-05-29T14:03:36Z</time>
      </trkpt>
      <trkpt lat="59.9561983" lon="17.6895661">
        <ele>35.7061</ele>
        <time>2014-05-29T14:03:37Z</time>
      </trkpt>
      <trkpt lat="59.9562105" lon="17.6896314">
        <ele>35.7061</ele>
        <time>2014-05-29T14:03:38Z</time>
      </trkpt>
      <trkpt lat="59.9562209" lon="17.6896922">
        <ele>35.7061</ele>
        <time>2014-05-29T14:03:39Z</time>
      </trkpt>
      <trkpt lat="59.956231" lon="17.6897481">
        <ele>35.7061</ele>
        <time>2014-05-29T14:03:40Z</time>
      </trkpt>
      <trkpt lat="59.9562439" lon="17.6898042">
        <ele>35.7061</ele>
        <time>2014-05-29T14:03:41Z</time>
      </trkpt>
      <trkpt lat="59.9562574" lon="17.6898656">
        <ele>35.7061</ele>
        <time>2014-05-29T14:03:42Z</time>
      </trkpt>
      <trkpt lat="59.9562698" lon="17.689935">
        <ele>35.7061</ele>
        <time>2014-05-29T14:03:43Z</time>
      </trkpt>
      <trkpt lat="59.9562821" lon="17.6900045">
        <ele>35.7061</ele>
        <time>2014-05-29T14:03:44Z</time>
      </trkpt>
      <trkpt lat="59.9562981" lon="17.6900662">
        <ele>35.7061</ele>
        <time>2014-05-29T14:03:45Z</time>
      </trkpt>
      <trkpt lat="59.9563152" lon="17.6901273">
        <ele>35.7061</ele>
        <time>2014-05-29T14:03:46Z</time>
      </trkpt>
      <trkpt lat="59.9563317" lon="17.6901903">
        <ele>35.7061</ele>
        <time>2014-05-29T14:03:47Z</time>
      </trkpt>
      <trkpt lat="59.9563596" lon="17.6902516">
        <ele>35.7061</ele>
        <time>2014-05-29T14:03:48Z</time>
      </trkpt>
      <trkpt lat="59.9563881" lon="17.6903158">
        <ele>35.7061</ele>
        <time>2014-05-29T14:03:49Z</time>
      </trkpt>
      <trkpt lat="59.9564187" lon="17.6903863">
        <ele>36.1868</ele>
        <time>2014-05-29T14:03:50Z</time>
      </trkpt>
      <trkpt lat="59.9564419" lon="17.6904614">
        <ele>36.6675</ele>
        <time>2014-05-29T14:03:51Z</time>
      </trkpt>
      <trkpt lat="59.9564652" lon="17.6905332">
        <ele>36.1868</ele>
        <time>2014-05-29T14:03:52Z</time>
      </trkpt>
      <trkpt lat="59.9564897" lon="17.6906031">
        <ele>36.1868</ele>
        <time>2014-05-29T14:03:53Z</time>
      </trkpt>
      <trkpt lat="59.9565164" lon="17.6906729">
        <ele>35.7061</ele>
        <time>2014-05-29T14:03:54Z</time>
      </trkpt>
      <trkpt lat="59.9565446" lon="17.6907433">
        <ele>35.7061</ele>
        <time>2014-05-29T14:03:55Z</time>
      </trkpt>
      <trkpt lat="59.9565723" lon="17.6908168">
        <ele>35.2255</ele>
        <time>2014-05-29T14:03:56Z</time>
      </trkpt>
      <trkpt lat="59.9565998" lon="17.6908929">
        <ele>35.2255</ele>
        <time>2014-05-29T14:03:57Z</time>
      </trkpt>
      <trkpt lat="59.9566279" lon="17.6909685">
        <ele>35.2255</ele>
        <time>2014-05-29T14:03:58Z</time>
      </trkpt>
      <trkpt lat="59.9566561" lon="17.691044">
        <ele>35.2255</ele>
        <time>2014-05-29T14:03:59Z</time>
      </trkpt>
      <trkpt lat="59.9566856" lon="17.6911197">
        <ele>35.2255</ele>
        <time>2014-05-29T14:04:00Z</time>
      </trkpt>
      <trkpt lat="59.9567139" lon="17.6911964">
        <ele>35.2255</ele>
        <time>2014-05-29T14:04:01Z</time>
      </trkpt>
      <trkpt lat="59.9567395" lon="17.6912778">
        <ele>35.2255</ele>
        <time>2014-05-29T14:04:02Z</time>
      </trkpt>
      <trkpt lat="59.9567584" lon="17.6913685">
        <ele>34.7449</ele>
        <time>2014-05-29T14:04:03Z</time>
      </trkpt>
      <trkpt lat="59.9567682" lon="17.6914814">
        <ele>34.2642</ele>
        <time>2014-05-29T14:04:04Z</time>
      </trkpt>
      <trkpt lat="59.9567816" lon="17.6915929">
        <ele>33.7834</ele>
        <time>2014-05-29T14:04:05Z</time>
      </trkpt>
      <trkpt lat="59.9567994" lon="17.691699">
        <ele>33.7834</ele>
        <time>2014-05-29T14:04:06Z</time>
      </trkpt>
      <trkpt lat="59.9568189" lon="17.6917897">
        <ele>33.7834</ele>
        <time>2014-05-29T14:04:07Z</time>
      </trkpt>
      <trkpt lat="59.9568405" lon="17.6918878">
        <ele>33.3029</ele>
        <time>2014-05-29T14:04:08Z</time>
      </trkpt>
      <trkpt lat="59.9568607" lon="17.6919844">
        <ele>33.3029</ele>
        <time>2014-05-29T14:04:09Z</time>
      </trkpt>
      <trkpt lat="59.9568788" lon="17.692079">
        <ele>32.8223</ele>
        <time>2014-05-29T14:04:10Z</time>
      </trkpt>
      <trkpt lat="59.9568966" lon="17.6921701">
        <ele>32.8223</ele>
        <time>2014-05-29T14:04:11Z</time>
      </trkpt>
      <trkpt lat="59.9569206" lon="17.6922551">
        <ele>32.8223</ele>
        <time>2014-05-29T14:04:12Z</time>
      </trkpt>
      <trkpt lat="59.9569428" lon="17.6923331">
        <ele>32.8223</ele>
        <time>2014-05-29T14:04:13Z</time>
      </trkpt>
      <trkpt lat="59.9569669" lon="17.6924085">
        <ele>32.8223</ele>
        <time>2014-05-29T14:04:14Z</time>
      </trkpt>
      <trkpt lat="59.9569922" lon="17.6924826">
        <ele>32.3416</ele>
        <time>2014-05-29T14:04:15Z</time>
      </trkpt>
      <trkpt lat="59.957017" lon="17.6925551">
        <ele>32.3416</ele>
        <time>2014-05-29T14:04:16Z</time>
      </trkpt>
      <trkpt lat="59.9570423" lon="17.6926237">
        <ele>32.3416</ele>
        <time>2014-05-29T14:04:17Z</time>
      </trkpt>
      <trkpt lat="59.9570641" lon="17.6926899">
        <ele>32.3416</ele>
        <time>2014-05-29T14:04:18Z</time>
      </trkpt>
      <trkpt lat="59.957085" lon="17.6927526">
        <ele>32.3416</ele>
        <time>2014-05-29T14:04:19Z</time>
      </trkpt>
      <trkpt lat="59.9571096" lon="17.692806">
        <ele>32.3416</ele>
        <time>2014-05-29T14:04:20Z</time>
      </trkpt>
      <trkpt lat="59.957133" lon="17.69285">
        <ele>32.3416</ele>
        <time>2014-05-29T14:04:21Z</time>
      </trkpt>
      <trkpt lat="59.9571626" lon="17.6928897">
        <ele>32.3416</ele>
        <time>2014-05-29T14:04:22Z</time>
      </trkpt>
      <trkpt lat="59.9571947" lon="17.692928">
        <ele>32.8223</ele>
        <time>2014-05-29T14:04:23Z</time>
      </trkpt>
      <trkpt lat="59.9572248" lon="17.6929666">
        <ele>32.8223</ele>
        <time>2014-05-29T14:04:24Z</time>
      </trkpt>
      <trkpt lat="59.9572572" lon="17.6930134">
        <ele>32.8223</ele>
        <time>2014-05-29T14:04:25Z</time>
      </trkpt>
      <trkpt lat="59.9572851" lon="17.6930696">
        <ele>32.8223</ele>
        <time>2014-05-29T14:04:26Z</time>
      </trkpt>
      <trkpt lat="59.9573113" lon="17.6931317">
        <ele>32.8223</ele>
        <time>2014-05-29T14:04:27Z</time>
      </trkpt>
      <trkpt lat="59.9573421" lon="17.6931959">
        <ele>32.8223</ele>
        <time>2014-05-29T14:04:28Z</time>
      </trkpt>
      <trkpt lat="59.9573708" lon="17.6932649">
        <ele>32.8223</ele>
        <time>2014-05-29T14:04:29Z</time>
      </trkpt>
      <trkpt lat="59.9573972" lon="17.6933411">
        <ele>32.8223</ele>
        <time>2014-05-29T14:04:30Z</time>
      </trkpt>
      <trkpt lat="59.9574239" lon="17.6934247">
        <ele>32.8223</ele>
        <time>2014-05-29T14:04:31Z</time>
      </trkpt>
      <trkpt lat="59.9574506" lon="17.6935076">
        <ele>32.3416</ele>
        <time>2014-05-29T14:04:32Z</time>
      </trkpt>
      <trkpt lat="59.9574773" lon="17.6935841">
        <ele>32.3416</ele>
        <time>2014-05-29T14:04:33Z</time>
      </trkpt>
      <trkpt lat="59.9575044" lon="17.693661">
        <ele>32.3416</ele>
        <time>2014-05-29T14:04:34Z</time>
      </trkpt>
      <trkpt lat="59.9575279" lon="17.6937404">
        <ele>32.3416</ele>
        <time>2014-05-29T14:04:35Z</time>
      </trkpt>
      <trkpt lat="59.9575505" lon="17.6938222">
        <ele>31.8607</ele>
        <time>2014-05-29T14:04:36Z</time>
      </trkpt>
      <trkpt lat="59.9575743" lon="17.6939082">
        <ele>31.8607</ele>
        <time>2014-05-29T14:04:37Z</time>
      </trkpt>
      <trkpt lat="59.9575951" lon="17.6939956">
        <ele>31.8607</ele>
        <time>2014-05-29T14:04:38Z</time>
      </trkpt>
      <trkpt lat="59.9576188" lon="17.6940771">
        <ele>31.8607</ele>
        <time>2014-05-29T14:04:39Z</time>
      </trkpt>
      <trkpt lat="59.9576427" lon="17.6941574">
        <ele>31.8607</ele>
        <time>2014-05-29T14:04:40Z</time>
      </trkpt>
      <trkpt lat="59.9576622" lon="17.6942366">
        <ele>31.8607</ele>
        <time>2014-05-29T14:04:41Z</time>
      </trkpt>
      <trkpt lat="59.9576812" lon="17.6943088">
        <ele>31.8607</ele>
        <time>2014-05-29T14:04:42Z</time>
      </trkpt>
      <trkpt lat="59.9577013" lon="17.6943765">
        <ele>31.8607</ele>
        <time>2014-05-29T14:04:43Z</time>
      </trkpt>
      <trkpt lat="59.957719" lon="17.6944407">
        <ele>31.8607</ele>
        <time>2014-05-29T14:04:44Z</time>
      </trkpt>
      <trkpt lat="59.957742" lon="17.6945038">
        <ele>31.8607</ele>
        <time>2014-05-29T14:04:45Z</time>
      </trkpt>
      <trkpt lat="59.9577664" lon="17.6945713">
        <ele>31.8607</ele>
        <time>2014-05-29T14:04:46Z</time>
      </trkpt>
      <trkpt lat="59.9577873" lon="17.6946445">
        <ele>31.8607</ele>
        <time>2014-05-29T14:04:47Z</time>
      </trkpt>
      <trkpt lat="59.9578115" lon="17.6947215">
        <ele>31.8607</ele>
        <time>2014-05-29T14:04:48Z</time>
      </trkpt>
      <trkpt lat="59.9578399" lon="17.6948009">
        <ele>31.8607</ele>
        <time>2014-05-29T14:04:49Z</time>
      </trkpt>
      <trkpt lat="59.9578668" lon="17.6948837">
        <ele>31.3801</ele>
        <time>2014-05-29T14:04:50Z</time>
      </trkpt>
      <trkpt lat="59.9578941" lon="17.694969">
        <ele>31.3801</ele>
        <time>2014-05-29T14:04:51Z</time>
      </trkpt>
      <trkpt lat="59.957924" lon="17.6950432">
        <ele>31.3801</ele>
        <time>2014-05-29T14:04:52Z</time>
      </trkpt>
      <trkpt lat="59.9579563" lon="17.6951075">
        <ele>31.8607</ele>
        <time>2014-05-29T14:04:53Z</time>
      </trkpt>
      <trkpt lat="59.9579857" lon="17.6951675">
        <ele>31.8607</ele>
        <time>2014-05-29T14:04:54Z</time>
      </trkpt>
      <trkpt lat="59.9580152" lon="17.695224">
        <ele>31.8607</ele>
        <time>2014-05-29T14:04:55Z</time>
      </trkpt>
      <trkpt lat="59.9580428" lon="17.6952818">
        <ele>31.3801</ele>
        <time>2014-05-29T14:04:56Z</time>
      </trkpt>
      <trkpt lat="59.9580671" lon="17.6953409">
        <ele>31.3801</ele>
        <time>2014-05-29T14:04:57Z</time>
      </trkpt>
      <trkpt lat="59.9580909" lon="17.6953999">
        <ele>31.3801</ele>
        <time>2014-05-29T14:04:58Z</time>
      </trkpt>
      <trkpt lat="59.9581162" lon="17.6954622">
        <ele>31.3801</ele>
        <time>2014-05-29T14:04:59Z</time>
      </trkpt>
      <trkpt lat="59.9581417" lon="17.6955306">
        <ele>31.3801</ele>
        <time>2014-05-29T14:05:00Z</time>
      </trkpt>
      <trkpt lat="59.95817" lon="17.6956041">
        <ele>31.3801</ele>
        <time>2014-05-29T14:05:01Z</time>
      </trkpt>
      <trkpt lat="59.9582004" lon="17.6956808">
        <ele>31.8607</ele>
        <time>2014-05-29T14:05:02Z</time>
      </trkpt>
      <trkpt lat="59.9582245" lon="17.6957617">
        <ele>31.8607</ele>
        <time>2014-05-29T14:05:03Z</time>
      </trkpt>
      <trkpt lat="59.9582507" lon="17.6958441">
        <ele>31.8607</ele>
        <time>2014-05-29T14:05:04Z</time>
      </trkpt>
      <trkpt lat="59.9582805" lon="17.6959262">
        <ele>32.3416</ele>
        <time>2014-05-29T14:05:05Z</time>
      </trkpt>
      <trkpt lat="59.9583095" lon="17.6960036">
        <ele>32.3416</ele>
        <time>2014-05-29T14:05:06Z</time>
      </trkpt>
      <trkpt lat="59.9583368" lon="17.6960752">
        <ele>31.8607</ele>
        <time>2014-05-29T14:05:07Z</time>
      </trkpt>
      <trkpt lat="59.9583618" lon="17.6961459">
        <ele>31.8607</ele>
        <time>2014-05-29T14:05:08Z</time>
      </trkpt>
      <trkpt lat="59.958386" lon="17.6962142">
        <ele>31.8607</ele>
        <time>2014-05-29T14:05:09Z</time>
      </trkpt>
      <trkpt lat="59.9584067" lon="17.6962786">
        <ele>31.8607</ele>
        <time>2014-05-29T14:05:10Z</time>
      </trkpt>
      <trkpt lat="59.9584234" lon="17.6963377">
        <ele>32.3416</ele>
        <time>2014-05-29T14:05:11Z</time>
      </trkpt>
      <trkpt lat="59.9584394" lon="17.696388">
        <ele>32.3416</ele>
        <time>2014-05-29T14:05:12Z</time>
      </trkpt>
      <trkpt lat="59.9584569" lon="17.6964342">
        <ele>32.3416</ele>
        <time>2014-05-29T14:05:13Z</time>
      </trkpt>
      <trkpt lat="59.9584753" lon="17.69648">
        <ele>32.3416</ele>
        <time>2014-05-29T14:05:14Z</time>
      </trkpt>
      <trkpt lat="59.9584938" lon="17.6965257">
        <ele>32.3416</ele>
        <time>2014-05-29T14:05:15Z</time>
      </trkpt>
      <trkpt lat="59.958514" lon="17.6965744">
        <ele>32.3416</ele>
        <time>2014-05-29T14:05:16Z</time>
      </trkpt>
      <trkpt lat="59.9585327" lon="17.6966277">
        <ele>32.3416</ele>
        <time>2014-05-29T14:05:17Z</time>
      </trkpt>
      <trkpt lat="59.9585513" lon="17.6966858">
        <ele>32.3416</ele>
        <time>2014-05-29T14:05:18Z</time>
      </trkpt>
      <trkpt lat="59.9585689" lon="17.6967464">
        <ele>32.3416</ele>
        <time>2014-05-29T14:05:19Z</time>
      </trkpt>
      <trkpt lat="59.9585854" lon="17.6968075">
        <ele>32.3416</ele>
        <time>2014-05-29T14:05:20Z</time>
      </trkpt>
      <trkpt lat="59.9586063" lon="17.6968678">
        <ele>31.8607</ele>
        <time>2014-05-29T14:05:21Z</time>
      </trkpt>
      <trkpt lat="59.958632" lon="17.6969276">
        <ele>31.8607</ele>
        <time>2014-05-29T14:05:22Z</time>
      </trkpt>
      <trkpt lat="59.9586581" lon="17.6969811">
        <ele>32.3416</ele>
        <time>2014-05-29T14:05:23Z</time>
      </trkpt>
      <trkpt lat="59.958685" lon="17.6970157">
        <ele>32.3416</ele>
        <time>2014-05-29T14:05:24Z</time>
      </trkpt>
      <trkpt lat="59.958717" lon="17.6970225">
        <ele>32.3416</ele>
        <time>2014-05-29T14:05:25Z</time>
      </trkpt>
      <trkpt lat="59.9587451" lon="17.6970138">
        <ele>32.8223</ele>
        <time>2014-05-29T14:05:26Z</time>
      </trkpt>
      <trkpt lat="59.9587719" lon="17.6970029">
        <ele>33.3029</ele>
        <time>2014-05-29T14:05:27Z</time>
      </trkpt>
      <trkpt lat="59.9587947" lon="17.6969981">
        <ele>33.3029</ele>
        <time>2014-05-29T14:05:28Z</time>
      </trkpt>
      <trkpt lat="59.9588129" lon="17.696994">
        <ele>33.7834</ele>
        <time>2014-05-29T14:05:29Z</time>
      </trkpt>
      <trkpt lat="59.9588298" lon="17.6969837">
        <ele>33.7834</ele>
        <time>2014-05-29T14:05:30Z</time>
      </trkpt>
      <trkpt lat="59.9588508" lon="17.6969707">
        <ele>34.2642</ele>
        <time>2014-05-29T14:05:31Z</time>
      </trkpt>
      <trkpt lat="59.9588715" lon="17.6969651">
        <ele>34.2642</ele>
        <time>2014-05-29T14:05:32Z</time>
      </trkpt>
      <trkpt lat="59.9588941" lon="17.6969708">
        <ele>34.2642</ele>
        <time>2014-05-29T14:05:33Z</time>
      </trkpt>
      <trkpt lat="59.9589166" lon="17.6969942">
        <ele>34.2642</ele>
        <time>2014-05-29T14:05:34Z</time>
      </trkpt>
      <trkpt lat="59.9589352" lon="17.6970343">
        <ele>34.7449</ele>
        <time>2014-05-29T14:05:35Z</time>
      </trkpt>
      <trkpt lat="59.9589511" lon="17.6970805">
        <ele>34.7449</ele>
        <time>2014-05-29T14:05:36Z</time>
      </trkpt>
      <trkpt lat="59.9589683" lon="17.6971313">
        <ele>34.7449</ele>
        <time>2014-05-29T14:05:37Z</time>
      </trkpt>
      <trkpt lat="59.9589871" lon="17.6971899">
        <ele>34.2642</ele>
        <time>2014-05-29T14:05:38Z</time>
      </trkpt>
      <trkpt lat="59.9590062" lon="17.6972531">
        <ele>34.2642</ele>
        <time>2014-05-29T14:05:39Z</time>
      </trkpt>
      <trkpt lat="59.9590274" lon="17.697314">
        <ele>34.2642</ele>
        <time>2014-05-29T14:05:40Z</time>
      </trkpt>
      <trkpt lat="59.9590492" lon="17.6973712">
        <ele>34.2642</ele>
        <time>2014-05-29T14:05:41Z</time>
      </trkpt>
      <trkpt lat="59.9590694" lon="17.697427">
        <ele>34.7449</ele>
        <time>2014-05-29T14:05:42Z</time>
      </trkpt>
      <trkpt lat="59.9590864" lon="17.6974785">
        <ele>34.7449</ele>
        <time>2014-05-29T14:05:43Z</time>
      </trkpt>
      <trkpt lat="59.959106" lon="17.6975285">
        <ele>34.7449</ele>
        <time>2014-05-29T14:05:44Z</time>
      </trkpt>
      <trkpt lat="59.95912" lon="17.6975903">
        <ele>34.7449</ele>
        <time>2014-05-29T14:05:45Z</time>
      </trkpt>
      <trkpt lat="59.9591187" lon="17.6976588">
        <ele>34.7449</ele>
        <time>2014-05-29T14:05:46Z</time>
      </trkpt>
      <trkpt lat="59.9591071" lon="17.6977211">
        <ele>34.7449</ele>
        <time>2014-05-29T14:05:47Z</time>
      </trkpt>
      <trkpt lat="59.9590942" lon="17.6977716">
        <ele>35.2255</ele>
        <time>2014-05-29T14:05:48Z</time>
      </trkpt>
      <trkpt lat="59.9590832" lon="17.697811">
        <ele>35.2255</ele>
        <time>2014-05-29T14:05:49Z</time>
      </trkpt>
      <trkpt lat="59.9590718" lon="17.6978431">
        <ele>35.2255</ele>
        <time>2014-05-29T14:05:50Z</time>
      </trkpt>
      <trkpt lat="59.9590612" lon="17.6978726">
        <ele>35.2255</ele>
        <time>2014-05-29T14:05:51Z</time>
      </trkpt>
      <trkpt lat="59.9590563" lon="17.6979088">
        <ele>35.7061</ele>
        <time>2014-05-29T14:05:52Z</time>
      </trkpt>
      <trkpt lat="59.9590497" lon="17.6979503">
        <ele>35.2255</ele>
        <time>2014-05-29T14:05:53Z</time>
      </trkpt>
      <trkpt lat="59.959046" lon="17.6979962">
        <ele>35.7061</ele>
        <time>2014-05-29T14:05:54Z</time>
      </trkpt>
      <trkpt lat="59.9590484" lon="17.6980513">
        <ele>35.7061</ele>
        <time>2014-05-29T14:05:55Z</time>
      </trkpt>
      <trkpt lat="59.9590511" lon="17.6981148">
        <ele>36.1868</ele>
        <time>2014-05-29T14:05:56Z</time>
      </trkpt>
      <trkpt lat="59.9590546" lon="17.6981832">
        <ele>36.1868</ele>
        <time>2014-05-29T14:05:57Z</time>
      </trkpt>
      <trkpt lat="59.9590574" lon="17.6982579">
        <ele>35.7061</ele>
        <time>2014-05-29T14:05:58Z</time>
      </trkpt>
      <trkpt lat="59.9590594" lon="17.6983389">
        <ele>35.7061</ele>
        <time>2014-05-29T14:05:59Z</time>
      </trkpt>
      <trkpt lat="59.9590612" lon="17.6984202">
        <ele>35.2255</ele>
        <time>2014-05-29T14:06:00Z</time>
      </trkpt>
      <trkpt lat="59.959064" lon="17.6984978">
        <ele>35.7061</ele>
        <time>2014-05-29T14:06:01Z</time>
      </trkpt>
      <trkpt lat="59.9590652" lon="17.6985738">
        <ele>35.7061</ele>
        <time>2014-05-29T14:06:02Z</time>
      </trkpt>
      <trkpt lat="59.9590668" lon="17.6986427">
        <ele>35.7061</ele>
        <time>2014-05-29T14:06:03Z</time>
      </trkpt>
      <trkpt lat="59.9590679" lon="17.6987128">
        <ele>35.7061</ele>
        <time>2014-05-29T14:06:04Z</time>
      </trkpt>
      <trkpt lat="59.9590708" lon="17.6987811">
        <ele>35.7061</ele>
        <time>2014-05-29T14:06:05Z</time>
      </trkpt>
      <trkpt lat="59.9590725" lon="17.6988527">
        <ele>35.7061</ele>
        <time>2014-05-29T14:06:06Z</time>
      </trkpt>
      <trkpt lat="59.9590761" lon="17.6989234">
        <ele>35.2255</ele>
        <time>2014-05-29T14:06:07Z</time>
      </trkpt>
      <trkpt lat="59.9590788" lon="17.6989941">
        <ele>35.2255</ele>
        <time>2014-05-29T14:06:08Z</time>
      </trkpt>
      <trkpt lat="59.9590812" lon="17.6990654">
        <ele>35.2255</ele>
        <time>2014-05-29T14:06:09Z</time>
      </trkpt>
      <trkpt lat="59.9590852" lon="17.6991371">
        <ele>35.2255</ele>
        <time>2014-05-29T14:06:10Z</time>
      </trkpt>
      <trkpt lat="59.9590864" lon="17.6992157">
        <ele>35.7061</ele>
        <time>2014-05-29T14:06:11Z</time>
      </trkpt>
      <trkpt lat="59.9590875" lon="17.6992977">
        <ele>35.2255</ele>
        <time>2014-05-29T14:06:12Z</time>
      </trkpt>
      <trkpt lat="59.9590921" lon="17.699378">
        <ele>35.2255</ele>
        <time>2014-05-29T14:06:13Z</time>
      </trkpt>
      <trkpt lat="59.9590978" lon="17.6994581">
        <ele>35.2255</ele>
        <time>2014-05-29T14:06:14Z</time>
      </trkpt>
      <trkpt lat="59.9591025" lon="17.699539">
        <ele>35.2255</ele>
        <time>2014-05-29T14:06:15Z</time>
      </trkpt>
      <trkpt lat="59.9591002" lon="17.6996183">
        <ele>35.2255</ele>
        <time>2014-05-29T14:06:16Z</time>
      </trkpt>
      <trkpt lat="59.95909" lon="17.6996913">
        <ele>35.2255</ele>
        <time>2014-05-29T14:06:17Z</time>
      </trkpt>
      <trkpt lat="59.9590802" lon="17.6997597">
        <ele>35.2255</ele>
        <time>2014-05-29T14:06:18Z</time>
      </trkpt>
      <trkpt lat="59.9590751" lon="17.6998334">
        <ele>35.2255</ele>
        <time>2014-05-29T14:06:19Z</time>
      </trkpt>
      <trkpt lat="59.9590725" lon="17.6999133">
        <ele>35.2255</ele>
        <time>2014-05-29T14:06:20Z</time>
      </trkpt>
      <trkpt lat="59.9590726" lon="17.6999928">
        <ele>35.2255</ele>
        <time>2014-05-29T14:06:21Z</time>
      </trkpt>
      <trkpt lat="59.9590752" lon="17.7000706">
        <ele>35.7061</ele>
        <time>2014-05-29T14:06:22Z</time>
      </trkpt>
      <trkpt lat="59.9590757" lon="17.7001475">
        <ele>35.7061</ele>
        <time>2014-05-29T14:06:23Z</time>
      </trkpt>
      <trkpt lat="59.959079" lon="17.7002207">
        <ele>35.2255</ele>
        <time>2014-05-29T14:06:24Z</time>
      </trkpt>
      <trkpt lat="59.9590842" lon="17.7002934">
        <ele>35.2255</ele>
        <time>2014-05-29T14:06:25Z</time>
      </trkpt>
      <trkpt lat="59.9590901" lon="17.7003636">
        <ele>35.2255</ele>
        <time>2014-05-29T14:06:26Z</time>
      </trkpt>
      <trkpt lat="59.959099" lon="17.7004305">
        <ele>35.2255</ele>
        <time>2014-05-29T14:06:27Z</time>
      </trkpt>
      <trkpt lat="59.9591072" lon="17.7004953">
        <ele>35.2255</ele>
        <time>2014-05-29T14:06:28Z</time>
      </trkpt>
      <trkpt lat="59.9591118" lon="17.7005573">
        <ele>35.2255</ele>
        <time>2014-05-29T14:06:29Z</time>
      </trkpt>
      <trkpt lat="59.9591147" lon="17.700617">
        <ele>35.2255</ele>
        <time>2014-05-29T14:06:30Z</time>
      </trkpt>
      <trkpt lat="59.9591139" lon="17.7006766">
        <ele>35.2255</ele>
        <time>2014-05-29T14:06:31Z</time>
      </trkpt>
      <trkpt lat="59.9591153" lon="17.7007413">
        <ele>35.2255</ele>
        <time>2014-05-29T14:06:32Z</time>
      </trkpt>
      <trkpt lat="59.9591222" lon="17.7008144">
        <ele>35.2255</ele>
        <time>2014-05-29T14:06:33Z</time>
      </trkpt>
      <trkpt lat="59.959132" lon="17.7008921">
        <ele>35.7061</ele>
        <time>2014-05-29T14:06:34Z</time>
      </trkpt>
      <trkpt lat="59.9591458" lon="17.7009687">
        <ele>35.7061</ele>
        <time>2014-05-29T14:06:35Z</time>
      </trkpt>
      <trkpt lat="59.9591605" lon="17.7010463">
        <ele>35.7061</ele>
        <time>2014-05-29T14:06:36Z</time>
      </trkpt>
      <trkpt lat="59.9591724" lon="17.7011314">
        <ele>36.1868</ele>
        <time>2014-05-29T14:06:37Z</time>
      </trkpt>
      <trkpt lat="59.9591812" lon="17.7012208">
        <ele>36.1868</ele>
        <time>2014-05-29T14:06:38Z</time>
      </trkpt>
      <trkpt lat="59.9591924" lon="17.7013049">
        <ele>36.6675</ele>
        <time>2014-05-29T14:06:39Z</time>
      </trkpt>
      <trkpt lat="59.9592065" lon="17.7013774">
        <ele>36.6675</ele>
        <time>2014-05-29T14:06:40Z</time>
      </trkpt>
      <trkpt lat="59.9592144" lon="17.7014504">
        <ele>37.1481</ele>
        <time>2014-05-29T14:06:41Z</time>
      </trkpt>
      <trkpt lat="59.9592222" lon="17.7015236">
        <ele>37.1481</ele>
        <time>2014-05-29T14:06:42Z</time>
      </trkpt>
      <trkpt lat="59.9592352" lon="17.7015972">
        <ele>37.1481</ele>
        <time>2014-05-29T14:06:43Z</time>
      </trkpt>
      <trkpt lat="59.9592543" lon="17.7016768">
        <ele>37.6287</ele>
        <time>2014-05-29T14:06:44Z</time>
      </trkpt>
      <trkpt lat="59.9592843" lon="17.7017551">
        <ele>38.5901</ele>
        <time>2014-05-29T14:06:45Z</time>
      </trkpt>
      <trkpt lat="59.9593076" lon="17.7018379">
        <ele>39.0707</ele>
        <time>2014-05-29T14:06:46Z</time>
      </trkpt>
      <trkpt lat="59.9593268" lon="17.7019217">
        <ele>39.0707</ele>
        <time>2014-05-29T14:06:47Z</time>
      </trkpt>
      <trkpt lat="59.9593478" lon="17.702">
        <ele>39.5513</ele>
        <time>2014-05-29T14:06:48Z</time>
      </trkpt>
      <trkpt lat="59.9593692" lon="17.7020743">
        <ele>39.0707</ele>
        <time>2014-05-29T14:06:49Z</time>
      </trkpt>
      <trkpt lat="59.9593911" lon="17.7021476">
        <ele>39.5513</ele>
        <time>2014-05-29T14:06:50Z</time>
      </trkpt>
      <trkpt lat="59.9594134" lon="17.7022187">
        <ele>39.5513</ele>
        <time>2014-05-29T14:06:51Z</time>
      </trkpt>
      <trkpt lat="59.9594401" lon="17.7022889">
        <ele>40.0321</ele>
        <time>2014-05-29T14:06:52Z</time>
      </trkpt>
      <trkpt lat="59.9594615" lon="17.702356">
        <ele>40.0321</ele>
        <time>2014-05-29T14:06:53Z</time>
      </trkpt>
      <trkpt lat="59.9594813" lon="17.702426">
        <ele>40.0321</ele>
        <time>2014-05-29T14:06:54Z</time>
      </trkpt>
      <trkpt lat="59.9595041" lon="17.7024969">
        <ele>39.5513</ele>
        <time>2014-05-29T14:06:55Z</time>
      </trkpt>
      <trkpt lat="59.9595304" lon="17.7025693">
        <ele>40.0321</ele>
        <time>2014-05-29T14:06:56Z</time>
      </trkpt>
      <trkpt lat="59.9595582" lon="17.7026455">
        <ele>40.5128</ele>
        <time>2014-05-29T14:06:57Z</time>
      </trkpt>
      <trkpt lat="59.9595833" lon="17.7027201">
        <ele>40.9934</ele>
        <time>2014-05-29T14:06:58Z</time>
      </trkpt>
      <trkpt lat="59.9596112" lon="17.7027937">
        <ele>41.474</ele>
        <time>2014-05-29T14:06:59Z</time>
      </trkpt>
      <trkpt lat="59.9596405" lon="17.7028746">
        <ele>41.9547</ele>
        <time>2014-05-29T14:07:00Z</time>
      </trkpt>
      <trkpt lat="59.9596651" lon="17.7029585">
        <ele>41.9547</ele>
        <time>2014-05-29T14:07:01Z</time>
      </trkpt>
      <trkpt lat="59.9596851" lon="17.7030428">
        <ele>41.9547</ele>
        <time>2014-05-29T14:07:02Z</time>
      </trkpt>
      <trkpt lat="59.9597068" lon="17.7031217">
        <ele>41.9547</ele>
        <time>2014-05-29T14:07:03Z</time>
      </trkpt>
      <trkpt lat="59.9597253" lon="17.7031972">
        <ele>41.474</ele>
        <time>2014-05-29T14:07:04Z</time>
      </trkpt>
      <trkpt lat="59.9597455" lon="17.7032703">
        <ele>40.9934</ele>
        <time>2014-05-29T14:07:05Z</time>
      </trkpt>
      <trkpt lat="59.9597665" lon="17.7033452">
        <ele>40.5128</ele>
        <time>2014-05-29T14:07:06Z</time>
      </trkpt>
      <trkpt lat="59.9597889" lon="17.7034213">
        <ele>40.5128</ele>
        <time>2014-05-29T14:07:07Z</time>
      </trkpt>
      <trkpt lat="59.9598091" lon="17.7034967">
        <ele>40.0321</ele>
        <time>2014-05-29T14:07:08Z</time>
      </trkpt>
      <trkpt lat="59.9598302" lon="17.7035697">
        <ele>39.5513</ele>
        <time>2014-05-29T14:07:09Z</time>
      </trkpt>
      <trkpt lat="59.9598522" lon="17.7036426">
        <ele>39.0707</ele>
        <time>2014-05-29T14:07:10Z</time>
      </trkpt>
      <trkpt lat="59.9598757" lon="17.7037166">
        <ele>38.5901</ele>
        <time>2014-05-29T14:07:11Z</time>
      </trkpt>
      <trkpt lat="59.959898" lon="17.703796">
        <ele>38.5901</ele>
        <time>2014-05-29T14:07:12Z</time>
      </trkpt>
      <trkpt lat="59.9599184" lon="17.7038774">
        <ele>38.5901</ele>
        <time>2014-05-29T14:07:13Z</time>
      </trkpt>
      <trkpt lat="59.9599368" lon="17.7039525">
        <ele>37.6287</ele>
        <time>2014-05-29T14:07:14Z</time>
      </trkpt>
      <trkpt lat="59.9599558" lon="17.7040202">
        <ele>37.1481</ele>
        <time>2014-05-29T14:07:15Z</time>
      </trkpt>
      <trkpt lat="59.9599712" lon="17.7040886">
        <ele>37.1481</ele>
        <time>2014-05-29T14:07:16Z</time>
      </trkpt>
      <trkpt lat="59.9599857" lon="17.7041606">
        <ele>37.6287</ele>
        <time>2014-05-29T14:07:17Z</time>
      </trkpt>
      <trkpt lat="59.959979" lon="17.7042335">
        <ele>36.1868</ele>
        <time>2014-05-29T14:07:18Z</time>
      </trkpt>
      <trkpt lat="59.9599697" lon="17.7043052">
        <ele>35.7061</ele>
        <time>2014-05-29T14:07:19Z</time>
      </trkpt>
      <trkpt lat="59.9599577" lon="17.7043778">
        <ele>35.2255</ele>
        <time>2014-05-29T14:07:20Z</time>
      </trkpt>
      <trkpt lat="59.9599355" lon="17.7044491">
        <ele>34.7449</ele>
        <time>2014-05-29T14:07:21Z</time>
      </trkpt>
      <trkpt lat="59.959908" lon="17.7045223">
        <ele>34.7449</ele>
        <time>2014-05-29T14:07:22Z</time>
      </trkpt>
      <trkpt lat="59.9598794" lon="17.7046037">
        <ele>34.7449</ele>
        <time>2014-05-29T14:07:23Z</time>
      </trkpt>
      <trkpt lat="59.9598484" lon="17.70469">
        <ele>34.7449</ele>
        <time>2014-05-29T14:07:24Z</time>
      </trkpt>
      <trkpt lat="59.9598187" lon="17.7047671">
        <ele>34.7449</ele>
        <time>2014-05-29T14:07:25Z</time>
      </trkpt>
      <trkpt lat="59.9597923" lon="17.7048387">
        <ele>34.7449</ele>
        <time>2014-05-29T14:07:26Z</time>
      </trkpt>
      <trkpt lat="59.9597685" lon="17.7049076">
        <ele>35.2255</ele>
        <time>2014-05-29T14:07:27Z</time>
      </trkpt>
      <trkpt lat="59.9597443" lon="17.7049709">
        <ele>35.2255</ele>
        <time>2014-05-29T14:07:28Z</time>
      </trkpt>
      <trkpt lat="59.9597184" lon="17.7050273">
        <ele>35.2255</ele>
        <time>2014-05-29T14:07:29Z</time>
      </trkpt>
      <trkpt lat="59.9596926" lon="17.7050769">
        <ele>35.2255</ele>
        <time>2014-05-29T14:07:30Z</time>
      </trkpt>
      <trkpt lat="59.9596708" lon="17.7051329">
        <ele>35.2255</ele>
        <time>2014-05-29T14:07:31Z</time>
      </trkpt>
      <trkpt lat="59.9596582" lon="17.7052014">
        <ele>35.2255</ele>
        <time>2014-05-29T14:07:32Z</time>
      </trkpt>
      <trkpt lat="59.9596496" lon="17.7052779">
        <ele>35.2255</ele>
        <time>2014-05-29T14:07:33Z</time>
      </trkpt>
      <trkpt lat="59.9596431" lon="17.7053602">
        <ele>35.7061</ele>
        <time>2014-05-29T14:07:34Z</time>
      </trkpt>
      <trkpt lat="59.9596362" lon="17.7054495">
        <ele>35.7061</ele>
        <time>2014-05-29T14:07:35Z</time>
      </trkpt>
      <trkpt lat="59.9596235" lon="17.7055395">
        <ele>35.7061</ele>
        <time>2014-05-29T14:07:36Z</time>
      </trkpt>
      <trkpt lat="59.9596028" lon="17.7056205">
        <ele>36.1868</ele>
        <time>2014-05-29T14:07:37Z</time>
      </trkpt>
      <trkpt lat="59.9595817" lon="17.7056903">
        <ele>35.7061</ele>
        <time>2014-05-29T14:07:38Z</time>
      </trkpt>
      <trkpt lat="59.9595578" lon="17.7057566">
        <ele>35.2255</ele>
        <time>2014-05-29T14:07:39Z</time>
      </trkpt>
      <trkpt lat="59.9595282" lon="17.7058245">
        <ele>35.2255</ele>
        <time>2014-05-29T14:07:40Z</time>
      </trkpt>
      <trkpt lat="59.9594991" lon="17.7058966">
        <ele>35.2255</ele>
        <time>2014-05-29T14:07:41Z</time>
      </trkpt>
      <trkpt lat="59.9594713" lon="17.7059717">
        <ele>35.2255</ele>
        <time>2014-05-29T14:07:42Z</time>
      </trkpt>
      <trkpt lat="59.9594408" lon="17.706052">
        <ele>35.2255</ele>
        <time>2014-05-29T14:07:43Z</time>
      </trkpt>
      <trkpt lat="59.9594118" lon="17.7061312">
        <ele>35.2255</ele>
        <time>2014-05-29T14:07:44Z</time>
      </trkpt>
      <trkpt lat="59.9593854" lon="17.706209">
        <ele>35.7061</ele>
        <time>2014-05-29T14:07:45Z</time>
      </trkpt>
      <trkpt lat="59.9593594" lon="17.7062799">
        <ele>35.2255</ele>
        <time>2014-05-29T14:07:46Z</time>
      </trkpt>
      <trkpt lat="59.959332" lon="17.7063462">
        <ele>35.2255</ele>
        <time>2014-05-29T14:07:47Z</time>
      </trkpt>
      <trkpt lat="59.9593057" lon="17.7064139">
        <ele>35.7061</ele>
        <time>2014-05-29T14:07:48Z</time>
      </trkpt>
      <trkpt lat="59.9592812" lon="17.7064798">
        <ele>35.2255</ele>
        <time>2014-05-29T14:07:49Z</time>
      </trkpt>
      <trkpt lat="59.9592565" lon="17.7065454">
        <ele>35.2255</ele>
        <time>2014-05-29T14:07:50Z</time>
      </trkpt>
      <trkpt lat="59.959232" lon="17.7066167">
        <ele>35.2255</ele>
        <time>2014-05-29T14:07:51Z</time>
      </trkpt>
      <trkpt lat="59.9592087" lon="17.7066877">
        <ele>35.7061</ele>
        <time>2014-05-29T14:07:52Z</time>
      </trkpt>
      <trkpt lat="59.9591862" lon="17.7067566">
        <ele>35.2255</ele>
        <time>2014-05-29T14:07:53Z</time>
      </trkpt>
      <trkpt lat="59.9591635" lon="17.7068295">
        <ele>35.2255</ele>
        <time>2014-05-29T14:07:54Z</time>
      </trkpt>
      <trkpt lat="59.9591383" lon="17.7069077">
        <ele>35.2255</ele>
        <time>2014-05-29T14:07:55Z</time>
      </trkpt>
      <trkpt lat="59.9591127" lon="17.7069883">
        <ele>35.2255</ele>
        <time>2014-05-29T14:07:56Z</time>
      </trkpt>
      <trkpt lat="59.9590874" lon="17.7070739">
        <ele>35.2255</ele>
        <time>2014-05-29T14:07:57Z</time>
      </trkpt>
      <trkpt lat="59.9590624" lon="17.707166">
        <ele>35.2255</ele>
        <time>2014-05-29T14:07:58Z</time>
      </trkpt>
      <trkpt lat="59.9590344" lon="17.7072632">
        <ele>34.7449</ele>
        <time>2014-05-29T14:07:59Z</time>
      </trkpt>
      <trkpt lat="59.959005" lon="17.7073656">
        <ele>34.7449</ele>
        <time>2014-05-29T14:08:00Z</time>
      </trkpt>
      <trkpt lat="59.9589786" lon="17.7074763">
        <ele>34.2642</ele>
        <time>2014-05-29T14:08:01Z</time>
      </trkpt>
      <trkpt lat="59.9589549" lon="17.7075949">
        <ele>34.2642</ele>
        <time>2014-05-29T14:08:02Z</time>
      </trkpt>
      <trkpt lat="59.9589321" lon="17.7077107">
        <ele>34.2642</ele>
        <time>2014-05-29T14:08:03Z</time>
      </trkpt>
      <trkpt lat="59.958908" lon="17.7078168">
        <ele>34.2642</ele>
        <time>2014-05-29T14:08:04Z</time>
      </trkpt>
      <trkpt lat="59.9588829" lon="17.7079272">
        <ele>34.2642</ele>
        <time>2014-05-29T14:08:05Z</time>
      </trkpt>
      <trkpt lat="59.958858" lon="17.7080317">
        <ele>34.2642</ele>
        <time>2014-05-29T14:08:06Z</time>
      </trkpt>
      <trkpt lat="59.9588426" lon="17.7081238">
        <ele>34.7449</ele>
        <time>2014-05-29T14:08:07Z</time>
      </trkpt>
      <trkpt lat="59.9588298" lon="17.7082098">
        <ele>34.7449</ele>
        <time>2014-05-29T14:08:08Z</time>
      </trkpt>
      <trkpt lat="59.9588177" lon="17.7082856">
        <ele>35.2255</ele>
        <time>2014-05-29T14:08:09Z</time>
      </trkpt>
      <trkpt lat="59.9588073" lon="17.7083528">
        <ele>35.7061</ele>
        <time>2014-05-29T14:08:10Z</time>
      </trkpt>
      <trkpt lat="59.9587984" lon="17.7084188">
        <ele>36.1868</ele>
        <time>2014-05-29T14:08:11Z</time>
      </trkpt>
      <trkpt lat="59.9587901" lon="17.7084835">
        <ele>36.1868</ele>
        <time>2014-05-29T14:08:12Z</time>
      </trkpt>
      <trkpt lat="59.9587812" lon="17.708546">
        <ele>36.6675</ele>
        <time>2014-05-29T14:08:13Z</time>
      </trkpt>
      <trkpt lat="59.9587724" lon="17.7086011">
        <ele>36.6675</ele>
        <time>2014-05-29T14:08:14Z</time>
      </trkpt>
      <trkpt lat="59.9587678" lon="17.7086431">
        <ele>37.1481</ele>
        <time>2014-05-29T14:08:15Z</time>
      </trkpt>
      <trkpt lat="59.9587679" lon="17.7086663">
        <ele>37.1481</ele>
        <time>2014-05-29T14:08:16Z</time>
      </trkpt>
      <trkpt lat="59.958771" lon="17.7086747">
        <ele>38.1094</ele>
        <time>2014-05-29T14:08:17Z</time>
      </trkpt>
      <trkpt lat="59.9587728" lon="17.7086797">
        <ele>38.5901</ele>
        <time>2014-05-29T14:08:18Z</time>
      </trkpt>
      <trkpt lat="59.9587761" lon="17.7086892">
        <ele>39.0707</ele>
        <time>2014-05-29T14:08:19Z</time>
      </trkpt>
      <trkpt lat="59.9587816" lon="17.7087">
        <ele>39.0707</ele>
        <time>2014-05-29T14:08:20Z</time>
      </trkpt>
      <trkpt lat="59.9587844" lon="17.70871">
        <ele>39.5513</ele>
        <time>2014-05-29T14:08:21Z</time>
      </trkpt>
      <trkpt lat="59.9587902" lon="17.7087198">
        <ele>39.5513</ele>
        <time>2014-05-29T14:08:22Z</time>
      </trkpt>
      <trkpt lat="59.9587954" lon="17.7087266">
        <ele>40.0321</ele>
        <time>2014-05-29T14:08:23Z</time>
      </trkpt>
      <trkpt lat="59.958801" lon="17.7087347">
        <ele>40.0321</ele>
        <time>2014-05-29T14:08:24Z</time>
      </trkpt>
      <trkpt lat="59.9588072" lon="17.7087413">
        <ele>40.0321</ele>
        <time>2014-05-29T14:08:25Z</time>
      </trkpt>
      <trkpt lat="59.958815" lon="17.708748">
        <ele>40.0321</ele>
        <time>2014-05-29T14:08:26Z</time>
      </trkpt>
      <trkpt lat="59.9588216" lon="17.7087538">
        <ele>40.5128</ele>
        <time>2014-05-29T14:08:27Z</time>
      </trkpt>
      <trkpt lat="59.9588264" lon="17.7087579">
        <ele>40.5128</ele>
        <time>2014-05-29T14:08:28Z</time>
      </trkpt>
      <trkpt lat="59.9588306" lon="17.7087616">
        <ele>40.9934</ele>
        <time>2014-05-29T14:08:29Z</time>
      </trkpt>
      <trkpt lat="59.9588347" lon="17.7087661">
        <ele>41.474</ele>
        <time>2014-05-29T14:08:30Z</time>
      </trkpt>
      <trkpt lat="59.9588404" lon="17.7087726">
        <ele>41.474</ele>
        <time>2014-05-29T14:08:31Z</time>
      </trkpt>
      <trkpt lat="59.9588462" lon="17.7087812">
        <ele>41.474</ele>
        <time>2014-05-29T14:08:32Z</time>
      </trkpt>
      <trkpt lat="59.9588519" lon="17.7087928">
        <ele>40.9934</ele>
        <time>2014-05-29T14:08:33Z</time>
      </trkpt>
      <trkpt lat="59.9588569" lon="17.7088065">
        <ele>40.9934</ele>
        <time>2014-05-29T14:08:34Z</time>
      </trkpt>
      <trkpt lat="59.9588601" lon="17.7088157">
        <ele>40.5128</ele>
        <time>2014-05-29T14:08:35Z</time>
      </trkpt>
      <trkpt lat="59.9588616" lon="17.7088192">
        <ele>40.5128</ele>
        <time>2014-05-29T14:08:36Z</time>
      </trkpt>
      <trkpt lat="59.9588606" lon="17.7088278">
        <ele>40.5128</ele>
        <time>2014-05-29T14:08:37Z</time>
      </trkpt>
      <trkpt lat="59.9588646" lon="17.7088439">
        <ele>40.0321</ele>
        <time>2014-05-29T14:08:38Z</time>
      </trkpt>
      <trkpt lat="59.9588772" lon="17.7088539">
        <ele>40.0321</ele>
        <time>2014-05-29T14:08:39Z</time>
      </trkpt>
      <trkpt lat="59.9588899" lon="17.7088565">
        <ele>40.5128</ele>
        <time>2014-05-29T14:08:40Z</time>
      </trkpt>
      <trkpt lat="59.9589051" lon="17.7088554">
        <ele>40.5128</ele>
        <time>2014-05-29T14:08:41Z</time>
      </trkpt>
      <trkpt lat="59.9589248" lon="17.7088565">
        <ele>40.5128</ele>
        <time>2014-05-29T14:08:42Z</time>
      </trkpt>
      <trkpt lat="59.9589495" lon="17.7088594">
        <ele>41.474</ele>
        <time>2014-05-29T14:08:43Z</time>
      </trkpt>
      <trkpt lat="59.9589739" lon="17.7088635">
        <ele>41.9547</ele>
        <time>2014-05-29T14:08:44Z</time>
      </trkpt>
      <trkpt lat="59.9589967" lon="17.708872">
        <ele>41.9547</ele>
        <time>2014-05-29T14:08:45Z</time>
      </trkpt>
      <trkpt lat="59.959023" lon="17.7088806">
        <ele>41.9547</ele>
        <time>2014-05-29T14:08:46Z</time>
      </trkpt>
      <trkpt lat="59.9590517" lon="17.7088922">
        <ele>41.9547</ele>
        <time>2014-05-29T14:08:47Z</time>
      </trkpt>
      <trkpt lat="59.9590829" lon="17.7089071">
        <ele>41.9547</ele>
        <time>2014-05-29T14:08:48Z</time>
      </trkpt>
      <trkpt lat="59.95913" lon="17.7089329">
        <ele>41.9547</ele>
        <time>2014-05-29T14:08:49Z</time>
      </trkpt>
      <trkpt lat="59.9591719" lon="17.7089404">
        <ele>41.474</ele>
        <time>2014-05-29T14:08:50Z</time>
      </trkpt>
      <trkpt lat="59.9592185" lon="17.7089516">
        <ele>41.9547</ele>
        <time>2014-05-29T14:08:51Z</time>
      </trkpt>
      <trkpt lat="59.9592579" lon="17.7089384">
        <ele>41.9547</ele>
        <time>2014-05-29T14:08:52Z</time>
      </trkpt>
      <trkpt lat="59.9592953" lon="17.7089148">
        <ele>41.9547</ele>
        <time>2014-05-29T14:08:53Z</time>
      </trkpt>
      <trkpt lat="59.959332" lon="17.7088843">
        <ele>41.9547</ele>
        <time>2014-05-29T14:08:54Z</time>
      </trkpt>
      <trkpt lat="59.9593708" lon="17.7088653">
        <ele>41.9547</ele>
        <time>2014-05-29T14:08:55Z</time>
      </trkpt>
      <trkpt lat="59.9594035" lon="17.7088557">
        <ele>41.9547</ele>
        <time>2014-05-29T14:08:56Z</time>
      </trkpt>
      <trkpt lat="59.9594344" lon="17.7088516">
        <ele>41.9547</ele>
        <time>2014-05-29T14:08:57Z</time>
      </trkpt>
      <trkpt lat="59.9594677" lon="17.7088542">
        <ele>41.9547</ele>
        <time>2014-05-29T14:08:58Z</time>
      </trkpt>
      <trkpt lat="59.9595039" lon="17.7088616">
        <ele>41.9547</ele>
        <time>2014-05-29T14:08:59Z</time>
      </trkpt>
      <trkpt lat="59.9595426" lon="17.7088718">
        <ele>41.9547</ele>
        <time>2014-05-29T14:09:00Z</time>
      </trkpt>
      <trkpt lat="59.9595827" lon="17.708889">
        <ele>41.9547</ele>
        <time>2014-05-29T14:09:01Z</time>
      </trkpt>
      <trkpt lat="59.9596235" lon="17.7089109">
        <ele>41.474</ele>
        <time>2014-05-29T14:09:02Z</time>
      </trkpt>
      <trkpt lat="59.9596647" lon="17.7089357">
        <ele>40.9934</ele>
        <time>2014-05-29T14:09:03Z</time>
      </trkpt>
      <trkpt lat="59.9597074" lon="17.7089673">
        <ele>40.9934</ele>
        <time>2014-05-29T14:09:04Z</time>
      </trkpt>
      <trkpt lat="59.9597463" lon="17.7090004">
        <ele>41.474</ele>
        <time>2014-05-29T14:09:05Z</time>
      </trkpt>
      <trkpt lat="59.9597827" lon="17.7090279">
        <ele>41.474</ele>
        <time>2014-05-29T14:09:06Z</time>
      </trkpt>
      <trkpt lat="59.9598174" lon="17.7090512">
        <ele>41.474</ele>
        <time>2014-05-29T14:09:07Z</time>
      </trkpt>
      <trkpt lat="59.95985" lon="17.7090673">
        <ele>41.474</ele>
        <time>2014-05-29T14:09:08Z</time>
      </trkpt>
      <trkpt lat="59.9598807" lon="17.7090816">
        <ele>41.474</ele>
        <time>2014-05-29T14:09:09Z</time>
      </trkpt>
      <trkpt lat="59.9599111" lon="17.7090988">
        <ele>41.474</ele>
        <time>2014-05-29T14:09:10Z</time>
      </trkpt>
      <trkpt lat="59.9599432" lon="17.7091213">
        <ele>41.9547</ele>
        <time>2014-05-29T14:09:11Z</time>
      </trkpt>
      <trkpt lat="59.9599769" lon="17.7091497">
        <ele>41.9547</ele>
        <time>2014-05-29T14:09:12Z</time>
      </trkpt>
      <trkpt lat="59.9600143" lon="17.7091832">
        <ele>41.9547</ele>
        <time>2014-05-29T14:09:13Z</time>
      </trkpt>
      <trkpt lat="59.9600494" lon="17.7092246">
        <ele>41.474</ele>
        <time>2014-05-29T14:09:14Z</time>
      </trkpt>
      <trkpt lat="59.9600805" lon="17.7092746">
        <ele>41.474</ele>
        <time>2014-05-29T14:09:15Z</time>
      </trkpt>
      <trkpt lat="59.9601079" lon="17.7093356">
        <ele>41.474</ele>
        <time>2014-05-29T14:09:16Z</time>
      </trkpt>
      <trkpt lat="59.960125" lon="17.7094079">
        <ele>41.474</ele>
        <time>2014-05-29T14:09:17Z</time>
      </trkpt>
      <trkpt lat="59.96013" lon="17.7094863">
        <ele>40.9934</ele>
        <time>2014-05-29T14:09:18Z</time>
      </trkpt>
      <trkpt lat="59.9601278" lon="17.7095676">
        <ele>40.5128</ele>
        <time>2014-05-29T14:09:19Z</time>
      </trkpt>
      <trkpt lat="59.9601195" lon="17.7096519">
        <ele>39.5513</ele>
        <time>2014-05-29T14:09:20Z</time>
      </trkpt>
      <trkpt lat="59.9601124" lon="17.7097384">
        <ele>39.5513</ele>
        <time>2014-05-29T14:09:21Z</time>
      </trkpt>
      <trkpt lat="59.9601036" lon="17.7098261">
        <ele>39.5513</ele>
        <time>2014-05-29T14:09:22Z</time>
      </trkpt>
      <trkpt lat="59.9600922" lon="17.7099142">
        <ele>39.0707</ele>
        <time>2014-05-29T14:09:23Z</time>
      </trkpt>
      <trkpt lat="59.9600829" lon="17.7100018">
        <ele>39.0707</ele>
        <time>2014-05-29T14:09:24Z</time>
      </trkpt>
      <trkpt lat="59.9600758" lon="17.7100925">
        <ele>39.0707</ele>
        <time>2014-05-29T14:09:25Z</time>
      </trkpt>
      <trkpt lat="59.9600672" lon="17.7101858">
        <ele>39.5513</ele>
        <time>2014-05-29T14:09:26Z</time>
      </trkpt>
      <trkpt lat="59.9600562" lon="17.7102784">
        <ele>39.5513</ele>
        <time>2014-05-29T14:09:27Z</time>
      </trkpt>
      <trkpt lat="59.9600459" lon="17.7103712">
        <ele>39.5513</ele>
        <time>2014-05-29T14:09:28Z</time>
      </trkpt>
      <trkpt lat="59.9600378" lon="17.7104649">
        <ele>39.0707</ele>
        <time>2014-05-29T14:09:29Z</time>
      </trkpt>
      <trkpt lat="59.9600316" lon="17.7105605">
        <ele>39.0707</ele>
        <time>2014-05-29T14:09:30Z</time>
      </trkpt>
      <trkpt lat="59.9600241" lon="17.7106597">
        <ele>39.0707</ele>
        <time>2014-05-29T14:09:31Z</time>
      </trkpt>
      <trkpt lat="59.9600153" lon="17.71076">
        <ele>38.5901</ele>
        <time>2014-05-29T14:09:32Z</time>
      </trkpt>
      <trkpt lat="59.9600071" lon="17.7108602">
        <ele>38.5901</ele>
        <time>2014-05-29T14:09:33Z</time>
      </trkpt>
      <trkpt lat="59.9600003" lon="17.7109591">
        <ele>38.5901</ele>
        <time>2014-05-29T14:09:34Z</time>
      </trkpt>
      <trkpt lat="59.959998" lon="17.7110544">
        <ele>38.5901</ele>
        <time>2014-05-29T14:09:35Z</time>
      </trkpt>
      <trkpt lat="59.9600057" lon="17.7111422">
        <ele>38.5901</ele>
        <time>2014-05-29T14:09:36Z</time>
      </trkpt>
      <trkpt lat="59.9600252" lon="17.7112117">
        <ele>38.5901</ele>
        <time>2014-05-29T14:09:37Z</time>
      </trkpt>
      <trkpt lat="59.9600562" lon="17.7112572">
        <ele>38.5901</ele>
        <time>2014-05-29T14:09:38Z</time>
      </trkpt>
      <trkpt lat="59.9600955" lon="17.711284">
        <ele>38.5901</ele>
        <time>2014-05-29T14:09:39Z</time>
      </trkpt>
      <trkpt lat="59.9601401" lon="17.7113009">
        <ele>39.0707</ele>
        <time>2014-05-29T14:09:40Z</time>
      </trkpt>
      <trkpt lat="59.9601855" lon="17.7113165">
        <ele>39.0707</ele>
        <time>2014-05-29T14:09:41Z</time>
      </trkpt>
      <trkpt lat="59.9602301" lon="17.7113322">
        <ele>39.0707</ele>
        <time>2014-05-29T14:09:42Z</time>
      </trkpt>
      <trkpt lat="59.9602737" lon="17.7113482">
        <ele>39.0707</ele>
        <time>2014-05-29T14:09:43Z</time>
      </trkpt>
      <trkpt lat="59.9603187" lon="17.7113679">
        <ele>39.5513</ele>
        <time>2014-05-29T14:09:44Z</time>
      </trkpt>
      <trkpt lat="59.9603603" lon="17.7113911">
        <ele>39.5513</ele>
        <time>2014-05-29T14:09:45Z</time>
      </trkpt>
      <trkpt lat="59.9604062" lon="17.711413">
        <ele>39.5513</ele>
        <time>2014-05-29T14:09:46Z</time>
      </trkpt>
      <trkpt lat="59.960455" lon="17.7114326">
        <ele>39.5513</ele>
        <time>2014-05-29T14:09:47Z</time>
      </trkpt>
      <trkpt lat="59.9605035" lon="17.7114556">
        <ele>39.5513</ele>
        <time>2014-05-29T14:09:48Z</time>
      </trkpt>
      <trkpt lat="59.9605503" lon="17.7114786">
        <ele>39.0707</ele>
        <time>2014-05-29T14:09:49Z</time>
      </trkpt>
      <trkpt lat="59.960603" lon="17.7114974">
        <ele>39.0707</ele>
        <time>2014-05-29T14:09:50Z</time>
      </trkpt>
      <trkpt lat="59.9606566" lon="17.7115142">
        <ele>39.0707</ele>
        <time>2014-05-29T14:09:51Z</time>
      </trkpt>
      <trkpt lat="59.9607126" lon="17.7115382">
        <ele>39.0707</ele>
        <time>2014-05-29T14:09:52Z</time>
      </trkpt>
      <trkpt lat="59.9607689" lon="17.7115681">
        <ele>39.0707</ele>
        <time>2014-05-29T14:09:53Z</time>
      </trkpt>
      <trkpt lat="59.9608332" lon="17.7116119">
        <ele>39.5513</ele>
        <time>2014-05-29T14:09:54Z</time>
      </trkpt>
      <trkpt lat="59.9608907" lon="17.7116677">
        <ele>39.5513</ele>
        <time>2014-05-29T14:09:55Z</time>
      </trkpt>
      <trkpt lat="59.9609414" lon="17.711709">
        <ele>39.5513</ele>
        <time>2014-05-29T14:09:56Z</time>
      </trkpt>
      <trkpt lat="59.9609884" lon="17.7117542">
        <ele>40.0321</ele>
        <time>2014-05-29T14:09:57Z</time>
      </trkpt>
      <trkpt lat="59.9610348" lon="17.7117988">
        <ele>40.0321</ele>
        <time>2014-05-29T14:09:58Z</time>
      </trkpt>
      <trkpt lat="59.9610757" lon="17.7118537">
        <ele>40.5128</ele>
        <time>2014-05-29T14:09:59Z</time>
      </trkpt>
      <trkpt lat="59.9611217" lon="17.7119154">
        <ele>40.9934</ele>
        <time>2014-05-29T14:10:00Z</time>
      </trkpt>
      <trkpt lat="59.9611626" lon="17.7119793">
        <ele>40.9934</ele>
        <time>2014-05-29T14:10:01Z</time>
      </trkpt>
      <trkpt lat="59.9612054" lon="17.7120468">
        <ele>41.474</ele>
        <time>2014-05-29T14:10:02Z</time>
      </trkpt>
      <trkpt lat="59.9612476" lon="17.7121102">
        <ele>42.4354</ele>
        <time>2014-05-29T14:10:03Z</time>
      </trkpt>
      <trkpt lat="59.9612845" lon="17.7121744">
        <ele>43.3966</ele>
        <time>2014-05-29T14:10:04Z</time>
      </trkpt>
      <trkpt lat="59.9613135" lon="17.7122254">
        <ele>43.3966</ele>
        <time>2014-05-29T14:10:05Z</time>
      </trkpt>
      <trkpt lat="59.9613503" lon="17.7122692">
        <ele>42.916</ele>
        <time>2014-05-29T14:10:06Z</time>
      </trkpt>
      <trkpt lat="59.9613997" lon="17.712312">
        <ele>44.8386</ele>
        <time>2014-05-29T14:10:07Z</time>
      </trkpt>
      <trkpt lat="59.9614363" lon="17.7123544">
        <ele>45.3192</ele>
        <time>2014-05-29T14:10:08Z</time>
      </trkpt>
      <trkpt lat="59.9614699" lon="17.7123987">
        <ele>45.7999</ele>
        <time>2014-05-29T14:10:09Z</time>
      </trkpt>
      <trkpt lat="59.9615076" lon="17.7124426">
        <ele>46.7612</ele>
        <time>2014-05-29T14:10:10Z</time>
      </trkpt>
      <trkpt lat="59.9615303" lon="17.7124866">
        <ele>46.2806</ele>
        <time>2014-05-29T14:10:11Z</time>
      </trkpt>
      <trkpt lat="59.9615561" lon="17.7125341">
        <ele>46.2806</ele>
        <time>2014-05-29T14:10:12Z</time>
      </trkpt>
      <trkpt lat="59.9615787" lon="17.7125804">
        <ele>46.2806</ele>
        <time>2014-05-29T14:10:13Z</time>
      </trkpt>
      <trkpt lat="59.9615971" lon="17.7126179">
        <ele>45.3192</ele>
        <time>2014-05-29T14:10:14Z</time>
      </trkpt>
      <trkpt lat="59.9616229" lon="17.7126436">
        <ele>44.8386</ele>
        <time>2014-05-29T14:10:15Z</time>
      </trkpt>
      <trkpt lat="59.9616592" lon="17.7126706">
        <ele>46.2806</ele>
        <time>2014-05-29T14:10:16Z</time>
      </trkpt>
      <trkpt lat="59.9616932" lon="17.7127017">
        <ele>47.7225</ele>
        <time>2014-05-29T14:10:17Z</time>
      </trkpt>
      <trkpt lat="59.9617153" lon="17.7127369">
        <ele>47.7225</ele>
        <time>2014-05-29T14:10:18Z</time>
      </trkpt>
      <trkpt lat="59.9617441" lon="17.712771">
        <ele>49.1646</ele>
        <time>2014-05-29T14:10:19Z</time>
      </trkpt>
      <trkpt lat="59.9617785" lon="17.7128069">
        <ele>51.0872</ele>
        <time>2014-05-29T14:10:20Z</time>
      </trkpt>
      <trkpt lat="59.9618039" lon="17.7128463">
        <ele>52.5292</ele>
        <time>2014-05-29T14:10:21Z</time>
      </trkpt>
      <trkpt lat="59.9618412" lon="17.7128804">
        <ele>54.4518</ele>
        <time>2014-05-29T14:10:22Z</time>
      </trkpt>
      <trkpt lat="59.9618765" lon="17.712918">
        <ele>55.8938</ele>
        <time>2014-05-29T14:10:23Z</time>
      </trkpt>
      <trkpt lat="59.961926" lon="17.7129585">
        <ele>58.2971</ele>
        <time>2014-05-29T14:10:24Z</time>
      </trkpt>
      <trkpt lat="59.9619705" lon="17.712999">
        <ele>60.7003</ele>
        <time>2014-05-29T14:10:25Z</time>
      </trkpt>
      <trkpt lat="59.961998" lon="17.7130371">
        <ele>60.7003</ele>
        <time>2014-05-29T14:10:26Z</time>
      </trkpt>
      <trkpt lat="59.9620294" lon="17.7130737">
        <ele>61.181</ele>
        <time>2014-05-29T14:10:27Z</time>
      </trkpt>
      <trkpt lat="59.9620531" lon="17.713114">
        <ele>60.7003</ele>
        <time>2014-05-29T14:10:28Z</time>
      </trkpt>
      <trkpt lat="59.9620785" lon="17.713154">
        <ele>59.7391</ele>
        <time>2014-05-29T14:10:29Z</time>
      </trkpt>
      <trkpt lat="59.9621116" lon="17.7131947">
        <ele>60.2197</ele>
        <time>2014-05-29T14:10:30Z</time>
      </trkpt>
      <trkpt lat="59.9621369" lon="17.7132317">
        <ele>60.2197</ele>
        <time>2014-05-29T14:10:31Z</time>
      </trkpt>
      <trkpt lat="59.9621639" lon="17.7132666">
        <ele>59.7391</ele>
        <time>2014-05-29T14:10:32Z</time>
      </trkpt>
      <trkpt lat="59.9621863" lon="17.7133049">
        <ele>59.2584</ele>
        <time>2014-05-29T14:10:33Z</time>
      </trkpt>
      <trkpt lat="59.9622102" lon="17.713345">
        <ele>59.2584</ele>
        <time>2014-05-29T14:10:34Z</time>
      </trkpt>
      <trkpt lat="59.9622303" lon="17.7133813">
        <ele>58.2971</ele>
        <time>2014-05-29T14:10:35Z</time>
      </trkpt>
      <trkpt lat="59.9622468" lon="17.7134139">
        <ele>57.8165</ele>
        <time>2014-05-29T14:10:36Z</time>
      </trkpt>
      <trkpt lat="59.9622717" lon="17.7134441">
        <ele>57.8165</ele>
        <time>2014-05-29T14:10:37Z</time>
      </trkpt>
      <trkpt lat="59.9622966" lon="17.7134709">
        <ele>56.8551</ele>
        <time>2014-05-29T14:10:38Z</time>
      </trkpt>
      <trkpt lat="59.9623239" lon="17.7135002">
        <ele>57.3358</ele>
        <time>2014-05-29T14:10:39Z</time>
      </trkpt>
      <trkpt lat="59.9623459" lon="17.7135362">
        <ele>56.8551</ele>
        <time>2014-05-29T14:10:40Z</time>
      </trkpt>
      <trkpt lat="59.962371" lon="17.7135657">
        <ele>56.8551</ele>
        <time>2014-05-29T14:10:41Z</time>
      </trkpt>
      <trkpt lat="59.9623789" lon="17.7135754">
        <ele>54.9324</ele>
        <time>2014-05-29T14:10:42Z</time>
      </trkpt>
      <trkpt lat="59.9623875" lon="17.7135696">
        <ele>53.4905</ele>
        <time>2014-05-29T14:10:43Z</time>
      </trkpt>
      <trkpt lat="59.9624012" lon="17.7135508">
        <ele>53.0098</ele>
        <time>2014-05-29T14:10:44Z</time>
      </trkpt>
      <trkpt lat="59.9624167" lon="17.7135269">
        <ele>52.0486</ele>
        <time>2014-05-29T14:10:45Z</time>
      </trkpt>
      <trkpt lat="59.9624372" lon="17.7134922">
        <ele>51.0872</ele>
        <time>2014-05-29T14:10:46Z</time>
      </trkpt>
      <trkpt lat="59.9624637" lon="17.7134599">
        <ele>50.6066</ele>
        <time>2014-05-29T14:10:47Z</time>
      </trkpt>
      <trkpt lat="59.9624919" lon="17.7134337">
        <ele>49.6453</ele>
        <time>2014-05-29T14:10:48Z</time>
      </trkpt>
      <trkpt lat="59.9625251" lon="17.7134008">
        <ele>49.1646</ele>
        <time>2014-05-29T14:10:49Z</time>
      </trkpt>
      <trkpt lat="59.9625633" lon="17.713359">
        <ele>48.684</ele>
        <time>2014-05-29T14:10:50Z</time>
      </trkpt>
      <trkpt lat="59.9626046" lon="17.7133086">
        <ele>47.7225</ele>
        <time>2014-05-29T14:10:51Z</time>
      </trkpt>
      <trkpt lat="59.9626478" lon="17.7132466">
        <ele>47.2418</ele>
        <time>2014-05-29T14:10:52Z</time>
      </trkpt>
      <trkpt lat="59.9626944" lon="17.7131766">
        <ele>46.7612</ele>
        <time>2014-05-29T14:10:53Z</time>
      </trkpt>
      <trkpt lat="59.9627403" lon="17.7131037">
        <ele>45.7999</ele>
        <time>2014-05-29T14:10:54Z</time>
      </trkpt>
      <trkpt lat="59.9627905" lon="17.7130341">
        <ele>44.8386</ele>
        <time>2014-05-29T14:10:55Z</time>
      </trkpt>
      <trkpt lat="59.9628425" lon="17.712968">
        <ele>43.8773</ele>
        <time>2014-05-29T14:10:56Z</time>
      </trkpt>
      <trkpt lat="59.9628964" lon="17.7128932">
        <ele>42.916</ele>
        <time>2014-05-29T14:10:57Z</time>
      </trkpt>
      <trkpt lat="59.9629539" lon="17.7128239">
        <ele>41.9547</ele>
        <time>2014-05-29T14:10:58Z</time>
      </trkpt>
      <trkpt lat="59.963014" lon="17.7127482">
        <ele>40.9934</ele>
        <time>2014-05-29T14:10:59Z</time>
      </trkpt>
      <trkpt lat="59.9630732" lon="17.7126758">
        <ele>40.5128</ele>
        <time>2014-05-29T14:11:00Z</time>
      </trkpt>
      <trkpt lat="59.9631357" lon="17.7126082">
        <ele>40.0321</ele>
        <time>2014-05-29T14:11:01Z</time>
      </trkpt>
      <trkpt lat="59.9631968" lon="17.7125544">
        <ele>39.0707</ele>
        <time>2014-05-29T14:11:02Z</time>
      </trkpt>
      <trkpt lat="59.9632648" lon="17.7125267">
        <ele>38.1094</ele>
        <time>2014-05-29T14:11:03Z</time>
      </trkpt>
      <trkpt lat="59.9633362" lon="17.7125223">
        <ele>37.6287</ele>
        <time>2014-05-29T14:11:04Z</time>
      </trkpt>
      <trkpt lat="59.9633984" lon="17.7125587">
        <ele>36.6675</ele>
        <time>2014-05-29T14:11:05Z</time>
      </trkpt>
      <trkpt lat="59.9634511" lon="17.7126172">
        <ele>35.7061</ele>
        <time>2014-05-29T14:11:06Z</time>
      </trkpt>
      <trkpt lat="59.9635026" lon="17.7126747">
        <ele>35.2255</ele>
        <time>2014-05-29T14:11:07Z</time>
      </trkpt>
      <trkpt lat="59.9635491" lon="17.7127228">
        <ele>34.2642</ele>
        <time>2014-05-29T14:11:08Z</time>
      </trkpt>
      <trkpt lat="59.9635951" lon="17.7127517">
        <ele>34.2642</ele>
        <time>2014-05-29T14:11:09Z</time>
      </trkpt>
      <trkpt lat="59.9636393" lon="17.7127311">
        <ele>33.3029</ele>
        <time>2014-05-29T14:11:10Z</time>
      </trkpt>
      <trkpt lat="59.9636611" lon="17.7125909">
        <ele>33.3029</ele>
        <time>2014-05-29T14:11:11Z</time>
      </trkpt>
      <trkpt lat="59.9636569" lon="17.7124996">
        <ele>32.3416</ele>
        <time>2014-05-29T14:11:12Z</time>
      </trkpt>
      <trkpt lat="59.9636403" lon="17.7123941">
        <ele>32.3416</ele>
        <time>2014-05-29T14:11:13Z</time>
      </trkpt>
      <trkpt lat="59.9636153" lon="17.7122867">
        <ele>32.3416</ele>
        <time>2014-05-29T14:11:14Z</time>
      </trkpt>
      <trkpt lat="59.9635958" lon="17.7121705">
        <ele>31.8607</ele>
        <time>2014-05-29T14:11:15Z</time>
      </trkpt>
      <trkpt lat="59.9635852" lon="17.7120433">
        <ele>31.3801</ele>
        <time>2014-05-29T14:11:16Z</time>
      </trkpt>
      <trkpt lat="59.9635864" lon="17.711905">
        <ele>30.8995</ele>
        <time>2014-05-29T14:11:17Z</time>
      </trkpt>
      <trkpt lat="59.9635952" lon="17.7117688">
        <ele>30.8995</ele>
        <time>2014-05-29T14:11:18Z</time>
      </trkpt>
      <trkpt lat="59.9636055" lon="17.7116328">
        <ele>30.4188</ele>
        <time>2014-05-29T14:11:19Z</time>
      </trkpt>
      <trkpt lat="59.9636079" lon="17.7114981">
        <ele>29.9381</ele>
        <time>2014-05-29T14:11:20Z</time>
      </trkpt>
      <trkpt lat="59.9635972" lon="17.7113636">
        <ele>30.4188</ele>
        <time>2014-05-29T14:11:21Z</time>
      </trkpt>
      <trkpt lat="59.9635729" lon="17.7112456">
        <ele>29.9381</ele>
        <time>2014-05-29T14:11:22Z</time>
      </trkpt>
      <trkpt lat="59.9635242" lon="17.7111729">
        <ele>30.8995</ele>
        <time>2014-05-29T14:11:23Z</time>
      </trkpt>
      <trkpt lat="59.9634797" lon="17.7111166">
        <ele>31.3801</ele>
        <time>2014-05-29T14:11:24Z</time>
      </trkpt>
      <trkpt lat="59.9634415" lon="17.7110618">
        <ele>31.8607</ele>
        <time>2014-05-29T14:11:25Z</time>
      </trkpt>
      <trkpt lat="59.9634106" lon="17.710998">
        <ele>32.3416</ele>
        <time>2014-05-29T14:11:26Z</time>
      </trkpt>
      <trkpt lat="59.9633886" lon="17.7109254">
        <ele>32.8223</ele>
        <time>2014-05-29T14:11:27Z</time>
      </trkpt>
      <trkpt lat="59.963377" lon="17.7108406">
        <ele>32.8223</ele>
        <time>2014-05-29T14:11:28Z</time>
      </trkpt>
      <trkpt lat="59.9633735" lon="17.7107579">
        <ele>33.3029</ele>
        <time>2014-05-29T14:11:29Z</time>
      </trkpt>
      <trkpt lat="59.9633801" lon="17.710682">
        <ele>33.3029</ele>
        <time>2014-05-29T14:11:30Z</time>
      </trkpt>
      <trkpt lat="59.9633957" lon="17.7106079">
        <ele>33.7834</ele>
        <time>2014-05-29T14:11:31Z</time>
      </trkpt>
      <trkpt lat="59.9634196" lon="17.7105408">
        <ele>33.7834</ele>
        <time>2014-05-29T14:11:32Z</time>
      </trkpt>
      <trkpt lat="59.9634498" lon="17.7104837">
        <ele>33.7834</ele>
        <time>2014-05-29T14:11:33Z</time>
      </trkpt>
      <trkpt lat="59.9634842" lon="17.7104307">
        <ele>33.7834</ele>
        <time>2014-05-29T14:11:34Z</time>
      </trkpt>
      <trkpt lat="59.9635211" lon="17.7103805">
        <ele>33.7834</ele>
        <time>2014-05-29T14:11:35Z</time>
      </trkpt>
      <trkpt lat="59.9635584" lon="17.7103297">
        <ele>33.7834</ele>
        <time>2014-05-29T14:11:36Z</time>
      </trkpt>
      <trkpt lat="59.9635978" lon="17.7102701">
        <ele>33.7834</ele>
        <time>2014-05-29T14:11:37Z</time>
      </trkpt>
      <trkpt lat="59.9636378" lon="17.7102074">
        <ele>33.7834</ele>
        <time>2014-05-29T14:11:38Z</time>
      </trkpt>
      <trkpt lat="59.9636823" lon="17.7101638">
        <ele>33.7834</ele>
        <time>2014-05-29T14:11:39Z</time>
      </trkpt>
      <trkpt lat="59.9637303" lon="17.7101637">
        <ele>33.7834</ele>
        <time>2014-05-29T14:11:40Z</time>
      </trkpt>
      <trkpt lat="59.9637713" lon="17.7102048">
        <ele>33.3029</ele>
        <time>2014-05-29T14:11:41Z</time>
      </trkpt>
      <trkpt lat="59.9638056" lon="17.7102687">
        <ele>33.3029</ele>
        <time>2014-05-29T14:11:42Z</time>
      </trkpt>
      <trkpt lat="59.9638359" lon="17.7103469">
        <ele>33.3029</ele>
        <time>2014-05-29T14:11:43Z</time>
      </trkpt>
      <trkpt lat="59.963865" lon="17.7104352">
        <ele>33.3029</ele>
        <time>2014-05-29T14:11:44Z</time>
      </trkpt>
      <trkpt lat="59.9638975" lon="17.7105272">
        <ele>33.3029</ele>
        <time>2014-05-29T14:11:45Z</time>
      </trkpt>
      <trkpt lat="59.9639315" lon="17.7106208">
        <ele>33.3029</ele>
        <time>2014-05-29T14:11:46Z</time>
      </trkpt>
      <trkpt lat="59.9639675" lon="17.7107119">
        <ele>33.3029</ele>
        <time>2014-05-29T14:11:47Z</time>
      </trkpt>
      <trkpt lat="59.9640033" lon="17.7107975">
        <ele>33.3029</ele>
        <time>2014-05-29T14:11:48Z</time>
      </trkpt>
      <trkpt lat="59.9640389" lon="17.7108784">
        <ele>33.3029</ele>
        <time>2014-05-29T14:11:49Z</time>
      </trkpt>
      <trkpt lat="59.9640763" lon="17.7109507">
        <ele>33.3029</ele>
        <time>2014-05-29T14:11:50Z</time>
      </trkpt>
      <trkpt lat="59.9641142" lon="17.7110134">
        <ele>33.3029</ele>
        <time>2014-05-29T14:11:51Z</time>
      </trkpt>
      <trkpt lat="59.9641529" lon="17.711068">
        <ele>33.7834</ele>
        <time>2014-05-29T14:11:52Z</time>
      </trkpt>
      <trkpt lat="59.9641929" lon="17.7111138">
        <ele>33.7834</ele>
        <time>2014-05-29T14:11:53Z</time>
      </trkpt>
      <trkpt lat="59.9642332" lon="17.7111555">
        <ele>34.2642</ele>
        <time>2014-05-29T14:11:54Z</time>
      </trkpt>
      <trkpt lat="59.9642748" lon="17.7111995">
        <ele>34.2642</ele>
        <time>2014-05-29T14:11:55Z</time>
      </trkpt>
      <trkpt lat="59.9643181" lon="17.7112458">
        <ele>34.2642</ele>
        <time>2014-05-29T14:11:56Z</time>
      </trkpt>
      <trkpt lat="59.9643637" lon="17.7112909">
        <ele>34.2642</ele>
        <time>2014-05-29T14:11:57Z</time>
      </trkpt>
      <trkpt lat="59.9644117" lon="17.711335">
        <ele>34.2642</ele>
        <time>2014-05-29T14:11:58Z</time>
      </trkpt>
      <trkpt lat="59.9644629" lon="17.7113779">
        <ele>34.2642</ele>
        <time>2014-05-29T14:11:59Z</time>
      </trkpt>
      <trkpt lat="59.9645166" lon="17.711421">
        <ele>34.2642</ele>
        <time>2014-05-29T14:12:00Z</time>
      </trkpt>
      <trkpt lat="59.9645715" lon="17.7114672">
        <ele>33.7834</ele>
        <time>2014-05-29T14:12:01Z</time>
      </trkpt>
      <trkpt lat="59.9646277" lon="17.7115144">
        <ele>33.7834</ele>
        <time>2014-05-29T14:12:02Z</time>
      </trkpt>
      <trkpt lat="59.9646826" lon="17.7115582">
        <ele>33.7834</ele>
        <time>2014-05-29T14:12:03Z</time>
      </trkpt>
      <trkpt lat="59.9647373" lon="17.7115962">
        <ele>33.7834</ele>
        <time>2014-05-29T14:12:04Z</time>
      </trkpt>
      <trkpt lat="59.9647898" lon="17.711632">
        <ele>33.7834</ele>
        <time>2014-05-29T14:12:05Z</time>
      </trkpt>
      <trkpt lat="59.9648408" lon="17.711668">
        <ele>33.7834</ele>
        <time>2014-05-29T14:12:06Z</time>
      </trkpt>
      <trkpt lat="59.9648902" lon="17.7117028">
        <ele>33.7834</ele>
        <time>2014-05-29T14:12:07Z</time>
      </trkpt>
      <trkpt lat="59.9649394" lon="17.7117361">
        <ele>33.7834</ele>
        <time>2014-05-29T14:12:08Z</time>
      </trkpt>
      <trkpt lat="59.9649861" lon="17.7117735">
        <ele>33.7834</ele>
        <time>2014-05-29T14:12:09Z</time>
      </trkpt>
      <trkpt lat="59.9650311" lon="17.7118132">
        <ele>33.7834</ele>
        <time>2014-05-29T14:12:10Z</time>
      </trkpt>
      <trkpt lat="59.9650748" lon="17.7118532">
        <ele>33.3029</ele>
        <time>2014-05-29T14:12:11Z</time>
      </trkpt>
      <trkpt lat="59.9651167" lon="17.7118961">
        <ele>33.3029</ele>
        <time>2014-05-29T14:12:12Z</time>
      </trkpt>
      <trkpt lat="59.9651573" lon="17.7119402">
        <ele>33.3029</ele>
        <time>2014-05-29T14:12:13Z</time>
      </trkpt>
      <trkpt lat="59.9651958" lon="17.7119869">
        <ele>33.3029</ele>
        <time>2014-05-29T14:12:14Z</time>
      </trkpt>
      <trkpt lat="59.9652362" lon="17.7120339">
        <ele>33.3029</ele>
        <time>2014-05-29T14:12:15Z</time>
      </trkpt>
      <trkpt lat="59.9652806" lon="17.7120801">
        <ele>33.3029</ele>
        <time>2014-05-29T14:12:16Z</time>
      </trkpt>
      <trkpt lat="59.9653311" lon="17.712124">
        <ele>33.3029</ele>
        <time>2014-05-29T14:12:17Z</time>
      </trkpt>
      <trkpt lat="59.9653845" lon="17.7121656">
        <ele>33.3029</ele>
        <time>2014-05-29T14:12:18Z</time>
      </trkpt>
      <trkpt lat="59.9654378" lon="17.7122047">
        <ele>33.3029</ele>
        <time>2014-05-29T14:12:19Z</time>
      </trkpt>
      <trkpt lat="59.965488" lon="17.7122506">
        <ele>33.3029</ele>
        <time>2014-05-29T14:12:20Z</time>
      </trkpt>
      <trkpt lat="59.9655347" lon="17.7123038">
        <ele>33.3029</ele>
        <time>2014-05-29T14:12:21Z</time>
      </trkpt>
      <trkpt lat="59.9655793" lon="17.7123563">
        <ele>33.3029</ele>
        <time>2014-05-29T14:12:22Z</time>
      </trkpt>
      <trkpt lat="59.9656238" lon="17.7124024">
        <ele>33.3029</ele>
        <time>2014-05-29T14:12:23Z</time>
      </trkpt>
      <trkpt lat="59.9656691" lon="17.7124391">
        <ele>32.8223</ele>
        <time>2014-05-29T14:12:24Z</time>
      </trkpt>
      <trkpt lat="59.9657152" lon="17.71247">
        <ele>32.8223</ele>
        <time>2014-05-29T14:12:25Z</time>
      </trkpt>
      <trkpt lat="59.9657615" lon="17.7125007">
        <ele>32.8223</ele>
        <time>2014-05-29T14:12:26Z</time>
      </trkpt>
      <trkpt lat="59.965808" lon="17.7125271">
        <ele>32.8223</ele>
        <time>2014-05-29T14:12:27Z</time>
      </trkpt>
      <trkpt lat="59.9658499" lon="17.7125453">
        <ele>32.8223</ele>
        <time>2014-05-29T14:12:28Z</time>
      </trkpt>
      <trkpt lat="59.9658742" lon="17.7125551">
        <ele>33.3029</ele>
        <time>2014-05-29T14:12:29Z</time>
      </trkpt>
      <trkpt lat="59.9658801" lon="17.7125608">
        <ele>33.3029</ele>
        <time>2014-05-29T14:12:30Z</time>
      </trkpt>
      <trkpt lat="59.96588" lon="17.7125654">
        <ele>33.3029</ele>
        <time>2014-05-29T14:12:31Z</time>
      </trkpt>
      <trkpt lat="59.9658801" lon="17.7125652">
        <ele>33.3029</ele>
        <time>2014-05-29T14:12:32Z</time>
      </trkpt>
      <trkpt lat="59.9659328" lon="17.7125828">
        <ele>31.3801</ele>
        <time>2014-05-29T14:12:45Z</time>
      </trkpt>
      <trkpt lat="59.9659486" lon="17.7126027">
        <ele>31.3801</ele>
        <time>2014-05-29T14:12:46Z</time>
      </trkpt>
      <trkpt lat="59.9659677" lon="17.7126248">
        <ele>31.3801</ele>
        <time>2014-05-29T14:12:47Z</time>
      </trkpt>
      <trkpt lat="59.9659916" lon="17.7126377">
        <ele>30.8995</ele>
        <time>2014-05-29T14:12:48Z</time>
      </trkpt>
      <trkpt lat="59.9660189" lon="17.7126431">
        <ele>30.8995</ele>
        <time>2014-05-29T14:12:49Z</time>
      </trkpt>
      <trkpt lat="59.9660493" lon="17.712641">
        <ele>30.8995</ele>
        <time>2014-05-29T14:12:50Z</time>
      </trkpt>
      <trkpt lat="59.9660799" lon="17.7126204">
        <ele>30.8995</ele>
        <time>2014-05-29T14:12:51Z</time>
      </trkpt>
      <trkpt lat="59.9661115" lon="17.7125836">
        <ele>31.3801</ele>
        <time>2014-05-29T14:12:52Z</time>
      </trkpt>
      <trkpt lat="59.9661432" lon="17.712542">
        <ele>31.3801</ele>
        <time>2014-05-29T14:12:53Z</time>
      </trkpt>
      <trkpt lat="59.966174" lon="17.7124999">
        <ele>31.3801</ele>
        <time>2014-05-29T14:12:54Z</time>
      </trkpt>
      <trkpt lat="59.9662056" lon="17.7124593">
        <ele>31.3801</ele>
        <time>2014-05-29T14:12:55Z</time>
      </trkpt>
      <trkpt lat="59.966236" lon="17.7124182">
        <ele>31.3801</ele>
        <time>2014-05-29T14:12:56Z</time>
      </trkpt>
      <trkpt lat="59.9662654" lon="17.7123767">
        <ele>31.3801</ele>
        <time>2014-05-29T14:12:57Z</time>
      </trkpt>
      <trkpt lat="59.9662952" lon="17.7123368">
        <ele>31.3801</ele>
        <time>2014-05-29T14:12:58Z</time>
      </trkpt>
      <trkpt lat="59.9663247" lon="17.7122971">
        <ele>31.3801</ele>
        <time>2014-05-29T14:12:59Z</time>
      </trkpt>
      <trkpt lat="59.9663537" lon="17.7122562">
        <ele>31.3801</ele>
        <time>2014-05-29T14:13:00Z</time>
      </trkpt>
      <trkpt lat="59.9663814" lon="17.712214">
        <ele>31.3801</ele>
        <time>2014-05-29T14:13:01Z</time>
      </trkpt>
      <trkpt lat="59.966408" lon="17.712171">
        <ele>31.3801</ele>
        <time>2014-05-29T14:13:02Z</time>
      </trkpt>
      <trkpt lat="59.9664348" lon="17.7121288">
        <ele>31.3801</ele>
        <time>2014-05-29T14:13:03Z</time>
      </trkpt>
      <trkpt lat="59.9664609" lon="17.7120878">
        <ele>31.3801</ele>
        <time>2014-05-29T14:13:04Z</time>
      </trkpt>
      <trkpt lat="59.9664857" lon="17.712047">
        <ele>31.3801</ele>
        <time>2014-05-29T14:13:05Z</time>
      </trkpt>
      <trkpt lat="59.9665085" lon="17.7120065">
        <ele>31.3801</ele>
        <time>2014-05-29T14:13:06Z</time>
      </trkpt>
      <trkpt lat="59.9665313" lon="17.7119625">
        <ele>31.3801</ele>
        <time>2014-05-29T14:13:07Z</time>
      </trkpt>
      <trkpt lat="59.966554" lon="17.7119152">
        <ele>31.3801</ele>
        <time>2014-05-29T14:13:08Z</time>
      </trkpt>
      <trkpt lat="59.9665757" lon="17.7118646">
        <ele>31.8607</ele>
        <time>2014-05-29T14:13:09Z</time>
      </trkpt>
      <trkpt lat="59.9665976" lon="17.7118179">
        <ele>31.8607</ele>
        <time>2014-05-29T14:13:10Z</time>
      </trkpt>
      <trkpt lat="59.9666244" lon="17.7117843">
        <ele>31.8607</ele>
        <time>2014-05-29T14:13:11Z</time>
      </trkpt>
      <trkpt lat="59.9666545" lon="17.7117735">
        <ele>31.8607</ele>
        <time>2014-05-29T14:13:12Z</time>
      </trkpt>
      <trkpt lat="59.9666815" lon="17.7117848">
        <ele>31.8607</ele>
        <time>2014-05-29T14:13:13Z</time>
      </trkpt>
      <trkpt lat="59.9667042" lon="17.7118106">
        <ele>32.3416</ele>
        <time>2014-05-29T14:13:14Z</time>
      </trkpt>
      <trkpt lat="59.9667239" lon="17.7118412">
        <ele>32.3416</ele>
        <time>2014-05-29T14:13:15Z</time>
      </trkpt>
      <trkpt lat="59.9667422" lon="17.7118743">
        <ele>32.3416</ele>
        <time>2014-05-29T14:13:16Z</time>
      </trkpt>
      <trkpt lat="59.9667592" lon="17.7119142">
        <ele>32.3416</ele>
        <time>2014-05-29T14:13:17Z</time>
      </trkpt>
      <trkpt lat="59.9667764" lon="17.7119586">
        <ele>32.3416</ele>
        <time>2014-05-29T14:13:18Z</time>
      </trkpt>
      <trkpt lat="59.9667919" lon="17.712008">
        <ele>32.3416</ele>
        <time>2014-05-29T14:13:19Z</time>
      </trkpt>
      <trkpt lat="59.9668088" lon="17.7120594">
        <ele>32.3416</ele>
        <time>2014-05-29T14:13:20Z</time>
      </trkpt>
      <trkpt lat="59.9668286" lon="17.7121122">
        <ele>32.3416</ele>
        <time>2014-05-29T14:13:21Z</time>
      </trkpt>
      <trkpt lat="59.9668487" lon="17.7121679">
        <ele>32.3416</ele>
        <time>2014-05-29T14:13:22Z</time>
      </trkpt>
      <trkpt lat="59.9668683" lon="17.7122262">
        <ele>32.8223</ele>
        <time>2014-05-29T14:13:23Z</time>
      </trkpt>
      <trkpt lat="59.9668866" lon="17.712284">
        <ele>32.8223</ele>
        <time>2014-05-29T14:13:24Z</time>
      </trkpt>
      <trkpt lat="59.9669043" lon="17.7123397">
        <ele>32.8223</ele>
        <time>2014-05-29T14:13:25Z</time>
      </trkpt>
      <trkpt lat="59.9669218" lon="17.7123971">
        <ele>32.8223</ele>
        <time>2014-05-29T14:13:26Z</time>
      </trkpt>
      <trkpt lat="59.9669377" lon="17.7124599">
        <ele>32.8223</ele>
        <time>2014-05-29T14:13:27Z</time>
      </trkpt>
      <trkpt lat="59.9669536" lon="17.7125274">
        <ele>33.3029</ele>
        <time>2014-05-29T14:13:28Z</time>
      </trkpt>
      <trkpt lat="59.9669705" lon="17.7125965">
        <ele>33.3029</ele>
        <time>2014-05-29T14:13:29Z</time>
      </trkpt>
      <trkpt lat="59.9669861" lon="17.7126685">
        <ele>32.8223</ele>
        <time>2014-05-29T14:13:30Z</time>
      </trkpt>
      <trkpt lat="59.9669994" lon="17.7127416">
        <ele>32.8223</ele>
        <time>2014-05-29T14:13:31Z</time>
      </trkpt>
      <trkpt lat="59.967013" lon="17.7128123">
        <ele>32.8223</ele>
        <time>2014-05-29T14:13:32Z</time>
      </trkpt>
      <trkpt lat="59.967028" lon="17.7128812">
        <ele>32.8223</ele>
        <time>2014-05-29T14:13:33Z</time>
      </trkpt>
      <trkpt lat="59.9670426" lon="17.7129492">
        <ele>32.8223</ele>
        <time>2014-05-29T14:13:34Z</time>
      </trkpt>
      <trkpt lat="59.9670579" lon="17.7130171">
        <ele>32.8223</ele>
        <time>2014-05-29T14:13:35Z</time>
      </trkpt>
      <trkpt lat="59.9670716" lon="17.7130855">
        <ele>32.8223</ele>
        <time>2014-05-29T14:13:36Z</time>
      </trkpt>
      <trkpt lat="59.9670861" lon="17.7131542">
        <ele>32.8223</ele>
        <time>2014-05-29T14:13:37Z</time>
      </trkpt>
      <trkpt lat="59.9671022" lon="17.7132234">
        <ele>32.8223</ele>
        <time>2014-05-29T14:13:38Z</time>
      </trkpt>
      <trkpt lat="59.9671166" lon="17.7132951">
        <ele>32.8223</ele>
        <time>2014-05-29T14:13:39Z</time>
      </trkpt>
      <trkpt lat="59.9671294" lon="17.7133678">
        <ele>32.3416</ele>
        <time>2014-05-29T14:13:40Z</time>
      </trkpt>
      <trkpt lat="59.9671444" lon="17.7134397">
        <ele>32.3416</ele>
        <time>2014-05-29T14:13:41Z</time>
      </trkpt>
      <trkpt lat="59.9671612" lon="17.7135123">
        <ele>32.3416</ele>
        <time>2014-05-29T14:13:42Z</time>
      </trkpt>
      <trkpt lat="59.9671737" lon="17.7135891">
        <ele>31.8607</ele>
        <time>2014-05-29T14:13:43Z</time>
      </trkpt>
      <trkpt lat="59.9671827" lon="17.7136697">
        <ele>31.8607</ele>
        <time>2014-05-29T14:13:44Z</time>
      </trkpt>
      <trkpt lat="59.9671917" lon="17.7137523">
        <ele>31.3801</ele>
        <time>2014-05-29T14:13:45Z</time>
      </trkpt>
      <trkpt lat="59.967202" lon="17.7138366">
        <ele>30.8995</ele>
        <time>2014-05-29T14:13:46Z</time>
      </trkpt>
      <trkpt lat="59.967214" lon="17.7139219">
        <ele>30.8995</ele>
        <time>2014-05-29T14:13:47Z</time>
      </trkpt>
      <trkpt lat="59.9672285" lon="17.7140068">
        <ele>30.4188</ele>
        <time>2014-05-29T14:13:48Z</time>
      </trkpt>
      <trkpt lat="59.9672409" lon="17.7140921">
        <ele>30.4188</ele>
        <time>2014-05-29T14:13:49Z</time>
      </trkpt>
      <trkpt lat="59.9672516" lon="17.7141775">
        <ele>29.9381</ele>
        <time>2014-05-29T14:13:50Z</time>
      </trkpt>
      <trkpt lat="59.9672617" lon="17.7142625">
        <ele>29.9381</ele>
        <time>2014-05-29T14:13:51Z</time>
      </trkpt>
      <trkpt lat="59.9672726" lon="17.7143484">
        <ele>29.4575</ele>
        <time>2014-05-29T14:13:52Z</time>
      </trkpt>
      <trkpt lat="59.9672859" lon="17.7144353">
        <ele>28.9769</ele>
        <time>2014-05-29T14:13:53Z</time>
      </trkpt>
      <trkpt lat="59.967301" lon="17.7145245">
        <ele>28.9769</ele>
        <time>2014-05-29T14:13:54Z</time>
      </trkpt>
      <trkpt lat="59.9673176" lon="17.7146147">
        <ele>28.9769</ele>
        <time>2014-05-29T14:13:55Z</time>
      </trkpt>
      <trkpt lat="59.9673341" lon="17.714707">
        <ele>28.4962</ele>
        <time>2014-05-29T14:13:56Z</time>
      </trkpt>
      <trkpt lat="59.9673504" lon="17.7148016">
        <ele>28.4962</ele>
        <time>2014-05-29T14:13:57Z</time>
      </trkpt>
      <trkpt lat="59.9673631" lon="17.714901">
        <ele>28.4962</ele>
        <time>2014-05-29T14:13:58Z</time>
      </trkpt>
      <trkpt lat="59.9673785" lon="17.7149976">
        <ele>28.0155</ele>
        <time>2014-05-29T14:13:59Z</time>
      </trkpt>
      <trkpt lat="59.9673901" lon="17.7150901">
        <ele>27.5349</ele>
        <time>2014-05-29T14:14:00Z</time>
      </trkpt>
      <trkpt lat="59.9674242" lon="17.7152161">
        <ele>27.5349</ele>
        <time>2014-05-29T14:14:01Z</time>
      </trkpt>
      <trkpt lat="59.9674236" lon="17.7153192">
        <ele>27.5349</ele>
        <time>2014-05-29T14:14:02Z</time>
      </trkpt>
      <trkpt lat="59.9674216" lon="17.715397">
        <ele>27.0543</ele>
        <time>2014-05-29T14:14:03Z</time>
      </trkpt>
      <trkpt lat="59.9674202" lon="17.7154697">
        <ele>27.0543</ele>
        <time>2014-05-29T14:14:04Z</time>
      </trkpt>
      <trkpt lat="59.9674076" lon="17.7155533">
        <ele>27.0543</ele>
        <time>2014-05-29T14:14:05Z</time>
      </trkpt>
      <trkpt lat="59.967417" lon="17.715608">
        <ele>26.5736</ele>
        <time>2014-05-29T14:14:06Z</time>
      </trkpt>
      <trkpt lat="59.9674309" lon="17.7156567">
        <ele>26.5736</ele>
        <time>2014-05-29T14:14:07Z</time>
      </trkpt>
      <trkpt lat="59.9674428" lon="17.7157086">
        <ele>26.5736</ele>
        <time>2014-05-29T14:14:08Z</time>
      </trkpt>
      <trkpt lat="59.9674575" lon="17.7157614">
        <ele>26.5736</ele>
        <time>2014-05-29T14:14:09Z</time>
      </trkpt>
      <trkpt lat="59.9674745" lon="17.7158131">
        <ele>26.5736</ele>
        <time>2014-05-29T14:14:10Z</time>
      </trkpt>
      <trkpt lat="59.9674896" lon="17.7158644">
        <ele>27.0543</ele>
        <time>2014-05-29T14:14:11Z</time>
      </trkpt>
      <trkpt lat="59.9675047" lon="17.7159142">
        <ele>27.0543</ele>
        <time>2014-05-29T14:14:12Z</time>
      </trkpt>
      <trkpt lat="59.9675205" lon="17.7159636">
        <ele>27.0543</ele>
        <time>2014-05-29T14:14:13Z</time>
      </trkpt>
      <trkpt lat="59.9675368" lon="17.7160129">
        <ele>27.0543</ele>
        <time>2014-05-29T14:14:14Z</time>
      </trkpt>
      <trkpt lat="59.9675545" lon="17.7160629">
        <ele>27.5349</ele>
        <time>2014-05-29T14:14:15Z</time>
      </trkpt>
      <trkpt lat="59.9675723" lon="17.7161138">
        <ele>27.5349</ele>
        <time>2014-05-29T14:14:16Z</time>
      </trkpt>
      <trkpt lat="59.9675892" lon="17.7161651">
        <ele>27.5349</ele>
        <time>2014-05-29T14:14:17Z</time>
      </trkpt>
      <trkpt lat="59.9676075" lon="17.7162162">
        <ele>28.0155</ele>
        <time>2014-05-29T14:14:18Z</time>
      </trkpt>
      <trkpt lat="59.9676259" lon="17.7162678">
        <ele>28.0155</ele>
        <time>2014-05-29T14:14:19Z</time>
      </trkpt>
      <trkpt lat="59.967645" lon="17.7163192">
        <ele>28.4962</ele>
        <time>2014-05-29T14:14:20Z</time>
      </trkpt>
      <trkpt lat="59.9676663" lon="17.7163661">
        <ele>28.4962</ele>
        <time>2014-05-29T14:14:21Z</time>
      </trkpt>
      <trkpt lat="59.9676885" lon="17.7164111">
        <ele>28.9769</ele>
        <time>2014-05-29T14:14:22Z</time>
      </trkpt>
      <trkpt lat="59.9677066" lon="17.7164567">
        <ele>28.9769</ele>
        <time>2014-05-29T14:14:23Z</time>
      </trkpt>
      <trkpt lat="59.9677227" lon="17.7165012">
        <ele>28.9769</ele>
        <time>2014-05-29T14:14:24Z</time>
      </trkpt>
      <trkpt lat="59.9677388" lon="17.7165442">
        <ele>28.9769</ele>
        <time>2014-05-29T14:14:25Z</time>
      </trkpt>
      <trkpt lat="59.967756" lon="17.7165835">
        <ele>29.4575</ele>
        <time>2014-05-29T14:14:26Z</time>
      </trkpt>
      <trkpt lat="59.9677756" lon="17.716619">
        <ele>29.4575</ele>
        <time>2014-05-29T14:14:27Z</time>
      </trkpt>
      <trkpt lat="59.9677964" lon="17.7166544">
        <ele>29.4575</ele>
        <time>2014-05-29T14:14:28Z</time>
      </trkpt>
      <trkpt lat="59.9678166" lon="17.7166924">
        <ele>29.9381</ele>
        <time>2014-05-29T14:14:29Z</time>
      </trkpt>
      <trkpt lat="59.9678363" lon="17.7167318">
        <ele>29.9381</ele>
        <time>2014-05-29T14:14:30Z</time>
      </trkpt>
      <trkpt lat="59.9678562" lon="17.7167712">
        <ele>29.9381</ele>
        <time>2014-05-29T14:14:31Z</time>
      </trkpt>
      <trkpt lat="59.9678772" lon="17.71681">
        <ele>29.9381</ele>
        <time>2014-05-29T14:14:32Z</time>
      </trkpt>
      <trkpt lat="59.9679002" lon="17.7168447">
        <ele>30.4188</ele>
        <time>2014-05-29T14:14:33Z</time>
      </trkpt>
      <trkpt lat="59.9679243" lon="17.7168752">
        <ele>30.4188</ele>
        <time>2014-05-29T14:14:34Z</time>
      </trkpt>
      <trkpt lat="59.9679486" lon="17.7169073">
        <ele>30.4188</ele>
        <time>2014-05-29T14:14:35Z</time>
      </trkpt>
      <trkpt lat="59.9679723" lon="17.7169419">
        <ele>30.8995</ele>
        <time>2014-05-29T14:14:36Z</time>
      </trkpt>
      <trkpt lat="59.9679958" lon="17.7169745">
        <ele>30.8995</ele>
        <time>2014-05-29T14:14:37Z</time>
      </trkpt>
      <trkpt lat="59.9680199" lon="17.7170053">
        <ele>30.8995</ele>
        <time>2014-05-29T14:14:38Z</time>
      </trkpt>
      <trkpt lat="59.9680434" lon="17.7170374">
        <ele>30.8995</ele>
        <time>2014-05-29T14:14:39Z</time>
      </trkpt>
      <trkpt lat="59.9680668" lon="17.7170701">
        <ele>31.3801</ele>
        <time>2014-05-29T14:14:40Z</time>
      </trkpt>
      <trkpt lat="59.9680915" lon="17.717101">
        <ele>31.3801</ele>
        <time>2014-05-29T14:14:41Z</time>
      </trkpt>
      <trkpt lat="59.968118" lon="17.7171295">
        <ele>31.3801</ele>
        <time>2014-05-29T14:14:42Z</time>
      </trkpt>
      <trkpt lat="59.9681454" lon="17.7171569">
        <ele>31.3801</ele>
        <time>2014-05-29T14:14:43Z</time>
      </trkpt>
      <trkpt lat="59.9681744" lon="17.7171828">
        <ele>31.8607</ele>
        <time>2014-05-29T14:14:44Z</time>
      </trkpt>
      <trkpt lat="59.9682046" lon="17.7172073">
        <ele>31.8607</ele>
        <time>2014-05-29T14:14:45Z</time>
      </trkpt>
      <trkpt lat="59.9682354" lon="17.7172315">
        <ele>31.8607</ele>
        <time>2014-05-29T14:14:46Z</time>
      </trkpt>
      <trkpt lat="59.9682664" lon="17.7172546">
        <ele>31.8607</ele>
        <time>2014-05-29T14:14:47Z</time>
      </trkpt>
      <trkpt lat="59.9682982" lon="17.7172747">
        <ele>31.8607</ele>
        <time>2014-05-29T14:14:48Z</time>
      </trkpt>
      <trkpt lat="59.9683307" lon="17.7172929">
        <ele>31.8607</ele>
        <time>2014-05-29T14:14:49Z</time>
      </trkpt>
      <trkpt lat="59.9683634" lon="17.7173125">
        <ele>31.8607</ele>
        <time>2014-05-29T14:14:50Z</time>
      </trkpt>
      <trkpt lat="59.9683962" lon="17.7173312">
        <ele>32.3416</ele>
        <time>2014-05-29T14:14:51Z</time>
      </trkpt>
      <trkpt lat="59.9684296" lon="17.7173486">
        <ele>32.3416</ele>
        <time>2014-05-29T14:14:52Z</time>
      </trkpt>
      <trkpt lat="59.9684635" lon="17.7173673">
        <ele>32.3416</ele>
        <time>2014-05-29T14:14:53Z</time>
      </trkpt>
      <trkpt lat="59.9684982" lon="17.7173859">
        <ele>32.3416</ele>
        <time>2014-05-29T14:14:54Z</time>
      </trkpt>
      <trkpt lat="59.9685332" lon="17.7174026">
        <ele>32.3416</ele>
        <time>2014-05-29T14:14:55Z</time>
      </trkpt>
      <trkpt lat="59.968568" lon="17.7174196">
        <ele>32.3416</ele>
        <time>2014-05-29T14:14:56Z</time>
      </trkpt>
      <trkpt lat="59.9686033" lon="17.717435">
        <ele>32.3416</ele>
        <time>2014-05-29T14:14:57Z</time>
      </trkpt>
      <trkpt lat="59.9686392" lon="17.7174509">
        <ele>32.3416</ele>
        <time>2014-05-29T14:14:58Z</time>
      </trkpt>
      <trkpt lat="59.9686753" lon="17.7174659">
        <ele>32.3416</ele>
        <time>2014-05-29T14:14:59Z</time>
      </trkpt>
      <trkpt lat="59.9687105" lon="17.7174792">
        <ele>32.8223</ele>
        <time>2014-05-29T14:15:00Z</time>
      </trkpt>
      <trkpt lat="59.9687435" lon="17.7174894">
        <ele>32.8223</ele>
        <time>2014-05-29T14:15:01Z</time>
      </trkpt>
      <trkpt lat="59.9687758" lon="17.7174939">
        <ele>33.3029</ele>
        <time>2014-05-29T14:15:02Z</time>
      </trkpt>
      <trkpt lat="59.968806" lon="17.7174983">
        <ele>33.3029</ele>
        <time>2014-05-29T14:15:03Z</time>
      </trkpt>
      <trkpt lat="59.9688342" lon="17.7175021">
        <ele>33.7834</ele>
        <time>2014-05-29T14:15:04Z</time>
      </trkpt>
      <trkpt lat="59.9688608" lon="17.7175005">
        <ele>33.7834</ele>
        <time>2014-05-29T14:15:05Z</time>
      </trkpt>
      <trkpt lat="59.9688851" lon="17.7174917">
        <ele>34.2642</ele>
        <time>2014-05-29T14:15:06Z</time>
      </trkpt>
      <trkpt lat="59.9689047" lon="17.7174786">
        <ele>34.2642</ele>
        <time>2014-05-29T14:15:07Z</time>
      </trkpt>
      <trkpt lat="59.9689189" lon="17.7174649">
        <ele>34.2642</ele>
        <time>2014-05-29T14:15:08Z</time>
      </trkpt>
      <trkpt lat="59.9689269" lon="17.717456">
        <ele>34.2642</ele>
        <time>2014-05-29T14:15:09Z</time>
      </trkpt>
      <trkpt lat="59.9689298" lon="17.7174523">
        <ele>34.2642</ele>
        <time>2014-05-29T14:15:10Z</time>
      </trkpt>
      <trkpt lat="59.9689323" lon="17.7174539">
        <ele>34.2642</ele>
        <time>2014-05-29T14:15:11Z</time>
      </trkpt>
      <trkpt lat="59.9689654" lon="17.7174067">
        <ele>34.2642</ele>
        <time>2014-05-29T14:15:36Z</time>
      </trkpt>
      <trkpt lat="59.968986" lon="17.7173985">
        <ele>34.2642</ele>
        <time>2014-05-29T14:15:37Z</time>
      </trkpt>
      <trkpt lat="59.9690082" lon="17.717402">
        <ele>33.7834</ele>
        <time>2014-05-29T14:15:38Z</time>
      </trkpt>
      <trkpt lat="59.9690363" lon="17.7174129">
        <ele>33.7834</ele>
        <time>2014-05-29T14:15:39Z</time>
      </trkpt>
      <trkpt lat="59.9690696" lon="17.7174253">
        <ele>33.7834</ele>
        <time>2014-05-29T14:15:40Z</time>
      </trkpt>
      <trkpt lat="59.9691068" lon="17.7174415">
        <ele>33.7834</ele>
        <time>2014-05-29T14:15:41Z</time>
      </trkpt>
      <trkpt lat="59.9691483" lon="17.7174627">
        <ele>33.7834</ele>
        <time>2014-05-29T14:15:42Z</time>
      </trkpt>
      <trkpt lat="59.9691902" lon="17.7174834">
        <ele>33.7834</ele>
        <time>2014-05-29T14:15:43Z</time>
      </trkpt>
      <trkpt lat="59.9692304" lon="17.7175015">
        <ele>33.7834</ele>
        <time>2014-05-29T14:15:44Z</time>
      </trkpt>
      <trkpt lat="59.9692695" lon="17.7175179">
        <ele>33.7834</ele>
        <time>2014-05-29T14:15:45Z</time>
      </trkpt>
      <trkpt lat="59.9693104" lon="17.7175377">
        <ele>33.7834</ele>
        <time>2014-05-29T14:15:46Z</time>
      </trkpt>
      <trkpt lat="59.9693529" lon="17.7175614">
        <ele>33.7834</ele>
        <time>2014-05-29T14:15:47Z</time>
      </trkpt>
      <trkpt lat="59.9693957" lon="17.717584">
        <ele>33.3029</ele>
        <time>2014-05-29T14:15:48Z</time>
      </trkpt>
      <trkpt lat="59.9694398" lon="17.717607">
        <ele>33.3029</ele>
        <time>2014-05-29T14:15:49Z</time>
      </trkpt>
      <trkpt lat="59.969486" lon="17.7176326">
        <ele>33.3029</ele>
        <time>2014-05-29T14:15:50Z</time>
      </trkpt>
      <trkpt lat="59.969534" lon="17.7176616">
        <ele>33.3029</ele>
        <time>2014-05-29T14:15:51Z</time>
      </trkpt>
      <trkpt lat="59.9695837" lon="17.7176937">
        <ele>33.3029</ele>
        <time>2014-05-29T14:15:52Z</time>
      </trkpt>
      <trkpt lat="59.9696351" lon="17.7177268">
        <ele>33.3029</ele>
        <time>2014-05-29T14:15:53Z</time>
      </trkpt>
      <trkpt lat="59.9696865" lon="17.7177637">
        <ele>33.3029</ele>
        <time>2014-05-29T14:15:54Z</time>
      </trkpt>
      <trkpt lat="59.9697378" lon="17.7178051">
        <ele>33.3029</ele>
        <time>2014-05-29T14:15:55Z</time>
      </trkpt>
      <trkpt lat="59.9697895" lon="17.7178466">
        <ele>33.3029</ele>
        <time>2014-05-29T14:15:56Z</time>
      </trkpt>
      <trkpt lat="59.9698419" lon="17.717889">
        <ele>33.3029</ele>
        <time>2014-05-29T14:15:57Z</time>
      </trkpt>
      <trkpt lat="59.9698954" lon="17.7179346">
        <ele>33.3029</ele>
        <time>2014-05-29T14:15:58Z</time>
      </trkpt>
      <trkpt lat="59.9699492" lon="17.7179818">
        <ele>33.3029</ele>
        <time>2014-05-29T14:15:59Z</time>
      </trkpt>
      <trkpt lat="59.9700035" lon="17.7180303">
        <ele>33.3029</ele>
        <time>2014-05-29T14:16:00Z</time>
      </trkpt>
      <trkpt lat="59.9700588" lon="17.7180807">
        <ele>33.3029</ele>
        <time>2014-05-29T14:16:01Z</time>
      </trkpt>
      <trkpt lat="59.9701147" lon="17.7181325">
        <ele>33.3029</ele>
        <time>2014-05-29T14:16:02Z</time>
      </trkpt>
      <trkpt lat="59.9701709" lon="17.7181856">
        <ele>33.3029</ele>
        <time>2014-05-29T14:16:03Z</time>
      </trkpt>
      <trkpt lat="59.9702279" lon="17.7182372">
        <ele>33.3029</ele>
        <time>2014-05-29T14:16:04Z</time>
      </trkpt>
      <trkpt lat="59.9702853" lon="17.7182873">
        <ele>33.7834</ele>
        <time>2014-05-29T14:16:05Z</time>
      </trkpt>
      <trkpt lat="59.9703423" lon="17.718338">
        <ele>33.7834</ele>
        <time>2014-05-29T14:16:06Z</time>
      </trkpt>
      <trkpt lat="59.9703994" lon="17.7183897">
        <ele>33.7834</ele>
        <time>2014-05-29T14:16:07Z</time>
      </trkpt>
      <trkpt lat="59.9704569" lon="17.7184417">
        <ele>33.7834</ele>
        <time>2014-05-29T14:16:08Z</time>
      </trkpt>
      <trkpt lat="59.9705143" lon="17.7184934">
        <ele>33.7834</ele>
        <time>2014-05-29T14:16:09Z</time>
      </trkpt>
      <trkpt lat="59.9705711" lon="17.7185438">
        <ele>33.7834</ele>
        <time>2014-05-29T14:16:10Z</time>
      </trkpt>
      <trkpt lat="59.9706272" lon="17.7185946">
        <ele>33.7834</ele>
        <time>2014-05-29T14:16:11Z</time>
      </trkpt>
      <trkpt lat="59.9706815" lon="17.7186451">
        <ele>33.7834</ele>
        <time>2014-05-29T14:16:12Z</time>
      </trkpt>
      <trkpt lat="59.9707339" lon="17.7186928">
        <ele>33.7834</ele>
        <time>2014-05-29T14:16:13Z</time>
      </trkpt>
      <trkpt lat="59.970785" lon="17.7187389">
        <ele>33.7834</ele>
        <time>2014-05-29T14:16:14Z</time>
      </trkpt>
      <trkpt lat="59.9708339" lon="17.718784">
        <ele>33.7834</ele>
        <time>2014-05-29T14:16:15Z</time>
      </trkpt>
      <trkpt lat="59.9708819" lon="17.7188276">
        <ele>33.7834</ele>
        <time>2014-05-29T14:16:16Z</time>
      </trkpt>
      <trkpt lat="59.9709292" lon="17.718869">
        <ele>33.7834</ele>
        <time>2014-05-29T14:16:17Z</time>
      </trkpt>
      <trkpt lat="59.9709761" lon="17.7189095">
        <ele>33.7834</ele>
        <time>2014-05-29T14:16:18Z</time>
      </trkpt>
      <trkpt lat="59.9710224" lon="17.718953">
        <ele>33.7834</ele>
        <time>2014-05-29T14:16:19Z</time>
      </trkpt>
      <trkpt lat="59.9710696" lon="17.7189981">
        <ele>33.7834</ele>
        <time>2014-05-29T14:16:20Z</time>
      </trkpt>
      <trkpt lat="59.9711177" lon="17.7190409">
        <ele>33.7834</ele>
        <time>2014-05-29T14:16:21Z</time>
      </trkpt>
      <trkpt lat="59.971165" lon="17.7190826">
        <ele>33.7834</ele>
        <time>2014-05-29T14:16:22Z</time>
      </trkpt>
      <trkpt lat="59.9712116" lon="17.7191259">
        <ele>33.7834</ele>
        <time>2014-05-29T14:16:23Z</time>
      </trkpt>
      <trkpt lat="59.9712581" lon="17.719169">
        <ele>33.7834</ele>
        <time>2014-05-29T14:16:24Z</time>
      </trkpt>
      <trkpt lat="59.9713049" lon="17.7192114">
        <ele>33.7834</ele>
        <time>2014-05-29T14:16:25Z</time>
      </trkpt>
      <trkpt lat="59.971353" lon="17.7192536">
        <ele>33.7834</ele>
        <time>2014-05-29T14:16:26Z</time>
      </trkpt>
      <trkpt lat="59.9714026" lon="17.7192976">
        <ele>33.7834</ele>
        <time>2014-05-29T14:16:27Z</time>
      </trkpt>
      <trkpt lat="59.971453" lon="17.7193441">
        <ele>33.7834</ele>
        <time>2014-05-29T14:16:28Z</time>
      </trkpt>
      <trkpt lat="59.971504" lon="17.7193914">
        <ele>33.3029</ele>
        <time>2014-05-29T14:16:29Z</time>
      </trkpt>
      <trkpt lat="59.9715555" lon="17.7194385">
        <ele>33.3029</ele>
        <time>2014-05-29T14:16:30Z</time>
      </trkpt>
      <trkpt lat="59.9716074" lon="17.719486">
        <ele>33.3029</ele>
        <time>2014-05-29T14:16:31Z</time>
      </trkpt>
      <trkpt lat="59.9716596" lon="17.7195332">
        <ele>33.3029</ele>
        <time>2014-05-29T14:16:32Z</time>
      </trkpt>
      <trkpt lat="59.9717115" lon="17.7195803">
        <ele>33.3029</ele>
        <time>2014-05-29T14:16:33Z</time>
      </trkpt>
      <trkpt lat="59.9717632" lon="17.7196269">
        <ele>33.3029</ele>
        <time>2014-05-29T14:16:34Z</time>
      </trkpt>
      <trkpt lat="59.9718155" lon="17.7196737">
        <ele>33.3029</ele>
        <time>2014-05-29T14:16:35Z</time>
      </trkpt>
      <trkpt lat="59.9718679" lon="17.7197218">
        <ele>33.3029</ele>
        <time>2014-05-29T14:16:36Z</time>
      </trkpt>
      <trkpt lat="59.9719213" lon="17.7197699">
        <ele>33.3029</ele>
        <time>2014-05-29T14:16:37Z</time>
      </trkpt>
      <trkpt lat="59.9719757" lon="17.7198175">
        <ele>33.3029</ele>
        <time>2014-05-29T14:16:38Z</time>
      </trkpt>
      <trkpt lat="59.9720311" lon="17.7198674">
        <ele>33.3029</ele>
        <time>2014-05-29T14:16:39Z</time>
      </trkpt>
      <trkpt lat="59.9720875" lon="17.7199179">
        <ele>33.3029</ele>
        <time>2014-05-29T14:16:40Z</time>
      </trkpt>
      <trkpt lat="59.9721444" lon="17.7199676">
        <ele>32.8223</ele>
        <time>2014-05-29T14:16:41Z</time>
      </trkpt>
      <trkpt lat="59.9722009" lon="17.7200174">
        <ele>32.8223</ele>
        <time>2014-05-29T14:16:42Z</time>
      </trkpt>
      <trkpt lat="59.9722557" lon="17.7200676">
        <ele>32.8223</ele>
        <time>2014-05-29T14:16:43Z</time>
      </trkpt>
      <trkpt lat="59.9723091" lon="17.7201174">
        <ele>32.8223</ele>
        <time>2014-05-29T14:16:44Z</time>
      </trkpt>
      <trkpt lat="59.9723616" lon="17.7201655">
        <ele>32.8223</ele>
        <time>2014-05-29T14:16:45Z</time>
      </trkpt>
      <trkpt lat="59.9724128" lon="17.7202128">
        <ele>32.8223</ele>
        <time>2014-05-29T14:16:46Z</time>
      </trkpt>
      <trkpt lat="59.9724628" lon="17.7202582">
        <ele>32.8223</ele>
        <time>2014-05-29T14:16:47Z</time>
      </trkpt>
      <trkpt lat="59.9725126" lon="17.7203035">
        <ele>32.8223</ele>
        <time>2014-05-29T14:16:48Z</time>
      </trkpt>
      <trkpt lat="59.9725621" lon="17.7203512">
        <ele>32.8223</ele>
        <time>2014-05-29T14:16:49Z</time>
      </trkpt>
      <trkpt lat="59.9726118" lon="17.7203977">
        <ele>32.8223</ele>
        <time>2014-05-29T14:16:50Z</time>
      </trkpt>
      <trkpt lat="59.9726614" lon="17.7204458">
        <ele>32.3416</ele>
        <time>2014-05-29T14:16:51Z</time>
      </trkpt>
      <trkpt lat="59.9727096" lon="17.7204963">
        <ele>32.3416</ele>
        <time>2014-05-29T14:16:52Z</time>
      </trkpt>
      <trkpt lat="59.9727565" lon="17.7205465">
        <ele>32.3416</ele>
        <time>2014-05-29T14:16:53Z</time>
      </trkpt>
      <trkpt lat="59.9728033" lon="17.720596">
        <ele>32.3416</ele>
        <time>2014-05-29T14:16:54Z</time>
      </trkpt>
      <trkpt lat="59.9728495" lon="17.7206459">
        <ele>32.3416</ele>
        <time>2014-05-29T14:16:55Z</time>
      </trkpt>
      <trkpt lat="59.9728948" lon="17.7206976">
        <ele>32.3416</ele>
        <time>2014-05-29T14:16:56Z</time>
      </trkpt>
      <trkpt lat="59.9729385" lon="17.7207508">
        <ele>32.3416</ele>
        <time>2014-05-29T14:16:57Z</time>
      </trkpt>
      <trkpt lat="59.9729811" lon="17.720805">
        <ele>32.3416</ele>
        <time>2014-05-29T14:16:58Z</time>
      </trkpt>
      <trkpt lat="59.9730228" lon="17.7208578">
        <ele>32.3416</ele>
        <time>2014-05-29T14:16:59Z</time>
      </trkpt>
      <trkpt lat="59.9730621" lon="17.7209114">
        <ele>31.8607</ele>
        <time>2014-05-29T14:17:00Z</time>
      </trkpt>
      <trkpt lat="59.9730992" lon="17.7209671">
        <ele>31.8607</ele>
        <time>2014-05-29T14:17:01Z</time>
      </trkpt>
      <trkpt lat="59.9731344" lon="17.7210248">
        <ele>31.8607</ele>
        <time>2014-05-29T14:17:02Z</time>
      </trkpt>
      <trkpt lat="59.9731699" lon="17.7210818">
        <ele>31.8607</ele>
        <time>2014-05-29T14:17:03Z</time>
      </trkpt>
      <trkpt lat="59.9732062" lon="17.721139">
        <ele>31.8607</ele>
        <time>2014-05-29T14:17:04Z</time>
      </trkpt>
      <trkpt lat="59.9732421" lon="17.7211991">
        <ele>31.8607</ele>
        <time>2014-05-29T14:17:05Z</time>
      </trkpt>
      <trkpt lat="59.9732777" lon="17.7212622">
        <ele>31.8607</ele>
        <time>2014-05-29T14:17:06Z</time>
      </trkpt>
      <trkpt lat="59.9733136" lon="17.7213281">
        <ele>31.8607</ele>
        <time>2014-05-29T14:17:07Z</time>
      </trkpt>
      <trkpt lat="59.9733499" lon="17.721396">
        <ele>31.8607</ele>
        <time>2014-05-29T14:17:08Z</time>
      </trkpt>
      <trkpt lat="59.9733856" lon="17.7214664">
        <ele>31.8607</ele>
        <time>2014-05-29T14:17:09Z</time>
      </trkpt>
      <trkpt lat="59.9734207" lon="17.7215394">
        <ele>31.8607</ele>
        <time>2014-05-29T14:17:10Z</time>
      </trkpt>
      <trkpt lat="59.9734556" lon="17.7216141">
        <ele>31.8607</ele>
        <time>2014-05-29T14:17:11Z</time>
      </trkpt>
      <trkpt lat="59.9734913" lon="17.7216898">
        <ele>31.8607</ele>
        <time>2014-05-29T14:17:12Z</time>
      </trkpt>
      <trkpt lat="59.9735264" lon="17.7217692">
        <ele>31.3801</ele>
        <time>2014-05-29T14:17:13Z</time>
      </trkpt>
      <trkpt lat="59.97356" lon="17.7218518">
        <ele>31.3801</ele>
        <time>2014-05-29T14:17:14Z</time>
      </trkpt>
      <trkpt lat="59.9735929" lon="17.7219346">
        <ele>31.3801</ele>
        <time>2014-05-29T14:17:15Z</time>
      </trkpt>
      <trkpt lat="59.9736263" lon="17.7220166">
        <ele>31.3801</ele>
        <time>2014-05-29T14:17:16Z</time>
      </trkpt>
      <trkpt lat="59.9736584" lon="17.7221003">
        <ele>31.3801</ele>
        <time>2014-05-29T14:17:17Z</time>
      </trkpt>
      <trkpt lat="59.9736889" lon="17.7221855">
        <ele>31.3801</ele>
        <time>2014-05-29T14:17:18Z</time>
      </trkpt>
      <trkpt lat="59.9737181" lon="17.7222697">
        <ele>31.3801</ele>
        <time>2014-05-29T14:17:19Z</time>
      </trkpt>
      <trkpt lat="59.9737454" lon="17.7223518">
        <ele>31.3801</ele>
        <time>2014-05-29T14:17:20Z</time>
      </trkpt>
      <trkpt lat="59.973771" lon="17.7224304">
        <ele>31.3801</ele>
        <time>2014-05-29T14:17:21Z</time>
      </trkpt>
      <trkpt lat="59.9737948" lon="17.7225065">
        <ele>31.3801</ele>
        <time>2014-05-29T14:17:22Z</time>
      </trkpt>
      <trkpt lat="59.9738155" lon="17.7225822">
        <ele>31.3801</ele>
        <time>2014-05-29T14:17:23Z</time>
      </trkpt>
      <trkpt lat="59.9738347" lon="17.7226556">
        <ele>31.3801</ele>
        <time>2014-05-29T14:17:24Z</time>
      </trkpt>
      <trkpt lat="59.9738539" lon="17.7227262">
        <ele>31.3801</ele>
        <time>2014-05-29T14:17:25Z</time>
      </trkpt>
      <trkpt lat="59.9738742" lon="17.7227977">
        <ele>31.3801</ele>
        <time>2014-05-29T14:17:26Z</time>
      </trkpt>
      <trkpt lat="59.9738934" lon="17.7228717">
        <ele>31.3801</ele>
        <time>2014-05-29T14:17:27Z</time>
      </trkpt>
      <trkpt lat="59.9739119" lon="17.7229477">
        <ele>31.3801</ele>
        <time>2014-05-29T14:17:28Z</time>
      </trkpt>
      <trkpt lat="59.9739301" lon="17.7230261">
        <ele>31.3801</ele>
        <time>2014-05-29T14:17:29Z</time>
      </trkpt>
      <trkpt lat="59.9739475" lon="17.7231064">
        <ele>31.3801</ele>
        <time>2014-05-29T14:17:30Z</time>
      </trkpt>
      <trkpt lat="59.9739643" lon="17.7231872">
        <ele>31.3801</ele>
        <time>2014-05-29T14:17:31Z</time>
      </trkpt>
      <trkpt lat="59.9739799" lon="17.7232681">
        <ele>31.3801</ele>
        <time>2014-05-29T14:17:32Z</time>
      </trkpt>
      <trkpt lat="59.9739946" lon="17.7233494">
        <ele>31.3801</ele>
        <time>2014-05-29T14:17:33Z</time>
      </trkpt>
      <trkpt lat="59.9740093" lon="17.723431">
        <ele>31.3801</ele>
        <time>2014-05-29T14:17:34Z</time>
      </trkpt>
      <trkpt lat="59.9740243" lon="17.7235137">
        <ele>31.3801</ele>
        <time>2014-05-29T14:17:35Z</time>
      </trkpt>
      <trkpt lat="59.9740386" lon="17.7235964">
        <ele>31.3801</ele>
        <time>2014-05-29T14:17:36Z</time>
      </trkpt>
      <trkpt lat="59.9740527" lon="17.7236767">
        <ele>31.8607</ele>
        <time>2014-05-29T14:17:37Z</time>
      </trkpt>
      <trkpt lat="59.9740659" lon="17.7237569">
        <ele>31.8607</ele>
        <time>2014-05-29T14:17:38Z</time>
      </trkpt>
      <trkpt lat="59.9740786" lon="17.7238389">
        <ele>31.8607</ele>
        <time>2014-05-29T14:17:39Z</time>
      </trkpt>
      <trkpt lat="59.9740901" lon="17.7239224">
        <ele>31.3801</ele>
        <time>2014-05-29T14:17:40Z</time>
      </trkpt>
      <trkpt lat="59.9741015" lon="17.7240076">
        <ele>31.3801</ele>
        <time>2014-05-29T14:17:41Z</time>
      </trkpt>
      <trkpt lat="59.9741139" lon="17.7240923">
        <ele>31.3801</ele>
        <time>2014-05-29T14:17:42Z</time>
      </trkpt>
      <trkpt lat="59.9741269" lon="17.7241774">
        <ele>31.3801</ele>
        <time>2014-05-29T14:17:43Z</time>
      </trkpt>
      <trkpt lat="59.9741388" lon="17.7242638">
        <ele>31.3801</ele>
        <time>2014-05-29T14:17:44Z</time>
      </trkpt>
      <trkpt lat="59.9741506" lon="17.7243513">
        <ele>31.3801</ele>
        <time>2014-05-29T14:17:45Z</time>
      </trkpt>
      <trkpt lat="59.9741635" lon="17.7244396">
        <ele>31.3801</ele>
        <time>2014-05-29T14:17:46Z</time>
      </trkpt>
      <trkpt lat="59.9741761" lon="17.7245298">
        <ele>30.8995</ele>
        <time>2014-05-29T14:17:47Z</time>
      </trkpt>
      <trkpt lat="59.9741881" lon="17.7246221">
        <ele>30.8995</ele>
        <time>2014-05-29T14:17:48Z</time>
      </trkpt>
      <trkpt lat="59.9742011" lon="17.7247151">
        <ele>30.8995</ele>
        <time>2014-05-29T14:17:49Z</time>
      </trkpt>
      <trkpt lat="59.9742142" lon="17.7248084">
        <ele>30.8995</ele>
        <time>2014-05-29T14:17:50Z</time>
      </trkpt>
      <trkpt lat="59.9742261" lon="17.7249023">
        <ele>30.8995</ele>
        <time>2014-05-29T14:17:51Z</time>
      </trkpt>
      <trkpt lat="59.9742378" lon="17.7249964">
        <ele>30.8995</ele>
        <time>2014-05-29T14:17:52Z</time>
      </trkpt>
      <trkpt lat="59.9742499" lon="17.7250905">
        <ele>30.8995</ele>
        <time>2014-05-29T14:17:53Z</time>
      </trkpt>
      <trkpt lat="59.9742617" lon="17.7251848">
        <ele>30.8995</ele>
        <time>2014-05-29T14:17:54Z</time>
      </trkpt>
      <trkpt lat="59.9742731" lon="17.7252791">
        <ele>30.8995</ele>
        <time>2014-05-29T14:17:55Z</time>
      </trkpt>
      <trkpt lat="59.9742838" lon="17.7253727">
        <ele>30.8995</ele>
        <time>2014-05-29T14:17:56Z</time>
      </trkpt>
      <trkpt lat="59.9742942" lon="17.7254659">
        <ele>30.8995</ele>
        <time>2014-05-29T14:17:57Z</time>
      </trkpt>
      <trkpt lat="59.9743039" lon="17.7255603">
        <ele>30.8995</ele>
        <time>2014-05-29T14:17:58Z</time>
      </trkpt>
      <trkpt lat="59.9743129" lon="17.7256569">
        <ele>30.8995</ele>
        <time>2014-05-29T14:17:59Z</time>
      </trkpt>
      <trkpt lat="59.9743211" lon="17.7257561">
        <ele>30.8995</ele>
        <time>2014-05-29T14:18:00Z</time>
      </trkpt>
      <trkpt lat="59.9743279" lon="17.7258576">
        <ele>30.8995</ele>
        <time>2014-05-29T14:18:01Z</time>
      </trkpt>
      <trkpt lat="59.9743346" lon="17.7259596">
        <ele>30.8995</ele>
        <time>2014-05-29T14:18:02Z</time>
      </trkpt>
      <trkpt lat="59.9743414" lon="17.726062">
        <ele>30.8995</ele>
        <time>2014-05-29T14:18:03Z</time>
      </trkpt>
      <trkpt lat="59.9743466" lon="17.7261658">
        <ele>30.8995</ele>
        <time>2014-05-29T14:18:04Z</time>
      </trkpt>
      <trkpt lat="59.9743501" lon="17.726272">
        <ele>30.8995</ele>
        <time>2014-05-29T14:18:05Z</time>
      </trkpt>
      <trkpt lat="59.9743548" lon="17.7263786">
        <ele>30.8995</ele>
        <time>2014-05-29T14:18:06Z</time>
      </trkpt>
      <trkpt lat="59.9743592" lon="17.726488">
        <ele>30.8995</ele>
        <time>2014-05-29T14:18:07Z</time>
      </trkpt>
      <trkpt lat="59.9743637" lon="17.7265968">
        <ele>30.4188</ele>
        <time>2014-05-29T14:18:08Z</time>
      </trkpt>
      <trkpt lat="59.9743683" lon="17.7267069">
        <ele>30.4188</ele>
        <time>2014-05-29T14:18:09Z</time>
      </trkpt>
      <trkpt lat="59.9743719" lon="17.7268184">
        <ele>29.9381</ele>
        <time>2014-05-29T14:18:10Z</time>
      </trkpt>
      <trkpt lat="59.9743745" lon="17.7269304">
        <ele>29.9381</ele>
        <time>2014-05-29T14:18:11Z</time>
      </trkpt>
      <trkpt lat="59.9743771" lon="17.7270422">
        <ele>29.9381</ele>
        <time>2014-05-29T14:18:12Z</time>
      </trkpt>
      <trkpt lat="59.9743801" lon="17.7271547">
        <ele>29.9381</ele>
        <time>2014-05-29T14:18:13Z</time>
      </trkpt>
      <trkpt lat="59.9743817" lon="17.7272686">
        <ele>29.4575</ele>
        <time>2014-05-29T14:18:14Z</time>
      </trkpt>
      <trkpt lat="59.9743824" lon="17.7273831">
        <ele>29.4575</ele>
        <time>2014-05-29T14:18:15Z</time>
      </trkpt>
      <trkpt lat="59.9743848" lon="17.7274986">
        <ele>29.4575</ele>
        <time>2014-05-29T14:18:16Z</time>
      </trkpt>
      <trkpt lat="59.9743875" lon="17.7276147">
        <ele>28.9769</ele>
        <time>2014-05-29T14:18:17Z</time>
      </trkpt>
      <trkpt lat="59.9743893" lon="17.7277312">
        <ele>28.9769</ele>
        <time>2014-05-29T14:18:18Z</time>
      </trkpt>
      <trkpt lat="59.97439" lon="17.727847">
        <ele>28.9769</ele>
        <time>2014-05-29T14:18:19Z</time>
      </trkpt>
      <trkpt lat="59.974391" lon="17.7279622">
        <ele>28.4962</ele>
        <time>2014-05-29T14:18:20Z</time>
      </trkpt>
      <trkpt lat="59.9743929" lon="17.7280768">
        <ele>28.4962</ele>
        <time>2014-05-29T14:18:21Z</time>
      </trkpt>
      <trkpt lat="59.974395" lon="17.7281912">
        <ele>28.4962</ele>
        <time>2014-05-29T14:18:22Z</time>
      </trkpt>
      <trkpt lat="59.9743978" lon="17.7283027">
        <ele>28.4962</ele>
        <time>2014-05-29T14:18:23Z</time>
      </trkpt>
      <trkpt lat="59.9744008" lon="17.7284124">
        <ele>28.4962</ele>
        <time>2014-05-29T14:18:24Z</time>
      </trkpt>
      <trkpt lat="59.974403" lon="17.7285222">
        <ele>28.4962</ele>
        <time>2014-05-29T14:18:25Z</time>
      </trkpt>
      <trkpt lat="59.9744057" lon="17.7286342">
        <ele>28.9769</ele>
        <time>2014-05-29T14:18:26Z</time>
      </trkpt>
      <trkpt lat="59.9744083" lon="17.7287481">
        <ele>28.9769</ele>
        <time>2014-05-29T14:18:27Z</time>
      </trkpt>
      <trkpt lat="59.974411" lon="17.7288631">
        <ele>28.9769</ele>
        <time>2014-05-29T14:18:28Z</time>
      </trkpt>
      <trkpt lat="59.9744147" lon="17.7289781">
        <ele>28.9769</ele>
        <time>2014-05-29T14:18:29Z</time>
      </trkpt>
      <trkpt lat="59.9744179" lon="17.7290941">
        <ele>28.9769</ele>
        <time>2014-05-29T14:18:30Z</time>
      </trkpt>
      <trkpt lat="59.9744202" lon="17.7292117">
        <ele>28.9769</ele>
        <time>2014-05-29T14:18:31Z</time>
      </trkpt>
      <trkpt lat="59.9744227" lon="17.7293307">
        <ele>28.9769</ele>
        <time>2014-05-29T14:18:32Z</time>
      </trkpt>
      <trkpt lat="59.9744233" lon="17.7294504">
        <ele>28.9769</ele>
        <time>2014-05-29T14:18:33Z</time>
      </trkpt>
      <trkpt lat="59.9744207" lon="17.7295711">
        <ele>28.9769</ele>
        <time>2014-05-29T14:18:34Z</time>
      </trkpt>
      <trkpt lat="59.9744155" lon="17.7296908">
        <ele>28.9769</ele>
        <time>2014-05-29T14:18:35Z</time>
      </trkpt>
      <trkpt lat="59.9744083" lon="17.7298115">
        <ele>28.9769</ele>
        <time>2014-05-29T14:18:36Z</time>
      </trkpt>
      <trkpt lat="59.9744004" lon="17.729931">
        <ele>28.9769</ele>
        <time>2014-05-29T14:18:37Z</time>
      </trkpt>
      <trkpt lat="59.9743922" lon="17.7300466">
        <ele>28.9769</ele>
        <time>2014-05-29T14:18:38Z</time>
      </trkpt>
      <trkpt lat="59.9743836" lon="17.7301581">
        <ele>28.9769</ele>
        <time>2014-05-29T14:18:39Z</time>
      </trkpt>
      <trkpt lat="59.974375" lon="17.7302663">
        <ele>28.9769</ele>
        <time>2014-05-29T14:18:40Z</time>
      </trkpt>
      <trkpt lat="59.9743647" lon="17.7303725">
        <ele>28.9769</ele>
        <time>2014-05-29T14:18:41Z</time>
      </trkpt>
      <trkpt lat="59.9743538" lon="17.7304761">
        <ele>28.9769</ele>
        <time>2014-05-29T14:18:42Z</time>
      </trkpt>
      <trkpt lat="59.9743444" lon="17.7305793">
        <ele>28.9769</ele>
        <time>2014-05-29T14:18:43Z</time>
      </trkpt>
      <trkpt lat="59.9743359" lon="17.7306838">
        <ele>28.9769</ele>
        <time>2014-05-29T14:18:44Z</time>
      </trkpt>
      <trkpt lat="59.9743279" lon="17.7307906">
        <ele>28.9769</ele>
        <time>2014-05-29T14:18:45Z</time>
      </trkpt>
      <trkpt lat="59.97432" lon="17.7308993">
        <ele>28.9769</ele>
        <time>2014-05-29T14:18:46Z</time>
      </trkpt>
      <trkpt lat="59.9743128" lon="17.7310095">
        <ele>28.9769</ele>
        <time>2014-05-29T14:18:47Z</time>
      </trkpt>
      <trkpt lat="59.9743069" lon="17.7311212">
        <ele>28.9769</ele>
        <time>2014-05-29T14:18:48Z</time>
      </trkpt>
      <trkpt lat="59.9743012" lon="17.7312357">
        <ele>28.9769</ele>
        <time>2014-05-29T14:18:49Z</time>
      </trkpt>
      <trkpt lat="59.9742953" lon="17.7313527">
        <ele>28.9769</ele>
        <time>2014-05-29T14:18:50Z</time>
      </trkpt>
      <trkpt lat="59.9742916" lon="17.7314703">
        <ele>28.9769</ele>
        <time>2014-05-29T14:18:51Z</time>
      </trkpt>
      <trkpt lat="59.9742907" lon="17.7315866">
        <ele>28.9769</ele>
        <time>2014-05-29T14:18:52Z</time>
      </trkpt>
      <trkpt lat="59.9742938" lon="17.7317001">
        <ele>28.9769</ele>
        <time>2014-05-29T14:18:53Z</time>
      </trkpt>
      <trkpt lat="59.9743014" lon="17.7318095">
        <ele>28.9769</ele>
        <time>2014-05-29T14:18:54Z</time>
      </trkpt>
      <trkpt lat="59.9743061" lon="17.7319156">
        <ele>28.9769</ele>
        <time>2014-05-29T14:18:55Z</time>
      </trkpt>
      <trkpt lat="59.9743051" lon="17.7320187">
        <ele>28.9769</ele>
        <time>2014-05-29T14:18:56Z</time>
      </trkpt>
      <trkpt lat="59.9743025" lon="17.7321171">
        <ele>28.9769</ele>
        <time>2014-05-29T14:18:57Z</time>
      </trkpt>
      <trkpt lat="59.9743005" lon="17.7322123">
        <ele>28.9769</ele>
        <time>2014-05-29T14:18:58Z</time>
      </trkpt>
      <trkpt lat="59.9743008" lon="17.7323055">
        <ele>28.9769</ele>
        <time>2014-05-29T14:18:59Z</time>
      </trkpt>
      <trkpt lat="59.9743021" lon="17.7323964">
        <ele>28.9769</ele>
        <time>2014-05-29T14:19:00Z</time>
      </trkpt>
      <trkpt lat="59.9743029" lon="17.7324865">
        <ele>28.9769</ele>
        <time>2014-05-29T14:19:01Z</time>
      </trkpt>
      <trkpt lat="59.9743035" lon="17.7325751">
        <ele>28.9769</ele>
        <time>2014-05-29T14:19:02Z</time>
      </trkpt>
      <trkpt lat="59.9743045" lon="17.7326628">
        <ele>28.9769</ele>
        <time>2014-05-29T14:19:03Z</time>
      </trkpt>
      <trkpt lat="59.9743049" lon="17.7327502">
        <ele>28.9769</ele>
        <time>2014-05-29T14:19:04Z</time>
      </trkpt>
      <trkpt lat="59.974305" lon="17.7328361">
        <ele>28.9769</ele>
        <time>2014-05-29T14:19:05Z</time>
      </trkpt>
      <trkpt lat="59.974305" lon="17.7329228">
        <ele>28.9769</ele>
        <time>2014-05-29T14:19:06Z</time>
      </trkpt>
      <trkpt lat="59.9743036" lon="17.7330139">
        <ele>28.4962</ele>
        <time>2014-05-29T14:19:07Z</time>
      </trkpt>
      <trkpt lat="59.9743009" lon="17.7331098">
        <ele>28.4962</ele>
        <time>2014-05-29T14:19:08Z</time>
      </trkpt>
      <trkpt lat="59.9742974" lon="17.7332108">
        <ele>28.4962</ele>
        <time>2014-05-29T14:19:09Z</time>
      </trkpt>
      <trkpt lat="59.9742942" lon="17.7333174">
        <ele>28.4962</ele>
        <time>2014-05-29T14:19:10Z</time>
      </trkpt>
      <trkpt lat="59.974291" lon="17.7334271">
        <ele>28.4962</ele>
        <time>2014-05-29T14:19:11Z</time>
      </trkpt>
      <trkpt lat="59.9742869" lon="17.7335392">
        <ele>28.4962</ele>
        <time>2014-05-29T14:19:12Z</time>
      </trkpt>
      <trkpt lat="59.9742813" lon="17.733654">
        <ele>28.4962</ele>
        <time>2014-05-29T14:19:13Z</time>
      </trkpt>
      <trkpt lat="59.9742748" lon="17.7337701">
        <ele>28.4962</ele>
        <time>2014-05-29T14:19:14Z</time>
      </trkpt>
      <trkpt lat="59.9742686" lon="17.7338889">
        <ele>28.4962</ele>
        <time>2014-05-29T14:19:15Z</time>
      </trkpt>
      <trkpt lat="59.9742624" lon="17.7340117">
        <ele>28.4962</ele>
        <time>2014-05-29T14:19:16Z</time>
      </trkpt>
      <trkpt lat="59.9742564" lon="17.7341336">
        <ele>28.4962</ele>
        <time>2014-05-29T14:19:17Z</time>
      </trkpt>
      <trkpt lat="59.9742526" lon="17.7342503">
        <ele>28.4962</ele>
        <time>2014-05-29T14:19:18Z</time>
      </trkpt>
      <trkpt lat="59.9742506" lon="17.7343628">
        <ele>28.4962</ele>
        <time>2014-05-29T14:19:19Z</time>
      </trkpt>
      <trkpt lat="59.974249" lon="17.7344708">
        <ele>28.4962</ele>
        <time>2014-05-29T14:19:20Z</time>
      </trkpt>
      <trkpt lat="59.9742475" lon="17.7345753">
        <ele>28.9769</ele>
        <time>2014-05-29T14:19:21Z</time>
      </trkpt>
      <trkpt lat="59.9742485" lon="17.7346767">
        <ele>28.9769</ele>
        <time>2014-05-29T14:19:22Z</time>
      </trkpt>
      <trkpt lat="59.9742512" lon="17.7347751">
        <ele>28.9769</ele>
        <time>2014-05-29T14:19:23Z</time>
      </trkpt>
      <trkpt lat="59.9742543" lon="17.7348693">
        <ele>28.9769</ele>
        <time>2014-05-29T14:19:24Z</time>
      </trkpt>
      <trkpt lat="59.9742593" lon="17.73496">
        <ele>28.9769</ele>
        <time>2014-05-29T14:19:25Z</time>
      </trkpt>
      <trkpt lat="59.9742657" lon="17.735052">
        <ele>28.9769</ele>
        <time>2014-05-29T14:19:26Z</time>
      </trkpt>
      <trkpt lat="59.9742729" lon="17.7351461">
        <ele>29.4575</ele>
        <time>2014-05-29T14:19:27Z</time>
      </trkpt>
      <trkpt lat="59.9742818" lon="17.7352416">
        <ele>29.4575</ele>
        <time>2014-05-29T14:19:28Z</time>
      </trkpt>
      <trkpt lat="59.9742925" lon="17.7353403">
        <ele>29.4575</ele>
        <time>2014-05-29T14:19:29Z</time>
      </trkpt>
      <trkpt lat="59.9743038" lon="17.7354418">
        <ele>29.4575</ele>
        <time>2014-05-29T14:19:30Z</time>
      </trkpt>
      <trkpt lat="59.974317" lon="17.7355442">
        <ele>29.4575</ele>
        <time>2014-05-29T14:19:31Z</time>
      </trkpt>
      <trkpt lat="59.9743305" lon="17.7356488">
        <ele>29.4575</ele>
        <time>2014-05-29T14:19:32Z</time>
      </trkpt>
      <trkpt lat="59.9743451" lon="17.7357553">
        <ele>29.4575</ele>
        <time>2014-05-29T14:19:33Z</time>
      </trkpt>
      <trkpt lat="59.9743615" lon="17.7358578">
        <ele>29.4575</ele>
        <time>2014-05-29T14:19:34Z</time>
      </trkpt>
      <trkpt lat="59.9743781" lon="17.7359546">
        <ele>29.4575</ele>
        <time>2014-05-29T14:19:35Z</time>
      </trkpt>
      <trkpt lat="59.9743968" lon="17.7360451">
        <ele>29.9381</ele>
        <time>2014-05-29T14:19:36Z</time>
      </trkpt>
      <trkpt lat="59.974416" lon="17.7361306">
        <ele>29.9381</ele>
        <time>2014-05-29T14:19:37Z</time>
      </trkpt>
      <trkpt lat="59.9744333" lon="17.7362125">
        <ele>29.9381</ele>
        <time>2014-05-29T14:19:38Z</time>
      </trkpt>
      <trkpt lat="59.9744501" lon="17.7362886">
        <ele>29.9381</ele>
        <time>2014-05-29T14:19:39Z</time>
      </trkpt>
      <trkpt lat="59.9744688" lon="17.7363622">
        <ele>29.9381</ele>
        <time>2014-05-29T14:19:40Z</time>
      </trkpt>
      <trkpt lat="59.9744893" lon="17.7364382">
        <ele>29.9381</ele>
        <time>2014-05-29T14:19:41Z</time>
      </trkpt>
      <trkpt lat="59.9745096" lon="17.7365185">
        <ele>29.9381</ele>
        <time>2014-05-29T14:19:42Z</time>
      </trkpt>
      <trkpt lat="59.9745314" lon="17.7366014">
        <ele>29.9381</ele>
        <time>2014-05-29T14:19:43Z</time>
      </trkpt>
      <trkpt lat="59.9745568" lon="17.7366851">
        <ele>29.9381</ele>
        <time>2014-05-29T14:19:44Z</time>
      </trkpt>
      <trkpt lat="59.9745846" lon="17.7367708">
        <ele>29.9381</ele>
        <time>2014-05-29T14:19:45Z</time>
      </trkpt>
      <trkpt lat="59.9746128" lon="17.7368578">
        <ele>29.9381</ele>
        <time>2014-05-29T14:19:46Z</time>
      </trkpt>
      <trkpt lat="59.9746416" lon="17.7369466">
        <ele>29.9381</ele>
        <time>2014-05-29T14:19:47Z</time>
      </trkpt>
      <trkpt lat="59.9746719" lon="17.737031">
        <ele>29.9381</ele>
        <time>2014-05-29T14:19:48Z</time>
      </trkpt>
      <trkpt lat="59.9747029" lon="17.7371088">
        <ele>29.9381</ele>
        <time>2014-05-29T14:19:49Z</time>
      </trkpt>
      <trkpt lat="59.9747329" lon="17.7371809">
        <ele>29.9381</ele>
        <time>2014-05-29T14:19:50Z</time>
      </trkpt>
      <trkpt lat="59.9747594" lon="17.7372496">
        <ele>29.9381</ele>
        <time>2014-05-29T14:19:51Z</time>
      </trkpt>
      <trkpt lat="59.9747842" lon="17.737317">
        <ele>30.4188</ele>
        <time>2014-05-29T14:19:52Z</time>
      </trkpt>
      <trkpt lat="59.9748112" lon="17.7373817">
        <ele>30.4188</ele>
        <time>2014-05-29T14:19:53Z</time>
      </trkpt>
      <trkpt lat="59.9748387" lon="17.7374469">
        <ele>30.4188</ele>
        <time>2014-05-29T14:19:54Z</time>
      </trkpt>
      <trkpt lat="59.9748686" lon="17.7375117">
        <ele>30.4188</ele>
        <time>2014-05-29T14:19:55Z</time>
      </trkpt>
      <trkpt lat="59.9749021" lon="17.7375713">
        <ele>30.4188</ele>
        <time>2014-05-29T14:19:56Z</time>
      </trkpt>
      <trkpt lat="59.974936" lon="17.7376315">
        <ele>30.4188</ele>
        <time>2014-05-29T14:19:57Z</time>
      </trkpt>
      <trkpt lat="59.974968" lon="17.7376977">
        <ele>30.8995</ele>
        <time>2014-05-29T14:19:58Z</time>
      </trkpt>
      <trkpt lat="59.9750002" lon="17.737764">
        <ele>30.8995</ele>
        <time>2014-05-29T14:19:59Z</time>
      </trkpt>
      <trkpt lat="59.9750359" lon="17.7378288">
        <ele>30.8995</ele>
        <time>2014-05-29T14:20:00Z</time>
      </trkpt>
      <trkpt lat="59.9750738" lon="17.737891">
        <ele>30.8995</ele>
        <time>2014-05-29T14:20:01Z</time>
      </trkpt>
      <trkpt lat="59.9751099" lon="17.7379521">
        <ele>30.8995</ele>
        <time>2014-05-29T14:20:02Z</time>
      </trkpt>
      <trkpt lat="59.9751431" lon="17.7380143">
        <ele>30.8995</ele>
        <time>2014-05-29T14:20:03Z</time>
      </trkpt>
      <trkpt lat="59.9751756" lon="17.7380721">
        <ele>30.8995</ele>
        <time>2014-05-29T14:20:04Z</time>
      </trkpt>
      <trkpt lat="59.975208" lon="17.738125">
        <ele>30.8995</ele>
        <time>2014-05-29T14:20:05Z</time>
      </trkpt>
      <trkpt lat="59.9752395" lon="17.7381782">
        <ele>30.8995</ele>
        <time>2014-05-29T14:20:06Z</time>
      </trkpt>
      <trkpt lat="59.9752692" lon="17.7382316">
        <ele>30.8995</ele>
        <time>2014-05-29T14:20:07Z</time>
      </trkpt>
      <trkpt lat="59.9752974" lon="17.7382827">
        <ele>30.8995</ele>
        <time>2014-05-29T14:20:08Z</time>
      </trkpt>
      <trkpt lat="59.9753249" lon="17.7383312">
        <ele>30.8995</ele>
        <time>2014-05-29T14:20:09Z</time>
      </trkpt>
      <trkpt lat="59.9753529" lon="17.7383808">
        <ele>30.8995</ele>
        <time>2014-05-29T14:20:10Z</time>
      </trkpt>
      <trkpt lat="59.9753836" lon="17.7384333">
        <ele>30.8995</ele>
        <time>2014-05-29T14:20:11Z</time>
      </trkpt>
      <trkpt lat="59.9754165" lon="17.738487">
        <ele>30.8995</ele>
        <time>2014-05-29T14:20:12Z</time>
      </trkpt>
      <trkpt lat="59.9754499" lon="17.7385434">
        <ele>30.8995</ele>
        <time>2014-05-29T14:20:13Z</time>
      </trkpt>
      <trkpt lat="59.9754841" lon="17.7386031">
        <ele>30.8995</ele>
        <time>2014-05-29T14:20:14Z</time>
      </trkpt>
      <trkpt lat="59.9755203" lon="17.7386638">
        <ele>30.8995</ele>
        <time>2014-05-29T14:20:15Z</time>
      </trkpt>
      <trkpt lat="59.9755585" lon="17.7387255">
        <ele>30.8995</ele>
        <time>2014-05-29T14:20:16Z</time>
      </trkpt>
      <trkpt lat="59.9755959" lon="17.7387905">
        <ele>30.8995</ele>
        <time>2014-05-29T14:20:17Z</time>
      </trkpt>
      <trkpt lat="59.9756333" lon="17.7388558">
        <ele>30.8995</ele>
        <time>2014-05-29T14:20:18Z</time>
      </trkpt>
      <trkpt lat="59.9756706" lon="17.7389162">
        <ele>31.3801</ele>
        <time>2014-05-29T14:20:19Z</time>
      </trkpt>
      <trkpt lat="59.9757057" lon="17.7389732">
        <ele>31.3801</ele>
        <time>2014-05-29T14:20:20Z</time>
      </trkpt>
      <trkpt lat="59.9757374" lon="17.7390278">
        <ele>31.3801</ele>
        <time>2014-05-29T14:20:21Z</time>
      </trkpt>
      <trkpt lat="59.9757665" lon="17.7390777">
        <ele>31.3801</ele>
        <time>2014-05-29T14:20:22Z</time>
      </trkpt>
      <trkpt lat="59.9757933" lon="17.7391186">
        <ele>31.8607</ele>
        <time>2014-05-29T14:20:23Z</time>
      </trkpt>
      <trkpt lat="59.9758197" lon="17.7391542">
        <ele>31.8607</ele>
        <time>2014-05-29T14:20:24Z</time>
      </trkpt>
      <trkpt lat="59.9758435" lon="17.739193">
        <ele>32.3416</ele>
        <time>2014-05-29T14:20:25Z</time>
      </trkpt>
      <trkpt lat="59.9758635" lon="17.7392347">
        <ele>32.3416</ele>
        <time>2014-05-29T14:20:26Z</time>
      </trkpt>
      <trkpt lat="59.975883" lon="17.7392791">
        <ele>32.3416</ele>
        <time>2014-05-29T14:20:27Z</time>
      </trkpt>
      <trkpt lat="59.9759031" lon="17.7393197">
        <ele>32.3416</ele>
        <time>2014-05-29T14:20:28Z</time>
      </trkpt>
      <trkpt lat="59.9759253" lon="17.7393553">
        <ele>32.8223</ele>
        <time>2014-05-29T14:20:29Z</time>
      </trkpt>
      <trkpt lat="59.9759485" lon="17.7393932">
        <ele>32.8223</ele>
        <time>2014-05-29T14:20:30Z</time>
      </trkpt>
      <trkpt lat="59.9759699" lon="17.7394321">
        <ele>33.3029</ele>
        <time>2014-05-29T14:20:31Z</time>
      </trkpt>
      <trkpt lat="59.9759912" lon="17.7394679">
        <ele>33.3029</ele>
        <time>2014-05-29T14:20:32Z</time>
      </trkpt>
      <trkpt lat="59.9760129" lon="17.7395015">
        <ele>33.3029</ele>
        <time>2014-05-29T14:20:33Z</time>
      </trkpt>
      <trkpt lat="59.9760364" lon="17.7395305">
        <ele>33.7834</ele>
        <time>2014-05-29T14:20:34Z</time>
      </trkpt>
      <trkpt lat="59.976062" lon="17.7395544">
        <ele>34.2642</ele>
        <time>2014-05-29T14:20:35Z</time>
      </trkpt>
      <trkpt lat="59.9760885" lon="17.7395751">
        <ele>34.2642</ele>
        <time>2014-05-29T14:20:36Z</time>
      </trkpt>
      <trkpt lat="59.9761143" lon="17.7395957">
        <ele>34.7449</ele>
        <time>2014-05-29T14:20:37Z</time>
      </trkpt>
      <trkpt lat="59.9761389" lon="17.7396206">
        <ele>35.2255</ele>
        <time>2014-05-29T14:20:38Z</time>
      </trkpt>
      <trkpt lat="59.9761622" lon="17.7396484">
        <ele>35.2255</ele>
        <time>2014-05-29T14:20:39Z</time>
      </trkpt>
      <trkpt lat="59.9761847" lon="17.7396753">
        <ele>35.7061</ele>
        <time>2014-05-29T14:20:40Z</time>
      </trkpt>
      <trkpt lat="59.9762063" lon="17.7397002">
        <ele>35.7061</ele>
        <time>2014-05-29T14:20:41Z</time>
      </trkpt>
      <trkpt lat="59.9762283" lon="17.7397255">
        <ele>36.1868</ele>
        <time>2014-05-29T14:20:42Z</time>
      </trkpt>
      <trkpt lat="59.9762512" lon="17.739747">
        <ele>36.6675</ele>
        <time>2014-05-29T14:20:43Z</time>
      </trkpt>
      <trkpt lat="59.9762752" lon="17.7397633">
        <ele>36.6675</ele>
        <time>2014-05-29T14:20:44Z</time>
      </trkpt>
      <trkpt lat="59.9763" lon="17.7397738">
        <ele>36.6675</ele>
        <time>2014-05-29T14:20:45Z</time>
      </trkpt>
      <trkpt lat="59.9763251" lon="17.7397733">
        <ele>37.1481</ele>
        <time>2014-05-29T14:20:46Z</time>
      </trkpt>
      <trkpt lat="59.9763485" lon="17.7397574">
        <ele>37.1481</ele>
        <time>2014-05-29T14:20:47Z</time>
      </trkpt>
      <trkpt lat="59.9763697" lon="17.7397262">
        <ele>37.1481</ele>
        <time>2014-05-29T14:20:48Z</time>
      </trkpt>
      <trkpt lat="59.9763906" lon="17.739687">
        <ele>37.1481</ele>
        <time>2014-05-29T14:20:49Z</time>
      </trkpt>
      <trkpt lat="59.9764132" lon="17.7396484">
        <ele>37.1481</ele>
        <time>2014-05-29T14:20:50Z</time>
      </trkpt>
      <trkpt lat="59.9764371" lon="17.7396113">
        <ele>37.1481</ele>
        <time>2014-05-29T14:20:51Z</time>
      </trkpt>
      <trkpt lat="59.9764616" lon="17.7395739">
        <ele>37.1481</ele>
        <time>2014-05-29T14:20:52Z</time>
      </trkpt>
      <trkpt lat="59.9764873" lon="17.7395378">
        <ele>37.1481</ele>
        <time>2014-05-29T14:20:53Z</time>
      </trkpt>
      <trkpt lat="59.9765158" lon="17.7395102">
        <ele>37.1481</ele>
        <time>2014-05-29T14:20:54Z</time>
      </trkpt>
      <trkpt lat="59.9765471" lon="17.7394941">
        <ele>37.1481</ele>
        <time>2014-05-29T14:20:55Z</time>
      </trkpt>
      <trkpt lat="59.9765796" lon="17.7394867">
        <ele>37.6287</ele>
        <time>2014-05-29T14:20:56Z</time>
      </trkpt>
      <trkpt lat="59.9766118" lon="17.7394858">
        <ele>37.1481</ele>
        <time>2014-05-29T14:20:57Z</time>
      </trkpt>
      <trkpt lat="59.9766432" lon="17.7394868">
        <ele>37.1481</ele>
        <time>2014-05-29T14:20:58Z</time>
      </trkpt>
      <trkpt lat="59.976674" lon="17.7394824">
        <ele>37.1481</ele>
        <time>2014-05-29T14:20:59Z</time>
      </trkpt>
      <trkpt lat="59.976704" lon="17.7394733">
        <ele>37.1481</ele>
        <time>2014-05-29T14:21:00Z</time>
      </trkpt>
      <trkpt lat="59.9767328" lon="17.7394606">
        <ele>37.6287</ele>
        <time>2014-05-29T14:21:01Z</time>
      </trkpt>
      <trkpt lat="59.9767602" lon="17.7394491">
        <ele>37.6287</ele>
        <time>2014-05-29T14:21:02Z</time>
      </trkpt>
      <trkpt lat="59.9767854" lon="17.7394393">
        <ele>38.1094</ele>
        <time>2014-05-29T14:21:03Z</time>
      </trkpt>
      <trkpt lat="59.9768105" lon="17.7394248">
        <ele>38.1094</ele>
        <time>2014-05-29T14:21:04Z</time>
      </trkpt>
      <trkpt lat="59.9768369" lon="17.7394144">
        <ele>38.1094</ele>
        <time>2014-05-29T14:21:05Z</time>
      </trkpt>
      <trkpt lat="59.9768645" lon="17.7394086">
        <ele>38.1094</ele>
        <time>2014-05-29T14:21:06Z</time>
      </trkpt>
      <trkpt lat="59.9768919" lon="17.7394021">
        <ele>38.1094</ele>
        <time>2014-05-29T14:21:07Z</time>
      </trkpt>
      <trkpt lat="59.9769198" lon="17.7393959">
        <ele>38.1094</ele>
        <time>2014-05-29T14:21:08Z</time>
      </trkpt>
      <trkpt lat="59.9769473" lon="17.7393893">
        <ele>38.1094</ele>
        <time>2014-05-29T14:21:09Z</time>
      </trkpt>
      <trkpt lat="59.9769742" lon="17.7393776">
        <ele>38.5901</ele>
        <time>2014-05-29T14:21:10Z</time>
      </trkpt>
      <trkpt lat="59.9770016" lon="17.7393599">
        <ele>38.5901</ele>
        <time>2014-05-29T14:21:11Z</time>
      </trkpt>
      <trkpt lat="59.9770277" lon="17.7393398">
        <ele>38.5901</ele>
        <time>2014-05-29T14:21:12Z</time>
      </trkpt>
      <trkpt lat="59.9770546" lon="17.7393221">
        <ele>38.5901</ele>
        <time>2014-05-29T14:21:13Z</time>
      </trkpt>
      <trkpt lat="59.9770824" lon="17.7393052">
        <ele>38.5901</ele>
        <time>2014-05-29T14:21:14Z</time>
      </trkpt>
      <trkpt lat="59.9771102" lon="17.7392902">
        <ele>38.1094</ele>
        <time>2014-05-29T14:21:15Z</time>
      </trkpt>
      <trkpt lat="59.9771385" lon="17.7392735">
        <ele>38.1094</ele>
        <time>2014-05-29T14:21:16Z</time>
      </trkpt>
      <trkpt lat="59.9771671" lon="17.7392595">
        <ele>38.1094</ele>
        <time>2014-05-29T14:21:17Z</time>
      </trkpt>
      <trkpt lat="59.977195" lon="17.7392446">
        <ele>38.1094</ele>
        <time>2014-05-29T14:21:18Z</time>
      </trkpt>
      <trkpt lat="59.9772231" lon="17.7392285">
        <ele>38.1094</ele>
        <time>2014-05-29T14:21:19Z</time>
      </trkpt>
      <trkpt lat="59.977251" lon="17.7392143">
        <ele>37.6287</ele>
        <time>2014-05-29T14:21:20Z</time>
      </trkpt>
      <trkpt lat="59.977279" lon="17.7391994">
        <ele>38.1094</ele>
        <time>2014-05-29T14:21:21Z</time>
      </trkpt>
      <trkpt lat="59.9773054" lon="17.7391852">
        <ele>38.1094</ele>
        <time>2014-05-29T14:21:22Z</time>
      </trkpt>
      <trkpt lat="59.9773327" lon="17.7391684">
        <ele>38.1094</ele>
        <time>2014-05-29T14:21:23Z</time>
      </trkpt>
      <trkpt lat="59.9773608" lon="17.7391522">
        <ele>38.1094</ele>
        <time>2014-05-29T14:21:24Z</time>
      </trkpt>
      <trkpt lat="59.9773902" lon="17.7391371">
        <ele>38.1094</ele>
        <time>2014-05-29T14:21:25Z</time>
      </trkpt>
      <trkpt lat="59.9774209" lon="17.7391233">
        <ele>38.5901</ele>
        <time>2014-05-29T14:21:26Z</time>
      </trkpt>
      <trkpt lat="59.9774499" lon="17.739113">
        <ele>38.5901</ele>
        <time>2014-05-29T14:21:27Z</time>
      </trkpt>
      <trkpt lat="59.9774779" lon="17.7391032">
        <ele>38.5901</ele>
        <time>2014-05-29T14:21:28Z</time>
      </trkpt>
      <trkpt lat="59.9775067" lon="17.7390923">
        <ele>39.0707</ele>
        <time>2014-05-29T14:21:29Z</time>
      </trkpt>
      <trkpt lat="59.9775359" lon="17.7390832">
        <ele>39.5513</ele>
        <time>2014-05-29T14:21:30Z</time>
      </trkpt>
      <trkpt lat="59.9775653" lon="17.7390766">
        <ele>39.5513</ele>
        <time>2014-05-29T14:21:31Z</time>
      </trkpt>
      <trkpt lat="59.9775955" lon="17.7390704">
        <ele>40.0321</ele>
        <time>2014-05-29T14:21:32Z</time>
      </trkpt>
      <trkpt lat="59.9776254" lon="17.739068">
        <ele>40.0321</ele>
        <time>2014-05-29T14:21:33Z</time>
      </trkpt>
      <trkpt lat="59.977655" lon="17.7390695">
        <ele>40.0321</ele>
        <time>2014-05-29T14:21:34Z</time>
      </trkpt>
      <trkpt lat="59.9776845" lon="17.7390739">
        <ele>40.5128</ele>
        <time>2014-05-29T14:21:35Z</time>
      </trkpt>
      <trkpt lat="59.9777128" lon="17.7390813">
        <ele>40.5128</ele>
        <time>2014-05-29T14:21:36Z</time>
      </trkpt>
      <trkpt lat="59.977741" lon="17.7390896">
        <ele>40.9934</ele>
        <time>2014-05-29T14:21:37Z</time>
      </trkpt>
      <trkpt lat="59.9777699" lon="17.7390977">
        <ele>40.9934</ele>
        <time>2014-05-29T14:21:38Z</time>
      </trkpt>
      <trkpt lat="59.9777981" lon="17.7391052">
        <ele>41.474</ele>
        <time>2014-05-29T14:21:39Z</time>
      </trkpt>
      <trkpt lat="59.9778269" lon="17.7391134">
        <ele>41.474</ele>
        <time>2014-05-29T14:21:40Z</time>
      </trkpt>
      <trkpt lat="59.9778553" lon="17.7391238">
        <ele>41.9547</ele>
        <time>2014-05-29T14:21:41Z</time>
      </trkpt>
      <trkpt lat="59.9778831" lon="17.7391357">
        <ele>41.9547</ele>
        <time>2014-05-29T14:21:42Z</time>
      </trkpt>
      <trkpt lat="59.9779108" lon="17.7391497">
        <ele>41.9547</ele>
        <time>2014-05-29T14:21:43Z</time>
      </trkpt>
      <trkpt lat="59.9779362" lon="17.7391658">
        <ele>42.4354</ele>
        <time>2014-05-29T14:21:44Z</time>
      </trkpt>
      <trkpt lat="59.977962" lon="17.7391828">
        <ele>42.4354</ele>
        <time>2014-05-29T14:21:45Z</time>
      </trkpt>
      <trkpt lat="59.9779889" lon="17.7392018">
        <ele>42.4354</ele>
        <time>2014-05-29T14:21:46Z</time>
      </trkpt>
      <trkpt lat="59.9780197" lon="17.7392158">
        <ele>43.3966</ele>
        <time>2014-05-29T14:21:47Z</time>
      </trkpt>
      <trkpt lat="59.9780493" lon="17.7392298">
        <ele>43.3966</ele>
        <time>2014-05-29T14:21:48Z</time>
      </trkpt>
      <trkpt lat="59.9780771" lon="17.739244">
        <ele>43.3966</ele>
        <time>2014-05-29T14:21:49Z</time>
      </trkpt>
      <trkpt lat="59.9781073" lon="17.7392541">
        <ele>43.3966</ele>
        <time>2014-05-29T14:21:50Z</time>
      </trkpt>
      <trkpt lat="59.9781378" lon="17.7392647">
        <ele>43.3966</ele>
        <time>2014-05-29T14:21:51Z</time>
      </trkpt>
      <trkpt lat="59.9781653" lon="17.7392776">
        <ele>43.3966</ele>
        <time>2014-05-29T14:21:52Z</time>
      </trkpt>
      <trkpt lat="59.9781958" lon="17.739288">
        <ele>42.916</ele>
        <time>2014-05-29T14:21:53Z</time>
      </trkpt>
      <trkpt lat="59.9782272" lon="17.739301">
        <ele>42.916</ele>
        <time>2014-05-29T14:21:54Z</time>
      </trkpt>
      <trkpt lat="59.9782576" lon="17.7393113">
        <ele>42.916</ele>
        <time>2014-05-29T14:21:55Z</time>
      </trkpt>
      <trkpt lat="59.9782889" lon="17.739321">
        <ele>42.4354</ele>
        <time>2014-05-29T14:21:56Z</time>
      </trkpt>
      <trkpt lat="59.9783227" lon="17.7393319">
        <ele>42.4354</ele>
        <time>2014-05-29T14:21:57Z</time>
      </trkpt>
      <trkpt lat="59.9783567" lon="17.739344">
        <ele>42.4354</ele>
        <time>2014-05-29T14:21:58Z</time>
      </trkpt>
      <trkpt lat="59.9783931" lon="17.739356">
        <ele>42.4354</ele>
        <time>2014-05-29T14:21:59Z</time>
      </trkpt>
      <trkpt lat="59.9784337" lon="17.7393632">
        <ele>42.4354</ele>
        <time>2014-05-29T14:22:00Z</time>
      </trkpt>
      <trkpt lat="59.9784775" lon="17.7393666">
        <ele>41.9547</ele>
        <time>2014-05-29T14:22:01Z</time>
      </trkpt>
      <trkpt lat="59.9785216" lon="17.7393709">
        <ele>41.9547</ele>
        <time>2014-05-29T14:22:02Z</time>
      </trkpt>
      <trkpt lat="59.9785653" lon="17.7393798">
        <ele>41.9547</ele>
        <time>2014-05-29T14:22:03Z</time>
      </trkpt>
      <trkpt lat="59.9786075" lon="17.7393839">
        <ele>41.474</ele>
        <time>2014-05-29T14:22:04Z</time>
      </trkpt>
      <trkpt lat="59.9786492" lon="17.7393786">
        <ele>40.9934</ele>
        <time>2014-05-29T14:22:05Z</time>
      </trkpt>
    </trkseg>
  </trk>
</gpx>